<?xml version="1.0" encoding="UTF-8" standalone="no" ?>
<gpx xmlns="http://www.topografix.com/GPX/1/1" xmlns:xsi="http://www.w3.org/2001/XMLSchema-instance" xsi:schemaLocation="http://www.topografix.com/GPX/1/1 http://www.topografix.com/GPX/1/1/gpx.xsd" version="1.1" creator="VisuGPX - https://www.visugpx.com">
  <metadata>
    <name>Pornichet 06/03/2022</name>
    <desc><![CDATA[Sortie dimanche 06 mars 2022]]></desc>
  </metadata>
  <trk>
    <name><![CDATA[Pornichet Cyclisme]]></name>
    <trkseg>
      <trkpt lat="47.25739" lon="-2.32609">
        <ele>8.4</ele>
        <time>2022-03-06T08:02:28.000Z</time>
      </trkpt>
      <trkpt lat="47.25734" lon="-2.32623">
        <ele>8.6</ele>
        <time>2022-03-06T08:02:31.000Z</time>
      </trkpt>
      <trkpt lat="47.25731" lon="-2.32625">
        <ele>0.60000002384186</ele>
        <time>2022-03-06T08:02:32.000Z</time>
      </trkpt>
      <trkpt lat="47.25713" lon="-2.32634">
        <ele>0.60000002384186</ele>
        <time>2022-03-06T08:02:37.000Z</time>
      </trkpt>
      <trkpt lat="47.25684" lon="-2.32641">
        <ele>0.60000002384186</ele>
        <time>2022-03-06T08:02:43.000Z</time>
      </trkpt>
      <trkpt lat="47.25661" lon="-2.32652">
        <ele>1.2000000476837</ele>
        <time>2022-03-06T08:02:49.000Z</time>
      </trkpt>
      <trkpt lat="47.25656" lon="-2.32654">
        <ele>1.6000000238419</ele>
        <time>2022-03-06T08:02:50.000Z</time>
      </trkpt>
      <trkpt lat="47.25652" lon="-2.32655">
        <ele>2</ele>
        <time>2022-03-06T08:02:51.000Z</time>
      </trkpt>
      <trkpt lat="47.25647" lon="-2.32656">
        <ele>2.7999999523163</ele>
        <time>2022-03-06T08:02:52.000Z</time>
      </trkpt>
      <trkpt lat="47.25614" lon="-2.32668">
        <ele>2.7999999523163</ele>
        <time>2022-03-06T08:03:00.000Z</time>
      </trkpt>
      <trkpt lat="47.25571" lon="-2.32686">
        <ele>2.7999999523163</ele>
        <time>2022-03-06T08:03:07.000Z</time>
      </trkpt>
      <trkpt lat="47.25542" lon="-2.32696">
        <ele>2.7999999523163</ele>
        <time>2022-03-06T08:03:13.000Z</time>
      </trkpt>
      <trkpt lat="47.25509" lon="-2.32702">
        <ele>2.7999999523163</ele>
        <time>2022-03-06T08:03:20.000Z</time>
      </trkpt>
      <trkpt lat="47.25501" lon="-2.32703">
        <ele>2.7999999523163</ele>
        <time>2022-03-06T08:03:22.000Z</time>
      </trkpt>
      <trkpt lat="47.25487" lon="-2.32707">
        <ele>2.7999999523163</ele>
        <time>2022-03-06T08:03:25.000Z</time>
      </trkpt>
      <trkpt lat="47.25471" lon="-2.32722">
        <ele>2.7999999523163</ele>
        <time>2022-03-06T08:03:29.000Z</time>
      </trkpt>
      <trkpt lat="47.25467" lon="-2.32727">
        <ele>2.7999999523163</ele>
        <time>2022-03-06T08:03:30.000Z</time>
      </trkpt>
      <trkpt lat="47.25456" lon="-2.32743">
        <ele>2.7999999523163</ele>
        <time>2022-03-06T08:03:33.000Z</time>
      </trkpt>
      <trkpt lat="47.25442" lon="-2.32762">
        <ele>2.7999999523163</ele>
        <time>2022-03-06T08:03:37.000Z</time>
      </trkpt>
      <trkpt lat="47.25437" lon="-2.32774">
        <ele>2.7999999523163</ele>
        <time>2022-03-06T08:03:39.000Z</time>
      </trkpt>
      <trkpt lat="47.25434" lon="-2.32785">
        <ele>2.7999999523163</ele>
        <time>2022-03-06T08:03:41.000Z</time>
      </trkpt>
      <trkpt lat="47.25426" lon="-2.32798">
        <ele>2.7999999523163</ele>
        <time>2022-03-06T08:03:44.000Z</time>
      </trkpt>
      <trkpt lat="47.25423" lon="-2.32803">
        <ele>2.7999999523163</ele>
        <time>2022-03-06T08:03:45.000Z</time>
      </trkpt>
      <trkpt lat="47.25395" lon="-2.32841">
        <ele>2.7999999523163</ele>
        <time>2022-03-06T08:03:52.000Z</time>
      </trkpt>
      <trkpt lat="47.25363" lon="-2.32873">
        <ele>2.7999999523163</ele>
        <time>2022-03-06T08:03:59.000Z</time>
      </trkpt>
      <trkpt lat="47.25355" lon="-2.32881">
        <ele>2.7999999523163</ele>
        <time>2022-03-06T08:04:01.000Z</time>
      </trkpt>
      <trkpt lat="47.25337" lon="-2.32897">
        <ele>2.7999999523163</ele>
        <time>2022-03-06T08:04:05.000Z</time>
      </trkpt>
      <trkpt lat="47.2532" lon="-2.32913">
        <ele>2.4000000953674</ele>
        <time>2022-03-06T08:04:09.000Z</time>
      </trkpt>
      <trkpt lat="47.25316" lon="-2.32918">
        <ele>2</ele>
        <time>2022-03-06T08:04:10.000Z</time>
      </trkpt>
      <trkpt lat="47.25313" lon="-2.32924">
        <ele>1.6000000238419</ele>
        <time>2022-03-06T08:04:11.000Z</time>
      </trkpt>
      <trkpt lat="47.25311" lon="-2.3293">
        <ele>1.2000000476837</ele>
        <time>2022-03-06T08:04:12.000Z</time>
      </trkpt>
      <trkpt lat="47.25309" lon="-2.32937">
        <ele>0.80000001192093</ele>
        <time>2022-03-06T08:04:13.000Z</time>
      </trkpt>
      <trkpt lat="47.25307" lon="-2.32957">
        <ele>0.80000001192093</ele>
        <time>2022-03-06T08:04:16.000Z</time>
      </trkpt>
      <trkpt lat="47.25313" lon="-2.32975">
        <ele>0.80000001192093</ele>
        <time>2022-03-06T08:04:19.000Z</time>
      </trkpt>
      <trkpt lat="47.25315" lon="-2.32982">
        <ele>0.80000001192093</ele>
        <time>2022-03-06T08:04:20.000Z</time>
      </trkpt>
      <trkpt lat="47.25336" lon="-2.33037">
        <ele>0.80000001192093</ele>
        <time>2022-03-06T08:04:29.000Z</time>
      </trkpt>
      <trkpt lat="47.25347" lon="-2.33063">
        <ele>0.80000001192093</ele>
        <time>2022-03-06T08:04:34.000Z</time>
      </trkpt>
      <trkpt lat="47.25349" lon="-2.33067">
        <ele>0.80000001192093</ele>
        <time>2022-03-06T08:04:35.000Z</time>
      </trkpt>
      <trkpt lat="47.25353" lon="-2.33072">
        <ele>0.80000001192093</ele>
        <time>2022-03-06T08:04:38.000Z</time>
      </trkpt>
      <trkpt lat="47.25354" lon="-2.33071">
        <ele>0.80000001192093</ele>
        <time>2022-03-06T08:04:43.000Z</time>
      </trkpt>
      <trkpt lat="47.25354" lon="-2.33071">
        <ele>0.80000001192093</ele>
        <time>2022-03-06T08:04:45.000Z</time>
      </trkpt>
      <trkpt lat="47.25359" lon="-2.33075">
        <ele>0.80000001192093</ele>
        <time>2022-03-06T08:12:02.000Z</time>
      </trkpt>
      <trkpt lat="47.2536" lon="-2.33076">
        <ele>0.80000001192093</ele>
        <time>2022-03-06T08:12:03.000Z</time>
      </trkpt>
      <trkpt lat="47.25367" lon="-2.33095">
        <ele>0.80000001192093</ele>
        <time>2022-03-06T08:12:09.000Z</time>
      </trkpt>
      <trkpt lat="47.25379" lon="-2.33122">
        <ele>0.80000001192093</ele>
        <time>2022-03-06T08:12:16.000Z</time>
      </trkpt>
      <trkpt lat="47.25387" lon="-2.33135">
        <ele>0.80000001192093</ele>
        <time>2022-03-06T08:12:20.000Z</time>
      </trkpt>
      <trkpt lat="47.25391" lon="-2.33135">
        <ele>0.80000001192093</ele>
        <time>2022-03-06T08:12:21.000Z</time>
      </trkpt>
      <trkpt lat="47.25399" lon="-2.33127">
        <ele>0.80000001192093</ele>
        <time>2022-03-06T08:12:24.000Z</time>
      </trkpt>
      <trkpt lat="47.25402" lon="-2.33125">
        <ele>0.80000001192093</ele>
        <time>2022-03-06T08:12:25.000Z</time>
      </trkpt>
      <trkpt lat="47.25427" lon="-2.33115">
        <ele>0.80000001192093</ele>
        <time>2022-03-06T08:12:31.000Z</time>
      </trkpt>
      <trkpt lat="47.25468" lon="-2.33099">
        <ele>0.80000001192093</ele>
        <time>2022-03-06T08:12:40.000Z</time>
      </trkpt>
      <trkpt lat="47.25488" lon="-2.33085">
        <ele>0.80000001192093</ele>
        <time>2022-03-06T08:12:45.000Z</time>
      </trkpt>
      <trkpt lat="47.25494" lon="-2.33078">
        <ele>0.80000001192093</ele>
        <time>2022-03-06T08:12:47.000Z</time>
      </trkpt>
      <trkpt lat="47.25502" lon="-2.33069">
        <ele>0.80000001192093</ele>
        <time>2022-03-06T08:12:49.000Z</time>
      </trkpt>
      <trkpt lat="47.25519" lon="-2.33049">
        <ele>0.80000001192093</ele>
        <time>2022-03-06T08:12:54.000Z</time>
      </trkpt>
      <trkpt lat="47.2554" lon="-2.3304">
        <ele>0.80000001192093</ele>
        <time>2022-03-06T08:12:59.000Z</time>
      </trkpt>
      <trkpt lat="47.25545" lon="-2.33039">
        <ele>0.80000001192093</ele>
        <time>2022-03-06T08:13:00.000Z</time>
      </trkpt>
      <trkpt lat="47.25576" lon="-2.33033">
        <ele>0.80000001192093</ele>
        <time>2022-03-06T08:13:08.000Z</time>
      </trkpt>
      <trkpt lat="47.25603" lon="-2.33028">
        <ele>0.80000001192093</ele>
        <time>2022-03-06T08:13:15.000Z</time>
      </trkpt>
      <trkpt lat="47.25616" lon="-2.33011">
        <ele>0.80000001192093</ele>
        <time>2022-03-06T08:13:20.000Z</time>
      </trkpt>
      <trkpt lat="47.25612" lon="-2.32988">
        <ele>0.80000001192093</ele>
        <time>2022-03-06T08:13:24.000Z</time>
      </trkpt>
      <trkpt lat="47.25608" lon="-2.32958">
        <ele>1.2000000476837</ele>
        <time>2022-03-06T08:13:29.000Z</time>
      </trkpt>
      <trkpt lat="47.25607" lon="-2.32953">
        <ele>1.6000000238419</ele>
        <time>2022-03-06T08:13:30.000Z</time>
      </trkpt>
      <trkpt lat="47.25606" lon="-2.32947">
        <ele>2</ele>
        <time>2022-03-06T08:13:31.000Z</time>
      </trkpt>
      <trkpt lat="47.25605" lon="-2.32941">
        <ele>2.7999999523163</ele>
        <time>2022-03-06T08:13:32.000Z</time>
      </trkpt>
      <trkpt lat="47.25596" lon="-2.32882">
        <ele>2.7999999523163</ele>
        <time>2022-03-06T08:13:42.000Z</time>
      </trkpt>
      <trkpt lat="47.25592" lon="-2.32831">
        <ele>2.7999999523163</ele>
        <time>2022-03-06T08:13:50.000Z</time>
      </trkpt>
      <trkpt lat="47.25596" lon="-2.32807">
        <ele>2.7999999523163</ele>
        <time>2022-03-06T08:13:54.000Z</time>
      </trkpt>
      <trkpt lat="47.256" lon="-2.32765">
        <ele>2.7999999523163</ele>
        <time>2022-03-06T08:14:01.000Z</time>
      </trkpt>
      <trkpt lat="47.25601" lon="-2.32747">
        <ele>2.7999999523163</ele>
        <time>2022-03-06T08:14:04.000Z</time>
      </trkpt>
      <trkpt lat="47.25602" lon="-2.32728">
        <ele>2.7999999523163</ele>
        <time>2022-03-06T08:14:07.000Z</time>
      </trkpt>
      <trkpt lat="47.25606" lon="-2.32673">
        <ele>2.7999999523163</ele>
        <time>2022-03-06T08:14:16.000Z</time>
      </trkpt>
      <trkpt lat="47.25613" lon="-2.32662">
        <ele>2.7999999523163</ele>
        <time>2022-03-06T08:14:19.000Z</time>
      </trkpt>
      <trkpt lat="47.25628" lon="-2.32653">
        <ele>2.7999999523163</ele>
        <time>2022-03-06T08:14:23.000Z</time>
      </trkpt>
      <trkpt lat="47.2567" lon="-2.32634">
        <ele>2.7999999523163</ele>
        <time>2022-03-06T08:14:32.000Z</time>
      </trkpt>
      <trkpt lat="47.25708" lon="-2.32612">
        <ele>2.4000000953674</ele>
        <time>2022-03-06T08:14:40.000Z</time>
      </trkpt>
      <trkpt lat="47.25709" lon="-2.32606">
        <ele>2</ele>
        <time>2022-03-06T08:14:41.000Z</time>
      </trkpt>
      <trkpt lat="47.25709" lon="-2.326">
        <ele>1.6000000238419</ele>
        <time>2022-03-06T08:14:42.000Z</time>
      </trkpt>
      <trkpt lat="47.25707" lon="-2.32594">
        <ele>1.2000000476837</ele>
        <time>2022-03-06T08:14:43.000Z</time>
      </trkpt>
      <trkpt lat="47.25706" lon="-2.32588">
        <ele>0.80000001192093</ele>
        <time>2022-03-06T08:14:44.000Z</time>
      </trkpt>
      <trkpt lat="47.25696" lon="-2.32553">
        <ele>0.80000001192093</ele>
        <time>2022-03-06T08:14:49.000Z</time>
      </trkpt>
      <trkpt lat="47.25687" lon="-2.32523">
        <ele>0.40000000596046</ele>
        <time>2022-03-06T08:14:53.000Z</time>
      </trkpt>
      <trkpt lat="47.25685" lon="-2.32515">
        <ele>7.7</ele>
        <time>2022-03-06T08:14:54.000Z</time>
      </trkpt>
      <trkpt lat="47.25683" lon="-2.32507">
        <ele>-0.40000000596046</ele>
        <time>2022-03-06T08:14:55.000Z</time>
      </trkpt>
      <trkpt lat="47.25682" lon="-2.32498">
        <ele>-1</ele>
        <time>2022-03-06T08:14:56.000Z</time>
      </trkpt>
      <trkpt lat="47.25679" lon="-2.3249">
        <ele>-1.3999999761581</ele>
        <time>2022-03-06T08:14:57.000Z</time>
      </trkpt>
      <trkpt lat="47.25676" lon="-2.32482">
        <ele>-1.3999999761581</ele>
        <time>2022-03-06T08:14:58.000Z</time>
      </trkpt>
      <trkpt lat="47.25663" lon="-2.32432">
        <ele>-1.3999999761581</ele>
        <time>2022-03-06T08:15:04.000Z</time>
      </trkpt>
      <trkpt lat="47.25662" lon="-2.32426">
        <ele>-1.7999999523163</ele>
        <time>2022-03-06T08:15:05.000Z</time>
      </trkpt>
      <trkpt lat="47.25662" lon="-2.3242">
        <ele>-2.2000000476837</ele>
        <time>2022-03-06T08:15:06.000Z</time>
      </trkpt>
      <trkpt lat="47.25664" lon="-2.32416">
        <ele>-2.5999999046326</ele>
        <time>2022-03-06T08:15:07.000Z</time>
      </trkpt>
      <trkpt lat="47.25667" lon="-2.32413">
        <ele>-3.2000000476837</ele>
        <time>2022-03-06T08:15:08.000Z</time>
      </trkpt>
      <trkpt lat="47.25671" lon="-2.32413">
        <ele>-3.5999999046326</ele>
        <time>2022-03-06T08:15:09.000Z</time>
      </trkpt>
      <trkpt lat="47.25678" lon="-2.32416">
        <ele>-3.5999999046326</ele>
        <time>2022-03-06T08:15:11.000Z</time>
      </trkpt>
      <trkpt lat="47.25683" lon="-2.32418">
        <ele>-3.5999999046326</ele>
        <time>2022-03-06T08:15:12.000Z</time>
      </trkpt>
      <trkpt lat="47.25704" lon="-2.3242">
        <ele>-3.5999999046326</ele>
        <time>2022-03-06T08:15:16.000Z</time>
      </trkpt>
      <trkpt lat="47.25751" lon="-2.32422">
        <ele>-3.5999999046326</ele>
        <time>2022-03-06T08:15:25.000Z</time>
      </trkpt>
      <trkpt lat="47.25761" lon="-2.3242">
        <ele>-3.5999999046326</ele>
        <time>2022-03-06T08:15:27.000Z</time>
      </trkpt>
      <trkpt lat="47.25771" lon="-2.32412">
        <ele>-3.5999999046326</ele>
        <time>2022-03-06T08:15:30.000Z</time>
      </trkpt>
      <trkpt lat="47.25776" lon="-2.32413">
        <ele>-3.5999999046326</ele>
        <time>2022-03-06T08:15:31.000Z</time>
      </trkpt>
      <trkpt lat="47.25784" lon="-2.32419">
        <ele>-3.5999999046326</ele>
        <time>2022-03-06T08:15:33.000Z</time>
      </trkpt>
      <trkpt lat="47.25794" lon="-2.32439">
        <ele>-3.5999999046326</ele>
        <time>2022-03-06T08:15:36.000Z</time>
      </trkpt>
      <trkpt lat="47.25804" lon="-2.32459">
        <ele>-3.5999999046326</ele>
        <time>2022-03-06T08:15:39.000Z</time>
      </trkpt>
      <trkpt lat="47.2581" lon="-2.32473">
        <ele>-3.5999999046326</ele>
        <time>2022-03-06T08:15:41.000Z</time>
      </trkpt>
      <trkpt lat="47.25821" lon="-2.32488">
        <ele>-3.5999999046326</ele>
        <time>2022-03-06T08:15:44.000Z</time>
      </trkpt>
      <trkpt lat="47.25829" lon="-2.32499">
        <ele>-3.5999999046326</ele>
        <time>2022-03-06T08:15:46.000Z</time>
      </trkpt>
      <trkpt lat="47.25858" lon="-2.32541">
        <ele>-3.5999999046326</ele>
        <time>2022-03-06T08:15:54.000Z</time>
      </trkpt>
      <trkpt lat="47.25865" lon="-2.32549">
        <ele>-3.5999999046326</ele>
        <time>2022-03-06T08:15:56.000Z</time>
      </trkpt>
      <trkpt lat="47.25875" lon="-2.32564">
        <ele>-3.5999999046326</ele>
        <time>2022-03-06T08:15:59.000Z</time>
      </trkpt>
      <trkpt lat="47.25882" lon="-2.32574">
        <ele>-4</ele>
        <time>2022-03-06T08:16:01.000Z</time>
      </trkpt>
      <trkpt lat="47.25885" lon="-2.32579">
        <ele>-4.4000000953674</ele>
        <time>2022-03-06T08:16:02.000Z</time>
      </trkpt>
      <trkpt lat="47.25889" lon="-2.32582">
        <ele>-4.8000001907349</ele>
        <time>2022-03-06T08:16:03.000Z</time>
      </trkpt>
      <trkpt lat="47.25893" lon="-2.32585">
        <ele>-5.1999998092651</ele>
        <time>2022-03-06T08:16:04.000Z</time>
      </trkpt>
      <trkpt lat="47.25897" lon="-2.32588">
        <ele>-5.8000001907349</ele>
        <time>2022-03-06T08:16:05.000Z</time>
      </trkpt>
      <trkpt lat="47.25901" lon="-2.32592">
        <ele>-5.8000001907349</ele>
        <time>2022-03-06T08:16:06.000Z</time>
      </trkpt>
      <trkpt lat="47.25909" lon="-2.32602">
        <ele>-5.8000001907349</ele>
        <time>2022-03-06T08:16:08.000Z</time>
      </trkpt>
      <trkpt lat="47.2592" lon="-2.32618">
        <ele>-5.8000001907349</ele>
        <time>2022-03-06T08:16:11.000Z</time>
      </trkpt>
      <trkpt lat="47.2595" lon="-2.32655">
        <ele>-5.8000001907349</ele>
        <time>2022-03-06T08:16:19.000Z</time>
      </trkpt>
      <trkpt lat="47.25955" lon="-2.32658">
        <ele>-5.8000001907349</ele>
        <time>2022-03-06T08:16:20.000Z</time>
      </trkpt>
      <trkpt lat="47.2597" lon="-2.32656">
        <ele>-5.8000001907349</ele>
        <time>2022-03-06T08:16:23.000Z</time>
      </trkpt>
      <trkpt lat="47.25995" lon="-2.32657">
        <ele>-5.8000001907349</ele>
        <time>2022-03-06T08:16:28.000Z</time>
      </trkpt>
      <trkpt lat="47.26" lon="-2.32656">
        <ele>-5.8000001907349</ele>
        <time>2022-03-06T08:16:29.000Z</time>
      </trkpt>
      <trkpt lat="47.26032" lon="-2.32651">
        <ele>-5.8000001907349</ele>
        <time>2022-03-06T08:16:36.000Z</time>
      </trkpt>
      <trkpt lat="47.26046" lon="-2.32648">
        <ele>-5.8000001907349</ele>
        <time>2022-03-06T08:16:39.000Z</time>
      </trkpt>
      <trkpt lat="47.26059" lon="-2.32645">
        <ele>-5.8000001907349</ele>
        <time>2022-03-06T08:16:42.000Z</time>
      </trkpt>
      <trkpt lat="47.261" lon="-2.32639">
        <ele>-5.8000001907349</ele>
        <time>2022-03-06T08:16:51.000Z</time>
      </trkpt>
      <trkpt lat="47.26109" lon="-2.32638">
        <ele>-5.8000001907349</ele>
        <time>2022-03-06T08:16:53.000Z</time>
      </trkpt>
      <trkpt lat="47.26128" lon="-2.32639">
        <ele>-5.8000001907349</ele>
        <time>2022-03-06T08:16:57.000Z</time>
      </trkpt>
      <trkpt lat="47.26137" lon="-2.3264">
        <ele>-5.8000001907349</ele>
        <time>2022-03-06T08:16:59.000Z</time>
      </trkpt>
      <trkpt lat="47.26151" lon="-2.32645">
        <ele>-5.1999998092651</ele>
        <time>2022-03-06T08:17:02.000Z</time>
      </trkpt>
      <trkpt lat="47.26156" lon="-2.32647">
        <ele>-4.8000001907349</ele>
        <time>2022-03-06T08:17:03.000Z</time>
      </trkpt>
      <trkpt lat="47.2616" lon="-2.32648">
        <ele>-4.4000000953674</ele>
        <time>2022-03-06T08:17:04.000Z</time>
      </trkpt>
      <trkpt lat="47.26165" lon="-2.32651">
        <ele>-4</ele>
        <time>2022-03-06T08:17:05.000Z</time>
      </trkpt>
      <trkpt lat="47.26169" lon="-2.32653">
        <ele>-3.5999999046326</ele>
        <time>2022-03-06T08:17:06.000Z</time>
      </trkpt>
      <trkpt lat="47.26178" lon="-2.32659">
        <ele>-3.5999999046326</ele>
        <time>2022-03-06T08:17:08.000Z</time>
      </trkpt>
      <trkpt lat="47.26183" lon="-2.32663">
        <ele>-3.5999999046326</ele>
        <time>2022-03-06T08:17:09.000Z</time>
      </trkpt>
      <trkpt lat="47.26207" lon="-2.32685">
        <ele>-3.5999999046326</ele>
        <time>2022-03-06T08:17:15.000Z</time>
      </trkpt>
      <trkpt lat="47.26211" lon="-2.3269">
        <ele>-3.5999999046326</ele>
        <time>2022-03-06T08:17:16.000Z</time>
      </trkpt>
      <trkpt lat="47.26237" lon="-2.32728">
        <ele>-3.5999999046326</ele>
        <time>2022-03-06T08:17:23.000Z</time>
      </trkpt>
      <trkpt lat="47.26268" lon="-2.32776">
        <ele>-3.5999999046326</ele>
        <time>2022-03-06T08:17:31.000Z</time>
      </trkpt>
      <trkpt lat="47.26275" lon="-2.3279">
        <ele>-4</ele>
        <time>2022-03-06T08:17:33.000Z</time>
      </trkpt>
      <trkpt lat="47.26278" lon="-2.32797">
        <ele>-4.5999999046326</ele>
        <time>2022-03-06T08:17:34.000Z</time>
      </trkpt>
      <trkpt lat="47.26281" lon="-2.32804">
        <ele>-5</ele>
        <time>2022-03-06T08:17:35.000Z</time>
      </trkpt>
      <trkpt lat="47.26283" lon="-2.32811">
        <ele>-5.4000000953674</ele>
        <time>2022-03-06T08:17:36.000Z</time>
      </trkpt>
      <trkpt lat="47.26285" lon="-2.32819">
        <ele>-5.8000001907349</ele>
        <time>2022-03-06T08:17:37.000Z</time>
      </trkpt>
      <trkpt lat="47.26286" lon="-2.32826">
        <ele>-5.8000001907349</ele>
        <time>2022-03-06T08:17:38.000Z</time>
      </trkpt>
      <trkpt lat="47.2629" lon="-2.32849">
        <ele>-5.8000001907349</ele>
        <time>2022-03-06T08:17:41.000Z</time>
      </trkpt>
      <trkpt lat="47.26293" lon="-2.32855">
        <ele>-5.8000001907349</ele>
        <time>2022-03-06T08:17:42.000Z</time>
      </trkpt>
      <trkpt lat="47.26307" lon="-2.32863">
        <ele>-5.8000001907349</ele>
        <time>2022-03-06T08:17:45.000Z</time>
      </trkpt>
      <trkpt lat="47.26319" lon="-2.32877">
        <ele>-5.8000001907349</ele>
        <time>2022-03-06T08:17:48.000Z</time>
      </trkpt>
      <trkpt lat="47.26325" lon="-2.32898">
        <ele>-5.8000001907349</ele>
        <time>2022-03-06T08:17:51.000Z</time>
      </trkpt>
      <trkpt lat="47.26329" lon="-2.32912">
        <ele>-5.8000001907349</ele>
        <time>2022-03-06T08:17:53.000Z</time>
      </trkpt>
      <trkpt lat="47.2635" lon="-2.32967">
        <ele>-5.8000001907349</ele>
        <time>2022-03-06T08:18:01.000Z</time>
      </trkpt>
      <trkpt lat="47.26353" lon="-2.32972">
        <ele>-5.8000001907349</ele>
        <time>2022-03-06T08:18:02.000Z</time>
      </trkpt>
      <trkpt lat="47.26363" lon="-2.32988">
        <ele>-5.8000001907349</ele>
        <time>2022-03-06T08:18:05.000Z</time>
      </trkpt>
      <trkpt lat="47.26366" lon="-2.3301">
        <ele>-5.8000001907349</ele>
        <time>2022-03-06T08:18:08.000Z</time>
      </trkpt>
      <trkpt lat="47.26366" lon="-2.33017">
        <ele>-5.8000001907349</ele>
        <time>2022-03-06T08:18:09.000Z</time>
      </trkpt>
      <trkpt lat="47.2637" lon="-2.33078">
        <ele>-5.8000001907349</ele>
        <time>2022-03-06T08:18:17.000Z</time>
      </trkpt>
      <trkpt lat="47.26373" lon="-2.3313">
        <ele>-5.8000001907349</ele>
        <time>2022-03-06T08:18:24.000Z</time>
      </trkpt>
      <trkpt lat="47.26377" lon="-2.3319">
        <ele>-5.8000001907349</ele>
        <time>2022-03-06T08:18:32.000Z</time>
      </trkpt>
      <trkpt lat="47.26386" lon="-2.33259">
        <ele>-5.8000001907349</ele>
        <time>2022-03-06T08:18:42.000Z</time>
      </trkpt>
      <trkpt lat="47.264" lon="-2.33266">
        <ele>-5.8000001907349</ele>
        <time>2022-03-06T08:18:45.000Z</time>
      </trkpt>
      <trkpt lat="47.26409" lon="-2.33267">
        <ele>-5.8000001907349</ele>
        <time>2022-03-06T08:18:47.000Z</time>
      </trkpt>
      <trkpt lat="47.26432" lon="-2.33269">
        <ele>-5.8000001907349</ele>
        <time>2022-03-06T08:18:52.000Z</time>
      </trkpt>
      <trkpt lat="47.26449" lon="-2.33271">
        <ele>-5.8000001907349</ele>
        <time>2022-03-06T08:18:56.000Z</time>
      </trkpt>
      <trkpt lat="47.26461" lon="-2.33276">
        <ele>-5.8000001907349</ele>
        <time>2022-03-06T08:18:59.000Z</time>
      </trkpt>
      <trkpt lat="47.26481" lon="-2.33276">
        <ele>-5.8000001907349</ele>
        <time>2022-03-06T08:19:04.000Z</time>
      </trkpt>
      <trkpt lat="47.26489" lon="-2.33278">
        <ele>-5.8000001907349</ele>
        <time>2022-03-06T08:19:06.000Z</time>
      </trkpt>
      <trkpt lat="47.26496" lon="-2.33273">
        <ele>-5.8000001907349</ele>
        <time>2022-03-06T08:19:08.000Z</time>
      </trkpt>
      <trkpt lat="47.26497" lon="-2.33266">
        <ele>-5.8000001907349</ele>
        <time>2022-03-06T08:19:09.000Z</time>
      </trkpt>
      <trkpt lat="47.26504" lon="-2.33257">
        <ele>-5.8000001907349</ele>
        <time>2022-03-06T08:19:11.000Z</time>
      </trkpt>
      <trkpt lat="47.26512" lon="-2.33251">
        <ele>-5.8000001907349</ele>
        <time>2022-03-06T08:19:13.000Z</time>
      </trkpt>
      <trkpt lat="47.26546" lon="-2.3323">
        <ele>-5.8000001907349</ele>
        <time>2022-03-06T08:19:21.000Z</time>
      </trkpt>
      <trkpt lat="47.26579" lon="-2.33208">
        <ele>-5.8000001907349</ele>
        <time>2022-03-06T08:19:29.000Z</time>
      </trkpt>
      <trkpt lat="47.26582" lon="-2.33206">
        <ele>-5.8000001907349</ele>
        <time>2022-03-06T08:19:30.000Z</time>
      </trkpt>
      <trkpt lat="47.26594" lon="-2.33189">
        <ele>-5.8000001907349</ele>
        <time>2022-03-06T08:19:35.000Z</time>
      </trkpt>
      <trkpt lat="47.26595" lon="-2.33185">
        <ele>-5.8000001907349</ele>
        <time>2022-03-06T08:19:36.000Z</time>
      </trkpt>
      <trkpt lat="47.26605" lon="-2.33162">
        <ele>-5.8000001907349</ele>
        <time>2022-03-06T08:19:41.000Z</time>
      </trkpt>
      <trkpt lat="47.26613" lon="-2.33148">
        <ele>-5.8000001907349</ele>
        <time>2022-03-06T08:19:45.000Z</time>
      </trkpt>
      <trkpt lat="47.26617" lon="-2.33149">
        <ele>-5.8000001907349</ele>
        <time>2022-03-06T08:19:46.000Z</time>
      </trkpt>
      <trkpt lat="47.26625" lon="-2.33151">
        <ele>-5.8000001907349</ele>
        <time>2022-03-06T08:19:48.000Z</time>
      </trkpt>
      <trkpt lat="47.26644" lon="-2.33143">
        <ele>-5.8000001907349</ele>
        <time>2022-03-06T08:19:53.000Z</time>
      </trkpt>
      <trkpt lat="47.2667" lon="-2.33122">
        <ele>-5.8000001907349</ele>
        <time>2022-03-06T08:20:00.000Z</time>
      </trkpt>
      <trkpt lat="47.26673" lon="-2.33118">
        <ele>-5.8000001907349</ele>
        <time>2022-03-06T08:20:01.000Z</time>
      </trkpt>
      <trkpt lat="47.26686" lon="-2.33106">
        <ele>-5.8000001907349</ele>
        <time>2022-03-06T08:20:05.000Z</time>
      </trkpt>
      <trkpt lat="47.26693" lon="-2.33099">
        <ele>-5.8000001907349</ele>
        <time>2022-03-06T08:20:07.000Z</time>
      </trkpt>
      <trkpt lat="47.267" lon="-2.33092">
        <ele>-5.8000001907349</ele>
        <time>2022-03-06T08:20:09.000Z</time>
      </trkpt>
      <trkpt lat="47.26713" lon="-2.33077">
        <ele>-5.8000001907349</ele>
        <time>2022-03-06T08:20:13.000Z</time>
      </trkpt>
      <trkpt lat="47.26721" lon="-2.33063">
        <ele>-5.8000001907349</ele>
        <time>2022-03-06T08:20:16.000Z</time>
      </trkpt>
      <trkpt lat="47.26728" lon="-2.33048">
        <ele>-5.8000001907349</ele>
        <time>2022-03-06T08:20:19.000Z</time>
      </trkpt>
      <trkpt lat="47.2673" lon="-2.33043">
        <ele>-5.8000001907349</ele>
        <time>2022-03-06T08:20:20.000Z</time>
      </trkpt>
      <trkpt lat="47.26735" lon="-2.33017">
        <ele>-5.8000001907349</ele>
        <time>2022-03-06T08:20:25.000Z</time>
      </trkpt>
      <trkpt lat="47.26735" lon="-2.33">
        <ele>-5.8000001907349</ele>
        <time>2022-03-06T08:20:28.000Z</time>
      </trkpt>
      <trkpt lat="47.26738" lon="-2.32987">
        <ele>-5.8000001907349</ele>
        <time>2022-03-06T08:20:30.000Z</time>
      </trkpt>
      <trkpt lat="47.26752" lon="-2.32964">
        <ele>-5.8000001907349</ele>
        <time>2022-03-06T08:20:35.000Z</time>
      </trkpt>
      <trkpt lat="47.26755" lon="-2.3296">
        <ele>-5.8000001907349</ele>
        <time>2022-03-06T08:20:36.000Z</time>
      </trkpt>
      <trkpt lat="47.26778" lon="-2.32934">
        <ele>-5.8000001907349</ele>
        <time>2022-03-06T08:20:42.000Z</time>
      </trkpt>
      <trkpt lat="47.26785" lon="-2.32927">
        <ele>-5.8000001907349</ele>
        <time>2022-03-06T08:20:44.000Z</time>
      </trkpt>
      <trkpt lat="47.26794" lon="-2.32918">
        <ele>-5.8000001907349</ele>
        <time>2022-03-06T08:20:47.000Z</time>
      </trkpt>
      <trkpt lat="47.26811" lon="-2.32907">
        <ele>-5.8000001907349</ele>
        <time>2022-03-06T08:20:52.000Z</time>
      </trkpt>
      <trkpt lat="47.26818" lon="-2.32899">
        <ele>-5.8000001907349</ele>
        <time>2022-03-06T08:20:54.000Z</time>
      </trkpt>
      <trkpt lat="47.26825" lon="-2.32892">
        <ele>-5.8000001907349</ele>
        <time>2022-03-06T08:20:56.000Z</time>
      </trkpt>
      <trkpt lat="47.26828" lon="-2.32888">
        <ele>-5.8000001907349</ele>
        <time>2022-03-06T08:20:57.000Z</time>
      </trkpt>
      <trkpt lat="47.26841" lon="-2.3288">
        <ele>-5.8000001907349</ele>
        <time>2022-03-06T08:21:01.000Z</time>
      </trkpt>
      <trkpt lat="47.26847" lon="-2.32877">
        <ele>-5.8000001907349</ele>
        <time>2022-03-06T08:21:05.000Z</time>
      </trkpt>
      <trkpt lat="47.26859" lon="-2.32872">
        <ele>-5.8000001907349</ele>
        <time>2022-03-06T08:21:13.000Z</time>
      </trkpt>
      <trkpt lat="47.26861" lon="-2.32859">
        <ele>-5.8000001907349</ele>
        <time>2022-03-06T08:21:18.000Z</time>
      </trkpt>
      <trkpt lat="47.26854" lon="-2.3284">
        <ele>-5.8000001907349</ele>
        <time>2022-03-06T08:21:23.000Z</time>
      </trkpt>
      <trkpt lat="47.2685" lon="-2.32828">
        <ele>-5.1999998092651</ele>
        <time>2022-03-06T08:21:26.000Z</time>
      </trkpt>
      <trkpt lat="47.26848" lon="-2.32823">
        <ele>-4.8000001907349</ele>
        <time>2022-03-06T08:21:27.000Z</time>
      </trkpt>
      <trkpt lat="47.26848" lon="-2.3282">
        <ele>-4.1999998092651</ele>
        <time>2022-03-06T08:21:28.000Z</time>
      </trkpt>
      <trkpt lat="47.26846" lon="-2.32816">
        <ele>-3.7999999523163</ele>
        <time>2022-03-06T08:21:29.000Z</time>
      </trkpt>
      <trkpt lat="47.26844" lon="-2.32812">
        <ele>-3.4000000953674</ele>
        <time>2022-03-06T08:21:30.000Z</time>
      </trkpt>
      <trkpt lat="47.26841" lon="-2.32804">
        <ele>-2.7999999523163</ele>
        <time>2022-03-06T08:21:32.000Z</time>
      </trkpt>
      <trkpt lat="47.26841" lon="-2.32799">
        <ele>-2.4000000953674</ele>
        <time>2022-03-06T08:21:33.000Z</time>
      </trkpt>
      <trkpt lat="47.2684" lon="-2.32795">
        <ele>-2</ele>
        <time>2022-03-06T08:21:34.000Z</time>
      </trkpt>
      <trkpt lat="47.26839" lon="-2.3279">
        <ele>-1.3999999761581</ele>
        <time>2022-03-06T08:21:35.000Z</time>
      </trkpt>
      <trkpt lat="47.26838" lon="-2.32785">
        <ele>-1</ele>
        <time>2022-03-06T08:21:36.000Z</time>
      </trkpt>
      <trkpt lat="47.26836" lon="-2.32777">
        <ele>-0.60000002384186</ele>
        <time>2022-03-06T08:21:38.000Z</time>
      </trkpt>
      <trkpt lat="47.26835" lon="-2.32772">
        <ele>-0.20000000298023</ele>
        <time>2022-03-06T08:21:39.000Z</time>
      </trkpt>
      <trkpt lat="47.26834" lon="-2.32769">
        <ele>0.20000000298023</ele>
        <time>2022-03-06T08:21:40.000Z</time>
      </trkpt>
      <trkpt lat="47.26833" lon="-2.32764">
        <ele>0.60000002384186</ele>
        <time>2022-03-06T08:21:41.000Z</time>
      </trkpt>
      <trkpt lat="47.26832" lon="-2.3276">
        <ele>1.2000000476837</ele>
        <time>2022-03-06T08:21:42.000Z</time>
      </trkpt>
      <trkpt lat="47.26829" lon="-2.32752">
        <ele>1.6000000238419</ele>
        <time>2022-03-06T08:21:44.000Z</time>
      </trkpt>
      <trkpt lat="47.26828" lon="-2.32747">
        <ele>2.4000000953674</ele>
        <time>2022-03-06T08:21:45.000Z</time>
      </trkpt>
      <trkpt lat="47.26826" lon="-2.32744">
        <ele>2.7999999523163</ele>
        <time>2022-03-06T08:21:46.000Z</time>
      </trkpt>
      <trkpt lat="47.26825" lon="-2.3274">
        <ele>3.2000000476837</ele>
        <time>2022-03-06T08:21:47.000Z</time>
      </trkpt>
      <trkpt lat="47.26819" lon="-2.32729">
        <ele>3.5999999046326</ele>
        <time>2022-03-06T08:21:50.000Z</time>
      </trkpt>
      <trkpt lat="47.26817" lon="-2.32725">
        <ele>4</ele>
        <time>2022-03-06T08:21:51.000Z</time>
      </trkpt>
      <trkpt lat="47.26816" lon="-2.3272">
        <ele>4.4000000953674</ele>
        <time>2022-03-06T08:21:52.000Z</time>
      </trkpt>
      <trkpt lat="47.26814" lon="-2.32716">
        <ele>4.8000001907349</ele>
        <time>2022-03-06T08:21:53.000Z</time>
      </trkpt>
      <trkpt lat="47.26813" lon="-2.32712">
        <ele>5.1999998092651</ele>
        <time>2022-03-06T08:21:54.000Z</time>
      </trkpt>
      <trkpt lat="47.26805" lon="-2.32695">
        <ele>5.1999998092651</ele>
        <time>2022-03-06T08:21:58.000Z</time>
      </trkpt>
      <trkpt lat="47.26802" lon="-2.32671">
        <ele>5.5999999046326</ele>
        <time>2022-03-06T08:22:03.000Z</time>
      </trkpt>
      <trkpt lat="47.26804" lon="-2.32667">
        <ele>6</ele>
        <time>2022-03-06T08:22:04.000Z</time>
      </trkpt>
      <trkpt lat="47.26806" lon="-2.32663">
        <ele>6.4000000953674</ele>
        <time>2022-03-06T08:22:05.000Z</time>
      </trkpt>
      <trkpt lat="47.26809" lon="-2.32659">
        <ele>6.8000001907349</ele>
        <time>2022-03-06T08:22:06.000Z</time>
      </trkpt>
      <trkpt lat="47.26809" lon="-2.32652">
        <ele>7.1999998092651</ele>
        <time>2022-03-06T08:22:07.000Z</time>
      </trkpt>
      <trkpt lat="47.26809" lon="-2.32645">
        <ele>7.1999998092651</ele>
        <time>2022-03-06T08:22:08.000Z</time>
      </trkpt>
      <trkpt lat="47.26808" lon="-2.32627">
        <ele>7.1999998092651</ele>
        <time>2022-03-06T08:22:11.000Z</time>
      </trkpt>
      <trkpt lat="47.26803" lon="-2.32585">
        <ele>7.1999998092651</ele>
        <time>2022-03-06T08:22:17.000Z</time>
      </trkpt>
      <trkpt lat="47.268" lon="-2.32557">
        <ele>7.1999998092651</ele>
        <time>2022-03-06T08:22:21.000Z</time>
      </trkpt>
      <trkpt lat="47.268" lon="-2.32543">
        <ele>7.1999998092651</ele>
        <time>2022-03-06T08:22:23.000Z</time>
      </trkpt>
      <trkpt lat="47.26796" lon="-2.32503">
        <ele>7.1999998092651</ele>
        <time>2022-03-06T08:22:29.000Z</time>
      </trkpt>
      <trkpt lat="47.2679" lon="-2.32451">
        <ele>7.1999998092651</ele>
        <time>2022-03-06T08:22:37.000Z</time>
      </trkpt>
      <trkpt lat="47.26783" lon="-2.3241">
        <ele>7.1999998092651</ele>
        <time>2022-03-06T08:22:44.000Z</time>
      </trkpt>
      <trkpt lat="47.26779" lon="-2.32372">
        <ele>7.1999998092651</ele>
        <time>2022-03-06T08:22:51.000Z</time>
      </trkpt>
      <trkpt lat="47.26788" lon="-2.32363">
        <ele>7.1999998092651</ele>
        <time>2022-03-06T08:22:54.000Z</time>
      </trkpt>
      <trkpt lat="47.26793" lon="-2.32361">
        <ele>7.1999998092651</ele>
        <time>2022-03-06T08:22:55.000Z</time>
      </trkpt>
      <trkpt lat="47.26807" lon="-2.32356">
        <ele>7.1999998092651</ele>
        <time>2022-03-06T08:22:58.000Z</time>
      </trkpt>
      <trkpt lat="47.26812" lon="-2.32355">
        <ele>7.1999998092651</ele>
        <time>2022-03-06T08:22:59.000Z</time>
      </trkpt>
      <trkpt lat="47.26827" lon="-2.32352">
        <ele>6.8000001907349</ele>
        <time>2022-03-06T08:23:02.000Z</time>
      </trkpt>
      <trkpt lat="47.26832" lon="-2.3235">
        <ele>6.4000000953674</ele>
        <time>2022-03-06T08:23:03.000Z</time>
      </trkpt>
      <trkpt lat="47.26839" lon="-2.32349">
        <ele>6</ele>
        <time>2022-03-06T08:23:04.000Z</time>
      </trkpt>
      <trkpt lat="47.26845" lon="-2.32348">
        <ele>5.4000000953674</ele>
        <time>2022-03-06T08:23:05.000Z</time>
      </trkpt>
      <trkpt lat="47.26853" lon="-2.32347">
        <ele>5</ele>
        <time>2022-03-06T08:23:06.000Z</time>
      </trkpt>
      <trkpt lat="47.2686" lon="-2.32346">
        <ele>4.5999999046326</ele>
        <time>2022-03-06T08:23:07.000Z</time>
      </trkpt>
      <trkpt lat="47.26868" lon="-2.32345">
        <ele>4.1999998092651</ele>
        <time>2022-03-06T08:23:08.000Z</time>
      </trkpt>
      <trkpt lat="47.26874" lon="-2.32344">
        <ele>3.5999999046326</ele>
        <time>2022-03-06T08:23:09.000Z</time>
      </trkpt>
      <trkpt lat="47.2688" lon="-2.32343">
        <ele>3.2000000476837</ele>
        <time>2022-03-06T08:23:10.000Z</time>
      </trkpt>
      <trkpt lat="47.26887" lon="-2.32342">
        <ele>2.7999999523163</ele>
        <time>2022-03-06T08:23:11.000Z</time>
      </trkpt>
      <trkpt lat="47.26893" lon="-2.32341">
        <ele>2.4000000953674</ele>
        <time>2022-03-06T08:23:12.000Z</time>
      </trkpt>
      <trkpt lat="47.269" lon="-2.32339">
        <ele>2</ele>
        <time>2022-03-06T08:23:13.000Z</time>
      </trkpt>
      <trkpt lat="47.26906" lon="-2.32337">
        <ele>1.3999999761581</ele>
        <time>2022-03-06T08:23:14.000Z</time>
      </trkpt>
      <trkpt lat="47.26911" lon="-2.32336">
        <ele>1</ele>
        <time>2022-03-06T08:23:15.000Z</time>
      </trkpt>
      <trkpt lat="47.26917" lon="-2.32337">
        <ele>0.60000002384186</ele>
        <time>2022-03-06T08:23:16.000Z</time>
      </trkpt>
      <trkpt lat="47.26922" lon="-2.3234">
        <ele>0.20000000298023</ele>
        <time>2022-03-06T08:23:17.000Z</time>
      </trkpt>
      <trkpt lat="47.26926" lon="-2.32344">
        <ele>-0.20000000298023</ele>
        <time>2022-03-06T08:23:18.000Z</time>
      </trkpt>
      <trkpt lat="47.26931" lon="-2.32349">
        <ele>-0.80000001192093</ele>
        <time>2022-03-06T08:23:19.000Z</time>
      </trkpt>
      <trkpt lat="47.26935" lon="-2.32354">
        <ele>-1.2000000476837</ele>
        <time>2022-03-06T08:23:20.000Z</time>
      </trkpt>
      <trkpt lat="47.26938" lon="-2.32361">
        <ele>-1.6000000238419</ele>
        <time>2022-03-06T08:23:21.000Z</time>
      </trkpt>
      <trkpt lat="47.26943" lon="-2.32375">
        <ele>-1.6000000238419</ele>
        <time>2022-03-06T08:23:23.000Z</time>
      </trkpt>
      <trkpt lat="47.26945" lon="-2.32382">
        <ele>-1.6000000238419</ele>
        <time>2022-03-06T08:23:24.000Z</time>
      </trkpt>
      <trkpt lat="47.26954" lon="-2.32412">
        <ele>-1.6000000238419</ele>
        <time>2022-03-06T08:23:28.000Z</time>
      </trkpt>
      <trkpt lat="47.26957" lon="-2.32419">
        <ele>-1.6000000238419</ele>
        <time>2022-03-06T08:23:29.000Z</time>
      </trkpt>
      <trkpt lat="47.26968" lon="-2.32438">
        <ele>-2</ele>
        <time>2022-03-06T08:23:32.000Z</time>
      </trkpt>
      <trkpt lat="47.26972" lon="-2.32444">
        <ele>-2.4000000953674</ele>
        <time>2022-03-06T08:23:33.000Z</time>
      </trkpt>
      <trkpt lat="47.26976" lon="-2.32449">
        <ele>-2.7999999523163</ele>
        <time>2022-03-06T08:23:34.000Z</time>
      </trkpt>
      <trkpt lat="47.2698" lon="-2.32455">
        <ele>-3.2000000476837</ele>
        <time>2022-03-06T08:23:35.000Z</time>
      </trkpt>
      <trkpt lat="47.26984" lon="-2.32462">
        <ele>-3.5999999046326</ele>
        <time>2022-03-06T08:23:36.000Z</time>
      </trkpt>
      <trkpt lat="47.2699" lon="-2.32475">
        <ele>-3.5999999046326</ele>
        <time>2022-03-06T08:23:38.000Z</time>
      </trkpt>
      <trkpt lat="47.27004" lon="-2.32502">
        <ele>-3.5999999046326</ele>
        <time>2022-03-06T08:23:42.000Z</time>
      </trkpt>
      <trkpt lat="47.27007" lon="-2.32506">
        <ele>-3.5999999046326</ele>
        <time>2022-03-06T08:23:43.000Z</time>
      </trkpt>
      <trkpt lat="47.27021" lon="-2.32507">
        <ele>-3.5999999046326</ele>
        <time>2022-03-06T08:23:46.000Z</time>
      </trkpt>
      <trkpt lat="47.27026" lon="-2.32504">
        <ele>-4.1999998092651</ele>
        <time>2022-03-06T08:23:47.000Z</time>
      </trkpt>
      <trkpt lat="47.27029" lon="-2.32499">
        <ele>-5</ele>
        <time>2022-03-06T08:23:48.000Z</time>
      </trkpt>
      <trkpt lat="47.27032" lon="-2.32493">
        <ele>-5.4000000953674</ele>
        <time>2022-03-06T08:23:49.000Z</time>
      </trkpt>
      <trkpt lat="47.27034" lon="-2.32486">
        <ele>-5.8000001907349</ele>
        <time>2022-03-06T08:23:50.000Z</time>
      </trkpt>
      <trkpt lat="47.27034" lon="-2.32469">
        <ele>-5.8000001907349</ele>
        <time>2022-03-06T08:23:52.000Z</time>
      </trkpt>
      <trkpt lat="47.27034" lon="-2.3246">
        <ele>-5.8000001907349</ele>
        <time>2022-03-06T08:23:53.000Z</time>
      </trkpt>
      <trkpt lat="47.27032" lon="-2.32426">
        <ele>-5.8000001907349</ele>
        <time>2022-03-06T08:23:57.000Z</time>
      </trkpt>
      <trkpt lat="47.2703" lon="-2.32378">
        <ele>-5.8000001907349</ele>
        <time>2022-03-06T08:24:03.000Z</time>
      </trkpt>
      <trkpt lat="47.27029" lon="-2.32371">
        <ele>-5.8000001907349</ele>
        <time>2022-03-06T08:24:04.000Z</time>
      </trkpt>
      <trkpt lat="47.27025" lon="-2.32356">
        <ele>-5.8000001907349</ele>
        <time>2022-03-06T08:24:06.000Z</time>
      </trkpt>
      <trkpt lat="47.27024" lon="-2.32348">
        <ele>-5.8000001907349</ele>
        <time>2022-03-06T08:24:07.000Z</time>
      </trkpt>
      <trkpt lat="47.27023" lon="-2.32324">
        <ele>-5.8000001907349</ele>
        <time>2022-03-06T08:24:10.000Z</time>
      </trkpt>
      <trkpt lat="47.27023" lon="-2.32308">
        <ele>-5.8000001907349</ele>
        <time>2022-03-06T08:24:12.000Z</time>
      </trkpt>
      <trkpt lat="47.27022" lon="-2.32284">
        <ele>-5.8000001907349</ele>
        <time>2022-03-06T08:24:15.000Z</time>
      </trkpt>
      <trkpt lat="47.27022" lon="-2.32276">
        <ele>-5.8000001907349</ele>
        <time>2022-03-06T08:24:16.000Z</time>
      </trkpt>
      <trkpt lat="47.27023" lon="-2.32246">
        <ele>-5.8000001907349</ele>
        <time>2022-03-06T08:24:20.000Z</time>
      </trkpt>
      <trkpt lat="47.27023" lon="-2.32238">
        <ele>-5.8000001907349</ele>
        <time>2022-03-06T08:24:21.000Z</time>
      </trkpt>
      <trkpt lat="47.2702" lon="-2.32217">
        <ele>-5.8000001907349</ele>
        <time>2022-03-06T08:24:24.000Z</time>
      </trkpt>
      <trkpt lat="47.27015" lon="-2.32198">
        <ele>-5.8000001907349</ele>
        <time>2022-03-06T08:24:27.000Z</time>
      </trkpt>
      <trkpt lat="47.2701" lon="-2.32186">
        <ele>-5.8000001907349</ele>
        <time>2022-03-06T08:24:29.000Z</time>
      </trkpt>
      <trkpt lat="47.27001" lon="-2.32169">
        <ele>-5.8000001907349</ele>
        <time>2022-03-06T08:24:32.000Z</time>
      </trkpt>
      <trkpt lat="47.26993" lon="-2.32157">
        <ele>-5.8000001907349</ele>
        <time>2022-03-06T08:24:34.000Z</time>
      </trkpt>
      <trkpt lat="47.26991" lon="-2.32139">
        <ele>-5.8000001907349</ele>
        <time>2022-03-06T08:24:37.000Z</time>
      </trkpt>
      <trkpt lat="47.27005" lon="-2.32124">
        <ele>-5.8000001907349</ele>
        <time>2022-03-06T08:24:41.000Z</time>
      </trkpt>
      <trkpt lat="47.27015" lon="-2.32095">
        <ele>-5.8000001907349</ele>
        <time>2022-03-06T08:24:46.000Z</time>
      </trkpt>
      <trkpt lat="47.27016" lon="-2.32082">
        <ele>-5.8000001907349</ele>
        <time>2022-03-06T08:24:48.000Z</time>
      </trkpt>
      <trkpt lat="47.27018" lon="-2.32062">
        <ele>-5.8000001907349</ele>
        <time>2022-03-06T08:24:51.000Z</time>
      </trkpt>
      <trkpt lat="47.27017" lon="-2.32037">
        <ele>-5.4000000953674</ele>
        <time>2022-03-06T08:24:56.000Z</time>
      </trkpt>
      <trkpt lat="47.27016" lon="-2.32032">
        <ele>-5</ele>
        <time>2022-03-06T08:24:57.000Z</time>
      </trkpt>
      <trkpt lat="47.27015" lon="-2.32027">
        <ele>-4.5999999046326</ele>
        <time>2022-03-06T08:24:58.000Z</time>
      </trkpt>
      <trkpt lat="47.27013" lon="-2.3202">
        <ele>-4</ele>
        <time>2022-03-06T08:24:59.000Z</time>
      </trkpt>
      <trkpt lat="47.27012" lon="-2.32014">
        <ele>-3.5999999046326</ele>
        <time>2022-03-06T08:25:00.000Z</time>
      </trkpt>
      <trkpt lat="47.27011" lon="-2.32009">
        <ele>-3.5999999046326</ele>
        <time>2022-03-06T08:25:01.000Z</time>
      </trkpt>
      <trkpt lat="47.27006" lon="-2.31992">
        <ele>-3.5999999046326</ele>
        <time>2022-03-06T08:25:06.000Z</time>
      </trkpt>
      <trkpt lat="47.26998" lon="-2.31995">
        <ele>-3.2000000476837</ele>
        <time>2022-03-06T08:25:11.000Z</time>
      </trkpt>
      <trkpt lat="47.26996" lon="-2.31996">
        <ele>-2.7999999523163</ele>
        <time>2022-03-06T08:25:12.000Z</time>
      </trkpt>
      <trkpt lat="47.26993" lon="-2.31996">
        <ele>-2.4000000953674</ele>
        <time>2022-03-06T08:25:13.000Z</time>
      </trkpt>
      <trkpt lat="47.26991" lon="-2.31997">
        <ele>-2</ele>
        <time>2022-03-06T08:25:14.000Z</time>
      </trkpt>
      <trkpt lat="47.26989" lon="-2.31997">
        <ele>-1.6000000238419</ele>
        <time>2022-03-06T08:25:15.000Z</time>
      </trkpt>
      <trkpt lat="47.26982" lon="-2.31997">
        <ele>-1.6000000238419</ele>
        <time>2022-03-06T08:25:17.000Z</time>
      </trkpt>
      <trkpt lat="47.26967" lon="-2.31999">
        <ele>-1.6000000238419</ele>
        <time>2022-03-06T08:25:20.000Z</time>
      </trkpt>
      <trkpt lat="47.26962" lon="-2.31996">
        <ele>-1.6000000238419</ele>
        <time>2022-03-06T08:25:21.000Z</time>
      </trkpt>
      <trkpt lat="47.26944" lon="-2.3198">
        <ele>-1.6000000238419</ele>
        <time>2022-03-06T08:25:25.000Z</time>
      </trkpt>
      <trkpt lat="47.2694" lon="-2.31976">
        <ele>-1.6000000238419</ele>
        <time>2022-03-06T08:25:26.000Z</time>
      </trkpt>
      <trkpt lat="47.26933" lon="-2.31968">
        <ele>-0.80000001192093</ele>
        <time>2022-03-06T08:25:28.000Z</time>
      </trkpt>
      <trkpt lat="47.2693" lon="-2.31964">
        <ele>-0.40000000596046</ele>
        <time>2022-03-06T08:25:29.000Z</time>
      </trkpt>
      <trkpt lat="47.26927" lon="-2.3196">
        <ele>12.8</ele>
        <time>2022-03-06T08:25:30.000Z</time>
      </trkpt>
      <trkpt lat="47.26925" lon="-2.31956">
        <ele>0.40000000596046</ele>
        <time>2022-03-06T08:25:31.000Z</time>
      </trkpt>
      <trkpt lat="47.26909" lon="-2.31935">
        <ele>0.40000000596046</ele>
        <time>2022-03-06T08:25:36.000Z</time>
      </trkpt>
      <trkpt lat="47.26905" lon="-2.3193">
        <ele>0.80000001192093</ele>
        <time>2022-03-06T08:25:37.000Z</time>
      </trkpt>
      <trkpt lat="47.26902" lon="-2.31926">
        <ele>1.2000000476837</ele>
        <time>2022-03-06T08:25:38.000Z</time>
      </trkpt>
      <trkpt lat="47.26898" lon="-2.31922">
        <ele>1.7999999523163</ele>
        <time>2022-03-06T08:25:39.000Z</time>
      </trkpt>
      <trkpt lat="47.26895" lon="-2.31917">
        <ele>2.2000000476837</ele>
        <time>2022-03-06T08:25:40.000Z</time>
      </trkpt>
      <trkpt lat="47.26892" lon="-2.31913">
        <ele>2.5999999046326</ele>
        <time>2022-03-06T08:25:41.000Z</time>
      </trkpt>
      <trkpt lat="47.26887" lon="-2.31905">
        <ele>2.5999999046326</ele>
        <time>2022-03-06T08:25:43.000Z</time>
      </trkpt>
      <trkpt lat="47.26884" lon="-2.319">
        <ele>3</ele>
        <time>2022-03-06T08:25:44.000Z</time>
      </trkpt>
      <trkpt lat="47.2688" lon="-2.31897">
        <ele>3.4000000953674</ele>
        <time>2022-03-06T08:25:45.000Z</time>
      </trkpt>
      <trkpt lat="47.26875" lon="-2.31895">
        <ele>3.7999999523163</ele>
        <time>2022-03-06T08:25:46.000Z</time>
      </trkpt>
      <trkpt lat="47.2687" lon="-2.31893">
        <ele>4.1999998092651</ele>
        <time>2022-03-06T08:25:47.000Z</time>
      </trkpt>
      <trkpt lat="47.26865" lon="-2.31892">
        <ele>4.5999999046326</ele>
        <time>2022-03-06T08:25:48.000Z</time>
      </trkpt>
      <trkpt lat="47.26848" lon="-2.31887">
        <ele>4.5999999046326</ele>
        <time>2022-03-06T08:25:52.000Z</time>
      </trkpt>
      <trkpt lat="47.26841" lon="-2.31879">
        <ele>5</ele>
        <time>2022-03-06T08:25:54.000Z</time>
      </trkpt>
      <trkpt lat="47.26838" lon="-2.31874">
        <ele>5.4000000953674</ele>
        <time>2022-03-06T08:25:55.000Z</time>
      </trkpt>
      <trkpt lat="47.26835" lon="-2.3187">
        <ele>6</ele>
        <time>2022-03-06T08:25:56.000Z</time>
      </trkpt>
      <trkpt lat="47.26833" lon="-2.31865">
        <ele>6.4000000953674</ele>
        <time>2022-03-06T08:25:57.000Z</time>
      </trkpt>
      <trkpt lat="47.26831" lon="-2.3186">
        <ele>6.8000001907349</ele>
        <time>2022-03-06T08:25:58.000Z</time>
      </trkpt>
      <trkpt lat="47.26831" lon="-2.31855">
        <ele>6.8000001907349</ele>
        <time>2022-03-06T08:25:59.000Z</time>
      </trkpt>
      <trkpt lat="47.26829" lon="-2.31849">
        <ele>6.8000001907349</ele>
        <time>2022-03-06T08:26:00.000Z</time>
      </trkpt>
      <trkpt lat="47.26824" lon="-2.31835">
        <ele>7.1999998092651</ele>
        <time>2022-03-06T08:26:03.000Z</time>
      </trkpt>
      <trkpt lat="47.26823" lon="-2.3183">
        <ele>7.5999999046326</ele>
        <time>2022-03-06T08:26:04.000Z</time>
      </trkpt>
      <trkpt lat="47.26822" lon="-2.31825">
        <ele>8</ele>
        <time>2022-03-06T08:26:05.000Z</time>
      </trkpt>
      <trkpt lat="47.26821" lon="-2.31821">
        <ele>8.3999996185303</ele>
        <time>2022-03-06T08:26:06.000Z</time>
      </trkpt>
      <trkpt lat="47.2682" lon="-2.31816">
        <ele>8.8000001907349</ele>
        <time>2022-03-06T08:26:07.000Z</time>
      </trkpt>
      <trkpt lat="47.26818" lon="-2.31808">
        <ele>8.8000001907349</ele>
        <time>2022-03-06T08:26:10.000Z</time>
      </trkpt>
      <trkpt lat="47.2681" lon="-2.31808">
        <ele>8.8000001907349</ele>
        <time>2022-03-06T08:26:13.000Z</time>
      </trkpt>
      <trkpt lat="47.26807" lon="-2.31811">
        <ele>8.8000001907349</ele>
        <time>2022-03-06T08:26:14.000Z</time>
      </trkpt>
      <trkpt lat="47.26789" lon="-2.31821">
        <ele>8.8000001907349</ele>
        <time>2022-03-06T08:26:19.000Z</time>
      </trkpt>
      <trkpt lat="47.26767" lon="-2.31835">
        <ele>9.1999998092651</ele>
        <time>2022-03-06T08:26:25.000Z</time>
      </trkpt>
      <trkpt lat="47.26764" lon="-2.31838">
        <ele>9.6000003814697</ele>
        <time>2022-03-06T08:26:26.000Z</time>
      </trkpt>
      <trkpt lat="47.2676" lon="-2.3184">
        <ele>10</ele>
        <time>2022-03-06T08:26:27.000Z</time>
      </trkpt>
      <trkpt lat="47.26757" lon="-2.31843">
        <ele>10.39999961853</ele>
        <time>2022-03-06T08:26:28.000Z</time>
      </trkpt>
      <trkpt lat="47.26753" lon="-2.31846">
        <ele>10.800000190735</ele>
        <time>2022-03-06T08:26:29.000Z</time>
      </trkpt>
      <trkpt lat="47.26736" lon="-2.31864">
        <ele>10.800000190735</ele>
        <time>2022-03-06T08:26:35.000Z</time>
      </trkpt>
      <trkpt lat="47.26739" lon="-2.31882">
        <ele>10.800000190735</ele>
        <time>2022-03-06T08:26:39.000Z</time>
      </trkpt>
      <trkpt lat="47.2675" lon="-2.31906">
        <ele>10.800000190735</ele>
        <time>2022-03-06T08:26:43.000Z</time>
      </trkpt>
      <trkpt lat="47.26763" lon="-2.31931">
        <ele>10.800000190735</ele>
        <time>2022-03-06T08:26:47.000Z</time>
      </trkpt>
      <trkpt lat="47.26765" lon="-2.31937">
        <ele>10.39999961853</ele>
        <time>2022-03-06T08:26:48.000Z</time>
      </trkpt>
      <trkpt lat="47.26765" lon="-2.31942">
        <ele>10</ele>
        <time>2022-03-06T08:26:49.000Z</time>
      </trkpt>
      <trkpt lat="47.26764" lon="-2.31948">
        <ele>9.6000003814697</ele>
        <time>2022-03-06T08:26:50.000Z</time>
      </trkpt>
      <trkpt lat="47.26762" lon="-2.31953">
        <ele>9.1999998092651</ele>
        <time>2022-03-06T08:26:51.000Z</time>
      </trkpt>
      <trkpt lat="47.26759" lon="-2.31959">
        <ele>8.8000001907349</ele>
        <time>2022-03-06T08:26:52.000Z</time>
      </trkpt>
      <trkpt lat="47.26753" lon="-2.31968">
        <ele>8.8000001907349</ele>
        <time>2022-03-06T08:26:54.000Z</time>
      </trkpt>
      <trkpt lat="47.26748" lon="-2.31975">
        <ele>8.8000001907349</ele>
        <time>2022-03-06T08:26:56.000Z</time>
      </trkpt>
      <trkpt lat="47.26729" lon="-2.3199">
        <ele>8.8000001907349</ele>
        <time>2022-03-06T08:27:01.000Z</time>
      </trkpt>
      <trkpt lat="47.26724" lon="-2.31993">
        <ele>8.8000001907349</ele>
        <time>2022-03-06T08:27:02.000Z</time>
      </trkpt>
      <trkpt lat="47.26709" lon="-2.32003">
        <ele>8.8000001907349</ele>
        <time>2022-03-06T08:27:06.000Z</time>
      </trkpt>
      <trkpt lat="47.26703" lon="-2.32011">
        <ele>8.8000001907349</ele>
        <time>2022-03-06T08:27:08.000Z</time>
      </trkpt>
      <trkpt lat="47.26701" lon="-2.32015">
        <ele>9.3999996185303</ele>
        <time>2022-03-06T08:27:09.000Z</time>
      </trkpt>
      <trkpt lat="47.26698" lon="-2.3202">
        <ele>9.8000001907349</ele>
        <time>2022-03-06T08:27:10.000Z</time>
      </trkpt>
      <trkpt lat="47.26696" lon="-2.32025">
        <ele>10.199999809265</ele>
        <time>2022-03-06T08:27:11.000Z</time>
      </trkpt>
      <trkpt lat="47.26693" lon="-2.3203">
        <ele>10.800000190735</ele>
        <time>2022-03-06T08:27:12.000Z</time>
      </trkpt>
      <trkpt lat="47.26691" lon="-2.32035">
        <ele>11.199999809265</ele>
        <time>2022-03-06T08:27:13.000Z</time>
      </trkpt>
      <trkpt lat="47.26688" lon="-2.32064">
        <ele>11.199999809265</ele>
        <time>2022-03-06T08:27:18.000Z</time>
      </trkpt>
      <trkpt lat="47.26686" lon="-2.32112">
        <ele>11.199999809265</ele>
        <time>2022-03-06T08:27:25.000Z</time>
      </trkpt>
      <trkpt lat="47.26683" lon="-2.3212">
        <ele>11.199999809265</ele>
        <time>2022-03-06T08:27:27.000Z</time>
      </trkpt>
      <trkpt lat="47.2668" lon="-2.32122">
        <ele>11.199999809265</ele>
        <time>2022-03-06T08:27:28.000Z</time>
      </trkpt>
      <trkpt lat="47.26672" lon="-2.32114">
        <ele>11.199999809265</ele>
        <time>2022-03-06T08:27:31.000Z</time>
      </trkpt>
      <trkpt lat="47.26668" lon="-2.32097">
        <ele>11.199999809265</ele>
        <time>2022-03-06T08:27:34.000Z</time>
      </trkpt>
      <trkpt lat="47.26666" lon="-2.32084">
        <ele>11.199999809265</ele>
        <time>2022-03-06T08:27:36.000Z</time>
      </trkpt>
      <trkpt lat="47.26655" lon="-2.32042">
        <ele>11.199999809265</ele>
        <time>2022-03-06T08:27:43.000Z</time>
      </trkpt>
      <trkpt lat="47.26645" lon="-2.32007">
        <ele>11.199999809265</ele>
        <time>2022-03-06T08:27:49.000Z</time>
      </trkpt>
      <trkpt lat="47.26642" lon="-2.32003">
        <ele>11.199999809265</ele>
        <time>2022-03-06T08:27:50.000Z</time>
      </trkpt>
      <trkpt lat="47.2663" lon="-2.32003">
        <ele>11.199999809265</ele>
        <time>2022-03-06T08:27:53.000Z</time>
      </trkpt>
      <trkpt lat="47.26617" lon="-2.32012">
        <ele>11.199999809265</ele>
        <time>2022-03-06T08:27:56.000Z</time>
      </trkpt>
      <trkpt lat="47.26607" lon="-2.32015">
        <ele>11.199999809265</ele>
        <time>2022-03-06T08:27:58.000Z</time>
      </trkpt>
      <trkpt lat="47.26569" lon="-2.32031">
        <ele>11.199999809265</ele>
        <time>2022-03-06T08:28:05.000Z</time>
      </trkpt>
      <trkpt lat="47.26548" lon="-2.32037">
        <ele>10.800000190735</ele>
        <time>2022-03-06T08:28:09.000Z</time>
      </trkpt>
      <trkpt lat="47.26544" lon="-2.32036">
        <ele>10.199999809265</ele>
        <time>2022-03-06T08:28:10.000Z</time>
      </trkpt>
      <trkpt lat="47.26543" lon="-2.32033">
        <ele>9.8000001907349</ele>
        <time>2022-03-06T08:28:11.000Z</time>
      </trkpt>
      <trkpt lat="47.26541" lon="-2.32029">
        <ele>9.3999996185303</ele>
        <time>2022-03-06T08:28:12.000Z</time>
      </trkpt>
      <trkpt lat="47.2654" lon="-2.32024">
        <ele>8.8000001907349</ele>
        <time>2022-03-06T08:28:13.000Z</time>
      </trkpt>
      <trkpt lat="47.26539" lon="-2.32019">
        <ele>8.8000001907349</ele>
        <time>2022-03-06T08:28:14.000Z</time>
      </trkpt>
      <trkpt lat="47.26533" lon="-2.32004">
        <ele>8.8000001907349</ele>
        <time>2022-03-06T08:28:18.000Z</time>
      </trkpt>
      <trkpt lat="47.26526" lon="-2.31995">
        <ele>8.3999996185303</ele>
        <time>2022-03-06T08:28:21.000Z</time>
      </trkpt>
      <trkpt lat="47.26523" lon="-2.31994">
        <ele>8</ele>
        <time>2022-03-06T08:28:22.000Z</time>
      </trkpt>
      <trkpt lat="47.2652" lon="-2.31994">
        <ele>7.5999999046326</ele>
        <time>2022-03-06T08:28:23.000Z</time>
      </trkpt>
      <trkpt lat="47.26517" lon="-2.31995">
        <ele>7.1999998092651</ele>
        <time>2022-03-06T08:28:24.000Z</time>
      </trkpt>
      <trkpt lat="47.26514" lon="-2.31995">
        <ele>6.5999999046326</ele>
        <time>2022-03-06T08:28:25.000Z</time>
      </trkpt>
      <trkpt lat="47.26511" lon="-2.31997">
        <ele>6</ele>
        <time>2022-03-06T08:28:26.000Z</time>
      </trkpt>
      <trkpt lat="47.26509" lon="-2.31998">
        <ele>5.5999999046326</ele>
        <time>2022-03-06T08:28:27.000Z</time>
      </trkpt>
      <trkpt lat="47.26506" lon="-2.31997">
        <ele>5</ele>
        <time>2022-03-06T08:28:28.000Z</time>
      </trkpt>
      <trkpt lat="47.26502" lon="-2.31997">
        <ele>4.5999999046326</ele>
        <time>2022-03-06T08:28:29.000Z</time>
      </trkpt>
      <trkpt lat="47.26495" lon="-2.31996">
        <ele>4.5999999046326</ele>
        <time>2022-03-06T08:28:31.000Z</time>
      </trkpt>
      <trkpt lat="47.26491" lon="-2.31995">
        <ele>4.1999998092651</ele>
        <time>2022-03-06T08:28:32.000Z</time>
      </trkpt>
      <trkpt lat="47.26487" lon="-2.31995">
        <ele>3.5999999046326</ele>
        <time>2022-03-06T08:28:33.000Z</time>
      </trkpt>
      <trkpt lat="47.26482" lon="-2.31996">
        <ele>3.2000000476837</ele>
        <time>2022-03-06T08:28:34.000Z</time>
      </trkpt>
      <trkpt lat="47.26477" lon="-2.31997">
        <ele>2.7999999523163</ele>
        <time>2022-03-06T08:28:35.000Z</time>
      </trkpt>
      <trkpt lat="47.26472" lon="-2.31997">
        <ele>2.4000000953674</ele>
        <time>2022-03-06T08:28:36.000Z</time>
      </trkpt>
      <trkpt lat="47.26455" lon="-2.31998">
        <ele>2</ele>
        <time>2022-03-06T08:28:39.000Z</time>
      </trkpt>
      <trkpt lat="47.26449" lon="-2.31998">
        <ele>1.6000000238419</ele>
        <time>2022-03-06T08:28:40.000Z</time>
      </trkpt>
      <trkpt lat="47.26444" lon="-2.31998">
        <ele>1</ele>
        <time>2022-03-06T08:28:41.000Z</time>
      </trkpt>
      <trkpt lat="47.26438" lon="-2.31998">
        <ele>0.60000002384186</ele>
        <time>2022-03-06T08:28:42.000Z</time>
      </trkpt>
      <trkpt lat="47.26432" lon="-2.31997">
        <ele>0.20000000298023</ele>
        <time>2022-03-06T08:28:43.000Z</time>
      </trkpt>
      <trkpt lat="47.26421" lon="-2.31996">
        <ele>-0.20000000298023</ele>
        <time>2022-03-06T08:28:45.000Z</time>
      </trkpt>
      <trkpt lat="47.26417" lon="-2.31995">
        <ele>-0.60000002384186</ele>
        <time>2022-03-06T08:28:46.000Z</time>
      </trkpt>
      <trkpt lat="47.26412" lon="-2.31994">
        <ele>-1</ele>
        <time>2022-03-06T08:28:47.000Z</time>
      </trkpt>
      <trkpt lat="47.26408" lon="-2.31994">
        <ele>-1.3999999761581</ele>
        <time>2022-03-06T08:28:48.000Z</time>
      </trkpt>
      <trkpt lat="47.26404" lon="-2.31994">
        <ele>-2</ele>
        <time>2022-03-06T08:28:49.000Z</time>
      </trkpt>
      <trkpt lat="47.26402" lon="-2.31993">
        <ele>-2</ele>
        <time>2022-03-06T08:28:50.000Z</time>
      </trkpt>
      <trkpt lat="47.26399" lon="-2.31993">
        <ele>-2.4000000953674</ele>
        <time>2022-03-06T08:28:51.000Z</time>
      </trkpt>
      <trkpt lat="47.26397" lon="-2.31992">
        <ele>-2.7999999523163</ele>
        <time>2022-03-06T08:28:52.000Z</time>
      </trkpt>
      <trkpt lat="47.26394" lon="-2.31992">
        <ele>-3.2000000476837</ele>
        <time>2022-03-06T08:28:53.000Z</time>
      </trkpt>
      <trkpt lat="47.26392" lon="-2.31992">
        <ele>-3.5999999046326</ele>
        <time>2022-03-06T08:28:54.000Z</time>
      </trkpt>
      <trkpt lat="47.26389" lon="-2.31992">
        <ele>-4</ele>
        <time>2022-03-06T08:28:55.000Z</time>
      </trkpt>
      <trkpt lat="47.26385" lon="-2.31993">
        <ele>-4</ele>
        <time>2022-03-06T08:28:56.000Z</time>
      </trkpt>
      <trkpt lat="47.26372" lon="-2.31983">
        <ele>-4</ele>
        <time>2022-03-06T08:29:00.000Z</time>
      </trkpt>
      <trkpt lat="47.26367" lon="-2.31969">
        <ele>-4.4000000953674</ele>
        <time>2022-03-06T08:29:02.000Z</time>
      </trkpt>
      <trkpt lat="47.26365" lon="-2.31963">
        <ele>-4.8000001907349</ele>
        <time>2022-03-06T08:29:03.000Z</time>
      </trkpt>
      <trkpt lat="47.26362" lon="-2.31956">
        <ele>-5.1999998092651</ele>
        <time>2022-03-06T08:29:04.000Z</time>
      </trkpt>
      <trkpt lat="47.26359" lon="-2.3195">
        <ele>-5.5999999046326</ele>
        <time>2022-03-06T08:29:05.000Z</time>
      </trkpt>
      <trkpt lat="47.26357" lon="-2.31946">
        <ele>-6.1999998092651</ele>
        <time>2022-03-06T08:29:06.000Z</time>
      </trkpt>
      <trkpt lat="47.26354" lon="-2.31943">
        <ele>-6.1999998092651</ele>
        <time>2022-03-06T08:29:07.000Z</time>
      </trkpt>
      <trkpt lat="47.26352" lon="-2.31941">
        <ele>-6.1999998092651</ele>
        <time>2022-03-06T08:29:08.000Z</time>
      </trkpt>
      <trkpt lat="47.26339" lon="-2.31939">
        <ele>-6.1999998092651</ele>
        <time>2022-03-06T08:29:11.000Z</time>
      </trkpt>
      <trkpt lat="47.26328" lon="-2.3194">
        <ele>-6.1999998092651</ele>
        <time>2022-03-06T08:29:13.000Z</time>
      </trkpt>
      <trkpt lat="47.26314" lon="-2.31932">
        <ele>-6.1999998092651</ele>
        <time>2022-03-06T08:29:16.000Z</time>
      </trkpt>
      <trkpt lat="47.26311" lon="-2.31927">
        <ele>-6.1999998092651</ele>
        <time>2022-03-06T08:29:17.000Z</time>
      </trkpt>
      <trkpt lat="47.26308" lon="-2.3191">
        <ele>-6.1999998092651</ele>
        <time>2022-03-06T08:29:20.000Z</time>
      </trkpt>
      <trkpt lat="47.26307" lon="-2.31905">
        <ele>-6.1999998092651</ele>
        <time>2022-03-06T08:29:21.000Z</time>
      </trkpt>
      <trkpt lat="47.26305" lon="-2.31902">
        <ele>-6.1999998092651</ele>
        <time>2022-03-06T08:29:22.000Z</time>
      </trkpt>
      <trkpt lat="47.26301" lon="-2.319">
        <ele>-6.5999999046326</ele>
        <time>2022-03-06T08:29:24.000Z</time>
      </trkpt>
      <trkpt lat="47.263" lon="-2.319">
        <ele>-7</ele>
        <time>2022-03-06T08:29:25.000Z</time>
      </trkpt>
      <trkpt lat="47.26298" lon="-2.31901">
        <ele>-7.4000000953674</ele>
        <time>2022-03-06T08:29:26.000Z</time>
      </trkpt>
      <trkpt lat="47.26296" lon="-2.31903">
        <ele>-7.8000001907349</ele>
        <time>2022-03-06T08:29:27.000Z</time>
      </trkpt>
      <trkpt lat="47.26295" lon="-2.31905">
        <ele>-8.1999998092651</ele>
        <time>2022-03-06T08:29:28.000Z</time>
      </trkpt>
      <trkpt lat="47.26293" lon="-2.31908">
        <ele>-8.1999998092651</ele>
        <time>2022-03-06T08:29:29.000Z</time>
      </trkpt>
      <trkpt lat="47.26283" lon="-2.31925">
        <ele>-8.1999998092651</ele>
        <time>2022-03-06T08:29:33.000Z</time>
      </trkpt>
      <trkpt lat="47.2628" lon="-2.31929">
        <ele>-8.1999998092651</ele>
        <time>2022-03-06T08:29:34.000Z</time>
      </trkpt>
      <trkpt lat="47.26267" lon="-2.31947">
        <ele>-8.1999998092651</ele>
        <time>2022-03-06T08:29:39.000Z</time>
      </trkpt>
      <trkpt lat="47.26257" lon="-2.31961">
        <ele>-8.1999998092651</ele>
        <time>2022-03-06T08:29:43.000Z</time>
      </trkpt>
      <trkpt lat="47.26242" lon="-2.31971">
        <ele>-8.1999998092651</ele>
        <time>2022-03-06T08:29:47.000Z</time>
      </trkpt>
      <trkpt lat="47.26226" lon="-2.31987">
        <ele>-8.1999998092651</ele>
        <time>2022-03-06T08:29:52.000Z</time>
      </trkpt>
      <trkpt lat="47.26212" lon="-2.31998">
        <ele>-8.1999998092651</ele>
        <time>2022-03-06T08:29:57.000Z</time>
      </trkpt>
      <trkpt lat="47.26209" lon="-2.32009">
        <ele>-8.1999998092651</ele>
        <time>2022-03-06T08:30:01.000Z</time>
      </trkpt>
      <trkpt lat="47.26204" lon="-2.32016">
        <ele>-8.1999998092651</ele>
        <time>2022-03-06T08:30:05.000Z</time>
      </trkpt>
      <trkpt lat="47.26201" lon="-2.32017">
        <ele>-8.1999998092651</ele>
        <time>2022-03-06T08:30:06.000Z</time>
      </trkpt>
      <trkpt lat="47.26188" lon="-2.32015">
        <ele>-8.1999998092651</ele>
        <time>2022-03-06T08:30:11.000Z</time>
      </trkpt>
      <trkpt lat="47.26173" lon="-2.32008">
        <ele>-8.1999998092651</ele>
        <time>2022-03-06T08:30:16.000Z</time>
      </trkpt>
      <trkpt lat="47.26166" lon="-2.32002">
        <ele>-8.1999998092651</ele>
        <time>2022-03-06T08:30:20.000Z</time>
      </trkpt>
      <trkpt lat="47.26166" lon="-2.32">
        <ele>-8.1999998092651</ele>
        <time>2022-03-06T08:30:21.000Z</time>
      </trkpt>
      <trkpt lat="47.26166" lon="-2.3199">
        <ele>-8.1999998092651</ele>
        <time>2022-03-06T08:30:26.000Z</time>
      </trkpt>
      <trkpt lat="47.26165" lon="-2.31985">
        <ele>-8.1999998092651</ele>
        <time>2022-03-06T08:30:28.000Z</time>
      </trkpt>
      <trkpt lat="47.26164" lon="-2.31965">
        <ele>-8.1999998092651</ele>
        <time>2022-03-06T08:30:34.000Z</time>
      </trkpt>
      <trkpt lat="47.26163" lon="-2.31957">
        <ele>-8.1999998092651</ele>
        <time>2022-03-06T08:30:36.000Z</time>
      </trkpt>
      <trkpt lat="47.26162" lon="-2.31947">
        <ele>-8.1999998092651</ele>
        <time>2022-03-06T08:30:39.000Z</time>
      </trkpt>
      <trkpt lat="47.26156" lon="-2.31924">
        <ele>-8.1999998092651</ele>
        <time>2022-03-06T08:30:46.000Z</time>
      </trkpt>
      <trkpt lat="47.2615" lon="-2.31889">
        <ele>-8.1999998092651</ele>
        <time>2022-03-06T08:30:53.000Z</time>
      </trkpt>
      <trkpt lat="47.26142" lon="-2.31839">
        <ele>-8.1999998092651</ele>
        <time>2022-03-06T08:31:00.000Z</time>
      </trkpt>
      <trkpt lat="47.26134" lon="-2.31773">
        <ele>-8.1999998092651</ele>
        <time>2022-03-06T08:31:08.000Z</time>
      </trkpt>
      <trkpt lat="47.26129" lon="-2.31716">
        <ele>-8.1999998092651</ele>
        <time>2022-03-06T08:31:15.000Z</time>
      </trkpt>
      <trkpt lat="47.26125" lon="-2.31676">
        <ele>-8.1999998092651</ele>
        <time>2022-03-06T08:31:20.000Z</time>
      </trkpt>
      <trkpt lat="47.26122" lon="-2.31661">
        <ele>-8.1999998092651</ele>
        <time>2022-03-06T08:31:22.000Z</time>
      </trkpt>
      <trkpt lat="47.26118" lon="-2.31646">
        <ele>-8.1999998092651</ele>
        <time>2022-03-06T08:31:24.000Z</time>
      </trkpt>
      <trkpt lat="47.26108" lon="-2.31619">
        <ele>-8.1999998092651</ele>
        <time>2022-03-06T08:31:28.000Z</time>
      </trkpt>
      <trkpt lat="47.26091" lon="-2.31587">
        <ele>-8.1999998092651</ele>
        <time>2022-03-06T08:31:34.000Z</time>
      </trkpt>
      <trkpt lat="47.26077" lon="-2.31574">
        <ele>-8.1999998092651</ele>
        <time>2022-03-06T08:31:39.000Z</time>
      </trkpt>
      <trkpt lat="47.26072" lon="-2.31565">
        <ele>-8.1999998092651</ele>
        <time>2022-03-06T08:31:41.000Z</time>
      </trkpt>
      <trkpt lat="47.2607" lon="-2.31559">
        <ele>-7.8000001907349</ele>
        <time>2022-03-06T08:31:42.000Z</time>
      </trkpt>
      <trkpt lat="47.26068" lon="-2.31554">
        <ele>-7.4000000953674</ele>
        <time>2022-03-06T08:31:43.000Z</time>
      </trkpt>
      <trkpt lat="47.26065" lon="-2.31548">
        <ele>-6.8000001907349</ele>
        <time>2022-03-06T08:31:44.000Z</time>
      </trkpt>
      <trkpt lat="47.26063" lon="-2.31543">
        <ele>-6.4000000953674</ele>
        <time>2022-03-06T08:31:45.000Z</time>
      </trkpt>
      <trkpt lat="47.2606" lon="-2.31537">
        <ele>-6</ele>
        <time>2022-03-06T08:31:46.000Z</time>
      </trkpt>
      <trkpt lat="47.26047" lon="-2.31515">
        <ele>-6</ele>
        <time>2022-03-06T08:31:50.000Z</time>
      </trkpt>
      <trkpt lat="47.26044" lon="-2.31507">
        <ele>-6</ele>
        <time>2022-03-06T08:31:52.000Z</time>
      </trkpt>
      <trkpt lat="47.26045" lon="-2.31503">
        <ele>-6</ele>
        <time>2022-03-06T08:31:53.000Z</time>
      </trkpt>
      <trkpt lat="47.26054" lon="-2.31492">
        <ele>-6</ele>
        <time>2022-03-06T08:31:56.000Z</time>
      </trkpt>
      <trkpt lat="47.26058" lon="-2.31488">
        <ele>-5.5999999046326</ele>
        <time>2022-03-06T08:31:57.000Z</time>
      </trkpt>
      <trkpt lat="47.26061" lon="-2.31482">
        <ele>-5.1999998092651</ele>
        <time>2022-03-06T08:31:58.000Z</time>
      </trkpt>
      <trkpt lat="47.26063" lon="-2.31477">
        <ele>-4.8000001907349</ele>
        <time>2022-03-06T08:31:59.000Z</time>
      </trkpt>
      <trkpt lat="47.26066" lon="-2.31471">
        <ele>-4.4000000953674</ele>
        <time>2022-03-06T08:32:00.000Z</time>
      </trkpt>
      <trkpt lat="47.26068" lon="-2.31466">
        <ele>-4</ele>
        <time>2022-03-06T08:32:01.000Z</time>
      </trkpt>
      <trkpt lat="47.26074" lon="-2.31443">
        <ele>-4</ele>
        <time>2022-03-06T08:32:05.000Z</time>
      </trkpt>
      <trkpt lat="47.26079" lon="-2.31424">
        <ele>-4</ele>
        <time>2022-03-06T08:32:09.000Z</time>
      </trkpt>
      <trkpt lat="47.26081" lon="-2.3142">
        <ele>-4</ele>
        <time>2022-03-06T08:32:10.000Z</time>
      </trkpt>
      <trkpt lat="47.26093" lon="-2.31413">
        <ele>-4</ele>
        <time>2022-03-06T08:32:13.000Z</time>
      </trkpt>
      <trkpt lat="47.26096" lon="-2.31412">
        <ele>-4</ele>
        <time>2022-03-06T08:32:14.000Z</time>
      </trkpt>
      <trkpt lat="47.26115" lon="-2.31403">
        <ele>-3.5999999046326</ele>
        <time>2022-03-06T08:32:19.000Z</time>
      </trkpt>
      <trkpt lat="47.26118" lon="-2.31399">
        <ele>-3.2000000476837</ele>
        <time>2022-03-06T08:32:20.000Z</time>
      </trkpt>
      <trkpt lat="47.26118" lon="-2.31393">
        <ele>-2.7999999523163</ele>
        <time>2022-03-06T08:32:21.000Z</time>
      </trkpt>
      <trkpt lat="47.26118" lon="-2.31388">
        <ele>-2.4000000953674</ele>
        <time>2022-03-06T08:32:22.000Z</time>
      </trkpt>
      <trkpt lat="47.26116" lon="-2.31382">
        <ele>-2</ele>
        <time>2022-03-06T08:32:23.000Z</time>
      </trkpt>
      <trkpt lat="47.26115" lon="-2.31376">
        <ele>-2</ele>
        <time>2022-03-06T08:32:24.000Z</time>
      </trkpt>
      <trkpt lat="47.26105" lon="-2.3133">
        <ele>-1.6000000238419</ele>
        <time>2022-03-06T08:32:31.000Z</time>
      </trkpt>
      <trkpt lat="47.26103" lon="-2.31324">
        <ele>-1.2000000476837</ele>
        <time>2022-03-06T08:32:32.000Z</time>
      </trkpt>
      <trkpt lat="47.26102" lon="-2.31317">
        <ele>-0.60000002384186</ele>
        <time>2022-03-06T08:32:33.000Z</time>
      </trkpt>
      <trkpt lat="47.261" lon="-2.31311">
        <ele>-0.20000000298023</ele>
        <time>2022-03-06T08:32:34.000Z</time>
      </trkpt>
      <trkpt lat="47.26099" lon="-2.31304">
        <ele>0.20000000298023</ele>
        <time>2022-03-06T08:32:35.000Z</time>
      </trkpt>
      <trkpt lat="47.26094" lon="-2.3128">
        <ele>0.20000000298023</ele>
        <time>2022-03-06T08:32:39.000Z</time>
      </trkpt>
      <trkpt lat="47.2609" lon="-2.31268">
        <ele>0.20000000298023</ele>
        <time>2022-03-06T08:32:41.000Z</time>
      </trkpt>
      <trkpt lat="47.26086" lon="-2.31257">
        <ele>0.60000002384186</ele>
        <time>2022-03-06T08:32:43.000Z</time>
      </trkpt>
      <trkpt lat="47.26084" lon="-2.31251">
        <ele>1</ele>
        <time>2022-03-06T08:32:44.000Z</time>
      </trkpt>
      <trkpt lat="47.26082" lon="-2.31245">
        <ele>1.3999999761581</ele>
        <time>2022-03-06T08:32:45.000Z</time>
      </trkpt>
      <trkpt lat="47.26079" lon="-2.3124">
        <ele>1.7999999523163</ele>
        <time>2022-03-06T08:32:46.000Z</time>
      </trkpt>
      <trkpt lat="47.26076" lon="-2.31234">
        <ele>2.2000000476837</ele>
        <time>2022-03-06T08:32:47.000Z</time>
      </trkpt>
      <trkpt lat="47.26064" lon="-2.31206">
        <ele>2.2000000476837</ele>
        <time>2022-03-06T08:32:52.000Z</time>
      </trkpt>
      <trkpt lat="47.26062" lon="-2.312">
        <ele>2.2000000476837</ele>
        <time>2022-03-06T08:32:53.000Z</time>
      </trkpt>
      <trkpt lat="47.26058" lon="-2.31174">
        <ele>2.2000000476837</ele>
        <time>2022-03-06T08:32:57.000Z</time>
      </trkpt>
      <trkpt lat="47.26056" lon="-2.3116">
        <ele>2.5999999046326</ele>
        <time>2022-03-06T08:32:59.000Z</time>
      </trkpt>
      <trkpt lat="47.26055" lon="-2.31154">
        <ele>3</ele>
        <time>2022-03-06T08:33:00.000Z</time>
      </trkpt>
      <trkpt lat="47.26053" lon="-2.31147">
        <ele>3.4000000953674</ele>
        <time>2022-03-06T08:33:01.000Z</time>
      </trkpt>
      <trkpt lat="47.26052" lon="-2.31141">
        <ele>3.7999999523163</ele>
        <time>2022-03-06T08:33:02.000Z</time>
      </trkpt>
      <trkpt lat="47.2605" lon="-2.31134">
        <ele>4.1999998092651</ele>
        <time>2022-03-06T08:33:03.000Z</time>
      </trkpt>
      <trkpt lat="47.2604" lon="-2.31092">
        <ele>4.1999998092651</ele>
        <time>2022-03-06T08:33:09.000Z</time>
      </trkpt>
      <trkpt lat="47.26026" lon="-2.31043">
        <ele>4.1999998092651</ele>
        <time>2022-03-06T08:33:16.000Z</time>
      </trkpt>
      <trkpt lat="47.26012" lon="-2.30985">
        <ele>4.1999998092651</ele>
        <time>2022-03-06T08:33:25.000Z</time>
      </trkpt>
      <trkpt lat="47.2601" lon="-2.30978">
        <ele>4.1999998092651</ele>
        <time>2022-03-06T08:33:26.000Z</time>
      </trkpt>
      <trkpt lat="47.26001" lon="-2.30948">
        <ele>4.1999998092651</ele>
        <time>2022-03-06T08:33:31.000Z</time>
      </trkpt>
      <trkpt lat="47.25992" lon="-2.30927">
        <ele>4.1999998092651</ele>
        <time>2022-03-06T08:33:35.000Z</time>
      </trkpt>
      <trkpt lat="47.25988" lon="-2.30919">
        <ele>4.1999998092651</ele>
        <time>2022-03-06T08:33:37.000Z</time>
      </trkpt>
      <trkpt lat="47.25989" lon="-2.30907">
        <ele>4.1999998092651</ele>
        <time>2022-03-06T08:33:40.000Z</time>
      </trkpt>
      <trkpt lat="47.25993" lon="-2.30888">
        <ele>4.1999998092651</ele>
        <time>2022-03-06T08:33:44.000Z</time>
      </trkpt>
      <trkpt lat="47.25988" lon="-2.30872">
        <ele>4.1999998092651</ele>
        <time>2022-03-06T08:33:47.000Z</time>
      </trkpt>
      <trkpt lat="47.25984" lon="-2.30861">
        <ele>4.1999998092651</ele>
        <time>2022-03-06T08:33:49.000Z</time>
      </trkpt>
      <trkpt lat="47.25974" lon="-2.3084">
        <ele>4.1999998092651</ele>
        <time>2022-03-06T08:33:53.000Z</time>
      </trkpt>
      <trkpt lat="47.25963" lon="-2.30816">
        <ele>4.8000001907349</ele>
        <time>2022-03-06T08:33:58.000Z</time>
      </trkpt>
      <trkpt lat="47.25961" lon="-2.30811">
        <ele>5.1999998092651</ele>
        <time>2022-03-06T08:33:59.000Z</time>
      </trkpt>
      <trkpt lat="47.25959" lon="-2.30807">
        <ele>5.5999999046326</ele>
        <time>2022-03-06T08:34:00.000Z</time>
      </trkpt>
      <trkpt lat="47.25956" lon="-2.30802">
        <ele>6.1999998092651</ele>
        <time>2022-03-06T08:34:01.000Z</time>
      </trkpt>
      <trkpt lat="47.25953" lon="-2.30798">
        <ele>6.5999999046326</ele>
        <time>2022-03-06T08:34:02.000Z</time>
      </trkpt>
      <trkpt lat="47.25949" lon="-2.30788">
        <ele>6.5999999046326</ele>
        <time>2022-03-06T08:34:04.000Z</time>
      </trkpt>
      <trkpt lat="47.25938" lon="-2.30762">
        <ele>6.5999999046326</ele>
        <time>2022-03-06T08:34:09.000Z</time>
      </trkpt>
      <trkpt lat="47.25933" lon="-2.30751">
        <ele>6.5999999046326</ele>
        <time>2022-03-06T08:34:11.000Z</time>
      </trkpt>
      <trkpt lat="47.25923" lon="-2.30739">
        <ele>6.5999999046326</ele>
        <time>2022-03-06T08:34:14.000Z</time>
      </trkpt>
      <trkpt lat="47.25919" lon="-2.30737">
        <ele>7</ele>
        <time>2022-03-06T08:34:15.000Z</time>
      </trkpt>
      <trkpt lat="47.25915" lon="-2.30735">
        <ele>7.4000000953674</ele>
        <time>2022-03-06T08:34:16.000Z</time>
      </trkpt>
      <trkpt lat="47.25911" lon="-2.30733">
        <ele>7.8000001907349</ele>
        <time>2022-03-06T08:34:17.000Z</time>
      </trkpt>
      <trkpt lat="47.25906" lon="-2.30732">
        <ele>8.1999998092651</ele>
        <time>2022-03-06T08:34:18.000Z</time>
      </trkpt>
      <trkpt lat="47.25902" lon="-2.3073">
        <ele>8.6000003814697</ele>
        <time>2022-03-06T08:34:19.000Z</time>
      </trkpt>
      <trkpt lat="47.25894" lon="-2.30727">
        <ele>8.6000003814697</ele>
        <time>2022-03-06T08:34:21.000Z</time>
      </trkpt>
      <trkpt lat="47.25883" lon="-2.30723">
        <ele>9</ele>
        <time>2022-03-06T08:34:24.000Z</time>
      </trkpt>
      <trkpt lat="47.25879" lon="-2.30721">
        <ele>9.3999996185303</ele>
        <time>2022-03-06T08:34:25.000Z</time>
      </trkpt>
      <trkpt lat="47.25875" lon="-2.3072">
        <ele>9.8000001907349</ele>
        <time>2022-03-06T08:34:26.000Z</time>
      </trkpt>
      <trkpt lat="47.25871" lon="-2.30718">
        <ele>10.199999809265</ele>
        <time>2022-03-06T08:34:27.000Z</time>
      </trkpt>
      <trkpt lat="47.25867" lon="-2.30717">
        <ele>10.800000190735</ele>
        <time>2022-03-06T08:34:28.000Z</time>
      </trkpt>
      <trkpt lat="47.25862" lon="-2.30715">
        <ele>10.800000190735</ele>
        <time>2022-03-06T08:34:29.000Z</time>
      </trkpt>
      <trkpt lat="47.2584" lon="-2.30706">
        <ele>10.800000190735</ele>
        <time>2022-03-06T08:34:35.000Z</time>
      </trkpt>
      <trkpt lat="47.25839" lon="-2.30701">
        <ele>10.800000190735</ele>
        <time>2022-03-06T08:34:36.000Z</time>
      </trkpt>
      <trkpt lat="47.25838" lon="-2.30674">
        <ele>10.800000190735</ele>
        <time>2022-03-06T08:34:41.000Z</time>
      </trkpt>
      <trkpt lat="47.25841" lon="-2.30662">
        <ele>11.199999809265</ele>
        <time>2022-03-06T08:34:43.000Z</time>
      </trkpt>
      <trkpt lat="47.25842" lon="-2.30655">
        <ele>11.60000038147</ele>
        <time>2022-03-06T08:34:44.000Z</time>
      </trkpt>
      <trkpt lat="47.25843" lon="-2.30649">
        <ele>12</ele>
        <time>2022-03-06T08:34:45.000Z</time>
      </trkpt>
      <trkpt lat="47.25843" lon="-2.30643">
        <ele>12.39999961853</ele>
        <time>2022-03-06T08:34:46.000Z</time>
      </trkpt>
      <trkpt lat="47.25842" lon="-2.30637">
        <ele>12.800000190735</ele>
        <time>2022-03-06T08:34:47.000Z</time>
      </trkpt>
      <trkpt lat="47.25837" lon="-2.30628">
        <ele>12.800000190735</ele>
        <time>2022-03-06T08:34:49.000Z</time>
      </trkpt>
      <trkpt lat="47.25834" lon="-2.30619">
        <ele>12.800000190735</ele>
        <time>2022-03-06T08:34:51.000Z</time>
      </trkpt>
      <trkpt lat="47.25834" lon="-2.30613">
        <ele>12.800000190735</ele>
        <time>2022-03-06T08:34:52.000Z</time>
      </trkpt>
      <trkpt lat="47.25835" lon="-2.30601">
        <ele>12.800000190735</ele>
        <time>2022-03-06T08:34:54.000Z</time>
      </trkpt>
      <trkpt lat="47.25836" lon="-2.30595">
        <ele>12.800000190735</ele>
        <time>2022-03-06T08:34:55.000Z</time>
      </trkpt>
      <trkpt lat="47.25839" lon="-2.30582">
        <ele>12.800000190735</ele>
        <time>2022-03-06T08:34:57.000Z</time>
      </trkpt>
      <trkpt lat="47.25845" lon="-2.30564">
        <ele>12.800000190735</ele>
        <time>2022-03-06T08:35:00.000Z</time>
      </trkpt>
      <trkpt lat="47.25858" lon="-2.30515">
        <ele>12.800000190735</ele>
        <time>2022-03-06T08:35:08.000Z</time>
      </trkpt>
      <trkpt lat="47.25864" lon="-2.30497">
        <ele>12.800000190735</ele>
        <time>2022-03-06T08:35:11.000Z</time>
      </trkpt>
      <trkpt lat="47.2587" lon="-2.30479">
        <ele>12.800000190735</ele>
        <time>2022-03-06T08:35:14.000Z</time>
      </trkpt>
      <trkpt lat="47.25883" lon="-2.30441">
        <ele>12.800000190735</ele>
        <time>2022-03-06T08:35:20.000Z</time>
      </trkpt>
      <trkpt lat="47.25895" lon="-2.30392">
        <ele>12.800000190735</ele>
        <time>2022-03-06T08:35:27.000Z</time>
      </trkpt>
      <trkpt lat="47.25898" lon="-2.30368">
        <ele>12.800000190735</ele>
        <time>2022-03-06T08:35:30.000Z</time>
      </trkpt>
      <trkpt lat="47.25899" lon="-2.30343">
        <ele>12.800000190735</ele>
        <time>2022-03-06T08:35:33.000Z</time>
      </trkpt>
      <trkpt lat="47.25898" lon="-2.30327">
        <ele>12.800000190735</ele>
        <time>2022-03-06T08:35:35.000Z</time>
      </trkpt>
      <trkpt lat="47.25892" lon="-2.30314">
        <ele>12.39999961853</ele>
        <time>2022-03-06T08:35:37.000Z</time>
      </trkpt>
      <trkpt lat="47.25888" lon="-2.3031">
        <ele>12</ele>
        <time>2022-03-06T08:35:38.000Z</time>
      </trkpt>
      <trkpt lat="47.25884" lon="-2.30306">
        <ele>11.60000038147</ele>
        <time>2022-03-06T08:35:39.000Z</time>
      </trkpt>
      <trkpt lat="47.2588" lon="-2.30301">
        <ele>11.199999809265</ele>
        <time>2022-03-06T08:35:40.000Z</time>
      </trkpt>
      <trkpt lat="47.25877" lon="-2.30296">
        <ele>10.800000190735</ele>
        <time>2022-03-06T08:35:41.000Z</time>
      </trkpt>
      <trkpt lat="47.25877" lon="-2.30275">
        <ele>10.800000190735</ele>
        <time>2022-03-06T08:35:44.000Z</time>
      </trkpt>
      <trkpt lat="47.25886" lon="-2.30255">
        <ele>10.800000190735</ele>
        <time>2022-03-06T08:35:47.000Z</time>
      </trkpt>
      <trkpt lat="47.25889" lon="-2.30249">
        <ele>10.800000190735</ele>
        <time>2022-03-06T08:35:48.000Z</time>
      </trkpt>
      <trkpt lat="47.25891" lon="-2.30241">
        <ele>10.800000190735</ele>
        <time>2022-03-06T08:35:49.000Z</time>
      </trkpt>
      <trkpt lat="47.25893" lon="-2.30217">
        <ele>10.800000190735</ele>
        <time>2022-03-06T08:35:52.000Z</time>
      </trkpt>
      <trkpt lat="47.25891" lon="-2.30201">
        <ele>10.800000190735</ele>
        <time>2022-03-06T08:35:54.000Z</time>
      </trkpt>
      <trkpt lat="47.25891" lon="-2.30194">
        <ele>10.800000190735</ele>
        <time>2022-03-06T08:35:55.000Z</time>
      </trkpt>
      <trkpt lat="47.25894" lon="-2.3018">
        <ele>10.800000190735</ele>
        <time>2022-03-06T08:35:57.000Z</time>
      </trkpt>
      <trkpt lat="47.25907" lon="-2.3017">
        <ele>10.800000190735</ele>
        <time>2022-03-06T08:36:00.000Z</time>
      </trkpt>
      <trkpt lat="47.25912" lon="-2.30168">
        <ele>10.800000190735</ele>
        <time>2022-03-06T08:36:01.000Z</time>
      </trkpt>
      <trkpt lat="47.25929" lon="-2.30164">
        <ele>10.39999961853</ele>
        <time>2022-03-06T08:36:04.000Z</time>
      </trkpt>
      <trkpt lat="47.25935" lon="-2.30163">
        <ele>10</ele>
        <time>2022-03-06T08:36:05.000Z</time>
      </trkpt>
      <trkpt lat="47.25941" lon="-2.30162">
        <ele>9.6000003814697</ele>
        <time>2022-03-06T08:36:06.000Z</time>
      </trkpt>
      <trkpt lat="47.25947" lon="-2.30161">
        <ele>9.1999998092651</ele>
        <time>2022-03-06T08:36:07.000Z</time>
      </trkpt>
      <trkpt lat="47.25953" lon="-2.30158">
        <ele>8.8000001907349</ele>
        <time>2022-03-06T08:36:08.000Z</time>
      </trkpt>
      <trkpt lat="47.25963" lon="-2.30148">
        <ele>8.8000001907349</ele>
        <time>2022-03-06T08:36:10.000Z</time>
      </trkpt>
      <trkpt lat="47.25978" lon="-2.30133">
        <ele>8.8000001907349</ele>
        <time>2022-03-06T08:36:14.000Z</time>
      </trkpt>
      <trkpt lat="47.2599" lon="-2.3013">
        <ele>8.8000001907349</ele>
        <time>2022-03-06T08:36:17.000Z</time>
      </trkpt>
      <trkpt lat="47.25997" lon="-2.30129">
        <ele>8.8000001907349</ele>
        <time>2022-03-06T08:36:19.000Z</time>
      </trkpt>
      <trkpt lat="47.26011" lon="-2.30129">
        <ele>8.8000001907349</ele>
        <time>2022-03-06T08:36:23.000Z</time>
      </trkpt>
      <trkpt lat="47.26024" lon="-2.30133">
        <ele>8.8000001907349</ele>
        <time>2022-03-06T08:36:27.000Z</time>
      </trkpt>
      <trkpt lat="47.26042" lon="-2.30134">
        <ele>8.8000001907349</ele>
        <time>2022-03-06T08:36:32.000Z</time>
      </trkpt>
      <trkpt lat="47.26055" lon="-2.30137">
        <ele>9.1999998092651</ele>
        <time>2022-03-06T08:36:36.000Z</time>
      </trkpt>
      <trkpt lat="47.26057" lon="-2.30141">
        <ele>9.6000003814697</ele>
        <time>2022-03-06T08:36:37.000Z</time>
      </trkpt>
      <trkpt lat="47.2606" lon="-2.30144">
        <ele>10</ele>
        <time>2022-03-06T08:36:38.000Z</time>
      </trkpt>
      <trkpt lat="47.26063" lon="-2.30148">
        <ele>10.39999961853</ele>
        <time>2022-03-06T08:36:39.000Z</time>
      </trkpt>
      <trkpt lat="47.26066" lon="-2.3015">
        <ele>10.800000190735</ele>
        <time>2022-03-06T08:36:40.000Z</time>
      </trkpt>
      <trkpt lat="47.26069" lon="-2.30152">
        <ele>10.800000190735</ele>
        <time>2022-03-06T08:36:41.000Z</time>
      </trkpt>
      <trkpt lat="47.26082" lon="-2.30151">
        <ele>10.800000190735</ele>
        <time>2022-03-06T08:36:46.000Z</time>
      </trkpt>
      <trkpt lat="47.26085" lon="-2.30152">
        <ele>10.800000190735</ele>
        <time>2022-03-06T08:36:47.000Z</time>
      </trkpt>
      <trkpt lat="47.26092" lon="-2.30158">
        <ele>10.800000190735</ele>
        <time>2022-03-06T08:36:50.000Z</time>
      </trkpt>
      <trkpt lat="47.26096" lon="-2.3016">
        <ele>11.199999809265</ele>
        <time>2022-03-06T08:36:52.000Z</time>
      </trkpt>
      <trkpt lat="47.261" lon="-2.30159">
        <ele>11.800000190735</ele>
        <time>2022-03-06T08:36:53.000Z</time>
      </trkpt>
      <trkpt lat="47.26103" lon="-2.30158">
        <ele>12.199999809265</ele>
        <time>2022-03-06T08:36:54.000Z</time>
      </trkpt>
      <trkpt lat="47.26106" lon="-2.30158">
        <ele>12.60000038147</ele>
        <time>2022-03-06T08:36:55.000Z</time>
      </trkpt>
      <trkpt lat="47.26111" lon="-2.30157">
        <ele>13</ele>
        <time>2022-03-06T08:36:56.000Z</time>
      </trkpt>
      <trkpt lat="47.26123" lon="-2.30155">
        <ele>13</ele>
        <time>2022-03-06T08:36:59.000Z</time>
      </trkpt>
      <trkpt lat="47.26134" lon="-2.30153">
        <ele>13.39999961853</ele>
        <time>2022-03-06T08:37:02.000Z</time>
      </trkpt>
      <trkpt lat="47.26138" lon="-2.30152">
        <ele>13.800000190735</ele>
        <time>2022-03-06T08:37:03.000Z</time>
      </trkpt>
      <trkpt lat="47.26141" lon="-2.30151">
        <ele>14.39999961853</ele>
        <time>2022-03-06T08:37:04.000Z</time>
      </trkpt>
      <trkpt lat="47.26144" lon="-2.3015">
        <ele>14.800000190735</ele>
        <time>2022-03-06T08:37:05.000Z</time>
      </trkpt>
      <trkpt lat="47.26147" lon="-2.30149">
        <ele>15.199999809265</ele>
        <time>2022-03-06T08:37:06.000Z</time>
      </trkpt>
      <trkpt lat="47.2616" lon="-2.30146">
        <ele>15.199999809265</ele>
        <time>2022-03-06T08:37:10.000Z</time>
      </trkpt>
      <trkpt lat="47.26165" lon="-2.30146">
        <ele>15.60000038147</ele>
        <time>2022-03-06T08:37:12.000Z</time>
      </trkpt>
      <trkpt lat="47.26168" lon="-2.30148">
        <ele>16</ele>
        <time>2022-03-06T08:37:13.000Z</time>
      </trkpt>
      <trkpt lat="47.2617" lon="-2.30152">
        <ele>16.39999961853</ele>
        <time>2022-03-06T08:37:14.000Z</time>
      </trkpt>
      <trkpt lat="47.26172" lon="-2.30155">
        <ele>16.799999237061</ele>
        <time>2022-03-06T08:37:15.000Z</time>
      </trkpt>
      <trkpt lat="47.26177" lon="-2.30154">
        <ele>17.200000762939</ele>
        <time>2022-03-06T08:37:16.000Z</time>
      </trkpt>
      <trkpt lat="47.2618" lon="-2.30152">
        <ele>17.200000762939</ele>
        <time>2022-03-06T08:37:17.000Z</time>
      </trkpt>
      <trkpt lat="47.26197" lon="-2.30146">
        <ele>17.200000762939</ele>
        <time>2022-03-06T08:37:22.000Z</time>
      </trkpt>
      <trkpt lat="47.26222" lon="-2.30136">
        <ele>17.200000762939</ele>
        <time>2022-03-06T08:37:29.000Z</time>
      </trkpt>
      <trkpt lat="47.26229" lon="-2.30134">
        <ele>17.60000038147</ele>
        <time>2022-03-06T08:37:31.000Z</time>
      </trkpt>
      <trkpt lat="47.26233" lon="-2.30133">
        <ele>18</ele>
        <time>2022-03-06T08:37:32.000Z</time>
      </trkpt>
      <trkpt lat="47.26236" lon="-2.30132">
        <ele>18.39999961853</ele>
        <time>2022-03-06T08:37:33.000Z</time>
      </trkpt>
      <trkpt lat="47.26239" lon="-2.30131">
        <ele>18.799999237061</ele>
        <time>2022-03-06T08:37:34.000Z</time>
      </trkpt>
      <trkpt lat="47.26242" lon="-2.3013">
        <ele>19.200000762939</ele>
        <time>2022-03-06T08:37:35.000Z</time>
      </trkpt>
      <trkpt lat="47.26245" lon="-2.30131">
        <ele>19.200000762939</ele>
        <time>2022-03-06T08:37:36.000Z</time>
      </trkpt>
      <trkpt lat="47.26254" lon="-2.30142">
        <ele>19.200000762939</ele>
        <time>2022-03-06T08:37:40.000Z</time>
      </trkpt>
      <trkpt lat="47.26258" lon="-2.30152">
        <ele>19.200000762939</ele>
        <time>2022-03-06T08:37:42.000Z</time>
      </trkpt>
      <trkpt lat="47.26262" lon="-2.30164">
        <ele>19.200000762939</ele>
        <time>2022-03-06T08:37:44.000Z</time>
      </trkpt>
      <trkpt lat="47.26268" lon="-2.30184">
        <ele>19.200000762939</ele>
        <time>2022-03-06T08:37:47.000Z</time>
      </trkpt>
      <trkpt lat="47.26272" lon="-2.30204">
        <ele>19.200000762939</ele>
        <time>2022-03-06T08:37:50.000Z</time>
      </trkpt>
      <trkpt lat="47.2628" lon="-2.30243">
        <ele>19.200000762939</ele>
        <time>2022-03-06T08:37:56.000Z</time>
      </trkpt>
      <trkpt lat="47.2629" lon="-2.30298">
        <ele>19.200000762939</ele>
        <time>2022-03-06T08:38:04.000Z</time>
      </trkpt>
      <trkpt lat="47.26292" lon="-2.30305">
        <ele>19.200000762939</ele>
        <time>2022-03-06T08:38:05.000Z</time>
      </trkpt>
      <trkpt lat="47.26303" lon="-2.30335">
        <ele>18.799999237061</ele>
        <time>2022-03-06T08:38:10.000Z</time>
      </trkpt>
      <trkpt lat="47.26305" lon="-2.30341">
        <ele>18.39999961853</ele>
        <time>2022-03-06T08:38:11.000Z</time>
      </trkpt>
      <trkpt lat="47.26306" lon="-2.30346">
        <ele>18</ele>
        <time>2022-03-06T08:38:12.000Z</time>
      </trkpt>
      <trkpt lat="47.26307" lon="-2.30352">
        <ele>17.200000762939</ele>
        <time>2022-03-06T08:38:13.000Z</time>
      </trkpt>
      <trkpt lat="47.26309" lon="-2.30365">
        <ele>17.200000762939</ele>
        <time>2022-03-06T08:38:15.000Z</time>
      </trkpt>
      <trkpt lat="47.26313" lon="-2.30401">
        <ele>17.200000762939</ele>
        <time>2022-03-06T08:38:21.000Z</time>
      </trkpt>
      <trkpt lat="47.26319" lon="-2.30431">
        <ele>17.200000762939</ele>
        <time>2022-03-06T08:38:26.000Z</time>
      </trkpt>
      <trkpt lat="47.26322" lon="-2.30442">
        <ele>17.200000762939</ele>
        <time>2022-03-06T08:38:28.000Z</time>
      </trkpt>
      <trkpt lat="47.26328" lon="-2.30472">
        <ele>17.200000762939</ele>
        <time>2022-03-06T08:38:34.000Z</time>
      </trkpt>
      <trkpt lat="47.26336" lon="-2.30505">
        <ele>17.200000762939</ele>
        <time>2022-03-06T08:38:41.000Z</time>
      </trkpt>
      <trkpt lat="47.26343" lon="-2.30534">
        <ele>17.200000762939</ele>
        <time>2022-03-06T08:38:47.000Z</time>
      </trkpt>
      <trkpt lat="47.26347" lon="-2.30554">
        <ele>17.200000762939</ele>
        <time>2022-03-06T08:38:53.000Z</time>
      </trkpt>
      <trkpt lat="47.26348" lon="-2.30565">
        <ele>17.200000762939</ele>
        <time>2022-03-06T08:38:58.000Z</time>
      </trkpt>
      <trkpt lat="47.26347" lon="-2.30569">
        <ele>17.200000762939</ele>
        <time>2022-03-06T08:38:59.000Z</time>
      </trkpt>
      <trkpt lat="47.26346" lon="-2.30582">
        <ele>17.200000762939</ele>
        <time>2022-03-06T08:39:02.000Z</time>
      </trkpt>
      <trkpt lat="47.26355" lon="-2.30605">
        <ele>17.200000762939</ele>
        <time>2022-03-06T08:39:08.000Z</time>
      </trkpt>
      <trkpt lat="47.26367" lon="-2.3063">
        <ele>17.200000762939</ele>
        <time>2022-03-06T08:39:14.000Z</time>
      </trkpt>
      <trkpt lat="47.26382" lon="-2.30655">
        <ele>16.799999237061</ele>
        <time>2022-03-06T08:39:20.000Z</time>
      </trkpt>
      <trkpt lat="47.26385" lon="-2.30659">
        <ele>16.39999961853</ele>
        <time>2022-03-06T08:39:21.000Z</time>
      </trkpt>
      <trkpt lat="47.26388" lon="-2.30662">
        <ele>16</ele>
        <time>2022-03-06T08:39:22.000Z</time>
      </trkpt>
      <trkpt lat="47.26392" lon="-2.30664">
        <ele>15.60000038147</ele>
        <time>2022-03-06T08:39:23.000Z</time>
      </trkpt>
      <trkpt lat="47.26395" lon="-2.30666">
        <ele>15.199999809265</ele>
        <time>2022-03-06T08:39:24.000Z</time>
      </trkpt>
      <trkpt lat="47.26402" lon="-2.30671">
        <ele>15.199999809265</ele>
        <time>2022-03-06T08:39:26.000Z</time>
      </trkpt>
      <trkpt lat="47.26421" lon="-2.30692">
        <ele>15.199999809265</ele>
        <time>2022-03-06T08:39:32.000Z</time>
      </trkpt>
      <trkpt lat="47.26439" lon="-2.30733">
        <ele>15.199999809265</ele>
        <time>2022-03-06T08:39:39.000Z</time>
      </trkpt>
      <trkpt lat="47.26451" lon="-2.30759">
        <ele>15.199999809265</ele>
        <time>2022-03-06T08:39:43.000Z</time>
      </trkpt>
      <trkpt lat="47.26457" lon="-2.30773">
        <ele>15.199999809265</ele>
        <time>2022-03-06T08:39:45.000Z</time>
      </trkpt>
      <trkpt lat="47.26465" lon="-2.30794">
        <ele>14.800000190735</ele>
        <time>2022-03-06T08:39:48.000Z</time>
      </trkpt>
      <trkpt lat="47.26468" lon="-2.30802">
        <ele>14.39999961853</ele>
        <time>2022-03-06T08:39:49.000Z</time>
      </trkpt>
      <trkpt lat="47.26471" lon="-2.30808">
        <ele>14</ele>
        <time>2022-03-06T08:39:50.000Z</time>
      </trkpt>
      <trkpt lat="47.26474" lon="-2.30815">
        <ele>13.60000038147</ele>
        <time>2022-03-06T08:39:51.000Z</time>
      </trkpt>
      <trkpt lat="47.26476" lon="-2.30822">
        <ele>13.199999809265</ele>
        <time>2022-03-06T08:39:52.000Z</time>
      </trkpt>
      <trkpt lat="47.26478" lon="-2.30828">
        <ele>13.199999809265</ele>
        <time>2022-03-06T08:39:53.000Z</time>
      </trkpt>
      <trkpt lat="47.26483" lon="-2.30839">
        <ele>12.60000038147</ele>
        <time>2022-03-06T08:39:55.000Z</time>
      </trkpt>
      <trkpt lat="47.26485" lon="-2.30844">
        <ele>12.199999809265</ele>
        <time>2022-03-06T08:39:56.000Z</time>
      </trkpt>
      <trkpt lat="47.26488" lon="-2.30848">
        <ele>11.800000190735</ele>
        <time>2022-03-06T08:39:57.000Z</time>
      </trkpt>
      <trkpt lat="47.26491" lon="-2.30853">
        <ele>11.39999961853</ele>
        <time>2022-03-06T08:39:58.000Z</time>
      </trkpt>
      <trkpt lat="47.26493" lon="-2.30858">
        <ele>10.800000190735</ele>
        <time>2022-03-06T08:39:59.000Z</time>
      </trkpt>
      <trkpt lat="47.26496" lon="-2.30862">
        <ele>10.39999961853</ele>
        <time>2022-03-06T08:40:00.000Z</time>
      </trkpt>
      <trkpt lat="47.26498" lon="-2.30866">
        <ele>10</ele>
        <time>2022-03-06T08:40:01.000Z</time>
      </trkpt>
      <trkpt lat="47.26501" lon="-2.30871">
        <ele>9.6000003814697</ele>
        <time>2022-03-06T08:40:02.000Z</time>
      </trkpt>
      <trkpt lat="47.26503" lon="-2.30875">
        <ele>9</ele>
        <time>2022-03-06T08:40:03.000Z</time>
      </trkpt>
      <trkpt lat="47.26505" lon="-2.30879">
        <ele>8.3999996185303</ele>
        <time>2022-03-06T08:40:04.000Z</time>
      </trkpt>
      <trkpt lat="47.26508" lon="-2.30882">
        <ele>8</ele>
        <time>2022-03-06T08:40:05.000Z</time>
      </trkpt>
      <trkpt lat="47.2651" lon="-2.30882">
        <ele>7.4000000953674</ele>
        <time>2022-03-06T08:40:06.000Z</time>
      </trkpt>
      <trkpt lat="47.26513" lon="-2.30881">
        <ele>6.8000001907349</ele>
        <time>2022-03-06T08:40:07.000Z</time>
      </trkpt>
      <trkpt lat="47.26526" lon="-2.3087">
        <ele>6.8000001907349</ele>
        <time>2022-03-06T08:40:12.000Z</time>
      </trkpt>
      <trkpt lat="47.2653" lon="-2.30866">
        <ele>6.8000001907349</ele>
        <time>2022-03-06T08:40:14.000Z</time>
      </trkpt>
      <trkpt lat="47.26533" lon="-2.3086">
        <ele>6.8000001907349</ele>
        <time>2022-03-06T08:40:16.000Z</time>
      </trkpt>
      <trkpt lat="47.26542" lon="-2.30849">
        <ele>6.8000001907349</ele>
        <time>2022-03-06T08:40:20.000Z</time>
      </trkpt>
      <trkpt lat="47.26547" lon="-2.30844">
        <ele>6.8000001907349</ele>
        <time>2022-03-06T08:40:22.000Z</time>
      </trkpt>
      <trkpt lat="47.26558" lon="-2.30832">
        <ele>6.8000001907349</ele>
        <time>2022-03-06T08:40:27.000Z</time>
      </trkpt>
      <trkpt lat="47.26568" lon="-2.30814">
        <ele>7.1999998092651</ele>
        <time>2022-03-06T08:40:32.000Z</time>
      </trkpt>
      <trkpt lat="47.2657" lon="-2.30812">
        <ele>7.5999999046326</ele>
        <time>2022-03-06T08:40:33.000Z</time>
      </trkpt>
      <trkpt lat="47.26572" lon="-2.30809">
        <ele>8</ele>
        <time>2022-03-06T08:40:34.000Z</time>
      </trkpt>
      <trkpt lat="47.26573" lon="-2.30806">
        <ele>8.3999996185303</ele>
        <time>2022-03-06T08:40:35.000Z</time>
      </trkpt>
      <trkpt lat="47.26576" lon="-2.30803">
        <ele>8.8000001907349</ele>
        <time>2022-03-06T08:40:36.000Z</time>
      </trkpt>
      <trkpt lat="47.26582" lon="-2.30796">
        <ele>8.8000001907349</ele>
        <time>2022-03-06T08:40:38.000Z</time>
      </trkpt>
      <trkpt lat="47.26598" lon="-2.3078">
        <ele>8.8000001907349</ele>
        <time>2022-03-06T08:40:44.000Z</time>
      </trkpt>
      <trkpt lat="47.26602" lon="-2.30773">
        <ele>8.8000001907349</ele>
        <time>2022-03-06T08:40:46.000Z</time>
      </trkpt>
      <trkpt lat="47.26605" lon="-2.30767">
        <ele>8.8000001907349</ele>
        <time>2022-03-06T08:40:48.000Z</time>
      </trkpt>
      <trkpt lat="47.26608" lon="-2.30759">
        <ele>9.1999998092651</ele>
        <time>2022-03-06T08:40:50.000Z</time>
      </trkpt>
      <trkpt lat="47.2661" lon="-2.30755">
        <ele>9.6000003814697</ele>
        <time>2022-03-06T08:40:51.000Z</time>
      </trkpt>
      <trkpt lat="47.26611" lon="-2.30752">
        <ele>10</ele>
        <time>2022-03-06T08:40:52.000Z</time>
      </trkpt>
      <trkpt lat="47.26613" lon="-2.30749">
        <ele>10.39999961853</ele>
        <time>2022-03-06T08:40:53.000Z</time>
      </trkpt>
      <trkpt lat="47.26615" lon="-2.30746">
        <ele>10.800000190735</ele>
        <time>2022-03-06T08:40:54.000Z</time>
      </trkpt>
      <trkpt lat="47.26628" lon="-2.3073">
        <ele>10.800000190735</ele>
        <time>2022-03-06T08:40:59.000Z</time>
      </trkpt>
      <trkpt lat="47.26637" lon="-2.30709">
        <ele>10.800000190735</ele>
        <time>2022-03-06T08:41:04.000Z</time>
      </trkpt>
      <trkpt lat="47.26642" lon="-2.30698">
        <ele>10.800000190735</ele>
        <time>2022-03-06T08:41:07.000Z</time>
      </trkpt>
      <trkpt lat="47.26644" lon="-2.30697">
        <ele>10.800000190735</ele>
        <time>2022-03-06T08:41:08.000Z</time>
      </trkpt>
      <trkpt lat="47.26651" lon="-2.30698">
        <ele>10.800000190735</ele>
        <time>2022-03-06T08:41:11.000Z</time>
      </trkpt>
      <trkpt lat="47.26655" lon="-2.30702">
        <ele>10.800000190735</ele>
        <time>2022-03-06T08:41:12.000Z</time>
      </trkpt>
      <trkpt lat="47.26666" lon="-2.3072">
        <ele>11.199999809265</ele>
        <time>2022-03-06T08:41:16.000Z</time>
      </trkpt>
      <trkpt lat="47.26668" lon="-2.30724">
        <ele>11.60000038147</ele>
        <time>2022-03-06T08:41:17.000Z</time>
      </trkpt>
      <trkpt lat="47.2667" lon="-2.30729">
        <ele>12.199999809265</ele>
        <time>2022-03-06T08:41:18.000Z</time>
      </trkpt>
      <trkpt lat="47.26673" lon="-2.30734">
        <ele>12.60000038147</ele>
        <time>2022-03-06T08:41:19.000Z</time>
      </trkpt>
      <trkpt lat="47.26675" lon="-2.30738">
        <ele>13</ele>
        <time>2022-03-06T08:41:20.000Z</time>
      </trkpt>
      <trkpt lat="47.26682" lon="-2.3075">
        <ele>13</ele>
        <time>2022-03-06T08:41:23.000Z</time>
      </trkpt>
      <trkpt lat="47.26693" lon="-2.30779">
        <ele>13.39999961853</ele>
        <time>2022-03-06T08:41:29.000Z</time>
      </trkpt>
      <trkpt lat="47.26695" lon="-2.30784">
        <ele>14.199999809265</ele>
        <time>2022-03-06T08:41:30.000Z</time>
      </trkpt>
      <trkpt lat="47.26697" lon="-2.30788">
        <ele>14.60000038147</ele>
        <time>2022-03-06T08:41:31.000Z</time>
      </trkpt>
      <trkpt lat="47.267" lon="-2.30794">
        <ele>15</ele>
        <time>2022-03-06T08:41:32.000Z</time>
      </trkpt>
      <trkpt lat="47.26709" lon="-2.30813">
        <ele>15</ele>
        <time>2022-03-06T08:41:36.000Z</time>
      </trkpt>
      <trkpt lat="47.26722" lon="-2.30842">
        <ele>15.39999961853</ele>
        <time>2022-03-06T08:41:42.000Z</time>
      </trkpt>
      <trkpt lat="47.26724" lon="-2.30847">
        <ele>15.800000190735</ele>
        <time>2022-03-06T08:41:43.000Z</time>
      </trkpt>
      <trkpt lat="47.26726" lon="-2.30852">
        <ele>16.200000762939</ele>
        <time>2022-03-06T08:41:44.000Z</time>
      </trkpt>
      <trkpt lat="47.26729" lon="-2.30856">
        <ele>16.60000038147</ele>
        <time>2022-03-06T08:41:45.000Z</time>
      </trkpt>
      <trkpt lat="47.26731" lon="-2.30861">
        <ele>17</ele>
        <time>2022-03-06T08:41:46.000Z</time>
      </trkpt>
      <trkpt lat="47.26741" lon="-2.30871">
        <ele>17</ele>
        <time>2022-03-06T08:41:49.000Z</time>
      </trkpt>
      <trkpt lat="47.26747" lon="-2.30869">
        <ele>17</ele>
        <time>2022-03-06T08:41:51.000Z</time>
      </trkpt>
      <trkpt lat="47.2675" lon="-2.30866">
        <ele>17</ele>
        <time>2022-03-06T08:41:52.000Z</time>
      </trkpt>
      <trkpt lat="47.26773" lon="-2.30842">
        <ele>17</ele>
        <time>2022-03-06T08:41:58.000Z</time>
      </trkpt>
      <trkpt lat="47.26796" lon="-2.30815">
        <ele>17</ele>
        <time>2022-03-06T08:42:05.000Z</time>
      </trkpt>
      <trkpt lat="47.26819" lon="-2.30793">
        <ele>17</ele>
        <time>2022-03-06T08:42:12.000Z</time>
      </trkpt>
      <trkpt lat="47.26829" lon="-2.30788">
        <ele>17</ele>
        <time>2022-03-06T08:42:16.000Z</time>
      </trkpt>
      <trkpt lat="47.2683" lon="-2.30788">
        <ele>17</ele>
        <time>2022-03-06T08:42:18.000Z</time>
      </trkpt>
      <trkpt lat="47.26831" lon="-2.30784">
        <ele>17</ele>
        <time>2022-03-06T08:42:43.000Z</time>
      </trkpt>
      <trkpt lat="47.26832" lon="-2.30782">
        <ele>17</ele>
        <time>2022-03-06T08:42:44.000Z</time>
      </trkpt>
      <trkpt lat="47.26837" lon="-2.30772">
        <ele>17</ele>
        <time>2022-03-06T08:42:47.000Z</time>
      </trkpt>
      <trkpt lat="47.26839" lon="-2.30764">
        <ele>17</ele>
        <time>2022-03-06T08:42:49.000Z</time>
      </trkpt>
      <trkpt lat="47.26853" lon="-2.30722">
        <ele>17</ele>
        <time>2022-03-06T08:42:57.000Z</time>
      </trkpt>
      <trkpt lat="47.26871" lon="-2.30686">
        <ele>17</ele>
        <time>2022-03-06T08:43:04.000Z</time>
      </trkpt>
      <trkpt lat="47.26883" lon="-2.30669">
        <ele>17</ele>
        <time>2022-03-06T08:43:08.000Z</time>
      </trkpt>
      <trkpt lat="47.26897" lon="-2.30654">
        <ele>17</ele>
        <time>2022-03-06T08:43:12.000Z</time>
      </trkpt>
      <trkpt lat="47.26915" lon="-2.30636">
        <ele>17</ele>
        <time>2022-03-06T08:43:17.000Z</time>
      </trkpt>
      <trkpt lat="47.26924" lon="-2.30632">
        <ele>17</ele>
        <time>2022-03-06T08:43:19.000Z</time>
      </trkpt>
      <trkpt lat="47.26945" lon="-2.30629">
        <ele>17</ele>
        <time>2022-03-06T08:43:23.000Z</time>
      </trkpt>
      <trkpt lat="47.2695" lon="-2.30627">
        <ele>17</ele>
        <time>2022-03-06T08:43:24.000Z</time>
      </trkpt>
      <trkpt lat="47.2698" lon="-2.30615">
        <ele>17</ele>
        <time>2022-03-06T08:43:30.000Z</time>
      </trkpt>
      <trkpt lat="47.27" lon="-2.30602">
        <ele>17</ele>
        <time>2022-03-06T08:43:34.000Z</time>
      </trkpt>
      <trkpt lat="47.27006" lon="-2.3059">
        <ele>17</ele>
        <time>2022-03-06T08:43:36.000Z</time>
      </trkpt>
      <trkpt lat="47.2701" lon="-2.30576">
        <ele>17</ele>
        <time>2022-03-06T08:43:38.000Z</time>
      </trkpt>
      <trkpt lat="47.27011" lon="-2.30569">
        <ele>17</ele>
        <time>2022-03-06T08:43:39.000Z</time>
      </trkpt>
      <trkpt lat="47.27015" lon="-2.30555">
        <ele>17</ele>
        <time>2022-03-06T08:43:41.000Z</time>
      </trkpt>
      <trkpt lat="47.27021" lon="-2.30536">
        <ele>16.60000038147</ele>
        <time>2022-03-06T08:43:44.000Z</time>
      </trkpt>
      <trkpt lat="47.27023" lon="-2.3053">
        <ele>16.200000762939</ele>
        <time>2022-03-06T08:43:45.000Z</time>
      </trkpt>
      <trkpt lat="47.27025" lon="-2.30523">
        <ele>15.800000190735</ele>
        <time>2022-03-06T08:43:46.000Z</time>
      </trkpt>
      <trkpt lat="47.27027" lon="-2.30516">
        <ele>15.39999961853</ele>
        <time>2022-03-06T08:43:47.000Z</time>
      </trkpt>
      <trkpt lat="47.2703" lon="-2.30509">
        <ele>15</ele>
        <time>2022-03-06T08:43:48.000Z</time>
      </trkpt>
      <trkpt lat="47.27042" lon="-2.30456">
        <ele>15</ele>
        <time>2022-03-06T08:43:55.000Z</time>
      </trkpt>
      <trkpt lat="47.27047" lon="-2.30424">
        <ele>15</ele>
        <time>2022-03-06T08:43:59.000Z</time>
      </trkpt>
      <trkpt lat="47.27049" lon="-2.30409">
        <ele>15</ele>
        <time>2022-03-06T08:44:01.000Z</time>
      </trkpt>
      <trkpt lat="47.27056" lon="-2.30358">
        <ele>15</ele>
        <time>2022-03-06T08:44:08.000Z</time>
      </trkpt>
      <trkpt lat="47.27062" lon="-2.30327">
        <ele>15</ele>
        <time>2022-03-06T08:44:13.000Z</time>
      </trkpt>
      <trkpt lat="47.27063" lon="-2.30321">
        <ele>15</ele>
        <time>2022-03-06T08:44:14.000Z</time>
      </trkpt>
      <trkpt lat="47.27066" lon="-2.30292">
        <ele>15</ele>
        <time>2022-03-06T08:44:19.000Z</time>
      </trkpt>
      <trkpt lat="47.27075" lon="-2.30274">
        <ele>15</ele>
        <time>2022-03-06T08:44:23.000Z</time>
      </trkpt>
      <trkpt lat="47.27088" lon="-2.30263">
        <ele>14.60000038147</ele>
        <time>2022-03-06T08:44:28.000Z</time>
      </trkpt>
      <trkpt lat="47.27092" lon="-2.30262">
        <ele>14.199999809265</ele>
        <time>2022-03-06T08:44:29.000Z</time>
      </trkpt>
      <trkpt lat="47.27096" lon="-2.30261">
        <ele>13.800000190735</ele>
        <time>2022-03-06T08:44:30.000Z</time>
      </trkpt>
      <trkpt lat="47.27099" lon="-2.3026">
        <ele>13.39999961853</ele>
        <time>2022-03-06T08:44:31.000Z</time>
      </trkpt>
      <trkpt lat="47.27103" lon="-2.30259">
        <ele>13</ele>
        <time>2022-03-06T08:44:32.000Z</time>
      </trkpt>
      <trkpt lat="47.27107" lon="-2.30257">
        <ele>13</ele>
        <time>2022-03-06T08:44:33.000Z</time>
      </trkpt>
      <trkpt lat="47.27132" lon="-2.30247">
        <ele>13</ele>
        <time>2022-03-06T08:44:40.000Z</time>
      </trkpt>
      <trkpt lat="47.27144" lon="-2.30246">
        <ele>13</ele>
        <time>2022-03-06T08:44:44.000Z</time>
      </trkpt>
      <trkpt lat="47.27149" lon="-2.30246">
        <ele>13</ele>
        <time>2022-03-06T08:44:45.000Z</time>
      </trkpt>
      <trkpt lat="47.27165" lon="-2.30256">
        <ele>13</ele>
        <time>2022-03-06T08:44:50.000Z</time>
      </trkpt>
      <trkpt lat="47.27168" lon="-2.30257">
        <ele>13</ele>
        <time>2022-03-06T08:44:51.000Z</time>
      </trkpt>
      <trkpt lat="47.27176" lon="-2.30256">
        <ele>13</ele>
        <time>2022-03-06T08:44:53.000Z</time>
      </trkpt>
      <trkpt lat="47.27183" lon="-2.30253">
        <ele>13</ele>
        <time>2022-03-06T08:44:55.000Z</time>
      </trkpt>
      <trkpt lat="47.27193" lon="-2.30251">
        <ele>13</ele>
        <time>2022-03-06T08:44:58.000Z</time>
      </trkpt>
      <trkpt lat="47.27199" lon="-2.30252">
        <ele>13</ele>
        <time>2022-03-06T08:45:00.000Z</time>
      </trkpt>
      <trkpt lat="47.27208" lon="-2.30257">
        <ele>13</ele>
        <time>2022-03-06T08:45:03.000Z</time>
      </trkpt>
      <trkpt lat="47.27211" lon="-2.30257">
        <ele>12.60000038147</ele>
        <time>2022-03-06T08:45:04.000Z</time>
      </trkpt>
      <trkpt lat="47.27213" lon="-2.30257">
        <ele>12.199999809265</ele>
        <time>2022-03-06T08:45:05.000Z</time>
      </trkpt>
      <trkpt lat="47.27217" lon="-2.30259">
        <ele>11.800000190735</ele>
        <time>2022-03-06T08:45:06.000Z</time>
      </trkpt>
      <trkpt lat="47.2722" lon="-2.30261">
        <ele>11.39999961853</ele>
        <time>2022-03-06T08:45:07.000Z</time>
      </trkpt>
      <trkpt lat="47.27224" lon="-2.30263">
        <ele>11</ele>
        <time>2022-03-06T08:45:08.000Z</time>
      </trkpt>
      <trkpt lat="47.27245" lon="-2.30264">
        <ele>11</ele>
        <time>2022-03-06T08:45:13.000Z</time>
      </trkpt>
      <trkpt lat="47.27258" lon="-2.30262">
        <ele>11</ele>
        <time>2022-03-06T08:45:16.000Z</time>
      </trkpt>
      <trkpt lat="47.27274" lon="-2.30259">
        <ele>11</ele>
        <time>2022-03-06T08:45:19.000Z</time>
      </trkpt>
      <trkpt lat="47.2729" lon="-2.3026">
        <ele>11</ele>
        <time>2022-03-06T08:45:23.000Z</time>
      </trkpt>
      <trkpt lat="47.27318" lon="-2.30259">
        <ele>11</ele>
        <time>2022-03-06T08:45:29.000Z</time>
      </trkpt>
      <trkpt lat="47.27334" lon="-2.30256">
        <ele>11.39999961853</ele>
        <time>2022-03-06T08:45:33.000Z</time>
      </trkpt>
      <trkpt lat="47.27339" lon="-2.30256">
        <ele>11.800000190735</ele>
        <time>2022-03-06T08:45:34.000Z</time>
      </trkpt>
      <trkpt lat="47.27343" lon="-2.30256">
        <ele>12.199999809265</ele>
        <time>2022-03-06T08:45:35.000Z</time>
      </trkpt>
      <trkpt lat="47.27347" lon="-2.30255">
        <ele>12.60000038147</ele>
        <time>2022-03-06T08:45:36.000Z</time>
      </trkpt>
      <trkpt lat="47.27351" lon="-2.30255">
        <ele>13</ele>
        <time>2022-03-06T08:45:37.000Z</time>
      </trkpt>
      <trkpt lat="47.27368" lon="-2.30253">
        <ele>13</ele>
        <time>2022-03-06T08:45:41.000Z</time>
      </trkpt>
      <trkpt lat="47.2739" lon="-2.30245">
        <ele>13</ele>
        <time>2022-03-06T08:45:46.000Z</time>
      </trkpt>
      <trkpt lat="47.27394" lon="-2.30243">
        <ele>13</ele>
        <time>2022-03-06T08:45:47.000Z</time>
      </trkpt>
      <trkpt lat="47.27421" lon="-2.3023">
        <ele>13</ele>
        <time>2022-03-06T08:45:53.000Z</time>
      </trkpt>
      <trkpt lat="47.27447" lon="-2.30218">
        <ele>13</ele>
        <time>2022-03-06T08:46:00.000Z</time>
      </trkpt>
      <trkpt lat="47.27464" lon="-2.30214">
        <ele>13</ele>
        <time>2022-03-06T08:46:05.000Z</time>
      </trkpt>
      <trkpt lat="47.27479" lon="-2.30206">
        <ele>13</ele>
        <time>2022-03-06T08:46:10.000Z</time>
      </trkpt>
      <trkpt lat="47.27496" lon="-2.30198">
        <ele>13</ele>
        <time>2022-03-06T08:46:17.000Z</time>
      </trkpt>
      <trkpt lat="47.27509" lon="-2.30188">
        <ele>13</ele>
        <time>2022-03-06T08:46:22.000Z</time>
      </trkpt>
      <trkpt lat="47.27514" lon="-2.30177">
        <ele>13</ele>
        <time>2022-03-06T08:46:26.000Z</time>
      </trkpt>
      <trkpt lat="47.2752" lon="-2.30173">
        <ele>13</ele>
        <time>2022-03-06T08:46:28.000Z</time>
      </trkpt>
      <trkpt lat="47.27533" lon="-2.30168">
        <ele>13</ele>
        <time>2022-03-06T08:46:31.000Z</time>
      </trkpt>
      <trkpt lat="47.27553" lon="-2.30155">
        <ele>13</ele>
        <time>2022-03-06T08:46:36.000Z</time>
      </trkpt>
      <trkpt lat="47.2758" lon="-2.30142">
        <ele>13</ele>
        <time>2022-03-06T08:46:42.000Z</time>
      </trkpt>
      <trkpt lat="47.27595" lon="-2.30135">
        <ele>13</ele>
        <time>2022-03-06T08:46:46.000Z</time>
      </trkpt>
      <trkpt lat="47.27607" lon="-2.30123">
        <ele>13</ele>
        <time>2022-03-06T08:46:51.000Z</time>
      </trkpt>
      <trkpt lat="47.27614" lon="-2.3012">
        <ele>13</ele>
        <time>2022-03-06T08:46:53.000Z</time>
      </trkpt>
      <trkpt lat="47.2762" lon="-2.3012">
        <ele>13</ele>
        <time>2022-03-06T08:46:55.000Z</time>
      </trkpt>
      <trkpt lat="47.27639" lon="-2.30128">
        <ele>13</ele>
        <time>2022-03-06T08:47:00.000Z</time>
      </trkpt>
      <trkpt lat="47.27649" lon="-2.30143">
        <ele>13</ele>
        <time>2022-03-06T08:47:03.000Z</time>
      </trkpt>
      <trkpt lat="47.27658" lon="-2.30152">
        <ele>13</ele>
        <time>2022-03-06T08:47:05.000Z</time>
      </trkpt>
      <trkpt lat="47.27678" lon="-2.30153">
        <ele>13</ele>
        <time>2022-03-06T08:47:09.000Z</time>
      </trkpt>
      <trkpt lat="47.27683" lon="-2.30151">
        <ele>13</ele>
        <time>2022-03-06T08:47:10.000Z</time>
      </trkpt>
      <trkpt lat="47.27708" lon="-2.30143">
        <ele>13</ele>
        <time>2022-03-06T08:47:15.000Z</time>
      </trkpt>
      <trkpt lat="47.27735" lon="-2.30137">
        <ele>13</ele>
        <time>2022-03-06T08:47:21.000Z</time>
      </trkpt>
      <trkpt lat="47.27755" lon="-2.30127">
        <ele>13.39999961853</ele>
        <time>2022-03-06T08:47:26.000Z</time>
      </trkpt>
      <trkpt lat="47.27759" lon="-2.30126">
        <ele>13.800000190735</ele>
        <time>2022-03-06T08:47:27.000Z</time>
      </trkpt>
      <trkpt lat="47.27763" lon="-2.30123">
        <ele>14.199999809265</ele>
        <time>2022-03-06T08:47:28.000Z</time>
      </trkpt>
      <trkpt lat="47.27767" lon="-2.30121">
        <ele>14.60000038147</ele>
        <time>2022-03-06T08:47:29.000Z</time>
      </trkpt>
      <trkpt lat="47.27772" lon="-2.30119">
        <ele>15</ele>
        <time>2022-03-06T08:47:30.000Z</time>
      </trkpt>
      <trkpt lat="47.27788" lon="-2.30109">
        <ele>15</ele>
        <time>2022-03-06T08:47:34.000Z</time>
      </trkpt>
      <trkpt lat="47.27817" lon="-2.3009">
        <ele>15</ele>
        <time>2022-03-06T08:47:41.000Z</time>
      </trkpt>
      <trkpt lat="47.27839" lon="-2.30075">
        <ele>15</ele>
        <time>2022-03-06T08:47:46.000Z</time>
      </trkpt>
      <trkpt lat="47.2785" lon="-2.30065">
        <ele>15</ele>
        <time>2022-03-06T08:47:49.000Z</time>
      </trkpt>
      <trkpt lat="47.27878" lon="-2.30044">
        <ele>15</ele>
        <time>2022-03-06T08:47:56.000Z</time>
      </trkpt>
      <trkpt lat="47.2789" lon="-2.30022">
        <ele>15</ele>
        <time>2022-03-06T08:48:01.000Z</time>
      </trkpt>
      <trkpt lat="47.27891" lon="-2.30011">
        <ele>15.39999961853</ele>
        <time>2022-03-06T08:48:03.000Z</time>
      </trkpt>
      <trkpt lat="47.27892" lon="-2.30005">
        <ele>15.800000190735</ele>
        <time>2022-03-06T08:48:04.000Z</time>
      </trkpt>
      <trkpt lat="47.27891" lon="-2.29999">
        <ele>16.799999237061</ele>
        <time>2022-03-06T08:48:05.000Z</time>
      </trkpt>
      <trkpt lat="47.2789" lon="-2.29992">
        <ele>17.200000762939</ele>
        <time>2022-03-06T08:48:06.000Z</time>
      </trkpt>
      <trkpt lat="47.27887" lon="-2.29943">
        <ele>17.200000762939</ele>
        <time>2022-03-06T08:48:13.000Z</time>
      </trkpt>
      <trkpt lat="47.27885" lon="-2.29886">
        <ele>17.200000762939</ele>
        <time>2022-03-06T08:48:21.000Z</time>
      </trkpt>
      <trkpt lat="47.27884" lon="-2.29847">
        <ele>17.200000762939</ele>
        <time>2022-03-06T08:48:27.000Z</time>
      </trkpt>
      <trkpt lat="47.27884" lon="-2.2984">
        <ele>17.200000762939</ele>
        <time>2022-03-06T08:48:28.000Z</time>
      </trkpt>
      <trkpt lat="47.27883" lon="-2.29834">
        <ele>17.60000038147</ele>
        <time>2022-03-06T08:48:29.000Z</time>
      </trkpt>
      <trkpt lat="47.27883" lon="-2.29827">
        <ele>18.39999961853</ele>
        <time>2022-03-06T08:48:30.000Z</time>
      </trkpt>
      <trkpt lat="47.27882" lon="-2.29821">
        <ele>18.799999237061</ele>
        <time>2022-03-06T08:48:31.000Z</time>
      </trkpt>
      <trkpt lat="47.27882" lon="-2.29814">
        <ele>19.200000762939</ele>
        <time>2022-03-06T08:48:32.000Z</time>
      </trkpt>
      <trkpt lat="47.2788" lon="-2.29795">
        <ele>19.200000762939</ele>
        <time>2022-03-06T08:48:35.000Z</time>
      </trkpt>
      <trkpt lat="47.27874" lon="-2.2975">
        <ele>19.200000762939</ele>
        <time>2022-03-06T08:48:42.000Z</time>
      </trkpt>
      <trkpt lat="47.27867" lon="-2.29703">
        <ele>19.200000762939</ele>
        <time>2022-03-06T08:48:49.000Z</time>
      </trkpt>
      <trkpt lat="47.27862" lon="-2.29652">
        <ele>19.200000762939</ele>
        <time>2022-03-06T08:48:56.000Z</time>
      </trkpt>
      <trkpt lat="47.27861" lon="-2.29645">
        <ele>19.200000762939</ele>
        <time>2022-03-06T08:48:57.000Z</time>
      </trkpt>
      <trkpt lat="47.27857" lon="-2.29599">
        <ele>19.200000762939</ele>
        <time>2022-03-06T08:49:04.000Z</time>
      </trkpt>
      <trkpt lat="47.27867" lon="-2.29589">
        <ele>19.200000762939</ele>
        <time>2022-03-06T08:49:07.000Z</time>
      </trkpt>
      <trkpt lat="47.27881" lon="-2.2959">
        <ele>19.200000762939</ele>
        <time>2022-03-06T08:49:10.000Z</time>
      </trkpt>
      <trkpt lat="47.27885" lon="-2.29591">
        <ele>19.200000762939</ele>
        <time>2022-03-06T08:49:11.000Z</time>
      </trkpt>
      <trkpt lat="47.27919" lon="-2.29593">
        <ele>19.200000762939</ele>
        <time>2022-03-06T08:49:18.000Z</time>
      </trkpt>
      <trkpt lat="47.2796" lon="-2.29592">
        <ele>19.200000762939</ele>
        <time>2022-03-06T08:49:26.000Z</time>
      </trkpt>
      <trkpt lat="47.27995" lon="-2.29584">
        <ele>19.200000762939</ele>
        <time>2022-03-06T08:49:33.000Z</time>
      </trkpt>
      <trkpt lat="47.28014" lon="-2.29576">
        <ele>19.60000038147</ele>
        <time>2022-03-06T08:49:37.000Z</time>
      </trkpt>
      <trkpt lat="47.28019" lon="-2.29574">
        <ele>20</ele>
        <time>2022-03-06T08:49:38.000Z</time>
      </trkpt>
      <trkpt lat="47.28024" lon="-2.29573">
        <ele>20.39999961853</ele>
        <time>2022-03-06T08:49:39.000Z</time>
      </trkpt>
      <trkpt lat="47.28028" lon="-2.29571">
        <ele>20.799999237061</ele>
        <time>2022-03-06T08:49:40.000Z</time>
      </trkpt>
      <trkpt lat="47.28033" lon="-2.29569">
        <ele>21.200000762939</ele>
        <time>2022-03-06T08:49:41.000Z</time>
      </trkpt>
      <trkpt lat="47.28056" lon="-2.29558">
        <ele>21.200000762939</ele>
        <time>2022-03-06T08:49:46.000Z</time>
      </trkpt>
      <trkpt lat="47.2809" lon="-2.29543">
        <ele>21.200000762939</ele>
        <time>2022-03-06T08:49:53.000Z</time>
      </trkpt>
      <trkpt lat="47.28136" lon="-2.29524">
        <ele>21.200000762939</ele>
        <time>2022-03-06T08:50:02.000Z</time>
      </trkpt>
      <trkpt lat="47.28168" lon="-2.29511">
        <ele>21.200000762939</ele>
        <time>2022-03-06T08:50:08.000Z</time>
      </trkpt>
      <trkpt lat="47.28207" lon="-2.29496">
        <ele>20.799999237061</ele>
        <time>2022-03-06T08:50:15.000Z</time>
      </trkpt>
      <trkpt lat="47.28213" lon="-2.29493">
        <ele>20.39999961853</ele>
        <time>2022-03-06T08:50:16.000Z</time>
      </trkpt>
      <trkpt lat="47.28219" lon="-2.2949">
        <ele>20</ele>
        <time>2022-03-06T08:50:17.000Z</time>
      </trkpt>
      <trkpt lat="47.28226" lon="-2.29487">
        <ele>19.60000038147</ele>
        <time>2022-03-06T08:50:18.000Z</time>
      </trkpt>
      <trkpt lat="47.28233" lon="-2.29483">
        <ele>19</ele>
        <time>2022-03-06T08:50:19.000Z</time>
      </trkpt>
      <trkpt lat="47.28252" lon="-2.29471">
        <ele>19</ele>
        <time>2022-03-06T08:50:22.000Z</time>
      </trkpt>
      <trkpt lat="47.28278" lon="-2.29454">
        <ele>18.60000038147</ele>
        <time>2022-03-06T08:50:26.000Z</time>
      </trkpt>
      <trkpt lat="47.28284" lon="-2.2945">
        <ele>18.200000762939</ele>
        <time>2022-03-06T08:50:27.000Z</time>
      </trkpt>
      <trkpt lat="47.2829" lon="-2.29445">
        <ele>17.799999237061</ele>
        <time>2022-03-06T08:50:28.000Z</time>
      </trkpt>
      <trkpt lat="47.28296" lon="-2.29441">
        <ele>17.200000762939</ele>
        <time>2022-03-06T08:50:29.000Z</time>
      </trkpt>
      <trkpt lat="47.28302" lon="-2.29435">
        <ele>16.799999237061</ele>
        <time>2022-03-06T08:50:30.000Z</time>
      </trkpt>
      <trkpt lat="47.28307" lon="-2.2943">
        <ele>16.799999237061</ele>
        <time>2022-03-06T08:50:31.000Z</time>
      </trkpt>
      <trkpt lat="47.28341" lon="-2.29393">
        <ele>16.799999237061</ele>
        <time>2022-03-06T08:50:38.000Z</time>
      </trkpt>
      <trkpt lat="47.28357" lon="-2.29377">
        <ele>16.799999237061</ele>
        <time>2022-03-06T08:50:42.000Z</time>
      </trkpt>
      <trkpt lat="47.28365" lon="-2.29372">
        <ele>16.799999237061</ele>
        <time>2022-03-06T08:50:44.000Z</time>
      </trkpt>
      <trkpt lat="47.28388" lon="-2.29356">
        <ele>16.799999237061</ele>
        <time>2022-03-06T08:50:50.000Z</time>
      </trkpt>
      <trkpt lat="47.28396" lon="-2.29352">
        <ele>16.799999237061</ele>
        <time>2022-03-06T08:50:52.000Z</time>
      </trkpt>
      <trkpt lat="47.28425" lon="-2.29335">
        <ele>16.799999237061</ele>
        <time>2022-03-06T08:50:59.000Z</time>
      </trkpt>
      <trkpt lat="47.28457" lon="-2.29325">
        <ele>16.799999237061</ele>
        <time>2022-03-06T08:51:06.000Z</time>
      </trkpt>
      <trkpt lat="47.28473" lon="-2.29318">
        <ele>16.39999961853</ele>
        <time>2022-03-06T08:51:09.000Z</time>
      </trkpt>
      <trkpt lat="47.28478" lon="-2.29315">
        <ele>16</ele>
        <time>2022-03-06T08:51:10.000Z</time>
      </trkpt>
      <trkpt lat="47.28484" lon="-2.29312">
        <ele>15.39999961853</ele>
        <time>2022-03-06T08:51:11.000Z</time>
      </trkpt>
      <trkpt lat="47.2849" lon="-2.29309">
        <ele>15</ele>
        <time>2022-03-06T08:51:12.000Z</time>
      </trkpt>
      <trkpt lat="47.28496" lon="-2.29306">
        <ele>14.60000038147</ele>
        <time>2022-03-06T08:51:13.000Z</time>
      </trkpt>
      <trkpt lat="47.28519" lon="-2.29294">
        <ele>14.60000038147</ele>
        <time>2022-03-06T08:51:17.000Z</time>
      </trkpt>
      <trkpt lat="47.28522" lon="-2.29288">
        <ele>14.199999809265</ele>
        <time>2022-03-06T08:51:18.000Z</time>
      </trkpt>
      <trkpt lat="47.28522" lon="-2.29281">
        <ele>13.800000190735</ele>
        <time>2022-03-06T08:51:19.000Z</time>
      </trkpt>
      <trkpt lat="47.28522" lon="-2.29273">
        <ele>13.199999809265</ele>
        <time>2022-03-06T08:51:20.000Z</time>
      </trkpt>
      <trkpt lat="47.28522" lon="-2.29267">
        <ele>12.800000190735</ele>
        <time>2022-03-06T08:51:21.000Z</time>
      </trkpt>
      <trkpt lat="47.28521" lon="-2.2926">
        <ele>12.39999961853</ele>
        <time>2022-03-06T08:51:22.000Z</time>
      </trkpt>
      <trkpt lat="47.28521" lon="-2.29253">
        <ele>12.39999961853</ele>
        <time>2022-03-06T08:51:23.000Z</time>
      </trkpt>
      <trkpt lat="47.28522" lon="-2.29238">
        <ele>12.39999961853</ele>
        <time>2022-03-06T08:51:25.000Z</time>
      </trkpt>
      <trkpt lat="47.28523" lon="-2.29201">
        <ele>12.39999961853</ele>
        <time>2022-03-06T08:51:30.000Z</time>
      </trkpt>
      <trkpt lat="47.28526" lon="-2.29196">
        <ele>12.39999961853</ele>
        <time>2022-03-06T08:51:31.000Z</time>
      </trkpt>
      <trkpt lat="47.28537" lon="-2.29188">
        <ele>12.39999961853</ele>
        <time>2022-03-06T08:51:34.000Z</time>
      </trkpt>
      <trkpt lat="47.2854" lon="-2.29186">
        <ele>12.39999961853</ele>
        <time>2022-03-06T08:51:35.000Z</time>
      </trkpt>
      <trkpt lat="47.28561" lon="-2.2917">
        <ele>12.39999961853</ele>
        <time>2022-03-06T08:51:40.000Z</time>
      </trkpt>
      <trkpt lat="47.28565" lon="-2.29166">
        <ele>12.39999961853</ele>
        <time>2022-03-06T08:51:41.000Z</time>
      </trkpt>
      <trkpt lat="47.28574" lon="-2.29156">
        <ele>12.39999961853</ele>
        <time>2022-03-06T08:51:43.000Z</time>
      </trkpt>
      <trkpt lat="47.28583" lon="-2.29138">
        <ele>12.39999961853</ele>
        <time>2022-03-06T08:51:46.000Z</time>
      </trkpt>
      <trkpt lat="47.28601" lon="-2.29092">
        <ele>12.39999961853</ele>
        <time>2022-03-06T08:51:53.000Z</time>
      </trkpt>
      <trkpt lat="47.28605" lon="-2.29064">
        <ele>12</ele>
        <time>2022-03-06T08:51:57.000Z</time>
      </trkpt>
      <trkpt lat="47.28605" lon="-2.29059">
        <ele>11.60000038147</ele>
        <time>2022-03-06T08:51:58.000Z</time>
      </trkpt>
      <trkpt lat="47.28604" lon="-2.29053">
        <ele>11.199999809265</ele>
        <time>2022-03-06T08:51:59.000Z</time>
      </trkpt>
      <trkpt lat="47.28603" lon="-2.29048">
        <ele>10.800000190735</ele>
        <time>2022-03-06T08:52:00.000Z</time>
      </trkpt>
      <trkpt lat="47.286" lon="-2.29044">
        <ele>10.39999961853</ele>
        <time>2022-03-06T08:52:01.000Z</time>
      </trkpt>
      <trkpt lat="47.28597" lon="-2.29042">
        <ele>10.39999961853</ele>
        <time>2022-03-06T08:52:02.000Z</time>
      </trkpt>
      <trkpt lat="47.28585" lon="-2.29039">
        <ele>10.39999961853</ele>
        <time>2022-03-06T08:52:06.000Z</time>
      </trkpt>
      <trkpt lat="47.28562" lon="-2.29035">
        <ele>10.39999961853</ele>
        <time>2022-03-06T08:52:12.000Z</time>
      </trkpt>
      <trkpt lat="47.28541" lon="-2.29033">
        <ele>10.39999961853</ele>
        <time>2022-03-06T08:52:19.000Z</time>
      </trkpt>
      <trkpt lat="47.28523" lon="-2.29027">
        <ele>10.39999961853</ele>
        <time>2022-03-06T08:52:25.000Z</time>
      </trkpt>
      <trkpt lat="47.28501" lon="-2.29015">
        <ele>10.800000190735</ele>
        <time>2022-03-06T08:52:32.000Z</time>
      </trkpt>
      <trkpt lat="47.28497" lon="-2.29013">
        <ele>11.199999809265</ele>
        <time>2022-03-06T08:52:33.000Z</time>
      </trkpt>
      <trkpt lat="47.28494" lon="-2.29012">
        <ele>11.60000038147</ele>
        <time>2022-03-06T08:52:34.000Z</time>
      </trkpt>
      <trkpt lat="47.28492" lon="-2.29012">
        <ele>12</ele>
        <time>2022-03-06T08:52:35.000Z</time>
      </trkpt>
      <trkpt lat="47.28489" lon="-2.2901">
        <ele>12.39999961853</ele>
        <time>2022-03-06T08:52:36.000Z</time>
      </trkpt>
      <trkpt lat="47.2848" lon="-2.29007">
        <ele>12.39999961853</ele>
        <time>2022-03-06T08:52:39.000Z</time>
      </trkpt>
      <trkpt lat="47.28466" lon="-2.29002">
        <ele>12.39999961853</ele>
        <time>2022-03-06T08:52:45.000Z</time>
      </trkpt>
      <trkpt lat="47.28454" lon="-2.28997">
        <ele>13</ele>
        <time>2022-03-06T08:52:51.000Z</time>
      </trkpt>
      <trkpt lat="47.28451" lon="-2.28996">
        <ele>13.39999961853</ele>
        <time>2022-03-06T08:52:52.000Z</time>
      </trkpt>
      <trkpt lat="47.28448" lon="-2.28996">
        <ele>13.800000190735</ele>
        <time>2022-03-06T08:52:53.000Z</time>
      </trkpt>
      <trkpt lat="47.28446" lon="-2.28995">
        <ele>14.199999809265</ele>
        <time>2022-03-06T08:52:54.000Z</time>
      </trkpt>
      <trkpt lat="47.28442" lon="-2.28994">
        <ele>14.60000038147</ele>
        <time>2022-03-06T08:52:55.000Z</time>
      </trkpt>
      <trkpt lat="47.28426" lon="-2.28994">
        <ele>14.60000038147</ele>
        <time>2022-03-06T08:52:59.000Z</time>
      </trkpt>
      <trkpt lat="47.28406" lon="-2.28989">
        <ele>15</ele>
        <time>2022-03-06T08:53:06.000Z</time>
      </trkpt>
      <trkpt lat="47.28403" lon="-2.28989">
        <ele>15.39999961853</ele>
        <time>2022-03-06T08:53:07.000Z</time>
      </trkpt>
      <trkpt lat="47.28401" lon="-2.2899">
        <ele>16</ele>
        <time>2022-03-06T08:53:08.000Z</time>
      </trkpt>
      <trkpt lat="47.28399" lon="-2.28988">
        <ele>16.39999961853</ele>
        <time>2022-03-06T08:53:09.000Z</time>
      </trkpt>
      <trkpt lat="47.28398" lon="-2.28986">
        <ele>16.799999237061</ele>
        <time>2022-03-06T08:53:10.000Z</time>
      </trkpt>
      <trkpt lat="47.28396" lon="-2.28972">
        <ele>16.799999237061</ele>
        <time>2022-03-06T08:53:13.000Z</time>
      </trkpt>
      <trkpt lat="47.28396" lon="-2.28966">
        <ele>16.799999237061</ele>
        <time>2022-03-06T08:53:14.000Z</time>
      </trkpt>
      <trkpt lat="47.28394" lon="-2.28935">
        <ele>16.799999237061</ele>
        <time>2022-03-06T08:53:19.000Z</time>
      </trkpt>
      <trkpt lat="47.28392" lon="-2.28889">
        <ele>16.799999237061</ele>
        <time>2022-03-06T08:53:25.000Z</time>
      </trkpt>
      <trkpt lat="47.2839" lon="-2.28854">
        <ele>16.799999237061</ele>
        <time>2022-03-06T08:53:30.000Z</time>
      </trkpt>
      <trkpt lat="47.28389" lon="-2.28807">
        <ele>17.200000762939</ele>
        <time>2022-03-06T08:53:37.000Z</time>
      </trkpt>
      <trkpt lat="47.28389" lon="-2.288">
        <ele>17.60000038147</ele>
        <time>2022-03-06T08:53:38.000Z</time>
      </trkpt>
      <trkpt lat="47.28389" lon="-2.28793">
        <ele>18</ele>
        <time>2022-03-06T08:53:39.000Z</time>
      </trkpt>
      <trkpt lat="47.28389" lon="-2.28786">
        <ele>18.39999961853</ele>
        <time>2022-03-06T08:53:40.000Z</time>
      </trkpt>
      <trkpt lat="47.28389" lon="-2.28779">
        <ele>18.799999237061</ele>
        <time>2022-03-06T08:53:41.000Z</time>
      </trkpt>
      <trkpt lat="47.28387" lon="-2.28745">
        <ele>18.799999237061</ele>
        <time>2022-03-06T08:53:46.000Z</time>
      </trkpt>
      <trkpt lat="47.28386" lon="-2.287">
        <ele>18.799999237061</ele>
        <time>2022-03-06T08:53:53.000Z</time>
      </trkpt>
      <trkpt lat="47.28385" lon="-2.28687">
        <ele>18.799999237061</ele>
        <time>2022-03-06T08:53:55.000Z</time>
      </trkpt>
      <trkpt lat="47.28384" lon="-2.28659">
        <ele>18.799999237061</ele>
        <time>2022-03-06T08:53:59.000Z</time>
      </trkpt>
      <trkpt lat="47.28383" lon="-2.2861">
        <ele>18.799999237061</ele>
        <time>2022-03-06T08:54:06.000Z</time>
      </trkpt>
      <trkpt lat="47.28381" lon="-2.28581">
        <ele>18.799999237061</ele>
        <time>2022-03-06T08:54:10.000Z</time>
      </trkpt>
      <trkpt lat="47.28381" lon="-2.2856">
        <ele>18.799999237061</ele>
        <time>2022-03-06T08:54:13.000Z</time>
      </trkpt>
      <trkpt lat="47.28379" lon="-2.28524">
        <ele>18.799999237061</ele>
        <time>2022-03-06T08:54:18.000Z</time>
      </trkpt>
      <trkpt lat="47.28379" lon="-2.2851">
        <ele>18.799999237061</ele>
        <time>2022-03-06T08:54:20.000Z</time>
      </trkpt>
      <trkpt lat="47.28376" lon="-2.28468">
        <ele>18.799999237061</ele>
        <time>2022-03-06T08:54:26.000Z</time>
      </trkpt>
      <trkpt lat="47.28377" lon="-2.28461">
        <ele>18.799999237061</ele>
        <time>2022-03-06T08:54:27.000Z</time>
      </trkpt>
      <trkpt lat="47.28375" lon="-2.28431">
        <ele>18.799999237061</ele>
        <time>2022-03-06T08:54:31.000Z</time>
      </trkpt>
      <trkpt lat="47.28374" lon="-2.28387">
        <ele>18.799999237061</ele>
        <time>2022-03-06T08:54:37.000Z</time>
      </trkpt>
      <trkpt lat="47.28373" lon="-2.28381">
        <ele>18.799999237061</ele>
        <time>2022-03-06T08:54:38.000Z</time>
      </trkpt>
      <trkpt lat="47.28372" lon="-2.28367">
        <ele>18.799999237061</ele>
        <time>2022-03-06T08:54:40.000Z</time>
      </trkpt>
      <trkpt lat="47.28371" lon="-2.28339">
        <ele>18.799999237061</ele>
        <time>2022-03-06T08:54:44.000Z</time>
      </trkpt>
      <trkpt lat="47.28371" lon="-2.28287">
        <ele>18.799999237061</ele>
        <time>2022-03-06T08:54:51.000Z</time>
      </trkpt>
      <trkpt lat="47.28371" lon="-2.28234">
        <ele>18.799999237061</ele>
        <time>2022-03-06T08:54:57.000Z</time>
      </trkpt>
      <trkpt lat="47.28371" lon="-2.28216">
        <ele>18.799999237061</ele>
        <time>2022-03-06T08:54:59.000Z</time>
      </trkpt>
      <trkpt lat="47.28371" lon="-2.28198">
        <ele>18.799999237061</ele>
        <time>2022-03-06T08:55:01.000Z</time>
      </trkpt>
      <trkpt lat="47.2837" lon="-2.28188">
        <ele>18.39999961853</ele>
        <time>2022-03-06T08:55:02.000Z</time>
      </trkpt>
      <trkpt lat="47.2837" lon="-2.28178">
        <ele>18</ele>
        <time>2022-03-06T08:55:03.000Z</time>
      </trkpt>
      <trkpt lat="47.28371" lon="-2.28169">
        <ele>17.60000038147</ele>
        <time>2022-03-06T08:55:04.000Z</time>
      </trkpt>
      <trkpt lat="47.28371" lon="-2.28159">
        <ele>17.200000762939</ele>
        <time>2022-03-06T08:55:05.000Z</time>
      </trkpt>
      <trkpt lat="47.28371" lon="-2.28149">
        <ele>16.39999961853</ele>
        <time>2022-03-06T08:55:06.000Z</time>
      </trkpt>
      <trkpt lat="47.28371" lon="-2.28139">
        <ele>15.800000190735</ele>
        <time>2022-03-06T08:55:07.000Z</time>
      </trkpt>
      <trkpt lat="47.2837" lon="-2.2813">
        <ele>15.39999961853</ele>
        <time>2022-03-06T08:55:08.000Z</time>
      </trkpt>
      <trkpt lat="47.2837" lon="-2.28121">
        <ele>15</ele>
        <time>2022-03-06T08:55:09.000Z</time>
      </trkpt>
      <trkpt lat="47.28369" lon="-2.28113">
        <ele>14.39999961853</ele>
        <time>2022-03-06T08:55:10.000Z</time>
      </trkpt>
      <trkpt lat="47.28368" lon="-2.28105">
        <ele>13.800000190735</ele>
        <time>2022-03-06T08:55:11.000Z</time>
      </trkpt>
      <trkpt lat="47.28367" lon="-2.28098">
        <ele>13.199999809265</ele>
        <time>2022-03-06T08:55:12.000Z</time>
      </trkpt>
      <trkpt lat="47.28367" lon="-2.28092">
        <ele>12.60000038147</ele>
        <time>2022-03-06T08:55:13.000Z</time>
      </trkpt>
      <trkpt lat="47.28366" lon="-2.28086">
        <ele>12</ele>
        <time>2022-03-06T08:55:14.000Z</time>
      </trkpt>
      <trkpt lat="47.28369" lon="-2.28078">
        <ele>12</ele>
        <time>2022-03-06T08:55:16.000Z</time>
      </trkpt>
      <trkpt lat="47.28369" lon="-2.28075">
        <ele>12</ele>
        <time>2022-03-06T08:55:17.000Z</time>
      </trkpt>
      <trkpt lat="47.28373" lon="-2.28059">
        <ele>12</ele>
        <time>2022-03-06T08:55:23.000Z</time>
      </trkpt>
      <trkpt lat="47.28375" lon="-2.28057">
        <ele>12</ele>
        <time>2022-03-06T08:55:27.000Z</time>
      </trkpt>
      <trkpt lat="47.28375" lon="-2.2806">
        <ele>12</ele>
        <time>2022-03-06T08:55:28.000Z</time>
      </trkpt>
      <trkpt lat="47.28374" lon="-2.28069">
        <ele>12</ele>
        <time>2022-03-06T08:55:31.000Z</time>
      </trkpt>
      <trkpt lat="47.28376" lon="-2.28073">
        <ele>12</ele>
        <time>2022-03-06T08:55:36.000Z</time>
      </trkpt>
      <trkpt lat="47.28379" lon="-2.28074">
        <ele>12</ele>
        <time>2022-03-06T08:55:38.000Z</time>
      </trkpt>
      <trkpt lat="47.28386" lon="-2.28076">
        <ele>12</ele>
        <time>2022-03-06T08:55:42.000Z</time>
      </trkpt>
      <trkpt lat="47.28391" lon="-2.28077">
        <ele>12</ele>
        <time>2022-03-06T08:55:44.000Z</time>
      </trkpt>
      <trkpt lat="47.28396" lon="-2.28081">
        <ele>12</ele>
        <time>2022-03-06T08:55:46.000Z</time>
      </trkpt>
      <trkpt lat="47.28403" lon="-2.28083">
        <ele>12</ele>
        <time>2022-03-06T08:55:48.000Z</time>
      </trkpt>
      <trkpt lat="47.28412" lon="-2.28084">
        <ele>12</ele>
        <time>2022-03-06T08:55:51.000Z</time>
      </trkpt>
      <trkpt lat="47.28416" lon="-2.28086">
        <ele>12</ele>
        <time>2022-03-06T08:55:53.000Z</time>
      </trkpt>
      <trkpt lat="47.28423" lon="-2.28088">
        <ele>12</ele>
        <time>2022-03-06T08:55:56.000Z</time>
      </trkpt>
      <trkpt lat="47.2843" lon="-2.28086">
        <ele>12</ele>
        <time>2022-03-06T08:56:00.000Z</time>
      </trkpt>
      <trkpt lat="47.28441" lon="-2.28092">
        <ele>12</ele>
        <time>2022-03-06T08:56:04.000Z</time>
      </trkpt>
      <trkpt lat="47.28444" lon="-2.28091">
        <ele>12</ele>
        <time>2022-03-06T08:56:05.000Z</time>
      </trkpt>
      <trkpt lat="47.28447" lon="-2.28094">
        <ele>12</ele>
        <time>2022-03-06T08:56:06.000Z</time>
      </trkpt>
      <trkpt lat="47.28454" lon="-2.28098">
        <ele>12</ele>
        <time>2022-03-06T08:56:09.000Z</time>
      </trkpt>
      <trkpt lat="47.28469" lon="-2.28093">
        <ele>12</ele>
        <time>2022-03-06T08:56:15.000Z</time>
      </trkpt>
      <trkpt lat="47.2848" lon="-2.28085">
        <ele>12</ele>
        <time>2022-03-06T08:56:18.000Z</time>
      </trkpt>
      <trkpt lat="47.28483" lon="-2.28079">
        <ele>12</ele>
        <time>2022-03-06T08:56:20.000Z</time>
      </trkpt>
      <trkpt lat="47.28484" lon="-2.28078">
        <ele>12</ele>
        <time>2022-03-06T08:56:21.000Z</time>
      </trkpt>
      <trkpt lat="47.28483" lon="-2.28076">
        <ele>12.39999961853</ele>
        <time>2022-03-06T08:56:22.000Z</time>
      </trkpt>
      <trkpt lat="47.28482" lon="-2.28074">
        <ele>13</ele>
        <time>2022-03-06T08:56:23.000Z</time>
      </trkpt>
      <trkpt lat="47.28481" lon="-2.28072">
        <ele>13.39999961853</ele>
        <time>2022-03-06T08:56:24.000Z</time>
      </trkpt>
      <trkpt lat="47.28479" lon="-2.28069">
        <ele>13.800000190735</ele>
        <time>2022-03-06T08:56:25.000Z</time>
      </trkpt>
      <trkpt lat="47.28478" lon="-2.28067">
        <ele>14.199999809265</ele>
        <time>2022-03-06T08:56:26.000Z</time>
      </trkpt>
      <trkpt lat="47.28477" lon="-2.28057">
        <ele>14.199999809265</ele>
        <time>2022-03-06T08:56:29.000Z</time>
      </trkpt>
      <trkpt lat="47.28483" lon="-2.28048">
        <ele>14.199999809265</ele>
        <time>2022-03-06T08:56:32.000Z</time>
      </trkpt>
      <trkpt lat="47.28486" lon="-2.28045">
        <ele>14.199999809265</ele>
        <time>2022-03-06T08:56:33.000Z</time>
      </trkpt>
      <trkpt lat="47.28493" lon="-2.28038">
        <ele>14.199999809265</ele>
        <time>2022-03-06T08:56:36.000Z</time>
      </trkpt>
      <trkpt lat="47.28496" lon="-2.28039">
        <ele>14.199999809265</ele>
        <time>2022-03-06T08:56:37.000Z</time>
      </trkpt>
      <trkpt lat="47.28499" lon="-2.2804">
        <ele>14.199999809265</ele>
        <time>2022-03-06T08:56:38.000Z</time>
      </trkpt>
      <trkpt lat="47.28514" lon="-2.28049">
        <ele>14.199999809265</ele>
        <time>2022-03-06T08:56:43.000Z</time>
      </trkpt>
      <trkpt lat="47.28526" lon="-2.28051">
        <ele>13.800000190735</ele>
        <time>2022-03-06T08:56:46.000Z</time>
      </trkpt>
      <trkpt lat="47.2853" lon="-2.28052">
        <ele>13.199999809265</ele>
        <time>2022-03-06T08:56:47.000Z</time>
      </trkpt>
      <trkpt lat="47.28533" lon="-2.28054">
        <ele>12.800000190735</ele>
        <time>2022-03-06T08:56:48.000Z</time>
      </trkpt>
      <trkpt lat="47.28536" lon="-2.28053">
        <ele>12.39999961853</ele>
        <time>2022-03-06T08:56:49.000Z</time>
      </trkpt>
      <trkpt lat="47.28539" lon="-2.28052">
        <ele>12</ele>
        <time>2022-03-06T08:56:50.000Z</time>
      </trkpt>
      <trkpt lat="47.28542" lon="-2.28052">
        <ele>11.60000038147</ele>
        <time>2022-03-06T08:56:51.000Z</time>
      </trkpt>
      <trkpt lat="47.28544" lon="-2.28053">
        <ele>11</ele>
        <time>2022-03-06T08:56:52.000Z</time>
      </trkpt>
      <trkpt lat="47.28547" lon="-2.28055">
        <ele>10.60000038147</ele>
        <time>2022-03-06T08:56:53.000Z</time>
      </trkpt>
      <trkpt lat="47.2855" lon="-2.28056">
        <ele>10</ele>
        <time>2022-03-06T08:56:54.000Z</time>
      </trkpt>
      <trkpt lat="47.28552" lon="-2.28058">
        <ele>9.6000003814697</ele>
        <time>2022-03-06T08:56:55.000Z</time>
      </trkpt>
      <trkpt lat="47.28556" lon="-2.28057">
        <ele>9.6000003814697</ele>
        <time>2022-03-06T08:56:56.000Z</time>
      </trkpt>
      <trkpt lat="47.28559" lon="-2.28054">
        <ele>9.6000003814697</ele>
        <time>2022-03-06T08:56:57.000Z</time>
      </trkpt>
      <trkpt lat="47.2857" lon="-2.28048">
        <ele>9.1999998092651</ele>
        <time>2022-03-06T08:57:01.000Z</time>
      </trkpt>
      <trkpt lat="47.28572" lon="-2.28046">
        <ele>8.8000001907349</ele>
        <time>2022-03-06T08:57:02.000Z</time>
      </trkpt>
      <trkpt lat="47.28574" lon="-2.28042">
        <ele>8.3999996185303</ele>
        <time>2022-03-06T08:57:03.000Z</time>
      </trkpt>
      <trkpt lat="47.28577" lon="-2.28039">
        <ele>8</ele>
        <time>2022-03-06T08:57:04.000Z</time>
      </trkpt>
      <trkpt lat="47.28579" lon="-2.28036">
        <ele>7.5999999046326</ele>
        <time>2022-03-06T08:57:05.000Z</time>
      </trkpt>
      <trkpt lat="47.28585" lon="-2.2803">
        <ele>7.5999999046326</ele>
        <time>2022-03-06T08:57:07.000Z</time>
      </trkpt>
      <trkpt lat="47.28598" lon="-2.28">
        <ele>7.5999999046326</ele>
        <time>2022-03-06T08:57:12.000Z</time>
      </trkpt>
      <trkpt lat="47.28607" lon="-2.27973">
        <ele>7.5999999046326</ele>
        <time>2022-03-06T08:57:16.000Z</time>
      </trkpt>
      <trkpt lat="47.28612" lon="-2.27961">
        <ele>7.5999999046326</ele>
        <time>2022-03-06T08:57:18.000Z</time>
      </trkpt>
      <trkpt lat="47.28617" lon="-2.27953">
        <ele>7.5999999046326</ele>
        <time>2022-03-06T08:57:20.000Z</time>
      </trkpt>
      <trkpt lat="47.28622" lon="-2.27948">
        <ele>7.5999999046326</ele>
        <time>2022-03-06T08:57:22.000Z</time>
      </trkpt>
      <trkpt lat="47.28625" lon="-2.27934">
        <ele>7.5999999046326</ele>
        <time>2022-03-06T08:57:27.000Z</time>
      </trkpt>
      <trkpt lat="47.28625" lon="-2.2793">
        <ele>7.5999999046326</ele>
        <time>2022-03-06T08:57:28.000Z</time>
      </trkpt>
      <trkpt lat="47.2863" lon="-2.27892">
        <ele>7.5999999046326</ele>
        <time>2022-03-06T08:57:35.000Z</time>
      </trkpt>
      <trkpt lat="47.28638" lon="-2.27847">
        <ele>7.5999999046326</ele>
        <time>2022-03-06T08:57:41.000Z</time>
      </trkpt>
      <trkpt lat="47.28646" lon="-2.27802">
        <ele>7.5999999046326</ele>
        <time>2022-03-06T08:57:47.000Z</time>
      </trkpt>
      <trkpt lat="47.28652" lon="-2.2778">
        <ele>7.1999998092651</ele>
        <time>2022-03-06T08:57:50.000Z</time>
      </trkpt>
      <trkpt lat="47.28654" lon="-2.27772">
        <ele>6.8000001907349</ele>
        <time>2022-03-06T08:57:51.000Z</time>
      </trkpt>
      <trkpt lat="47.28656" lon="-2.27765">
        <ele>6.4000000953674</ele>
        <time>2022-03-06T08:57:52.000Z</time>
      </trkpt>
      <trkpt lat="47.28658" lon="-2.27757">
        <ele>6</ele>
        <time>2022-03-06T08:57:53.000Z</time>
      </trkpt>
      <trkpt lat="47.28661" lon="-2.2775">
        <ele>5.5999999046326</ele>
        <time>2022-03-06T08:57:54.000Z</time>
      </trkpt>
      <trkpt lat="47.28679" lon="-2.27716">
        <ele>5.5999999046326</ele>
        <time>2022-03-06T08:57:59.000Z</time>
      </trkpt>
      <trkpt lat="47.28702" lon="-2.27677">
        <ele>5.5999999046326</ele>
        <time>2022-03-06T08:58:05.000Z</time>
      </trkpt>
      <trkpt lat="47.28728" lon="-2.27633">
        <ele>5.5999999046326</ele>
        <time>2022-03-06T08:58:12.000Z</time>
      </trkpt>
      <trkpt lat="47.28756" lon="-2.2759">
        <ele>5.5999999046326</ele>
        <time>2022-03-06T08:58:19.000Z</time>
      </trkpt>
      <trkpt lat="47.28783" lon="-2.27555">
        <ele>5.5999999046326</ele>
        <time>2022-03-06T08:58:25.000Z</time>
      </trkpt>
      <trkpt lat="47.28794" lon="-2.27543">
        <ele>5.5999999046326</ele>
        <time>2022-03-06T08:58:27.000Z</time>
      </trkpt>
      <trkpt lat="47.28804" lon="-2.27535">
        <ele>5.5999999046326</ele>
        <time>2022-03-06T08:58:29.000Z</time>
      </trkpt>
      <trkpt lat="47.2882" lon="-2.2753">
        <ele>5.1999998092651</ele>
        <time>2022-03-06T08:58:32.000Z</time>
      </trkpt>
      <trkpt lat="47.28826" lon="-2.2753">
        <ele>4.8000001907349</ele>
        <time>2022-03-06T08:58:33.000Z</time>
      </trkpt>
      <trkpt lat="47.28832" lon="-2.27529">
        <ele>4.4000000953674</ele>
        <time>2022-03-06T08:58:34.000Z</time>
      </trkpt>
      <trkpt lat="47.28838" lon="-2.27528">
        <ele>4</ele>
        <time>2022-03-06T08:58:35.000Z</time>
      </trkpt>
      <trkpt lat="47.28844" lon="-2.27528">
        <ele>3.5999999046326</ele>
        <time>2022-03-06T08:58:36.000Z</time>
      </trkpt>
      <trkpt lat="47.28867" lon="-2.27526">
        <ele>3.5999999046326</ele>
        <time>2022-03-06T08:58:40.000Z</time>
      </trkpt>
      <trkpt lat="47.28911" lon="-2.2752">
        <ele>3.5999999046326</ele>
        <time>2022-03-06T08:58:48.000Z</time>
      </trkpt>
      <trkpt lat="47.28967" lon="-2.27517">
        <ele>3.5999999046326</ele>
        <time>2022-03-06T08:58:58.000Z</time>
      </trkpt>
      <trkpt lat="47.29009" lon="-2.2752">
        <ele>3.5999999046326</ele>
        <time>2022-03-06T08:59:06.000Z</time>
      </trkpt>
      <trkpt lat="47.29046" lon="-2.27522">
        <ele>3.5999999046326</ele>
        <time>2022-03-06T08:59:13.000Z</time>
      </trkpt>
      <trkpt lat="47.29082" lon="-2.27527">
        <ele>3.5999999046326</ele>
        <time>2022-03-06T08:59:20.000Z</time>
      </trkpt>
      <trkpt lat="47.29101" lon="-2.2753">
        <ele>3.5999999046326</ele>
        <time>2022-03-06T08:59:24.000Z</time>
      </trkpt>
      <trkpt lat="47.29117" lon="-2.27531">
        <ele>3.5999999046326</ele>
        <time>2022-03-06T08:59:27.000Z</time>
      </trkpt>
      <trkpt lat="47.29162" lon="-2.27532">
        <ele>3.5999999046326</ele>
        <time>2022-03-06T08:59:35.000Z</time>
      </trkpt>
      <trkpt lat="47.29206" lon="-2.27531">
        <ele>3.5999999046326</ele>
        <time>2022-03-06T08:59:43.000Z</time>
      </trkpt>
      <trkpt lat="47.2924" lon="-2.2753">
        <ele>3.5999999046326</ele>
        <time>2022-03-06T08:59:50.000Z</time>
      </trkpt>
      <trkpt lat="47.2926" lon="-2.27523">
        <ele>3.5999999046326</ele>
        <time>2022-03-06T08:59:54.000Z</time>
      </trkpt>
      <trkpt lat="47.29269" lon="-2.27518">
        <ele>3.5999999046326</ele>
        <time>2022-03-06T08:59:56.000Z</time>
      </trkpt>
      <trkpt lat="47.29282" lon="-2.2752">
        <ele>3.5999999046326</ele>
        <time>2022-03-06T08:59:59.000Z</time>
      </trkpt>
      <trkpt lat="47.29286" lon="-2.27523">
        <ele>3.5999999046326</ele>
        <time>2022-03-06T09:00:00.000Z</time>
      </trkpt>
      <trkpt lat="47.29307" lon="-2.27531">
        <ele>3.5999999046326</ele>
        <time>2022-03-06T09:00:04.000Z</time>
      </trkpt>
      <trkpt lat="47.29331" lon="-2.27534">
        <ele>3.5999999046326</ele>
        <time>2022-03-06T09:00:08.000Z</time>
      </trkpt>
      <trkpt lat="47.29341" lon="-2.27533">
        <ele>3.5999999046326</ele>
        <time>2022-03-06T09:00:10.000Z</time>
      </trkpt>
      <trkpt lat="47.2938" lon="-2.27523">
        <ele>3.5999999046326</ele>
        <time>2022-03-06T09:00:17.000Z</time>
      </trkpt>
      <trkpt lat="47.29425" lon="-2.27514">
        <ele>3.5999999046326</ele>
        <time>2022-03-06T09:00:24.000Z</time>
      </trkpt>
      <trkpt lat="47.29465" lon="-2.27516">
        <ele>3.5999999046326</ele>
        <time>2022-03-06T09:00:30.000Z</time>
      </trkpt>
      <trkpt lat="47.29503" lon="-2.27526">
        <ele>3.5999999046326</ele>
        <time>2022-03-06T09:00:36.000Z</time>
      </trkpt>
      <trkpt lat="47.29546" lon="-2.27541">
        <ele>3.5999999046326</ele>
        <time>2022-03-06T09:00:43.000Z</time>
      </trkpt>
      <trkpt lat="47.29588" lon="-2.27561">
        <ele>3.5999999046326</ele>
        <time>2022-03-06T09:00:50.000Z</time>
      </trkpt>
      <trkpt lat="47.29619" lon="-2.27579">
        <ele>3</ele>
        <time>2022-03-06T09:00:55.000Z</time>
      </trkpt>
      <trkpt lat="47.29625" lon="-2.27583">
        <ele>2.5999999046326</ele>
        <time>2022-03-06T09:00:56.000Z</time>
      </trkpt>
      <trkpt lat="47.29632" lon="-2.27588">
        <ele>2.2000000476837</ele>
        <time>2022-03-06T09:00:57.000Z</time>
      </trkpt>
      <trkpt lat="47.29638" lon="-2.27592">
        <ele>1.7999999523163</ele>
        <time>2022-03-06T09:00:58.000Z</time>
      </trkpt>
      <trkpt lat="47.29644" lon="-2.27596">
        <ele>1.3999999761581</ele>
        <time>2022-03-06T09:00:59.000Z</time>
      </trkpt>
      <trkpt lat="47.29683" lon="-2.27616">
        <ele>1.3999999761581</ele>
        <time>2022-03-06T09:01:05.000Z</time>
      </trkpt>
      <trkpt lat="47.2969" lon="-2.27618">
        <ele>1</ele>
        <time>2022-03-06T09:01:06.000Z</time>
      </trkpt>
      <trkpt lat="47.29696" lon="-2.27619">
        <ele>0.60000002384186</ele>
        <time>2022-03-06T09:01:07.000Z</time>
      </trkpt>
      <trkpt lat="47.29702" lon="-2.27619">
        <ele>0.20000000298023</ele>
        <time>2022-03-06T09:01:08.000Z</time>
      </trkpt>
      <trkpt lat="47.29708" lon="-2.2762">
        <ele>-0.40000000596046</ele>
        <time>2022-03-06T09:01:09.000Z</time>
      </trkpt>
      <trkpt lat="47.29715" lon="-2.27619">
        <ele>-0.80000001192093</ele>
        <time>2022-03-06T09:01:10.000Z</time>
      </trkpt>
      <trkpt lat="47.29739" lon="-2.27608">
        <ele>-0.80000001192093</ele>
        <time>2022-03-06T09:01:14.000Z</time>
      </trkpt>
      <trkpt lat="47.29745" lon="-2.27605">
        <ele>-0.80000001192093</ele>
        <time>2022-03-06T09:01:15.000Z</time>
      </trkpt>
      <trkpt lat="47.29781" lon="-2.27593">
        <ele>-0.80000001192093</ele>
        <time>2022-03-06T09:01:21.000Z</time>
      </trkpt>
      <trkpt lat="47.29788" lon="-2.27593">
        <ele>-0.80000001192093</ele>
        <time>2022-03-06T09:01:22.000Z</time>
      </trkpt>
      <trkpt lat="47.29808" lon="-2.27598">
        <ele>-0.80000001192093</ele>
        <time>2022-03-06T09:01:25.000Z</time>
      </trkpt>
      <trkpt lat="47.2982" lon="-2.27604">
        <ele>-0.80000001192093</ele>
        <time>2022-03-06T09:01:27.000Z</time>
      </trkpt>
      <trkpt lat="47.29843" lon="-2.27619">
        <ele>-0.80000001192093</ele>
        <time>2022-03-06T09:01:31.000Z</time>
      </trkpt>
      <trkpt lat="47.29848" lon="-2.27621">
        <ele>-0.80000001192093</ele>
        <time>2022-03-06T09:01:32.000Z</time>
      </trkpt>
      <trkpt lat="47.29865" lon="-2.27622">
        <ele>-0.80000001192093</ele>
        <time>2022-03-06T09:01:35.000Z</time>
      </trkpt>
      <trkpt lat="47.29871" lon="-2.27621">
        <ele>-0.80000001192093</ele>
        <time>2022-03-06T09:01:36.000Z</time>
      </trkpt>
      <trkpt lat="47.29889" lon="-2.27611">
        <ele>-0.80000001192093</ele>
        <time>2022-03-06T09:01:39.000Z</time>
      </trkpt>
      <trkpt lat="47.29906" lon="-2.27602">
        <ele>-0.80000001192093</ele>
        <time>2022-03-06T09:01:42.000Z</time>
      </trkpt>
      <trkpt lat="47.29923" lon="-2.27599">
        <ele>-0.80000001192093</ele>
        <time>2022-03-06T09:01:45.000Z</time>
      </trkpt>
      <trkpt lat="47.29939" lon="-2.27599">
        <ele>-1.2000000476837</ele>
        <time>2022-03-06T09:01:48.000Z</time>
      </trkpt>
      <trkpt lat="47.29944" lon="-2.27601">
        <ele>-1.6000000238419</ele>
        <time>2022-03-06T09:01:49.000Z</time>
      </trkpt>
      <trkpt lat="47.29949" lon="-2.27605">
        <ele>-2</ele>
        <time>2022-03-06T09:01:50.000Z</time>
      </trkpt>
      <trkpt lat="47.29953" lon="-2.27611">
        <ele>-2.4000000953674</ele>
        <time>2022-03-06T09:01:51.000Z</time>
      </trkpt>
      <trkpt lat="47.29956" lon="-2.27619">
        <ele>-2.7999999523163</ele>
        <time>2022-03-06T09:01:52.000Z</time>
      </trkpt>
      <trkpt lat="47.29958" lon="-2.27627">
        <ele>-2.7999999523163</ele>
        <time>2022-03-06T09:01:53.000Z</time>
      </trkpt>
      <trkpt lat="47.29957" lon="-2.27661">
        <ele>-2.7999999523163</ele>
        <time>2022-03-06T09:01:57.000Z</time>
      </trkpt>
      <trkpt lat="47.29957" lon="-2.27669">
        <ele>-2.7999999523163</ele>
        <time>2022-03-06T09:01:58.000Z</time>
      </trkpt>
      <trkpt lat="47.29956" lon="-2.27677">
        <ele>-2.7999999523163</ele>
        <time>2022-03-06T09:01:59.000Z</time>
      </trkpt>
      <trkpt lat="47.29953" lon="-2.2771">
        <ele>-2.7999999523163</ele>
        <time>2022-03-06T09:02:03.000Z</time>
      </trkpt>
      <trkpt lat="47.29949" lon="-2.2776">
        <ele>-2.7999999523163</ele>
        <time>2022-03-06T09:02:09.000Z</time>
      </trkpt>
      <trkpt lat="47.29944" lon="-2.27817">
        <ele>-2.7999999523163</ele>
        <time>2022-03-06T09:02:16.000Z</time>
      </trkpt>
      <trkpt lat="47.29938" lon="-2.27887">
        <ele>-2.7999999523163</ele>
        <time>2022-03-06T09:02:24.000Z</time>
      </trkpt>
      <trkpt lat="47.29938" lon="-2.27896">
        <ele>-2.4000000953674</ele>
        <time>2022-03-06T09:02:25.000Z</time>
      </trkpt>
      <trkpt lat="47.29937" lon="-2.27904">
        <ele>-2</ele>
        <time>2022-03-06T09:02:26.000Z</time>
      </trkpt>
      <trkpt lat="47.29936" lon="-2.27913">
        <ele>-1.6000000238419</ele>
        <time>2022-03-06T09:02:27.000Z</time>
      </trkpt>
      <trkpt lat="47.29936" lon="-2.27922">
        <ele>-1.2000000476837</ele>
        <time>2022-03-06T09:02:28.000Z</time>
      </trkpt>
      <trkpt lat="47.29935" lon="-2.2793">
        <ele>-0.80000001192093</ele>
        <time>2022-03-06T09:02:29.000Z</time>
      </trkpt>
      <trkpt lat="47.29933" lon="-2.27948">
        <ele>-0.80000001192093</ele>
        <time>2022-03-06T09:02:31.000Z</time>
      </trkpt>
      <trkpt lat="47.29932" lon="-2.27964">
        <ele>-0.80000001192093</ele>
        <time>2022-03-06T09:02:33.000Z</time>
      </trkpt>
      <trkpt lat="47.29933" lon="-2.27989">
        <ele>-0.80000001192093</ele>
        <time>2022-03-06T09:02:36.000Z</time>
      </trkpt>
      <trkpt lat="47.29941" lon="-2.2803">
        <ele>-0.80000001192093</ele>
        <time>2022-03-06T09:02:41.000Z</time>
      </trkpt>
      <trkpt lat="47.29943" lon="-2.28037">
        <ele>-0.80000001192093</ele>
        <time>2022-03-06T09:02:42.000Z</time>
      </trkpt>
      <trkpt lat="47.29955" lon="-2.28049">
        <ele>-0.80000001192093</ele>
        <time>2022-03-06T09:02:45.000Z</time>
      </trkpt>
      <trkpt lat="47.29969" lon="-2.28044">
        <ele>-0.80000001192093</ele>
        <time>2022-03-06T09:02:48.000Z</time>
      </trkpt>
      <trkpt lat="47.29986" lon="-2.28035">
        <ele>-0.80000001192093</ele>
        <time>2022-03-06T09:02:52.000Z</time>
      </trkpt>
      <trkpt lat="47.29993" lon="-2.28043">
        <ele>-0.80000001192093</ele>
        <time>2022-03-06T09:02:55.000Z</time>
      </trkpt>
      <trkpt lat="47.29987" lon="-2.28057">
        <ele>-0.80000001192093</ele>
        <time>2022-03-06T09:02:58.000Z</time>
      </trkpt>
      <trkpt lat="47.29985" lon="-2.28063">
        <ele>-0.80000001192093</ele>
        <time>2022-03-06T09:02:59.000Z</time>
      </trkpt>
      <trkpt lat="47.29978" lon="-2.28088">
        <ele>-0.80000001192093</ele>
        <time>2022-03-06T09:03:03.000Z</time>
      </trkpt>
      <trkpt lat="47.29966" lon="-2.28132">
        <ele>-0.80000001192093</ele>
        <time>2022-03-06T09:03:09.000Z</time>
      </trkpt>
      <trkpt lat="47.29961" lon="-2.28154">
        <ele>-0.80000001192093</ele>
        <time>2022-03-06T09:03:12.000Z</time>
      </trkpt>
      <trkpt lat="47.29957" lon="-2.28167">
        <ele>-0.80000001192093</ele>
        <time>2022-03-06T09:03:14.000Z</time>
      </trkpt>
      <trkpt lat="47.29948" lon="-2.28198">
        <ele>-0.80000001192093</ele>
        <time>2022-03-06T09:03:18.000Z</time>
      </trkpt>
      <trkpt lat="47.29947" lon="-2.28206">
        <ele>-0.80000001192093</ele>
        <time>2022-03-06T09:03:19.000Z</time>
      </trkpt>
      <trkpt lat="47.29949" lon="-2.28239">
        <ele>-0.80000001192093</ele>
        <time>2022-03-06T09:03:23.000Z</time>
      </trkpt>
      <trkpt lat="47.2995" lon="-2.28256">
        <ele>-0.80000001192093</ele>
        <time>2022-03-06T09:03:25.000Z</time>
      </trkpt>
      <trkpt lat="47.29952" lon="-2.28282">
        <ele>-0.80000001192093</ele>
        <time>2022-03-06T09:03:28.000Z</time>
      </trkpt>
      <trkpt lat="47.29952" lon="-2.28298">
        <ele>-0.80000001192093</ele>
        <time>2022-03-06T09:03:30.000Z</time>
      </trkpt>
      <trkpt lat="47.29952" lon="-2.28321">
        <ele>-0.80000001192093</ele>
        <time>2022-03-06T09:03:33.000Z</time>
      </trkpt>
      <trkpt lat="47.29948" lon="-2.28354">
        <ele>-0.80000001192093</ele>
        <time>2022-03-06T09:03:37.000Z</time>
      </trkpt>
      <trkpt lat="47.29946" lon="-2.28378">
        <ele>-0.80000001192093</ele>
        <time>2022-03-06T09:03:40.000Z</time>
      </trkpt>
      <trkpt lat="47.29946" lon="-2.28395">
        <ele>-0.80000001192093</ele>
        <time>2022-03-06T09:03:42.000Z</time>
      </trkpt>
      <trkpt lat="47.29947" lon="-2.28411">
        <ele>-0.80000001192093</ele>
        <time>2022-03-06T09:03:44.000Z</time>
      </trkpt>
      <trkpt lat="47.29947" lon="-2.28419">
        <ele>-0.80000001192093</ele>
        <time>2022-03-06T09:03:45.000Z</time>
      </trkpt>
      <trkpt lat="47.29942" lon="-2.28431">
        <ele>-0.80000001192093</ele>
        <time>2022-03-06T09:03:47.000Z</time>
      </trkpt>
      <trkpt lat="47.29934" lon="-2.28457">
        <ele>-0.80000001192093</ele>
        <time>2022-03-06T09:03:51.000Z</time>
      </trkpt>
      <trkpt lat="47.29934" lon="-2.28465">
        <ele>-0.80000001192093</ele>
        <time>2022-03-06T09:03:52.000Z</time>
      </trkpt>
      <trkpt lat="47.29936" lon="-2.28489">
        <ele>-0.80000001192093</ele>
        <time>2022-03-06T09:03:55.000Z</time>
      </trkpt>
      <trkpt lat="47.29936" lon="-2.28496">
        <ele>-0.80000001192093</ele>
        <time>2022-03-06T09:03:56.000Z</time>
      </trkpt>
      <trkpt lat="47.29935" lon="-2.28503">
        <ele>-1.2000000476837</ele>
        <time>2022-03-06T09:03:57.000Z</time>
      </trkpt>
      <trkpt lat="47.29933" lon="-2.2851">
        <ele>-1.6000000238419</ele>
        <time>2022-03-06T09:03:58.000Z</time>
      </trkpt>
      <trkpt lat="47.29931" lon="-2.28517">
        <ele>-2</ele>
        <time>2022-03-06T09:03:59.000Z</time>
      </trkpt>
      <trkpt lat="47.29929" lon="-2.28524">
        <ele>-2.4000000953674</ele>
        <time>2022-03-06T09:04:00.000Z</time>
      </trkpt>
      <trkpt lat="47.29926" lon="-2.28532">
        <ele>-2.7999999523163</ele>
        <time>2022-03-06T09:04:01.000Z</time>
      </trkpt>
      <trkpt lat="47.29926" lon="-2.2854">
        <ele>-2.7999999523163</ele>
        <time>2022-03-06T09:04:02.000Z</time>
      </trkpt>
      <trkpt lat="47.29926" lon="-2.28547">
        <ele>-2.7999999523163</ele>
        <time>2022-03-06T09:04:03.000Z</time>
      </trkpt>
      <trkpt lat="47.29935" lon="-2.28563">
        <ele>-2.7999999523163</ele>
        <time>2022-03-06T09:04:06.000Z</time>
      </trkpt>
      <trkpt lat="47.2994" lon="-2.2858">
        <ele>-2.7999999523163</ele>
        <time>2022-03-06T09:04:09.000Z</time>
      </trkpt>
      <trkpt lat="47.29939" lon="-2.28587">
        <ele>-2.7999999523163</ele>
        <time>2022-03-06T09:04:10.000Z</time>
      </trkpt>
      <trkpt lat="47.29938" lon="-2.28594">
        <ele>-2.7999999523163</ele>
        <time>2022-03-06T09:04:11.000Z</time>
      </trkpt>
      <trkpt lat="47.29935" lon="-2.28615">
        <ele>-2.7999999523163</ele>
        <time>2022-03-06T09:04:14.000Z</time>
      </trkpt>
      <trkpt lat="47.29927" lon="-2.28658">
        <ele>-2.7999999523163</ele>
        <time>2022-03-06T09:04:20.000Z</time>
      </trkpt>
      <trkpt lat="47.29925" lon="-2.28664">
        <ele>-2.7999999523163</ele>
        <time>2022-03-06T09:04:21.000Z</time>
      </trkpt>
      <trkpt lat="47.29922" lon="-2.28671">
        <ele>-3.2000000476837</ele>
        <time>2022-03-06T09:04:22.000Z</time>
      </trkpt>
      <trkpt lat="47.2992" lon="-2.28677">
        <ele>-3.5999999046326</ele>
        <time>2022-03-06T09:04:23.000Z</time>
      </trkpt>
      <trkpt lat="47.29919" lon="-2.28683">
        <ele>-4</ele>
        <time>2022-03-06T09:04:24.000Z</time>
      </trkpt>
      <trkpt lat="47.29917" lon="-2.2869">
        <ele>-4.4000000953674</ele>
        <time>2022-03-06T09:04:25.000Z</time>
      </trkpt>
      <trkpt lat="47.29916" lon="-2.28696">
        <ele>-4.8000001907349</ele>
        <time>2022-03-06T09:04:26.000Z</time>
      </trkpt>
      <trkpt lat="47.29914" lon="-2.28704">
        <ele>-4.8000001907349</ele>
        <time>2022-03-06T09:04:27.000Z</time>
      </trkpt>
      <trkpt lat="47.29913" lon="-2.2871">
        <ele>-4.8000001907349</ele>
        <time>2022-03-06T09:04:28.000Z</time>
      </trkpt>
      <trkpt lat="47.29906" lon="-2.28737">
        <ele>-4.8000001907349</ele>
        <time>2022-03-06T09:04:32.000Z</time>
      </trkpt>
      <trkpt lat="47.29901" lon="-2.2877">
        <ele>-4.8000001907349</ele>
        <time>2022-03-06T09:04:37.000Z</time>
      </trkpt>
      <trkpt lat="47.299" lon="-2.28783">
        <ele>-4.8000001907349</ele>
        <time>2022-03-06T09:04:39.000Z</time>
      </trkpt>
      <trkpt lat="47.29895" lon="-2.28805">
        <ele>-4.8000001907349</ele>
        <time>2022-03-06T09:04:42.000Z</time>
      </trkpt>
      <trkpt lat="47.29891" lon="-2.28835">
        <ele>-4.8000001907349</ele>
        <time>2022-03-06T09:04:46.000Z</time>
      </trkpt>
      <trkpt lat="47.29888" lon="-2.28851">
        <ele>-4.8000001907349</ele>
        <time>2022-03-06T09:04:48.000Z</time>
      </trkpt>
      <trkpt lat="47.29881" lon="-2.28886">
        <ele>-4.8000001907349</ele>
        <time>2022-03-06T09:04:53.000Z</time>
      </trkpt>
      <trkpt lat="47.29879" lon="-2.28891">
        <ele>-4.8000001907349</ele>
        <time>2022-03-06T09:04:54.000Z</time>
      </trkpt>
      <trkpt lat="47.29872" lon="-2.28918">
        <ele>-4.8000001907349</ele>
        <time>2022-03-06T09:04:58.000Z</time>
      </trkpt>
      <trkpt lat="47.29872" lon="-2.28925">
        <ele>-4.8000001907349</ele>
        <time>2022-03-06T09:04:59.000Z</time>
      </trkpt>
      <trkpt lat="47.29874" lon="-2.28939">
        <ele>-4.8000001907349</ele>
        <time>2022-03-06T09:05:01.000Z</time>
      </trkpt>
      <trkpt lat="47.29878" lon="-2.28948">
        <ele>-4.8000001907349</ele>
        <time>2022-03-06T09:05:03.000Z</time>
      </trkpt>
      <trkpt lat="47.29895" lon="-2.28954">
        <ele>-4.8000001907349</ele>
        <time>2022-03-06T09:05:07.000Z</time>
      </trkpt>
      <trkpt lat="47.29921" lon="-2.28962">
        <ele>-4.8000001907349</ele>
        <time>2022-03-06T09:05:12.000Z</time>
      </trkpt>
      <trkpt lat="47.29931" lon="-2.28978">
        <ele>-4.8000001907349</ele>
        <time>2022-03-06T09:05:15.000Z</time>
      </trkpt>
      <trkpt lat="47.29934" lon="-2.28983">
        <ele>-4.8000001907349</ele>
        <time>2022-03-06T09:05:16.000Z</time>
      </trkpt>
      <trkpt lat="47.29937" lon="-2.28989">
        <ele>-4.8000001907349</ele>
        <time>2022-03-06T09:05:17.000Z</time>
      </trkpt>
      <trkpt lat="47.29951" lon="-2.29014">
        <ele>-4.8000001907349</ele>
        <time>2022-03-06T09:05:21.000Z</time>
      </trkpt>
      <trkpt lat="47.29955" lon="-2.2902">
        <ele>-5.1999998092651</ele>
        <time>2022-03-06T09:05:22.000Z</time>
      </trkpt>
      <trkpt lat="47.29959" lon="-2.29027">
        <ele>-5.5999999046326</ele>
        <time>2022-03-06T09:05:23.000Z</time>
      </trkpt>
      <trkpt lat="47.29962" lon="-2.29034">
        <ele>-6.5999999046326</ele>
        <time>2022-03-06T09:05:24.000Z</time>
      </trkpt>
      <trkpt lat="47.29966" lon="-2.2904">
        <ele>-7</ele>
        <time>2022-03-06T09:05:25.000Z</time>
      </trkpt>
      <trkpt lat="47.29987" lon="-2.29073">
        <ele>-7</ele>
        <time>2022-03-06T09:05:30.000Z</time>
      </trkpt>
      <trkpt lat="47.29995" lon="-2.29085">
        <ele>-7</ele>
        <time>2022-03-06T09:05:32.000Z</time>
      </trkpt>
      <trkpt lat="47.30009" lon="-2.29099">
        <ele>-7</ele>
        <time>2022-03-06T09:05:35.000Z</time>
      </trkpt>
      <trkpt lat="47.30043" lon="-2.29126">
        <ele>-7</ele>
        <time>2022-03-06T09:05:42.000Z</time>
      </trkpt>
      <trkpt lat="47.30057" lon="-2.29137">
        <ele>-7</ele>
        <time>2022-03-06T09:05:45.000Z</time>
      </trkpt>
      <trkpt lat="47.30066" lon="-2.29146">
        <ele>-7</ele>
        <time>2022-03-06T09:05:47.000Z</time>
      </trkpt>
      <trkpt lat="47.30088" lon="-2.29179">
        <ele>-7</ele>
        <time>2022-03-06T09:05:52.000Z</time>
      </trkpt>
      <trkpt lat="47.30092" lon="-2.29186">
        <ele>-7.4000000953674</ele>
        <time>2022-03-06T09:05:53.000Z</time>
      </trkpt>
      <trkpt lat="47.30097" lon="-2.29193">
        <ele>-7.8000001907349</ele>
        <time>2022-03-06T09:05:54.000Z</time>
      </trkpt>
      <trkpt lat="47.30102" lon="-2.29199">
        <ele>-8.1999998092651</ele>
        <time>2022-03-06T09:05:55.000Z</time>
      </trkpt>
      <trkpt lat="47.30106" lon="-2.29206">
        <ele>-8.6000003814697</ele>
        <time>2022-03-06T09:05:56.000Z</time>
      </trkpt>
      <trkpt lat="47.30111" lon="-2.29213">
        <ele>-9</ele>
        <time>2022-03-06T09:05:57.000Z</time>
      </trkpt>
      <trkpt lat="47.30124" lon="-2.29233">
        <ele>-9</ele>
        <time>2022-03-06T09:06:00.000Z</time>
      </trkpt>
      <trkpt lat="47.30159" lon="-2.29287">
        <ele>-9</ele>
        <time>2022-03-06T09:06:08.000Z</time>
      </trkpt>
      <trkpt lat="47.30189" lon="-2.29334">
        <ele>-9</ele>
        <time>2022-03-06T09:06:16.000Z</time>
      </trkpt>
      <trkpt lat="47.30205" lon="-2.29365">
        <ele>-9.3999996185303</ele>
        <time>2022-03-06T09:06:22.000Z</time>
      </trkpt>
      <trkpt lat="47.30207" lon="-2.29371">
        <ele>-9.8000001907349</ele>
        <time>2022-03-06T09:06:23.000Z</time>
      </trkpt>
      <trkpt lat="47.30208" lon="-2.29377">
        <ele>-10.199999809265</ele>
        <time>2022-03-06T09:06:24.000Z</time>
      </trkpt>
      <trkpt lat="47.3021" lon="-2.29384">
        <ele>-10.60000038147</ele>
        <time>2022-03-06T09:06:25.000Z</time>
      </trkpt>
      <trkpt lat="47.30212" lon="-2.2939">
        <ele>-11</ele>
        <time>2022-03-06T09:06:26.000Z</time>
      </trkpt>
      <trkpt lat="47.30216" lon="-2.29403">
        <ele>-11</ele>
        <time>2022-03-06T09:06:28.000Z</time>
      </trkpt>
      <trkpt lat="47.30218" lon="-2.2941">
        <ele>-11</ele>
        <time>2022-03-06T09:06:29.000Z</time>
      </trkpt>
      <trkpt lat="47.30216" lon="-2.29423">
        <ele>-11</ele>
        <time>2022-03-06T09:06:31.000Z</time>
      </trkpt>
      <trkpt lat="47.30206" lon="-2.29442">
        <ele>-11</ele>
        <time>2022-03-06T09:06:34.000Z</time>
      </trkpt>
      <trkpt lat="47.30203" lon="-2.29448">
        <ele>-11</ele>
        <time>2022-03-06T09:06:35.000Z</time>
      </trkpt>
      <trkpt lat="47.30183" lon="-2.29485">
        <ele>-11</ele>
        <time>2022-03-06T09:06:41.000Z</time>
      </trkpt>
      <trkpt lat="47.3018" lon="-2.29491">
        <ele>-11</ele>
        <time>2022-03-06T09:06:42.000Z</time>
      </trkpt>
      <trkpt lat="47.30165" lon="-2.29524">
        <ele>-11</ele>
        <time>2022-03-06T09:06:47.000Z</time>
      </trkpt>
      <trkpt lat="47.30158" lon="-2.29537">
        <ele>-11</ele>
        <time>2022-03-06T09:06:49.000Z</time>
      </trkpt>
      <trkpt lat="47.30145" lon="-2.29563">
        <ele>-11</ele>
        <time>2022-03-06T09:06:53.000Z</time>
      </trkpt>
      <trkpt lat="47.30143" lon="-2.29571">
        <ele>-11</ele>
        <time>2022-03-06T09:06:54.000Z</time>
      </trkpt>
      <trkpt lat="47.30142" lon="-2.29587">
        <ele>-11</ele>
        <time>2022-03-06T09:06:56.000Z</time>
      </trkpt>
      <trkpt lat="47.30143" lon="-2.29624">
        <ele>-11</ele>
        <time>2022-03-06T09:07:01.000Z</time>
      </trkpt>
      <trkpt lat="47.30142" lon="-2.29631">
        <ele>-11</ele>
        <time>2022-03-06T09:07:02.000Z</time>
      </trkpt>
      <trkpt lat="47.30142" lon="-2.29645">
        <ele>-11</ele>
        <time>2022-03-06T09:07:05.000Z</time>
      </trkpt>
      <trkpt lat="47.30143" lon="-2.29648">
        <ele>-11</ele>
        <time>2022-03-06T09:07:06.000Z</time>
      </trkpt>
      <trkpt lat="47.30156" lon="-2.29663">
        <ele>-11</ele>
        <time>2022-03-06T09:07:11.000Z</time>
      </trkpt>
      <trkpt lat="47.30177" lon="-2.29674">
        <ele>-11</ele>
        <time>2022-03-06T09:07:17.000Z</time>
      </trkpt>
      <trkpt lat="47.30181" lon="-2.29676">
        <ele>-11</ele>
        <time>2022-03-06T09:07:18.000Z</time>
      </trkpt>
      <trkpt lat="47.30203" lon="-2.29686">
        <ele>-11</ele>
        <time>2022-03-06T09:07:23.000Z</time>
      </trkpt>
      <trkpt lat="47.30235" lon="-2.29705">
        <ele>-11</ele>
        <time>2022-03-06T09:07:30.000Z</time>
      </trkpt>
      <trkpt lat="47.30249" lon="-2.29712">
        <ele>-11</ele>
        <time>2022-03-06T09:07:35.000Z</time>
      </trkpt>
      <trkpt lat="47.30249" lon="-2.29713">
        <ele>-11</ele>
        <time>2022-03-06T09:07:36.000Z</time>
      </trkpt>
      <trkpt lat="47.30248" lon="-2.29719">
        <ele>-11</ele>
        <time>2022-03-06T09:07:39.000Z</time>
      </trkpt>
      <trkpt lat="47.30245" lon="-2.29725">
        <ele>-11</ele>
        <time>2022-03-06T09:07:41.000Z</time>
      </trkpt>
      <trkpt lat="47.30238" lon="-2.29735">
        <ele>-11</ele>
        <time>2022-03-06T09:07:44.000Z</time>
      </trkpt>
      <trkpt lat="47.30228" lon="-2.29747">
        <ele>-11</ele>
        <time>2022-03-06T09:07:49.000Z</time>
      </trkpt>
      <trkpt lat="47.30216" lon="-2.29771">
        <ele>-11</ele>
        <time>2022-03-06T09:07:55.000Z</time>
      </trkpt>
      <trkpt lat="47.3021" lon="-2.29782">
        <ele>-11</ele>
        <time>2022-03-06T09:07:58.000Z</time>
      </trkpt>
      <trkpt lat="47.30205" lon="-2.29786">
        <ele>-11</ele>
        <time>2022-03-06T09:08:00.000Z</time>
      </trkpt>
      <trkpt lat="47.30194" lon="-2.29803">
        <ele>-11</ele>
        <time>2022-03-06T09:08:05.000Z</time>
      </trkpt>
      <trkpt lat="47.30182" lon="-2.2982">
        <ele>-11</ele>
        <time>2022-03-06T09:08:11.000Z</time>
      </trkpt>
      <trkpt lat="47.30175" lon="-2.29826">
        <ele>-11</ele>
        <time>2022-03-06T09:08:15.000Z</time>
      </trkpt>
      <trkpt lat="47.30173" lon="-2.29829">
        <ele>-11</ele>
        <time>2022-03-06T09:08:16.000Z</time>
      </trkpt>
      <trkpt lat="47.30159" lon="-2.29852">
        <ele>-11</ele>
        <time>2022-03-06T09:08:22.000Z</time>
      </trkpt>
      <trkpt lat="47.30146" lon="-2.29868">
        <ele>-11</ele>
        <time>2022-03-06T09:08:26.000Z</time>
      </trkpt>
      <trkpt lat="47.30142" lon="-2.29869">
        <ele>-11</ele>
        <time>2022-03-06T09:08:27.000Z</time>
      </trkpt>
      <trkpt lat="47.30122" lon="-2.29888">
        <ele>-11</ele>
        <time>2022-03-06T09:08:32.000Z</time>
      </trkpt>
      <trkpt lat="47.30103" lon="-2.29908">
        <ele>-11</ele>
        <time>2022-03-06T09:08:38.000Z</time>
      </trkpt>
      <trkpt lat="47.30099" lon="-2.2991">
        <ele>-11</ele>
        <time>2022-03-06T09:08:39.000Z</time>
      </trkpt>
      <trkpt lat="47.30094" lon="-2.29915">
        <ele>-11</ele>
        <time>2022-03-06T09:08:41.000Z</time>
      </trkpt>
      <trkpt lat="47.30094" lon="-2.29921">
        <ele>-11</ele>
        <time>2022-03-06T09:08:43.000Z</time>
      </trkpt>
      <trkpt lat="47.30096" lon="-2.29937">
        <ele>-11</ele>
        <time>2022-03-06T09:08:48.000Z</time>
      </trkpt>
      <trkpt lat="47.30099" lon="-2.29948">
        <ele>-11</ele>
        <time>2022-03-06T09:08:51.000Z</time>
      </trkpt>
      <trkpt lat="47.30097" lon="-2.29956">
        <ele>-11</ele>
        <time>2022-03-06T09:08:53.000Z</time>
      </trkpt>
      <trkpt lat="47.30097" lon="-2.29979">
        <ele>-11</ele>
        <time>2022-03-06T09:08:58.000Z</time>
      </trkpt>
      <trkpt lat="47.30106" lon="-2.29994">
        <ele>-11</ele>
        <time>2022-03-06T09:09:02.000Z</time>
      </trkpt>
      <trkpt lat="47.30116" lon="-2.30001">
        <ele>-11</ele>
        <time>2022-03-06T09:09:05.000Z</time>
      </trkpt>
      <trkpt lat="47.30119" lon="-2.30004">
        <ele>-11</ele>
        <time>2022-03-06T09:09:06.000Z</time>
      </trkpt>
      <trkpt lat="47.30128" lon="-2.30015">
        <ele>-11</ele>
        <time>2022-03-06T09:09:10.000Z</time>
      </trkpt>
      <trkpt lat="47.30143" lon="-2.30043">
        <ele>-11</ele>
        <time>2022-03-06T09:09:16.000Z</time>
      </trkpt>
      <trkpt lat="47.3016" lon="-2.30081">
        <ele>-11</ele>
        <time>2022-03-06T09:09:23.000Z</time>
      </trkpt>
      <trkpt lat="47.30166" lon="-2.30106">
        <ele>-11</ele>
        <time>2022-03-06T09:09:28.000Z</time>
      </trkpt>
      <trkpt lat="47.30175" lon="-2.30138">
        <ele>-11</ele>
        <time>2022-03-06T09:09:34.000Z</time>
      </trkpt>
      <trkpt lat="47.30191" lon="-2.3018">
        <ele>-11</ele>
        <time>2022-03-06T09:09:42.000Z</time>
      </trkpt>
      <trkpt lat="47.30199" lon="-2.30201">
        <ele>-11</ele>
        <time>2022-03-06T09:09:47.000Z</time>
      </trkpt>
      <trkpt lat="47.30201" lon="-2.30217">
        <ele>-11</ele>
        <time>2022-03-06T09:09:51.000Z</time>
      </trkpt>
      <trkpt lat="47.302" lon="-2.30221">
        <ele>-11</ele>
        <time>2022-03-06T09:09:52.000Z</time>
      </trkpt>
      <trkpt lat="47.30192" lon="-2.30232">
        <ele>-11</ele>
        <time>2022-03-06T09:09:55.000Z</time>
      </trkpt>
      <trkpt lat="47.3019" lon="-2.30235">
        <ele>-11</ele>
        <time>2022-03-06T09:09:56.000Z</time>
      </trkpt>
      <trkpt lat="47.30173" lon="-2.30246">
        <ele>-11</ele>
        <time>2022-03-06T09:10:01.000Z</time>
      </trkpt>
      <trkpt lat="47.3014" lon="-2.3026">
        <ele>-11</ele>
        <time>2022-03-06T09:10:09.000Z</time>
      </trkpt>
      <trkpt lat="47.30135" lon="-2.30261">
        <ele>-10.60000038147</ele>
        <time>2022-03-06T09:10:10.000Z</time>
      </trkpt>
      <trkpt lat="47.3013" lon="-2.30262">
        <ele>-10.199999809265</ele>
        <time>2022-03-06T09:10:11.000Z</time>
      </trkpt>
      <trkpt lat="47.30126" lon="-2.30263">
        <ele>-9.8000001907349</ele>
        <time>2022-03-06T09:10:12.000Z</time>
      </trkpt>
      <trkpt lat="47.30121" lon="-2.30265">
        <ele>-9.3999996185303</ele>
        <time>2022-03-06T09:10:13.000Z</time>
      </trkpt>
      <trkpt lat="47.30117" lon="-2.30266">
        <ele>-9</ele>
        <time>2022-03-06T09:10:14.000Z</time>
      </trkpt>
      <trkpt lat="47.30109" lon="-2.30274">
        <ele>-9</ele>
        <time>2022-03-06T09:10:16.000Z</time>
      </trkpt>
      <trkpt lat="47.30106" lon="-2.30293">
        <ele>-9</ele>
        <time>2022-03-06T09:10:19.000Z</time>
      </trkpt>
      <trkpt lat="47.30112" lon="-2.30319">
        <ele>-9</ele>
        <time>2022-03-06T09:10:23.000Z</time>
      </trkpt>
      <trkpt lat="47.30114" lon="-2.30325">
        <ele>-9</ele>
        <time>2022-03-06T09:10:24.000Z</time>
      </trkpt>
      <trkpt lat="47.30131" lon="-2.30386">
        <ele>-9</ele>
        <time>2022-03-06T09:10:33.000Z</time>
      </trkpt>
      <trkpt lat="47.30146" lon="-2.30434">
        <ele>-9</ele>
        <time>2022-03-06T09:10:40.000Z</time>
      </trkpt>
      <trkpt lat="47.3015" lon="-2.30447">
        <ele>-9</ele>
        <time>2022-03-06T09:10:42.000Z</time>
      </trkpt>
      <trkpt lat="47.30159" lon="-2.30463">
        <ele>-9</ele>
        <time>2022-03-06T09:10:45.000Z</time>
      </trkpt>
      <trkpt lat="47.30163" lon="-2.30468">
        <ele>-9</ele>
        <time>2022-03-06T09:10:46.000Z</time>
      </trkpt>
      <trkpt lat="47.30182" lon="-2.30495">
        <ele>-9</ele>
        <time>2022-03-06T09:10:51.000Z</time>
      </trkpt>
      <trkpt lat="47.30198" lon="-2.30513">
        <ele>-9</ele>
        <time>2022-03-06T09:10:55.000Z</time>
      </trkpt>
      <trkpt lat="47.30206" lon="-2.3052">
        <ele>-9</ele>
        <time>2022-03-06T09:10:57.000Z</time>
      </trkpt>
      <trkpt lat="47.30223" lon="-2.30536">
        <ele>-9</ele>
        <time>2022-03-06T09:11:01.000Z</time>
      </trkpt>
      <trkpt lat="47.30229" lon="-2.30548">
        <ele>-9</ele>
        <time>2022-03-06T09:11:03.000Z</time>
      </trkpt>
      <trkpt lat="47.30231" lon="-2.30555">
        <ele>-9</ele>
        <time>2022-03-06T09:11:04.000Z</time>
      </trkpt>
      <trkpt lat="47.30228" lon="-2.30582">
        <ele>-9</ele>
        <time>2022-03-06T09:11:08.000Z</time>
      </trkpt>
      <trkpt lat="47.30212" lon="-2.30597">
        <ele>-9</ele>
        <time>2022-03-06T09:11:12.000Z</time>
      </trkpt>
      <trkpt lat="47.30198" lon="-2.30615">
        <ele>-9</ele>
        <time>2022-03-06T09:11:17.000Z</time>
      </trkpt>
      <trkpt lat="47.30186" lon="-2.30626">
        <ele>-9</ele>
        <time>2022-03-06T09:11:21.000Z</time>
      </trkpt>
      <trkpt lat="47.30172" lon="-2.30639">
        <ele>-9</ele>
        <time>2022-03-06T09:11:26.000Z</time>
      </trkpt>
      <trkpt lat="47.30168" lon="-2.30649">
        <ele>-9</ele>
        <time>2022-03-06T09:11:28.000Z</time>
      </trkpt>
      <trkpt lat="47.30167" lon="-2.30661">
        <ele>-9</ele>
        <time>2022-03-06T09:11:30.000Z</time>
      </trkpt>
      <trkpt lat="47.30169" lon="-2.30685">
        <ele>-9</ele>
        <time>2022-03-06T09:11:34.000Z</time>
      </trkpt>
      <trkpt lat="47.3017" lon="-2.30697">
        <ele>-9</ele>
        <time>2022-03-06T09:11:36.000Z</time>
      </trkpt>
      <trkpt lat="47.30174" lon="-2.30729">
        <ele>-9</ele>
        <time>2022-03-06T09:11:42.000Z</time>
      </trkpt>
      <trkpt lat="47.3017" lon="-2.30753">
        <ele>-9</ele>
        <time>2022-03-06T09:11:47.000Z</time>
      </trkpt>
      <trkpt lat="47.30162" lon="-2.30785">
        <ele>-9</ele>
        <time>2022-03-06T09:11:54.000Z</time>
      </trkpt>
      <trkpt lat="47.30161" lon="-2.30793">
        <ele>-9</ele>
        <time>2022-03-06T09:11:56.000Z</time>
      </trkpt>
      <trkpt lat="47.30164" lon="-2.30798">
        <ele>-9</ele>
        <time>2022-03-06T09:11:58.000Z</time>
      </trkpt>
      <trkpt lat="47.30169" lon="-2.30801">
        <ele>-9</ele>
        <time>2022-03-06T09:12:00.000Z</time>
      </trkpt>
      <trkpt lat="47.30176" lon="-2.30807">
        <ele>-9</ele>
        <time>2022-03-06T09:12:04.000Z</time>
      </trkpt>
      <trkpt lat="47.30187" lon="-2.30821">
        <ele>-9</ele>
        <time>2022-03-06T09:12:10.000Z</time>
      </trkpt>
      <trkpt lat="47.30209" lon="-2.30845">
        <ele>-9</ele>
        <time>2022-03-06T09:12:18.000Z</time>
      </trkpt>
      <trkpt lat="47.30231" lon="-2.30867">
        <ele>-9</ele>
        <time>2022-03-06T09:12:25.000Z</time>
      </trkpt>
      <trkpt lat="47.30254" lon="-2.30891">
        <ele>-9</ele>
        <time>2022-03-06T09:12:32.000Z</time>
      </trkpt>
      <trkpt lat="47.30269" lon="-2.30911">
        <ele>-8.6000003814697</ele>
        <time>2022-03-06T09:12:37.000Z</time>
      </trkpt>
      <trkpt lat="47.30271" lon="-2.30915">
        <ele>-8.1999998092651</ele>
        <time>2022-03-06T09:12:38.000Z</time>
      </trkpt>
      <trkpt lat="47.30274" lon="-2.30919">
        <ele>-7.8000001907349</ele>
        <time>2022-03-06T09:12:39.000Z</time>
      </trkpt>
      <trkpt lat="47.30277" lon="-2.30923">
        <ele>-7.1999998092651</ele>
        <time>2022-03-06T09:12:40.000Z</time>
      </trkpt>
      <trkpt lat="47.3028" lon="-2.30927">
        <ele>-6.8000001907349</ele>
        <time>2022-03-06T09:12:41.000Z</time>
      </trkpt>
      <trkpt lat="47.30297" lon="-2.30953">
        <ele>-6.4000000953674</ele>
        <time>2022-03-06T09:12:47.000Z</time>
      </trkpt>
      <trkpt lat="47.303" lon="-2.30956">
        <ele>-6</ele>
        <time>2022-03-06T09:12:48.000Z</time>
      </trkpt>
      <trkpt lat="47.30303" lon="-2.3096">
        <ele>-5.1999998092651</ele>
        <time>2022-03-06T09:12:49.000Z</time>
      </trkpt>
      <trkpt lat="47.30305" lon="-2.30964">
        <ele>-4.8000001907349</ele>
        <time>2022-03-06T09:12:50.000Z</time>
      </trkpt>
      <trkpt lat="47.30319" lon="-2.30984">
        <ele>-4.8000001907349</ele>
        <time>2022-03-06T09:12:55.000Z</time>
      </trkpt>
      <trkpt lat="47.30327" lon="-2.30996">
        <ele>-4.4000000953674</ele>
        <time>2022-03-06T09:12:58.000Z</time>
      </trkpt>
      <trkpt lat="47.3033" lon="-2.30999">
        <ele>-4</ele>
        <time>2022-03-06T09:12:59.000Z</time>
      </trkpt>
      <trkpt lat="47.30332" lon="-2.31003">
        <ele>-3.5999999046326</ele>
        <time>2022-03-06T09:13:00.000Z</time>
      </trkpt>
      <trkpt lat="47.30335" lon="-2.31007">
        <ele>-3.2000000476837</ele>
        <time>2022-03-06T09:13:01.000Z</time>
      </trkpt>
      <trkpt lat="47.30337" lon="-2.3101">
        <ele>-2.5999999046326</ele>
        <time>2022-03-06T09:13:02.000Z</time>
      </trkpt>
      <trkpt lat="47.30357" lon="-2.31035">
        <ele>-2.5999999046326</ele>
        <time>2022-03-06T09:13:09.000Z</time>
      </trkpt>
      <trkpt lat="47.3036" lon="-2.31039">
        <ele>-2.2000000476837</ele>
        <time>2022-03-06T09:13:10.000Z</time>
      </trkpt>
      <trkpt lat="47.30363" lon="-2.31044">
        <ele>-1.7999999523163</ele>
        <time>2022-03-06T09:13:11.000Z</time>
      </trkpt>
      <trkpt lat="47.30365" lon="-2.31047">
        <ele>-1.3999999761581</ele>
        <time>2022-03-06T09:13:12.000Z</time>
      </trkpt>
      <trkpt lat="47.30368" lon="-2.31051">
        <ele>-1</ele>
        <time>2022-03-06T09:13:13.000Z</time>
      </trkpt>
      <trkpt lat="47.30371" lon="-2.31055">
        <ele>-0.60000002384186</ele>
        <time>2022-03-06T09:13:14.000Z</time>
      </trkpt>
      <trkpt lat="47.30377" lon="-2.31064">
        <ele>-0.60000002384186</ele>
        <time>2022-03-06T09:13:16.000Z</time>
      </trkpt>
      <trkpt lat="47.304" lon="-2.31091">
        <ele>-0.60000002384186</ele>
        <time>2022-03-06T09:13:23.000Z</time>
      </trkpt>
      <trkpt lat="47.30423" lon="-2.3111">
        <ele>-0.60000002384186</ele>
        <time>2022-03-06T09:13:29.000Z</time>
      </trkpt>
      <trkpt lat="47.30427" lon="-2.31113">
        <ele>-0.20000000298023</ele>
        <time>2022-03-06T09:13:30.000Z</time>
      </trkpt>
      <trkpt lat="47.30431" lon="-2.31115">
        <ele>0.20000000298023</ele>
        <time>2022-03-06T09:13:31.000Z</time>
      </trkpt>
      <trkpt lat="47.30434" lon="-2.31117">
        <ele>0.60000002384186</ele>
        <time>2022-03-06T09:13:32.000Z</time>
      </trkpt>
      <trkpt lat="47.30438" lon="-2.3112">
        <ele>1</ele>
        <time>2022-03-06T09:13:33.000Z</time>
      </trkpt>
      <trkpt lat="47.30441" lon="-2.31124">
        <ele>1.3999999761581</ele>
        <time>2022-03-06T09:13:34.000Z</time>
      </trkpt>
      <trkpt lat="47.30445" lon="-2.31128">
        <ele>1.3999999761581</ele>
        <time>2022-03-06T09:13:35.000Z</time>
      </trkpt>
      <trkpt lat="47.30454" lon="-2.31149">
        <ele>1.3999999761581</ele>
        <time>2022-03-06T09:13:39.000Z</time>
      </trkpt>
      <trkpt lat="47.30456" lon="-2.31156">
        <ele>1.3999999761581</ele>
        <time>2022-03-06T09:13:40.000Z</time>
      </trkpt>
      <trkpt lat="47.30472" lon="-2.31205">
        <ele>1.3999999761581</ele>
        <time>2022-03-06T09:13:48.000Z</time>
      </trkpt>
      <trkpt lat="47.30488" lon="-2.31244">
        <ele>1.3999999761581</ele>
        <time>2022-03-06T09:13:55.000Z</time>
      </trkpt>
      <trkpt lat="47.30503" lon="-2.31273">
        <ele>1.3999999761581</ele>
        <time>2022-03-06T09:14:02.000Z</time>
      </trkpt>
      <trkpt lat="47.30521" lon="-2.31302">
        <ele>1.3999999761581</ele>
        <time>2022-03-06T09:14:10.000Z</time>
      </trkpt>
      <trkpt lat="47.30531" lon="-2.31314">
        <ele>1.3999999761581</ele>
        <time>2022-03-06T09:14:15.000Z</time>
      </trkpt>
      <trkpt lat="47.30542" lon="-2.31331">
        <ele>1.3999999761581</ele>
        <time>2022-03-06T09:14:22.000Z</time>
      </trkpt>
      <trkpt lat="47.30549" lon="-2.31344">
        <ele>1.3999999761581</ele>
        <time>2022-03-06T09:14:28.000Z</time>
      </trkpt>
      <trkpt lat="47.30556" lon="-2.31353">
        <ele>1.3999999761581</ele>
        <time>2022-03-06T09:14:34.000Z</time>
      </trkpt>
      <trkpt lat="47.30564" lon="-2.31365">
        <ele>1.3999999761581</ele>
        <time>2022-03-06T09:14:41.000Z</time>
      </trkpt>
      <trkpt lat="47.30571" lon="-2.31378">
        <ele>1.3999999761581</ele>
        <time>2022-03-06T09:14:48.000Z</time>
      </trkpt>
      <trkpt lat="47.30579" lon="-2.31392">
        <ele>1.3999999761581</ele>
        <time>2022-03-06T09:14:55.000Z</time>
      </trkpt>
      <trkpt lat="47.30586" lon="-2.31407">
        <ele>1.3999999761581</ele>
        <time>2022-03-06T09:15:02.000Z</time>
      </trkpt>
      <trkpt lat="47.30595" lon="-2.31428">
        <ele>1.3999999761581</ele>
        <time>2022-03-06T09:15:09.000Z</time>
      </trkpt>
      <trkpt lat="47.30605" lon="-2.31453">
        <ele>1.3999999761581</ele>
        <time>2022-03-06T09:15:18.000Z</time>
      </trkpt>
      <trkpt lat="47.30612" lon="-2.31468">
        <ele>1.3999999761581</ele>
        <time>2022-03-06T09:15:23.000Z</time>
      </trkpt>
      <trkpt lat="47.30621" lon="-2.31492">
        <ele>1.3999999761581</ele>
        <time>2022-03-06T09:15:29.000Z</time>
      </trkpt>
      <trkpt lat="47.30635" lon="-2.31524">
        <ele>1.3999999761581</ele>
        <time>2022-03-06T09:15:37.000Z</time>
      </trkpt>
      <trkpt lat="47.30645" lon="-2.31546">
        <ele>1</ele>
        <time>2022-03-06T09:15:42.000Z</time>
      </trkpt>
      <trkpt lat="47.30647" lon="-2.31551">
        <ele>0.60000002384186</ele>
        <time>2022-03-06T09:15:43.000Z</time>
      </trkpt>
      <trkpt lat="47.30649" lon="-2.31556">
        <ele>0.20000000298023</ele>
        <time>2022-03-06T09:15:44.000Z</time>
      </trkpt>
      <trkpt lat="47.30651" lon="-2.31561">
        <ele>-0.20000000298023</ele>
        <time>2022-03-06T09:15:45.000Z</time>
      </trkpt>
      <trkpt lat="47.30653" lon="-2.31566">
        <ele>-0.60000002384186</ele>
        <time>2022-03-06T09:15:46.000Z</time>
      </trkpt>
      <trkpt lat="47.30672" lon="-2.31611">
        <ele>-0.60000002384186</ele>
        <time>2022-03-06T09:15:54.000Z</time>
      </trkpt>
      <trkpt lat="47.3068" lon="-2.3163">
        <ele>-1</ele>
        <time>2022-03-06T09:15:57.000Z</time>
      </trkpt>
      <trkpt lat="47.30682" lon="-2.31636">
        <ele>-1.3999999761581</ele>
        <time>2022-03-06T09:15:58.000Z</time>
      </trkpt>
      <trkpt lat="47.30684" lon="-2.31642">
        <ele>-1.7999999523163</ele>
        <time>2022-03-06T09:15:59.000Z</time>
      </trkpt>
      <trkpt lat="47.30686" lon="-2.31648">
        <ele>-2.2000000476837</ele>
        <time>2022-03-06T09:16:00.000Z</time>
      </trkpt>
      <trkpt lat="47.30687" lon="-2.31655">
        <ele>-2.5999999046326</ele>
        <time>2022-03-06T09:16:01.000Z</time>
      </trkpt>
      <trkpt lat="47.30689" lon="-2.31661">
        <ele>-2.5999999046326</ele>
        <time>2022-03-06T09:16:02.000Z</time>
      </trkpt>
      <trkpt lat="47.30696" lon="-2.31677">
        <ele>-2.5999999046326</ele>
        <time>2022-03-06T09:16:05.000Z</time>
      </trkpt>
      <trkpt lat="47.30699" lon="-2.31682">
        <ele>-2.5999999046326</ele>
        <time>2022-03-06T09:16:06.000Z</time>
      </trkpt>
      <trkpt lat="47.30709" lon="-2.31701">
        <ele>-2.5999999046326</ele>
        <time>2022-03-06T09:16:10.000Z</time>
      </trkpt>
      <trkpt lat="47.30715" lon="-2.31718">
        <ele>-2.5999999046326</ele>
        <time>2022-03-06T09:16:13.000Z</time>
      </trkpt>
      <trkpt lat="47.30731" lon="-2.31758">
        <ele>-2.5999999046326</ele>
        <time>2022-03-06T09:16:20.000Z</time>
      </trkpt>
      <trkpt lat="47.30734" lon="-2.31759">
        <ele>-2.5999999046326</ele>
        <time>2022-03-06T09:16:21.000Z</time>
      </trkpt>
      <trkpt lat="47.30739" lon="-2.31756">
        <ele>-2.5999999046326</ele>
        <time>2022-03-06T09:16:23.000Z</time>
      </trkpt>
      <trkpt lat="47.30749" lon="-2.31754">
        <ele>-2.5999999046326</ele>
        <time>2022-03-06T09:16:26.000Z</time>
      </trkpt>
      <trkpt lat="47.30752" lon="-2.31752">
        <ele>-2.2000000476837</ele>
        <time>2022-03-06T09:16:27.000Z</time>
      </trkpt>
      <trkpt lat="47.30755" lon="-2.31749">
        <ele>-1.7999999523163</ele>
        <time>2022-03-06T09:16:28.000Z</time>
      </trkpt>
      <trkpt lat="47.30758" lon="-2.31746">
        <ele>-1.3999999761581</ele>
        <time>2022-03-06T09:16:29.000Z</time>
      </trkpt>
      <trkpt lat="47.30762" lon="-2.31743">
        <ele>-1</ele>
        <time>2022-03-06T09:16:30.000Z</time>
      </trkpt>
      <trkpt lat="47.30766" lon="-2.31739">
        <ele>-0.60000002384186</ele>
        <time>2022-03-06T09:16:31.000Z</time>
      </trkpt>
      <trkpt lat="47.30769" lon="-2.31735">
        <ele>-0.60000002384186</ele>
        <time>2022-03-06T09:16:32.000Z</time>
      </trkpt>
      <trkpt lat="47.30772" lon="-2.31731">
        <ele>-0.60000002384186</ele>
        <time>2022-03-06T09:16:33.000Z</time>
      </trkpt>
      <trkpt lat="47.30782" lon="-2.31719">
        <ele>-0.60000002384186</ele>
        <time>2022-03-06T09:16:36.000Z</time>
      </trkpt>
      <trkpt lat="47.30792" lon="-2.31706">
        <ele>-0.60000002384186</ele>
        <time>2022-03-06T09:16:39.000Z</time>
      </trkpt>
      <trkpt lat="47.30815" lon="-2.31679">
        <ele>-0.60000002384186</ele>
        <time>2022-03-06T09:16:46.000Z</time>
      </trkpt>
      <trkpt lat="47.30825" lon="-2.31666">
        <ele>-0.20000000298023</ele>
        <time>2022-03-06T09:16:49.000Z</time>
      </trkpt>
      <trkpt lat="47.30829" lon="-2.31662">
        <ele>0.20000000298023</ele>
        <time>2022-03-06T09:16:50.000Z</time>
      </trkpt>
      <trkpt lat="47.30832" lon="-2.31658">
        <ele>0.60000002384186</ele>
        <time>2022-03-06T09:16:51.000Z</time>
      </trkpt>
      <trkpt lat="47.30836" lon="-2.31654">
        <ele>1</ele>
        <time>2022-03-06T09:16:52.000Z</time>
      </trkpt>
      <trkpt lat="47.30839" lon="-2.31651">
        <ele>1.6000000238419</ele>
        <time>2022-03-06T09:16:53.000Z</time>
      </trkpt>
      <trkpt lat="47.30849" lon="-2.31646">
        <ele>1.6000000238419</ele>
        <time>2022-03-06T09:16:56.000Z</time>
      </trkpt>
      <trkpt lat="47.30853" lon="-2.31648">
        <ele>1.6000000238419</ele>
        <time>2022-03-06T09:16:57.000Z</time>
      </trkpt>
      <trkpt lat="47.30863" lon="-2.31661">
        <ele>1.6000000238419</ele>
        <time>2022-03-06T09:17:00.000Z</time>
      </trkpt>
      <trkpt lat="47.30866" lon="-2.31665">
        <ele>1.6000000238419</ele>
        <time>2022-03-06T09:17:01.000Z</time>
      </trkpt>
      <trkpt lat="47.30891" lon="-2.31696">
        <ele>1.6000000238419</ele>
        <time>2022-03-06T09:17:08.000Z</time>
      </trkpt>
      <trkpt lat="47.30928" lon="-2.31741">
        <ele>1.6000000238419</ele>
        <time>2022-03-06T09:17:18.000Z</time>
      </trkpt>
      <trkpt lat="47.30957" lon="-2.31773">
        <ele>1.6000000238419</ele>
        <time>2022-03-06T09:17:25.000Z</time>
      </trkpt>
      <trkpt lat="47.30993" lon="-2.3181">
        <ele>1.6000000238419</ele>
        <time>2022-03-06T09:17:33.000Z</time>
      </trkpt>
      <trkpt lat="47.31004" lon="-2.31822">
        <ele>1.6000000238419</ele>
        <time>2022-03-06T09:17:36.000Z</time>
      </trkpt>
      <trkpt lat="47.31004" lon="-2.31832">
        <ele>1.6000000238419</ele>
        <time>2022-03-06T09:17:38.000Z</time>
      </trkpt>
      <trkpt lat="47.30996" lon="-2.31854">
        <ele>1.6000000238419</ele>
        <time>2022-03-06T09:17:42.000Z</time>
      </trkpt>
      <trkpt lat="47.30989" lon="-2.3187">
        <ele>1.6000000238419</ele>
        <time>2022-03-06T09:17:45.000Z</time>
      </trkpt>
      <trkpt lat="47.30987" lon="-2.31883">
        <ele>1.6000000238419</ele>
        <time>2022-03-06T09:17:47.000Z</time>
      </trkpt>
      <trkpt lat="47.30983" lon="-2.31903">
        <ele>1.6000000238419</ele>
        <time>2022-03-06T09:17:50.000Z</time>
      </trkpt>
      <trkpt lat="47.30976" lon="-2.3192">
        <ele>1.6000000238419</ele>
        <time>2022-03-06T09:17:53.000Z</time>
      </trkpt>
      <trkpt lat="47.30971" lon="-2.31932">
        <ele>1.6000000238419</ele>
        <time>2022-03-06T09:17:55.000Z</time>
      </trkpt>
      <trkpt lat="47.30967" lon="-2.31952">
        <ele>1.6000000238419</ele>
        <time>2022-03-06T09:17:58.000Z</time>
      </trkpt>
      <trkpt lat="47.30971" lon="-2.3198">
        <ele>1.6000000238419</ele>
        <time>2022-03-06T09:18:02.000Z</time>
      </trkpt>
      <trkpt lat="47.30989" lon="-2.32033">
        <ele>1.6000000238419</ele>
        <time>2022-03-06T09:18:11.000Z</time>
      </trkpt>
      <trkpt lat="47.30996" lon="-2.3205">
        <ele>1.6000000238419</ele>
        <time>2022-03-06T09:18:14.000Z</time>
      </trkpt>
      <trkpt lat="47.31007" lon="-2.32071">
        <ele>1.6000000238419</ele>
        <time>2022-03-06T09:18:18.000Z</time>
      </trkpt>
      <trkpt lat="47.31023" lon="-2.32099">
        <ele>2</ele>
        <time>2022-03-06T09:18:24.000Z</time>
      </trkpt>
      <trkpt lat="47.31026" lon="-2.32103">
        <ele>2.4000000953674</ele>
        <time>2022-03-06T09:18:25.000Z</time>
      </trkpt>
      <trkpt lat="47.31029" lon="-2.32109">
        <ele>2.7999999523163</ele>
        <time>2022-03-06T09:18:26.000Z</time>
      </trkpt>
      <trkpt lat="47.31032" lon="-2.32113">
        <ele>3.2000000476837</ele>
        <time>2022-03-06T09:18:27.000Z</time>
      </trkpt>
      <trkpt lat="47.31035" lon="-2.32117">
        <ele>3.5999999046326</ele>
        <time>2022-03-06T09:18:28.000Z</time>
      </trkpt>
      <trkpt lat="47.31042" lon="-2.32127">
        <ele>3.5999999046326</ele>
        <time>2022-03-06T09:18:30.000Z</time>
      </trkpt>
      <trkpt lat="47.31061" lon="-2.32149">
        <ele>3.5999999046326</ele>
        <time>2022-03-06T09:18:35.000Z</time>
      </trkpt>
      <trkpt lat="47.31073" lon="-2.32169">
        <ele>4</ele>
        <time>2022-03-06T09:18:40.000Z</time>
      </trkpt>
      <trkpt lat="47.31074" lon="-2.32173">
        <ele>4.4000000953674</ele>
        <time>2022-03-06T09:18:41.000Z</time>
      </trkpt>
      <trkpt lat="47.31076" lon="-2.32177">
        <ele>4.8000001907349</ele>
        <time>2022-03-06T09:18:42.000Z</time>
      </trkpt>
      <trkpt lat="47.31078" lon="-2.32181">
        <ele>5.1999998092651</ele>
        <time>2022-03-06T09:18:43.000Z</time>
      </trkpt>
      <trkpt lat="47.3108" lon="-2.32184">
        <ele>5.5999999046326</ele>
        <time>2022-03-06T09:18:44.000Z</time>
      </trkpt>
      <trkpt lat="47.31088" lon="-2.32201">
        <ele>5.5999999046326</ele>
        <time>2022-03-06T09:18:49.000Z</time>
      </trkpt>
      <trkpt lat="47.31093" lon="-2.32214">
        <ele>5.5999999046326</ele>
        <time>2022-03-06T09:18:55.000Z</time>
      </trkpt>
      <trkpt lat="47.31094" lon="-2.32219">
        <ele>5.5999999046326</ele>
        <time>2022-03-06T09:18:58.000Z</time>
      </trkpt>
      <trkpt lat="47.31096" lon="-2.32223">
        <ele>5.5999999046326</ele>
        <time>2022-03-06T09:19:00.000Z</time>
      </trkpt>
      <trkpt lat="47.31097" lon="-2.32227">
        <ele>5.5999999046326</ele>
        <time>2022-03-06T09:19:02.000Z</time>
      </trkpt>
      <trkpt lat="47.311" lon="-2.32237">
        <ele>5.5999999046326</ele>
        <time>2022-03-06T09:19:06.000Z</time>
      </trkpt>
      <trkpt lat="47.3111" lon="-2.32257">
        <ele>6</ele>
        <time>2022-03-06T09:19:13.000Z</time>
      </trkpt>
      <trkpt lat="47.31111" lon="-2.3226">
        <ele>6.4000000953674</ele>
        <time>2022-03-06T09:19:14.000Z</time>
      </trkpt>
      <trkpt lat="47.31112" lon="-2.32263">
        <ele>6.8000001907349</ele>
        <time>2022-03-06T09:19:15.000Z</time>
      </trkpt>
      <trkpt lat="47.31114" lon="-2.32266">
        <ele>7.4000000953674</ele>
        <time>2022-03-06T09:19:16.000Z</time>
      </trkpt>
      <trkpt lat="47.31115" lon="-2.32269">
        <ele>7.8000001907349</ele>
        <time>2022-03-06T09:19:17.000Z</time>
      </trkpt>
      <trkpt lat="47.31121" lon="-2.32282">
        <ele>7.8000001907349</ele>
        <time>2022-03-06T09:19:21.000Z</time>
      </trkpt>
      <trkpt lat="47.31131" lon="-2.32304">
        <ele>7.8000001907349</ele>
        <time>2022-03-06T09:19:27.000Z</time>
      </trkpt>
      <trkpt lat="47.31132" lon="-2.32312">
        <ele>8.1999998092651</ele>
        <time>2022-03-06T09:19:29.000Z</time>
      </trkpt>
      <trkpt lat="47.31133" lon="-2.32315">
        <ele>8.6000003814697</ele>
        <time>2022-03-06T09:19:30.000Z</time>
      </trkpt>
      <trkpt lat="47.31134" lon="-2.32318">
        <ele>9</ele>
        <time>2022-03-06T09:19:31.000Z</time>
      </trkpt>
      <trkpt lat="47.31135" lon="-2.32322">
        <ele>9.3999996185303</ele>
        <time>2022-03-06T09:19:32.000Z</time>
      </trkpt>
      <trkpt lat="47.31136" lon="-2.32326">
        <ele>9.8000001907349</ele>
        <time>2022-03-06T09:19:33.000Z</time>
      </trkpt>
      <trkpt lat="47.31142" lon="-2.32354">
        <ele>9.8000001907349</ele>
        <time>2022-03-06T09:19:40.000Z</time>
      </trkpt>
      <trkpt lat="47.31144" lon="-2.32376">
        <ele>9.8000001907349</ele>
        <time>2022-03-06T09:19:45.000Z</time>
      </trkpt>
      <trkpt lat="47.31143" lon="-2.32403">
        <ele>10.199999809265</ele>
        <time>2022-03-06T09:19:51.000Z</time>
      </trkpt>
      <trkpt lat="47.31144" lon="-2.32407">
        <ele>10.60000038147</ele>
        <time>2022-03-06T09:19:52.000Z</time>
      </trkpt>
      <trkpt lat="47.31144" lon="-2.32411">
        <ele>11</ele>
        <time>2022-03-06T09:19:53.000Z</time>
      </trkpt>
      <trkpt lat="47.31145" lon="-2.32415">
        <ele>11.39999961853</ele>
        <time>2022-03-06T09:19:54.000Z</time>
      </trkpt>
      <trkpt lat="47.31147" lon="-2.32419">
        <ele>11.800000190735</ele>
        <time>2022-03-06T09:19:55.000Z</time>
      </trkpt>
      <trkpt lat="47.3115" lon="-2.32421">
        <ele>11.800000190735</ele>
        <time>2022-03-06T09:19:56.000Z</time>
      </trkpt>
      <trkpt lat="47.31153" lon="-2.32423">
        <ele>11.800000190735</ele>
        <time>2022-03-06T09:19:57.000Z</time>
      </trkpt>
      <trkpt lat="47.31172" lon="-2.32429">
        <ele>11.800000190735</ele>
        <time>2022-03-06T09:20:03.000Z</time>
      </trkpt>
      <trkpt lat="47.31179" lon="-2.32438">
        <ele>11.800000190735</ele>
        <time>2022-03-06T09:20:06.000Z</time>
      </trkpt>
      <trkpt lat="47.31179" lon="-2.32443">
        <ele>11.800000190735</ele>
        <time>2022-03-06T09:20:07.000Z</time>
      </trkpt>
      <trkpt lat="47.31177" lon="-2.32481">
        <ele>11.800000190735</ele>
        <time>2022-03-06T09:20:14.000Z</time>
      </trkpt>
      <trkpt lat="47.31177" lon="-2.32518">
        <ele>11.800000190735</ele>
        <time>2022-03-06T09:20:20.000Z</time>
      </trkpt>
      <trkpt lat="47.31177" lon="-2.32559">
        <ele>11.800000190735</ele>
        <time>2022-03-06T09:20:27.000Z</time>
      </trkpt>
      <trkpt lat="47.31177" lon="-2.32588">
        <ele>12.199999809265</ele>
        <time>2022-03-06T09:20:32.000Z</time>
      </trkpt>
      <trkpt lat="47.31177" lon="-2.32593">
        <ele>12.60000038147</ele>
        <time>2022-03-06T09:20:33.000Z</time>
      </trkpt>
      <trkpt lat="47.31177" lon="-2.32599">
        <ele>13</ele>
        <time>2022-03-06T09:20:34.000Z</time>
      </trkpt>
      <trkpt lat="47.31177" lon="-2.32604">
        <ele>13.39999961853</ele>
        <time>2022-03-06T09:20:35.000Z</time>
      </trkpt>
      <trkpt lat="47.31177" lon="-2.32609">
        <ele>13.800000190735</ele>
        <time>2022-03-06T09:20:36.000Z</time>
      </trkpt>
      <trkpt lat="47.31178" lon="-2.3263">
        <ele>13.800000190735</ele>
        <time>2022-03-06T09:20:41.000Z</time>
      </trkpt>
      <trkpt lat="47.31184" lon="-2.32646">
        <ele>13.800000190735</ele>
        <time>2022-03-06T09:20:47.000Z</time>
      </trkpt>
      <trkpt lat="47.3119" lon="-2.32666">
        <ele>13.800000190735</ele>
        <time>2022-03-06T09:20:53.000Z</time>
      </trkpt>
      <trkpt lat="47.312" lon="-2.32696">
        <ele>13.800000190735</ele>
        <time>2022-03-06T09:20:59.000Z</time>
      </trkpt>
      <trkpt lat="47.31208" lon="-2.32725">
        <ele>13.800000190735</ele>
        <time>2022-03-06T09:21:06.000Z</time>
      </trkpt>
      <trkpt lat="47.3122" lon="-2.32736">
        <ele>13.800000190735</ele>
        <time>2022-03-06T09:21:11.000Z</time>
      </trkpt>
      <trkpt lat="47.3124" lon="-2.32751">
        <ele>13.800000190735</ele>
        <time>2022-03-06T09:21:17.000Z</time>
      </trkpt>
      <trkpt lat="47.31268" lon="-2.3277">
        <ele>13.800000190735</ele>
        <time>2022-03-06T09:21:24.000Z</time>
      </trkpt>
      <trkpt lat="47.31287" lon="-2.32787">
        <ele>13.800000190735</ele>
        <time>2022-03-06T09:21:29.000Z</time>
      </trkpt>
      <trkpt lat="47.31289" lon="-2.32793">
        <ele>13.800000190735</ele>
        <time>2022-03-06T09:21:30.000Z</time>
      </trkpt>
      <trkpt lat="47.313" lon="-2.32814">
        <ele>13.800000190735</ele>
        <time>2022-03-06T09:21:34.000Z</time>
      </trkpt>
      <trkpt lat="47.31303" lon="-2.32819">
        <ele>13.800000190735</ele>
        <time>2022-03-06T09:21:35.000Z</time>
      </trkpt>
      <trkpt lat="47.31307" lon="-2.32824">
        <ele>13.800000190735</ele>
        <time>2022-03-06T09:21:36.000Z</time>
      </trkpt>
      <trkpt lat="47.31337" lon="-2.32866">
        <ele>13.800000190735</ele>
        <time>2022-03-06T09:21:44.000Z</time>
      </trkpt>
      <trkpt lat="47.31355" lon="-2.32895">
        <ele>13.800000190735</ele>
        <time>2022-03-06T09:21:50.000Z</time>
      </trkpt>
      <trkpt lat="47.31355" lon="-2.329">
        <ele>13.800000190735</ele>
        <time>2022-03-06T09:21:51.000Z</time>
      </trkpt>
      <trkpt lat="47.31347" lon="-2.32915">
        <ele>13.800000190735</ele>
        <time>2022-03-06T09:21:54.000Z</time>
      </trkpt>
      <trkpt lat="47.31342" lon="-2.32926">
        <ele>13.800000190735</ele>
        <time>2022-03-06T09:21:56.000Z</time>
      </trkpt>
      <trkpt lat="47.31328" lon="-2.32952">
        <ele>13.800000190735</ele>
        <time>2022-03-06T09:22:00.000Z</time>
      </trkpt>
      <trkpt lat="47.3131" lon="-2.32988">
        <ele>13.800000190735</ele>
        <time>2022-03-06T09:22:06.000Z</time>
      </trkpt>
      <trkpt lat="47.31287" lon="-2.33028">
        <ele>13.800000190735</ele>
        <time>2022-03-06T09:22:13.000Z</time>
      </trkpt>
      <trkpt lat="47.31264" lon="-2.33065">
        <ele>13.800000190735</ele>
        <time>2022-03-06T09:22:20.000Z</time>
      </trkpt>
      <trkpt lat="47.31258" lon="-2.33077">
        <ele>13.800000190735</ele>
        <time>2022-03-06T09:22:22.000Z</time>
      </trkpt>
      <trkpt lat="47.31245" lon="-2.33101">
        <ele>13.800000190735</ele>
        <time>2022-03-06T09:22:26.000Z</time>
      </trkpt>
      <trkpt lat="47.31233" lon="-2.33128">
        <ele>13.800000190735</ele>
        <time>2022-03-06T09:22:31.000Z</time>
      </trkpt>
      <trkpt lat="47.31234" lon="-2.33145">
        <ele>13.800000190735</ele>
        <time>2022-03-06T09:22:34.000Z</time>
      </trkpt>
      <trkpt lat="47.31246" lon="-2.33148">
        <ele>13.800000190735</ele>
        <time>2022-03-06T09:22:37.000Z</time>
      </trkpt>
      <trkpt lat="47.31251" lon="-2.33149">
        <ele>13.800000190735</ele>
        <time>2022-03-06T09:22:38.000Z</time>
      </trkpt>
      <trkpt lat="47.31266" lon="-2.33153">
        <ele>13.800000190735</ele>
        <time>2022-03-06T09:22:41.000Z</time>
      </trkpt>
      <trkpt lat="47.31276" lon="-2.33157">
        <ele>13.800000190735</ele>
        <time>2022-03-06T09:22:43.000Z</time>
      </trkpt>
      <trkpt lat="47.3129" lon="-2.33164">
        <ele>13.800000190735</ele>
        <time>2022-03-06T09:22:46.000Z</time>
      </trkpt>
      <trkpt lat="47.31298" lon="-2.3317">
        <ele>13.800000190735</ele>
        <time>2022-03-06T09:22:48.000Z</time>
      </trkpt>
      <trkpt lat="47.31302" lon="-2.33174">
        <ele>13.800000190735</ele>
        <time>2022-03-06T09:22:49.000Z</time>
      </trkpt>
      <trkpt lat="47.31311" lon="-2.33182">
        <ele>13.800000190735</ele>
        <time>2022-03-06T09:22:51.000Z</time>
      </trkpt>
      <trkpt lat="47.31329" lon="-2.33199">
        <ele>13.800000190735</ele>
        <time>2022-03-06T09:22:55.000Z</time>
      </trkpt>
      <trkpt lat="47.31363" lon="-2.33229">
        <ele>13.800000190735</ele>
        <time>2022-03-06T09:23:03.000Z</time>
      </trkpt>
      <trkpt lat="47.31378" lon="-2.33238">
        <ele>14.199999809265</ele>
        <time>2022-03-06T09:23:06.000Z</time>
      </trkpt>
      <trkpt lat="47.31382" lon="-2.33241">
        <ele>15.199999809265</ele>
        <time>2022-03-06T09:23:07.000Z</time>
      </trkpt>
      <trkpt lat="47.31387" lon="-2.33244">
        <ele>15.60000038147</ele>
        <time>2022-03-06T09:23:08.000Z</time>
      </trkpt>
      <trkpt lat="47.31392" lon="-2.33247">
        <ele>16</ele>
        <time>2022-03-06T09:23:09.000Z</time>
      </trkpt>
      <trkpt lat="47.31396" lon="-2.3325">
        <ele>16</ele>
        <time>2022-03-06T09:23:10.000Z</time>
      </trkpt>
      <trkpt lat="47.31432" lon="-2.3328">
        <ele>16</ele>
        <time>2022-03-06T09:23:18.000Z</time>
      </trkpt>
      <trkpt lat="47.3144" lon="-2.33289">
        <ele>16</ele>
        <time>2022-03-06T09:23:20.000Z</time>
      </trkpt>
      <trkpt lat="47.3145" lon="-2.33306">
        <ele>16</ele>
        <time>2022-03-06T09:23:23.000Z</time>
      </trkpt>
      <trkpt lat="47.31469" lon="-2.33346">
        <ele>16</ele>
        <time>2022-03-06T09:23:30.000Z</time>
      </trkpt>
      <trkpt lat="47.31482" lon="-2.33367">
        <ele>16</ele>
        <time>2022-03-06T09:23:34.000Z</time>
      </trkpt>
      <trkpt lat="47.31487" lon="-2.33369">
        <ele>16.39999961853</ele>
        <time>2022-03-06T09:23:35.000Z</time>
      </trkpt>
      <trkpt lat="47.31492" lon="-2.33368">
        <ele>16.799999237061</ele>
        <time>2022-03-06T09:23:36.000Z</time>
      </trkpt>
      <trkpt lat="47.31497" lon="-2.33365">
        <ele>17.200000762939</ele>
        <time>2022-03-06T09:23:37.000Z</time>
      </trkpt>
      <trkpt lat="47.31501" lon="-2.33363">
        <ele>17.60000038147</ele>
        <time>2022-03-06T09:23:38.000Z</time>
      </trkpt>
      <trkpt lat="47.31505" lon="-2.3336">
        <ele>18</ele>
        <time>2022-03-06T09:23:39.000Z</time>
      </trkpt>
      <trkpt lat="47.31533" lon="-2.33344">
        <ele>18</ele>
        <time>2022-03-06T09:23:45.000Z</time>
      </trkpt>
      <trkpt lat="47.31563" lon="-2.33334">
        <ele>18</ele>
        <time>2022-03-06T09:23:51.000Z</time>
      </trkpt>
      <trkpt lat="47.31585" lon="-2.33321">
        <ele>18</ele>
        <time>2022-03-06T09:23:56.000Z</time>
      </trkpt>
      <trkpt lat="47.31617" lon="-2.33301">
        <ele>18</ele>
        <time>2022-03-06T09:24:03.000Z</time>
      </trkpt>
      <trkpt lat="47.31644" lon="-2.33287">
        <ele>18</ele>
        <time>2022-03-06T09:24:09.000Z</time>
      </trkpt>
      <trkpt lat="47.31654" lon="-2.33282">
        <ele>18</ele>
        <time>2022-03-06T09:24:11.000Z</time>
      </trkpt>
      <trkpt lat="47.31672" lon="-2.33272">
        <ele>18</ele>
        <time>2022-03-06T09:24:15.000Z</time>
      </trkpt>
      <trkpt lat="47.31704" lon="-2.33259">
        <ele>17.60000038147</ele>
        <time>2022-03-06T09:24:21.000Z</time>
      </trkpt>
      <trkpt lat="47.3171" lon="-2.33256">
        <ele>17.200000762939</ele>
        <time>2022-03-06T09:24:22.000Z</time>
      </trkpt>
      <trkpt lat="47.31715" lon="-2.33254">
        <ele>16.799999237061</ele>
        <time>2022-03-06T09:24:23.000Z</time>
      </trkpt>
      <trkpt lat="47.31721" lon="-2.33251">
        <ele>16.39999961853</ele>
        <time>2022-03-06T09:24:24.000Z</time>
      </trkpt>
      <trkpt lat="47.31726" lon="-2.33248">
        <ele>16</ele>
        <time>2022-03-06T09:24:25.000Z</time>
      </trkpt>
      <trkpt lat="47.31732" lon="-2.33246">
        <ele>16</ele>
        <time>2022-03-06T09:24:26.000Z</time>
      </trkpt>
      <trkpt lat="47.31737" lon="-2.33245">
        <ele>15.60000038147</ele>
        <time>2022-03-06T09:24:27.000Z</time>
      </trkpt>
      <trkpt lat="47.31742" lon="-2.33246">
        <ele>15</ele>
        <time>2022-03-06T09:24:28.000Z</time>
      </trkpt>
      <trkpt lat="47.31745" lon="-2.3325">
        <ele>14.60000038147</ele>
        <time>2022-03-06T09:24:29.000Z</time>
      </trkpt>
      <trkpt lat="47.31747" lon="-2.33255">
        <ele>14.199999809265</ele>
        <time>2022-03-06T09:24:30.000Z</time>
      </trkpt>
      <trkpt lat="47.31747" lon="-2.33262">
        <ele>13.800000190735</ele>
        <time>2022-03-06T09:24:31.000Z</time>
      </trkpt>
      <trkpt lat="47.31748" lon="-2.33268">
        <ele>13.800000190735</ele>
        <time>2022-03-06T09:24:32.000Z</time>
      </trkpt>
      <trkpt lat="47.31748" lon="-2.33281">
        <ele>13.800000190735</ele>
        <time>2022-03-06T09:24:34.000Z</time>
      </trkpt>
      <trkpt lat="47.31749" lon="-2.33289">
        <ele>13.800000190735</ele>
        <time>2022-03-06T09:24:35.000Z</time>
      </trkpt>
      <trkpt lat="47.31753" lon="-2.33302">
        <ele>13.800000190735</ele>
        <time>2022-03-06T09:24:37.000Z</time>
      </trkpt>
      <trkpt lat="47.31758" lon="-2.33316">
        <ele>13.800000190735</ele>
        <time>2022-03-06T09:24:39.000Z</time>
      </trkpt>
      <trkpt lat="47.3177" lon="-2.33326">
        <ele>13.39999961853</ele>
        <time>2022-03-06T09:24:42.000Z</time>
      </trkpt>
      <trkpt lat="47.31774" lon="-2.33323">
        <ele>12.800000190735</ele>
        <time>2022-03-06T09:24:43.000Z</time>
      </trkpt>
      <trkpt lat="47.31777" lon="-2.33321">
        <ele>12.39999961853</ele>
        <time>2022-03-06T09:24:44.000Z</time>
      </trkpt>
      <trkpt lat="47.31781" lon="-2.33319">
        <ele>12</ele>
        <time>2022-03-06T09:24:45.000Z</time>
      </trkpt>
      <trkpt lat="47.31785" lon="-2.33316">
        <ele>11.60000038147</ele>
        <time>2022-03-06T09:24:46.000Z</time>
      </trkpt>
      <trkpt lat="47.31789" lon="-2.33313">
        <ele>11</ele>
        <time>2022-03-06T09:24:47.000Z</time>
      </trkpt>
      <trkpt lat="47.31793" lon="-2.3331">
        <ele>10.60000038147</ele>
        <time>2022-03-06T09:24:48.000Z</time>
      </trkpt>
      <trkpt lat="47.31798" lon="-2.33306">
        <ele>10.199999809265</ele>
        <time>2022-03-06T09:24:49.000Z</time>
      </trkpt>
      <trkpt lat="47.31803" lon="-2.33302">
        <ele>9.8000001907349</ele>
        <time>2022-03-06T09:24:50.000Z</time>
      </trkpt>
      <trkpt lat="47.31808" lon="-2.33297">
        <ele>9.3999996185303</ele>
        <time>2022-03-06T09:24:51.000Z</time>
      </trkpt>
      <trkpt lat="47.31824" lon="-2.33286">
        <ele>8.8000001907349</ele>
        <time>2022-03-06T09:24:54.000Z</time>
      </trkpt>
      <trkpt lat="47.31828" lon="-2.33281">
        <ele>8.3999996185303</ele>
        <time>2022-03-06T09:24:55.000Z</time>
      </trkpt>
      <trkpt lat="47.31833" lon="-2.33276">
        <ele>8</ele>
        <time>2022-03-06T09:24:56.000Z</time>
      </trkpt>
      <trkpt lat="47.31837" lon="-2.33269">
        <ele>7.5999999046326</ele>
        <time>2022-03-06T09:24:57.000Z</time>
      </trkpt>
      <trkpt lat="47.31841" lon="-2.33262">
        <ele>7</ele>
        <time>2022-03-06T09:24:58.000Z</time>
      </trkpt>
      <trkpt lat="47.31845" lon="-2.33254">
        <ele>7</ele>
        <time>2022-03-06T09:24:59.000Z</time>
      </trkpt>
      <trkpt lat="47.31852" lon="-2.33238">
        <ele>7</ele>
        <time>2022-03-06T09:25:01.000Z</time>
      </trkpt>
      <trkpt lat="47.31856" lon="-2.33219">
        <ele>6.5999999046326</ele>
        <time>2022-03-06T09:25:03.000Z</time>
      </trkpt>
      <trkpt lat="47.31856" lon="-2.33209">
        <ele>6.1999998092651</ele>
        <time>2022-03-06T09:25:04.000Z</time>
      </trkpt>
      <trkpt lat="47.31857" lon="-2.332">
        <ele>5.8000001907349</ele>
        <time>2022-03-06T09:25:05.000Z</time>
      </trkpt>
      <trkpt lat="47.31858" lon="-2.33189">
        <ele>5.4000000953674</ele>
        <time>2022-03-06T09:25:06.000Z</time>
      </trkpt>
      <trkpt lat="47.31859" lon="-2.3318">
        <ele>5</ele>
        <time>2022-03-06T09:25:07.000Z</time>
      </trkpt>
      <trkpt lat="47.31861" lon="-2.3316">
        <ele>5</ele>
        <time>2022-03-06T09:25:09.000Z</time>
      </trkpt>
      <trkpt lat="47.31863" lon="-2.3314">
        <ele>4.5999999046326</ele>
        <time>2022-03-06T09:25:11.000Z</time>
      </trkpt>
      <trkpt lat="47.31864" lon="-2.33131">
        <ele>4.1999998092651</ele>
        <time>2022-03-06T09:25:12.000Z</time>
      </trkpt>
      <trkpt lat="47.31866" lon="-2.33121">
        <ele>3.5999999046326</ele>
        <time>2022-03-06T09:25:13.000Z</time>
      </trkpt>
      <trkpt lat="47.31867" lon="-2.33111">
        <ele>3.2000000476837</ele>
        <time>2022-03-06T09:25:14.000Z</time>
      </trkpt>
      <trkpt lat="47.31869" lon="-2.331">
        <ele>2.5999999046326</ele>
        <time>2022-03-06T09:25:15.000Z</time>
      </trkpt>
      <trkpt lat="47.31872" lon="-2.33069">
        <ele>2.5999999046326</ele>
        <time>2022-03-06T09:25:18.000Z</time>
      </trkpt>
      <trkpt lat="47.31875" lon="-2.33058">
        <ele>2.2000000476837</ele>
        <time>2022-03-06T09:25:19.000Z</time>
      </trkpt>
      <trkpt lat="47.31876" lon="-2.33048">
        <ele>1.7999999523163</ele>
        <time>2022-03-06T09:25:20.000Z</time>
      </trkpt>
      <trkpt lat="47.31876" lon="-2.33038">
        <ele>1.3999999761581</ele>
        <time>2022-03-06T09:25:21.000Z</time>
      </trkpt>
      <trkpt lat="47.31877" lon="-2.33029">
        <ele>1</ele>
        <time>2022-03-06T09:25:22.000Z</time>
      </trkpt>
      <trkpt lat="47.31877" lon="-2.33019">
        <ele>0.60000002384186</ele>
        <time>2022-03-06T09:25:23.000Z</time>
      </trkpt>
      <trkpt lat="47.31876" lon="-2.32985">
        <ele>0.60000002384186</ele>
        <time>2022-03-06T09:25:27.000Z</time>
      </trkpt>
      <trkpt lat="47.31881" lon="-2.32947">
        <ele>0.60000002384186</ele>
        <time>2022-03-06T09:25:32.000Z</time>
      </trkpt>
      <trkpt lat="47.31881" lon="-2.3294">
        <ele>0.60000002384186</ele>
        <time>2022-03-06T09:25:33.000Z</time>
      </trkpt>
      <trkpt lat="47.31881" lon="-2.32914">
        <ele>0.60000002384186</ele>
        <time>2022-03-06T09:25:37.000Z</time>
      </trkpt>
      <trkpt lat="47.31884" lon="-2.32869">
        <ele>0.60000002384186</ele>
        <time>2022-03-06T09:25:43.000Z</time>
      </trkpt>
      <trkpt lat="47.31883" lon="-2.32862">
        <ele>0.60000002384186</ele>
        <time>2022-03-06T09:25:44.000Z</time>
      </trkpt>
      <trkpt lat="47.31881" lon="-2.32825">
        <ele>0.60000002384186</ele>
        <time>2022-03-06T09:25:49.000Z</time>
      </trkpt>
      <trkpt lat="47.31881" lon="-2.32811">
        <ele>0.60000002384186</ele>
        <time>2022-03-06T09:25:51.000Z</time>
      </trkpt>
      <trkpt lat="47.31879" lon="-2.32789">
        <ele>0.60000002384186</ele>
        <time>2022-03-06T09:25:54.000Z</time>
      </trkpt>
      <trkpt lat="47.31877" lon="-2.32768">
        <ele>0.60000002384186</ele>
        <time>2022-03-06T09:25:57.000Z</time>
      </trkpt>
      <trkpt lat="47.31873" lon="-2.32755">
        <ele>0.60000002384186</ele>
        <time>2022-03-06T09:25:59.000Z</time>
      </trkpt>
      <trkpt lat="47.31871" lon="-2.32749">
        <ele>0.60000002384186</ele>
        <time>2022-03-06T09:26:00.000Z</time>
      </trkpt>
      <trkpt lat="47.31867" lon="-2.32738">
        <ele>1</ele>
        <time>2022-03-06T09:26:02.000Z</time>
      </trkpt>
      <trkpt lat="47.31865" lon="-2.32732">
        <ele>1.3999999761581</ele>
        <time>2022-03-06T09:26:03.000Z</time>
      </trkpt>
      <trkpt lat="47.31864" lon="-2.32726">
        <ele>1.7999999523163</ele>
        <time>2022-03-06T09:26:04.000Z</time>
      </trkpt>
      <trkpt lat="47.31862" lon="-2.3272">
        <ele>2.2000000476837</ele>
        <time>2022-03-06T09:26:05.000Z</time>
      </trkpt>
      <trkpt lat="47.3186" lon="-2.32715">
        <ele>2.5999999046326</ele>
        <time>2022-03-06T09:26:06.000Z</time>
      </trkpt>
      <trkpt lat="47.3185" lon="-2.32693">
        <ele>2.5999999046326</ele>
        <time>2022-03-06T09:26:10.000Z</time>
      </trkpt>
      <trkpt lat="47.31838" lon="-2.3266">
        <ele>2.5999999046326</ele>
        <time>2022-03-06T09:26:16.000Z</time>
      </trkpt>
      <trkpt lat="47.31831" lon="-2.32629">
        <ele>2.5999999046326</ele>
        <time>2022-03-06T09:26:21.000Z</time>
      </trkpt>
      <trkpt lat="47.31831" lon="-2.32625">
        <ele>3</ele>
        <time>2022-03-06T09:26:22.000Z</time>
      </trkpt>
      <trkpt lat="47.31829" lon="-2.3262">
        <ele>3.4000000953674</ele>
        <time>2022-03-06T09:26:23.000Z</time>
      </trkpt>
      <trkpt lat="47.31829" lon="-2.32615">
        <ele>3.7999999523163</ele>
        <time>2022-03-06T09:26:24.000Z</time>
      </trkpt>
      <trkpt lat="47.31828" lon="-2.3261">
        <ele>4.5999999046326</ele>
        <time>2022-03-06T09:26:25.000Z</time>
      </trkpt>
      <trkpt lat="47.31821" lon="-2.32573">
        <ele>4.5999999046326</ele>
        <time>2022-03-06T09:26:31.000Z</time>
      </trkpt>
      <trkpt lat="47.31813" lon="-2.32547">
        <ele>5</ele>
        <time>2022-03-06T09:26:35.000Z</time>
      </trkpt>
      <trkpt lat="47.31811" lon="-2.32542">
        <ele>5.4000000953674</ele>
        <time>2022-03-06T09:26:36.000Z</time>
      </trkpt>
      <trkpt lat="47.3181" lon="-2.32536">
        <ele>5.8000001907349</ele>
        <time>2022-03-06T09:26:37.000Z</time>
      </trkpt>
      <trkpt lat="47.31809" lon="-2.3253">
        <ele>6.1999998092651</ele>
        <time>2022-03-06T09:26:38.000Z</time>
      </trkpt>
      <trkpt lat="47.31808" lon="-2.32524">
        <ele>6.5999999046326</ele>
        <time>2022-03-06T09:26:39.000Z</time>
      </trkpt>
      <trkpt lat="47.318" lon="-2.32497">
        <ele>6.5999999046326</ele>
        <time>2022-03-06T09:26:44.000Z</time>
      </trkpt>
      <trkpt lat="47.31795" lon="-2.32478">
        <ele>7.1999998092651</ele>
        <time>2022-03-06T09:26:48.000Z</time>
      </trkpt>
      <trkpt lat="47.31794" lon="-2.32474">
        <ele>8</ele>
        <time>2022-03-06T09:26:49.000Z</time>
      </trkpt>
      <trkpt lat="47.31793" lon="-2.32471">
        <ele>8.3999996185303</ele>
        <time>2022-03-06T09:26:50.000Z</time>
      </trkpt>
      <trkpt lat="47.31791" lon="-2.32468">
        <ele>8.8000001907349</ele>
        <time>2022-03-06T09:26:51.000Z</time>
      </trkpt>
      <trkpt lat="47.31789" lon="-2.32459">
        <ele>9.1999998092651</ele>
        <time>2022-03-06T09:26:53.000Z</time>
      </trkpt>
      <trkpt lat="47.31788" lon="-2.32454">
        <ele>9.6000003814697</ele>
        <time>2022-03-06T09:26:54.000Z</time>
      </trkpt>
      <trkpt lat="47.31787" lon="-2.32448">
        <ele>10</ele>
        <time>2022-03-06T09:26:55.000Z</time>
      </trkpt>
      <trkpt lat="47.31787" lon="-2.32442">
        <ele>10.39999961853</ele>
        <time>2022-03-06T09:26:56.000Z</time>
      </trkpt>
      <trkpt lat="47.31786" lon="-2.32435">
        <ele>10.800000190735</ele>
        <time>2022-03-06T09:26:57.000Z</time>
      </trkpt>
      <trkpt lat="47.31783" lon="-2.32421">
        <ele>10.800000190735</ele>
        <time>2022-03-06T09:27:00.000Z</time>
      </trkpt>
      <trkpt lat="47.31777" lon="-2.32385">
        <ele>10.800000190735</ele>
        <time>2022-03-06T09:27:07.000Z</time>
      </trkpt>
      <trkpt lat="47.31775" lon="-2.32376">
        <ele>11.199999809265</ele>
        <time>2022-03-06T09:27:09.000Z</time>
      </trkpt>
      <trkpt lat="47.31773" lon="-2.3237">
        <ele>11.800000190735</ele>
        <time>2022-03-06T09:27:10.000Z</time>
      </trkpt>
      <trkpt lat="47.31772" lon="-2.32365">
        <ele>12.199999809265</ele>
        <time>2022-03-06T09:27:11.000Z</time>
      </trkpt>
      <trkpt lat="47.31772" lon="-2.3236">
        <ele>12.60000038147</ele>
        <time>2022-03-06T09:27:12.000Z</time>
      </trkpt>
      <trkpt lat="47.31771" lon="-2.32354">
        <ele>13</ele>
        <time>2022-03-06T09:27:13.000Z</time>
      </trkpt>
      <trkpt lat="47.31764" lon="-2.32323">
        <ele>13</ele>
        <time>2022-03-06T09:27:19.000Z</time>
      </trkpt>
      <trkpt lat="47.31758" lon="-2.32289">
        <ele>13</ele>
        <time>2022-03-06T09:27:25.000Z</time>
      </trkpt>
      <trkpt lat="47.31752" lon="-2.32262">
        <ele>13</ele>
        <time>2022-03-06T09:27:31.000Z</time>
      </trkpt>
      <trkpt lat="47.31749" lon="-2.32247">
        <ele>13</ele>
        <time>2022-03-06T09:27:36.000Z</time>
      </trkpt>
      <trkpt lat="47.31749" lon="-2.3224">
        <ele>13.800000190735</ele>
        <time>2022-03-06T09:27:38.000Z</time>
      </trkpt>
      <trkpt lat="47.31749" lon="-2.32239">
        <ele>14.199999809265</ele>
        <time>2022-03-06T09:27:39.000Z</time>
      </trkpt>
      <trkpt lat="47.3175" lon="-2.32239">
        <ele>14.60000038147</ele>
        <time>2022-03-06T09:27:40.000Z</time>
      </trkpt>
      <trkpt lat="47.3175" lon="-2.32238">
        <ele>15</ele>
        <time>2022-03-06T09:27:41.000Z</time>
      </trkpt>
      <trkpt lat="47.31756" lon="-2.32237">
        <ele>15</ele>
        <time>2022-03-06T09:28:34.000Z</time>
      </trkpt>
      <trkpt lat="47.31769" lon="-2.32233">
        <ele>15</ele>
        <time>2022-03-06T09:28:39.000Z</time>
      </trkpt>
      <trkpt lat="47.31771" lon="-2.32233">
        <ele>15</ele>
        <time>2022-03-06T09:28:40.000Z</time>
      </trkpt>
      <trkpt lat="47.3179" lon="-2.32228">
        <ele>15</ele>
        <time>2022-03-06T09:28:46.000Z</time>
      </trkpt>
      <trkpt lat="47.31816" lon="-2.32226">
        <ele>15</ele>
        <time>2022-03-06T09:28:52.000Z</time>
      </trkpt>
      <trkpt lat="47.31821" lon="-2.32225">
        <ele>14.60000038147</ele>
        <time>2022-03-06T09:28:53.000Z</time>
      </trkpt>
      <trkpt lat="47.31826" lon="-2.32224">
        <ele>14.199999809265</ele>
        <time>2022-03-06T09:28:54.000Z</time>
      </trkpt>
      <trkpt lat="47.31831" lon="-2.32223">
        <ele>13.60000038147</ele>
        <time>2022-03-06T09:28:55.000Z</time>
      </trkpt>
      <trkpt lat="47.31837" lon="-2.32222">
        <ele>13.199999809265</ele>
        <time>2022-03-06T09:28:56.000Z</time>
      </trkpt>
      <trkpt lat="47.31843" lon="-2.3222">
        <ele>12.800000190735</ele>
        <time>2022-03-06T09:28:57.000Z</time>
      </trkpt>
      <trkpt lat="47.31848" lon="-2.32218">
        <ele>12.800000190735</ele>
        <time>2022-03-06T09:28:58.000Z</time>
      </trkpt>
      <trkpt lat="47.31866" lon="-2.32214">
        <ele>12.199999809265</ele>
        <time>2022-03-06T09:29:01.000Z</time>
      </trkpt>
      <trkpt lat="47.31873" lon="-2.32212">
        <ele>11.800000190735</ele>
        <time>2022-03-06T09:29:02.000Z</time>
      </trkpt>
      <trkpt lat="47.31879" lon="-2.3221">
        <ele>11.39999961853</ele>
        <time>2022-03-06T09:29:03.000Z</time>
      </trkpt>
      <trkpt lat="47.31886" lon="-2.32209">
        <ele>10.800000190735</ele>
        <time>2022-03-06T09:29:04.000Z</time>
      </trkpt>
      <trkpt lat="47.31893" lon="-2.32207">
        <ele>10.39999961853</ele>
        <time>2022-03-06T09:29:05.000Z</time>
      </trkpt>
      <trkpt lat="47.31899" lon="-2.32206">
        <ele>10</ele>
        <time>2022-03-06T09:29:06.000Z</time>
      </trkpt>
      <trkpt lat="47.31906" lon="-2.32206">
        <ele>9.6000003814697</ele>
        <time>2022-03-06T09:29:07.000Z</time>
      </trkpt>
      <trkpt lat="47.31913" lon="-2.32206">
        <ele>9.1999998092651</ele>
        <time>2022-03-06T09:29:08.000Z</time>
      </trkpt>
      <trkpt lat="47.31921" lon="-2.32207">
        <ele>8.8000001907349</ele>
        <time>2022-03-06T09:29:09.000Z</time>
      </trkpt>
      <trkpt lat="47.31929" lon="-2.32209">
        <ele>8.1999998092651</ele>
        <time>2022-03-06T09:29:10.000Z</time>
      </trkpt>
      <trkpt lat="47.31937" lon="-2.3221">
        <ele>7.8000001907349</ele>
        <time>2022-03-06T09:29:11.000Z</time>
      </trkpt>
      <trkpt lat="47.31944" lon="-2.3221">
        <ele>7.1999998092651</ele>
        <time>2022-03-06T09:29:12.000Z</time>
      </trkpt>
      <trkpt lat="47.31949" lon="-2.32212">
        <ele>6.5999999046326</ele>
        <time>2022-03-06T09:29:13.000Z</time>
      </trkpt>
      <trkpt lat="47.31954" lon="-2.32215">
        <ele>6.1999998092651</ele>
        <time>2022-03-06T09:29:14.000Z</time>
      </trkpt>
      <trkpt lat="47.31957" lon="-2.3222">
        <ele>5.5999999046326</ele>
        <time>2022-03-06T09:29:15.000Z</time>
      </trkpt>
      <trkpt lat="47.31957" lon="-2.32225">
        <ele>5</ele>
        <time>2022-03-06T09:29:16.000Z</time>
      </trkpt>
      <trkpt lat="47.31957" lon="-2.3223">
        <ele>3.7999999523163</ele>
        <time>2022-03-06T09:29:17.000Z</time>
      </trkpt>
      <trkpt lat="47.31952" lon="-2.32241">
        <ele>3.7999999523163</ele>
        <time>2022-03-06T09:29:20.000Z</time>
      </trkpt>
      <trkpt lat="47.3195" lon="-2.32245">
        <ele>3.4000000953674</ele>
        <time>2022-03-06T09:29:21.000Z</time>
      </trkpt>
      <trkpt lat="47.31949" lon="-2.32249">
        <ele>3</ele>
        <time>2022-03-06T09:29:22.000Z</time>
      </trkpt>
      <trkpt lat="47.31949" lon="-2.32254">
        <ele>2.5999999046326</ele>
        <time>2022-03-06T09:29:23.000Z</time>
      </trkpt>
      <trkpt lat="47.31949" lon="-2.32259">
        <ele>2.2000000476837</ele>
        <time>2022-03-06T09:29:24.000Z</time>
      </trkpt>
      <trkpt lat="47.31949" lon="-2.32262">
        <ele>1.7999999523163</ele>
        <time>2022-03-06T09:29:25.000Z</time>
      </trkpt>
      <trkpt lat="47.31951" lon="-2.32265">
        <ele>1.7999999523163</ele>
        <time>2022-03-06T09:29:26.000Z</time>
      </trkpt>
      <trkpt lat="47.31956" lon="-2.32265">
        <ele>1.7999999523163</ele>
        <time>2022-03-06T09:29:28.000Z</time>
      </trkpt>
      <trkpt lat="47.31961" lon="-2.32255">
        <ele>1.3999999761581</ele>
        <time>2022-03-06T09:29:31.000Z</time>
      </trkpt>
      <trkpt lat="47.31964" lon="-2.3225">
        <ele>0.80000001192093</ele>
        <time>2022-03-06T09:29:32.000Z</time>
      </trkpt>
      <trkpt lat="47.31967" lon="-2.32245">
        <ele>0.40000000596046</ele>
        <time>2022-03-06T09:29:33.000Z</time>
      </trkpt>
      <trkpt lat="47.3197" lon="-2.32239">
        <ele>16.2</ele>
        <time>2022-03-06T09:29:34.000Z</time>
      </trkpt>
      <trkpt lat="47.31974" lon="-2.32234">
        <ele>-0.40000000596046</ele>
        <time>2022-03-06T09:29:35.000Z</time>
      </trkpt>
      <trkpt lat="47.31988" lon="-2.32218">
        <ele>-1</ele>
        <time>2022-03-06T09:29:38.000Z</time>
      </trkpt>
      <trkpt lat="47.31993" lon="-2.32213">
        <ele>-1.3999999761581</ele>
        <time>2022-03-06T09:29:39.000Z</time>
      </trkpt>
      <trkpt lat="47.31998" lon="-2.32208">
        <ele>-1.7999999523163</ele>
        <time>2022-03-06T09:29:40.000Z</time>
      </trkpt>
      <trkpt lat="47.32003" lon="-2.32203">
        <ele>-2.7999999523163</ele>
        <time>2022-03-06T09:29:41.000Z</time>
      </trkpt>
      <trkpt lat="47.32029" lon="-2.32188">
        <ele>-2.7999999523163</ele>
        <time>2022-03-06T09:29:46.000Z</time>
      </trkpt>
      <trkpt lat="47.32039" lon="-2.32186">
        <ele>-2.7999999523163</ele>
        <time>2022-03-06T09:29:48.000Z</time>
      </trkpt>
      <trkpt lat="47.32068" lon="-2.32184">
        <ele>-3.2000000476837</ele>
        <time>2022-03-06T09:29:53.000Z</time>
      </trkpt>
      <trkpt lat="47.32074" lon="-2.32183">
        <ele>-3.5999999046326</ele>
        <time>2022-03-06T09:29:54.000Z</time>
      </trkpt>
      <trkpt lat="47.3208" lon="-2.32183">
        <ele>-4</ele>
        <time>2022-03-06T09:29:55.000Z</time>
      </trkpt>
      <trkpt lat="47.32086" lon="-2.32182">
        <ele>-4.4000000953674</ele>
        <time>2022-03-06T09:29:56.000Z</time>
      </trkpt>
      <trkpt lat="47.32092" lon="-2.32182">
        <ele>-4.8000001907349</ele>
        <time>2022-03-06T09:29:57.000Z</time>
      </trkpt>
      <trkpt lat="47.32124" lon="-2.32177">
        <ele>-4.8000001907349</ele>
        <time>2022-03-06T09:30:03.000Z</time>
      </trkpt>
      <trkpt lat="47.32129" lon="-2.32174">
        <ele>-5.1999998092651</ele>
        <time>2022-03-06T09:30:04.000Z</time>
      </trkpt>
      <trkpt lat="47.32134" lon="-2.3217">
        <ele>-5.5999999046326</ele>
        <time>2022-03-06T09:30:05.000Z</time>
      </trkpt>
      <trkpt lat="47.32139" lon="-2.32166">
        <ele>-6.4000000953674</ele>
        <time>2022-03-06T09:30:06.000Z</time>
      </trkpt>
      <trkpt lat="47.32144" lon="-2.32162">
        <ele>-6.8000001907349</ele>
        <time>2022-03-06T09:30:07.000Z</time>
      </trkpt>
      <trkpt lat="47.32148" lon="-2.32158">
        <ele>-6.8000001907349</ele>
        <time>2022-03-06T09:30:08.000Z</time>
      </trkpt>
      <trkpt lat="47.32173" lon="-2.32136">
        <ele>-6.8000001907349</ele>
        <time>2022-03-06T09:30:14.000Z</time>
      </trkpt>
      <trkpt lat="47.32191" lon="-2.32122">
        <ele>-6.8000001907349</ele>
        <time>2022-03-06T09:30:19.000Z</time>
      </trkpt>
      <trkpt lat="47.32205" lon="-2.32112">
        <ele>-6.8000001907349</ele>
        <time>2022-03-06T09:30:24.000Z</time>
      </trkpt>
      <trkpt lat="47.32222" lon="-2.32111">
        <ele>-6.8000001907349</ele>
        <time>2022-03-06T09:30:30.000Z</time>
      </trkpt>
      <trkpt lat="47.32251" lon="-2.32107">
        <ele>-6.8000001907349</ele>
        <time>2022-03-06T09:30:39.000Z</time>
      </trkpt>
      <trkpt lat="47.32276" lon="-2.32102">
        <ele>-6.8000001907349</ele>
        <time>2022-03-06T09:30:46.000Z</time>
      </trkpt>
      <trkpt lat="47.32289" lon="-2.321">
        <ele>-6.4000000953674</ele>
        <time>2022-03-06T09:30:51.000Z</time>
      </trkpt>
      <trkpt lat="47.32291" lon="-2.32099">
        <ele>-6</ele>
        <time>2022-03-06T09:30:52.000Z</time>
      </trkpt>
      <trkpt lat="47.32293" lon="-2.32098">
        <ele>-5.5999999046326</ele>
        <time>2022-03-06T09:30:53.000Z</time>
      </trkpt>
      <trkpt lat="47.32294" lon="-2.32098">
        <ele>-5.1999998092651</ele>
        <time>2022-03-06T09:30:54.000Z</time>
      </trkpt>
      <trkpt lat="47.32297" lon="-2.32097">
        <ele>-4.8000001907349</ele>
        <time>2022-03-06T09:30:55.000Z</time>
      </trkpt>
      <trkpt lat="47.32302" lon="-2.32098">
        <ele>-4.8000001907349</ele>
        <time>2022-03-06T09:30:57.000Z</time>
      </trkpt>
      <trkpt lat="47.3232" lon="-2.321">
        <ele>-4.8000001907349</ele>
        <time>2022-03-06T09:31:04.000Z</time>
      </trkpt>
      <trkpt lat="47.32337" lon="-2.32102">
        <ele>-4.8000001907349</ele>
        <time>2022-03-06T09:31:09.000Z</time>
      </trkpt>
      <trkpt lat="47.32341" lon="-2.32104">
        <ele>-4.8000001907349</ele>
        <time>2022-03-06T09:31:13.000Z</time>
      </trkpt>
      <trkpt lat="47.32341" lon="-2.32104">
        <ele>-5.1999998092651</ele>
        <time>2022-03-06T09:31:14.000Z</time>
      </trkpt>
      <trkpt lat="47.32346" lon="-2.32103">
        <ele>-7</ele>
        <time>2022-03-06T09:31:39.000Z</time>
      </trkpt>
      <trkpt lat="47.3235" lon="-2.32104">
        <ele>-7</ele>
        <time>2022-03-06T09:31:41.000Z</time>
      </trkpt>
      <trkpt lat="47.32368" lon="-2.32106">
        <ele>-7</ele>
        <time>2022-03-06T09:31:46.000Z</time>
      </trkpt>
      <trkpt lat="47.32399" lon="-2.32105">
        <ele>-7</ele>
        <time>2022-03-06T09:31:53.000Z</time>
      </trkpt>
      <trkpt lat="47.32428" lon="-2.32102">
        <ele>-7</ele>
        <time>2022-03-06T09:31:59.000Z</time>
      </trkpt>
      <trkpt lat="47.32444" lon="-2.32099">
        <ele>-7</ele>
        <time>2022-03-06T09:32:02.000Z</time>
      </trkpt>
      <trkpt lat="47.32461" lon="-2.32099">
        <ele>-7</ele>
        <time>2022-03-06T09:32:05.000Z</time>
      </trkpt>
      <trkpt lat="47.32492" lon="-2.32097">
        <ele>-7</ele>
        <time>2022-03-06T09:32:12.000Z</time>
      </trkpt>
      <trkpt lat="47.32495" lon="-2.32095">
        <ele>-7</ele>
        <time>2022-03-06T09:32:13.000Z</time>
      </trkpt>
      <trkpt lat="47.32498" lon="-2.32087">
        <ele>-7</ele>
        <time>2022-03-06T09:32:15.000Z</time>
      </trkpt>
      <trkpt lat="47.32499" lon="-2.32074">
        <ele>-7</ele>
        <time>2022-03-06T09:32:18.000Z</time>
      </trkpt>
      <trkpt lat="47.325" lon="-2.32069">
        <ele>-7</ele>
        <time>2022-03-06T09:32:19.000Z</time>
      </trkpt>
      <trkpt lat="47.32502" lon="-2.32046">
        <ele>-7</ele>
        <time>2022-03-06T09:32:23.000Z</time>
      </trkpt>
      <trkpt lat="47.32502" lon="-2.32033">
        <ele>-7</ele>
        <time>2022-03-06T09:32:25.000Z</time>
      </trkpt>
      <trkpt lat="47.32503" lon="-2.31999">
        <ele>-7</ele>
        <time>2022-03-06T09:32:30.000Z</time>
      </trkpt>
      <trkpt lat="47.32503" lon="-2.31993">
        <ele>-7</ele>
        <time>2022-03-06T09:32:31.000Z</time>
      </trkpt>
      <trkpt lat="47.32503" lon="-2.31986">
        <ele>-7</ele>
        <time>2022-03-06T09:32:32.000Z</time>
      </trkpt>
      <trkpt lat="47.32506" lon="-2.31959">
        <ele>-7</ele>
        <time>2022-03-06T09:32:36.000Z</time>
      </trkpt>
      <trkpt lat="47.32511" lon="-2.31915">
        <ele>-6.5999999046326</ele>
        <time>2022-03-06T09:32:42.000Z</time>
      </trkpt>
      <trkpt lat="47.32512" lon="-2.31908">
        <ele>-6</ele>
        <time>2022-03-06T09:32:43.000Z</time>
      </trkpt>
      <trkpt lat="47.32513" lon="-2.31901">
        <ele>-5.5999999046326</ele>
        <time>2022-03-06T09:32:44.000Z</time>
      </trkpt>
      <trkpt lat="47.32513" lon="-2.31894">
        <ele>-5.1999998092651</ele>
        <time>2022-03-06T09:32:45.000Z</time>
      </trkpt>
      <trkpt lat="47.32514" lon="-2.31887">
        <ele>-4.8000001907349</ele>
        <time>2022-03-06T09:32:46.000Z</time>
      </trkpt>
      <trkpt lat="47.32517" lon="-2.31864">
        <ele>-4.8000001907349</ele>
        <time>2022-03-06T09:32:49.000Z</time>
      </trkpt>
      <trkpt lat="47.32518" lon="-2.31839">
        <ele>-4.8000001907349</ele>
        <time>2022-03-06T09:32:52.000Z</time>
      </trkpt>
      <trkpt lat="47.32517" lon="-2.31816">
        <ele>-4.8000001907349</ele>
        <time>2022-03-06T09:32:55.000Z</time>
      </trkpt>
      <trkpt lat="47.32513" lon="-2.31772">
        <ele>-4.8000001907349</ele>
        <time>2022-03-06T09:33:01.000Z</time>
      </trkpt>
      <trkpt lat="47.32508" lon="-2.31717">
        <ele>-4.8000001907349</ele>
        <time>2022-03-06T09:33:08.000Z</time>
      </trkpt>
      <trkpt lat="47.32507" lon="-2.31661">
        <ele>-4.8000001907349</ele>
        <time>2022-03-06T09:33:15.000Z</time>
      </trkpt>
      <trkpt lat="47.32514" lon="-2.31642">
        <ele>-4.8000001907349</ele>
        <time>2022-03-06T09:33:18.000Z</time>
      </trkpt>
      <trkpt lat="47.32522" lon="-2.31631">
        <ele>-4.8000001907349</ele>
        <time>2022-03-06T09:33:20.000Z</time>
      </trkpt>
      <trkpt lat="47.32538" lon="-2.31608">
        <ele>-4.8000001907349</ele>
        <time>2022-03-06T09:33:24.000Z</time>
      </trkpt>
      <trkpt lat="47.32542" lon="-2.31603">
        <ele>-4.8000001907349</ele>
        <time>2022-03-06T09:33:25.000Z</time>
      </trkpt>
      <trkpt lat="47.32554" lon="-2.31589">
        <ele>-4.8000001907349</ele>
        <time>2022-03-06T09:33:28.000Z</time>
      </trkpt>
      <trkpt lat="47.32556" lon="-2.31584">
        <ele>-4.8000001907349</ele>
        <time>2022-03-06T09:33:29.000Z</time>
      </trkpt>
      <trkpt lat="47.32556" lon="-2.31569">
        <ele>-4.8000001907349</ele>
        <time>2022-03-06T09:33:32.000Z</time>
      </trkpt>
      <trkpt lat="47.32556" lon="-2.31564">
        <ele>-4.8000001907349</ele>
        <time>2022-03-06T09:33:33.000Z</time>
      </trkpt>
      <trkpt lat="47.32555" lon="-2.31536">
        <ele>-4.8000001907349</ele>
        <time>2022-03-06T09:33:40.000Z</time>
      </trkpt>
      <trkpt lat="47.32556" lon="-2.31518">
        <ele>-4.8000001907349</ele>
        <time>2022-03-06T09:33:44.000Z</time>
      </trkpt>
      <trkpt lat="47.32558" lon="-2.31492">
        <ele>-4.8000001907349</ele>
        <time>2022-03-06T09:33:50.000Z</time>
      </trkpt>
      <trkpt lat="47.32555" lon="-2.31456">
        <ele>-4.8000001907349</ele>
        <time>2022-03-06T09:33:57.000Z</time>
      </trkpt>
      <trkpt lat="47.32553" lon="-2.3143">
        <ele>-4.8000001907349</ele>
        <time>2022-03-06T09:34:04.000Z</time>
      </trkpt>
      <trkpt lat="47.32551" lon="-2.31414">
        <ele>-4.8000001907349</ele>
        <time>2022-03-06T09:34:10.000Z</time>
      </trkpt>
      <trkpt lat="47.3255" lon="-2.31413">
        <ele>-4.8000001907349</ele>
        <time>2022-03-06T09:34:11.000Z</time>
      </trkpt>
      <trkpt lat="47.32551" lon="-2.3141">
        <ele>-4.8000001907349</ele>
        <time>2022-03-06T09:35:41.000Z</time>
      </trkpt>
      <trkpt lat="47.32552" lon="-2.31405">
        <ele>-4.8000001907349</ele>
        <time>2022-03-06T09:35:43.000Z</time>
      </trkpt>
      <trkpt lat="47.32553" lon="-2.31389">
        <ele>-4.8000001907349</ele>
        <time>2022-03-06T09:35:47.000Z</time>
      </trkpt>
      <trkpt lat="47.32553" lon="-2.31376">
        <ele>-4.8000001907349</ele>
        <time>2022-03-06T09:35:49.000Z</time>
      </trkpt>
      <trkpt lat="47.32554" lon="-2.31363">
        <ele>-4.8000001907349</ele>
        <time>2022-03-06T09:35:51.000Z</time>
      </trkpt>
      <trkpt lat="47.32554" lon="-2.31356">
        <ele>-4.8000001907349</ele>
        <time>2022-03-06T09:35:52.000Z</time>
      </trkpt>
      <trkpt lat="47.32557" lon="-2.31337">
        <ele>-4.8000001907349</ele>
        <time>2022-03-06T09:35:55.000Z</time>
      </trkpt>
      <trkpt lat="47.32562" lon="-2.31325">
        <ele>-4.8000001907349</ele>
        <time>2022-03-06T09:35:57.000Z</time>
      </trkpt>
      <trkpt lat="47.32565" lon="-2.31318">
        <ele>-4.8000001907349</ele>
        <time>2022-03-06T09:35:58.000Z</time>
      </trkpt>
      <trkpt lat="47.32568" lon="-2.31295">
        <ele>-4.8000001907349</ele>
        <time>2022-03-06T09:36:01.000Z</time>
      </trkpt>
      <trkpt lat="47.32568" lon="-2.31287">
        <ele>-4.8000001907349</ele>
        <time>2022-03-06T09:36:02.000Z</time>
      </trkpt>
      <trkpt lat="47.32571" lon="-2.31228">
        <ele>-4.8000001907349</ele>
        <time>2022-03-06T09:36:09.000Z</time>
      </trkpt>
      <trkpt lat="47.32565" lon="-2.31207">
        <ele>-4.8000001907349</ele>
        <time>2022-03-06T09:36:12.000Z</time>
      </trkpt>
      <trkpt lat="47.32558" lon="-2.31185">
        <ele>-4.8000001907349</ele>
        <time>2022-03-06T09:36:16.000Z</time>
      </trkpt>
      <trkpt lat="47.32559" lon="-2.31171">
        <ele>-4.8000001907349</ele>
        <time>2022-03-06T09:36:20.000Z</time>
      </trkpt>
      <trkpt lat="47.3256" lon="-2.31169">
        <ele>-4.8000001907349</ele>
        <time>2022-03-06T09:36:21.000Z</time>
      </trkpt>
      <trkpt lat="47.3256" lon="-2.31157">
        <ele>-4.8000001907349</ele>
        <time>2022-03-06T09:36:25.000Z</time>
      </trkpt>
      <trkpt lat="47.3256" lon="-2.31153">
        <ele>-4.8000001907349</ele>
        <time>2022-03-06T09:36:26.000Z</time>
      </trkpt>
      <trkpt lat="47.32564" lon="-2.31128">
        <ele>-4.8000001907349</ele>
        <time>2022-03-06T09:36:31.000Z</time>
      </trkpt>
      <trkpt lat="47.32568" lon="-2.31091">
        <ele>-4.8000001907349</ele>
        <time>2022-03-06T09:36:38.000Z</time>
      </trkpt>
      <trkpt lat="47.32567" lon="-2.31058">
        <ele>-4.8000001907349</ele>
        <time>2022-03-06T09:36:45.000Z</time>
      </trkpt>
      <trkpt lat="47.32565" lon="-2.31038">
        <ele>-4.4000000953674</ele>
        <time>2022-03-06T09:36:49.000Z</time>
      </trkpt>
      <trkpt lat="47.32565" lon="-2.31033">
        <ele>-4</ele>
        <time>2022-03-06T09:36:50.000Z</time>
      </trkpt>
      <trkpt lat="47.32564" lon="-2.31027">
        <ele>-3.5999999046326</ele>
        <time>2022-03-06T09:36:51.000Z</time>
      </trkpt>
      <trkpt lat="47.32563" lon="-2.31022">
        <ele>-3.2000000476837</ele>
        <time>2022-03-06T09:36:52.000Z</time>
      </trkpt>
      <trkpt lat="47.32563" lon="-2.31016">
        <ele>-2.7999999523163</ele>
        <time>2022-03-06T09:36:53.000Z</time>
      </trkpt>
      <trkpt lat="47.32563" lon="-2.30982">
        <ele>-2.7999999523163</ele>
        <time>2022-03-06T09:36:59.000Z</time>
      </trkpt>
      <trkpt lat="47.32565" lon="-2.30956">
        <ele>-2.7999999523163</ele>
        <time>2022-03-06T09:37:03.000Z</time>
      </trkpt>
      <trkpt lat="47.32565" lon="-2.3095">
        <ele>-2.7999999523163</ele>
        <time>2022-03-06T09:37:04.000Z</time>
      </trkpt>
      <trkpt lat="47.32565" lon="-2.30927">
        <ele>-2.7999999523163</ele>
        <time>2022-03-06T09:37:07.000Z</time>
      </trkpt>
      <trkpt lat="47.32565" lon="-2.3091">
        <ele>-2.7999999523163</ele>
        <time>2022-03-06T09:37:09.000Z</time>
      </trkpt>
      <trkpt lat="47.32564" lon="-2.30885">
        <ele>-2.7999999523163</ele>
        <time>2022-03-06T09:37:12.000Z</time>
      </trkpt>
      <trkpt lat="47.32564" lon="-2.3087">
        <ele>-2.7999999523163</ele>
        <time>2022-03-06T09:37:14.000Z</time>
      </trkpt>
      <trkpt lat="47.32561" lon="-2.30803">
        <ele>-2.7999999523163</ele>
        <time>2022-03-06T09:37:22.000Z</time>
      </trkpt>
      <trkpt lat="47.32553" lon="-2.30752">
        <ele>-2.7999999523163</ele>
        <time>2022-03-06T09:37:28.000Z</time>
      </trkpt>
      <trkpt lat="47.32552" lon="-2.30744">
        <ele>-2.7999999523163</ele>
        <time>2022-03-06T09:37:29.000Z</time>
      </trkpt>
      <trkpt lat="47.32549" lon="-2.30723">
        <ele>-3.2000000476837</ele>
        <time>2022-03-06T09:37:32.000Z</time>
      </trkpt>
      <trkpt lat="47.32548" lon="-2.30716">
        <ele>-3.5999999046326</ele>
        <time>2022-03-06T09:37:33.000Z</time>
      </trkpt>
      <trkpt lat="47.32547" lon="-2.30709">
        <ele>-4</ele>
        <time>2022-03-06T09:37:34.000Z</time>
      </trkpt>
      <trkpt lat="47.32546" lon="-2.30702">
        <ele>-4.4000000953674</ele>
        <time>2022-03-06T09:37:35.000Z</time>
      </trkpt>
      <trkpt lat="47.32546" lon="-2.30695">
        <ele>-4.8000001907349</ele>
        <time>2022-03-06T09:37:36.000Z</time>
      </trkpt>
      <trkpt lat="47.32545" lon="-2.30682">
        <ele>-4.8000001907349</ele>
        <time>2022-03-06T09:37:38.000Z</time>
      </trkpt>
      <trkpt lat="47.32539" lon="-2.30649">
        <ele>-4.8000001907349</ele>
        <time>2022-03-06T09:37:44.000Z</time>
      </trkpt>
      <trkpt lat="47.32531" lon="-2.30616">
        <ele>-4.8000001907349</ele>
        <time>2022-03-06T09:37:50.000Z</time>
      </trkpt>
      <trkpt lat="47.32528" lon="-2.3059">
        <ele>-4.8000001907349</ele>
        <time>2022-03-06T09:37:55.000Z</time>
      </trkpt>
      <trkpt lat="47.32521" lon="-2.30546">
        <ele>-4.4000000953674</ele>
        <time>2022-03-06T09:38:02.000Z</time>
      </trkpt>
      <trkpt lat="47.3252" lon="-2.3054">
        <ele>-4</ele>
        <time>2022-03-06T09:38:03.000Z</time>
      </trkpt>
      <trkpt lat="47.3252" lon="-2.30534">
        <ele>-3.5999999046326</ele>
        <time>2022-03-06T09:38:04.000Z</time>
      </trkpt>
      <trkpt lat="47.32519" lon="-2.30527">
        <ele>-3.2000000476837</ele>
        <time>2022-03-06T09:38:05.000Z</time>
      </trkpt>
      <trkpt lat="47.32518" lon="-2.3052">
        <ele>-2.7999999523163</ele>
        <time>2022-03-06T09:38:06.000Z</time>
      </trkpt>
      <trkpt lat="47.32515" lon="-2.30506">
        <ele>-2.7999999523163</ele>
        <time>2022-03-06T09:38:08.000Z</time>
      </trkpt>
      <trkpt lat="47.32504" lon="-2.30452">
        <ele>-2.7999999523163</ele>
        <time>2022-03-06T09:38:17.000Z</time>
      </trkpt>
      <trkpt lat="47.325" lon="-2.30423">
        <ele>-2.7999999523163</ele>
        <time>2022-03-06T09:38:22.000Z</time>
      </trkpt>
      <trkpt lat="47.32502" lon="-2.30418">
        <ele>-2.7999999523163</ele>
        <time>2022-03-06T09:38:23.000Z</time>
      </trkpt>
      <trkpt lat="47.32513" lon="-2.30412">
        <ele>-2.7999999523163</ele>
        <time>2022-03-06T09:38:26.000Z</time>
      </trkpt>
      <trkpt lat="47.32537" lon="-2.304">
        <ele>-2.7999999523163</ele>
        <time>2022-03-06T09:38:32.000Z</time>
      </trkpt>
      <trkpt lat="47.32541" lon="-2.30394">
        <ele>-2.7999999523163</ele>
        <time>2022-03-06T09:38:34.000Z</time>
      </trkpt>
      <trkpt lat="47.32542" lon="-2.30387">
        <ele>-2.7999999523163</ele>
        <time>2022-03-06T09:38:36.000Z</time>
      </trkpt>
      <trkpt lat="47.32538" lon="-2.30368">
        <ele>-2.7999999523163</ele>
        <time>2022-03-06T09:38:41.000Z</time>
      </trkpt>
      <trkpt lat="47.32532" lon="-2.30332">
        <ele>-2.7999999523163</ele>
        <time>2022-03-06T09:38:48.000Z</time>
      </trkpt>
      <trkpt lat="47.32523" lon="-2.30292">
        <ele>-2.7999999523163</ele>
        <time>2022-03-06T09:38:56.000Z</time>
      </trkpt>
      <trkpt lat="47.3252" lon="-2.30275">
        <ele>-2.4000000953674</ele>
        <time>2022-03-06T09:38:59.000Z</time>
      </trkpt>
      <trkpt lat="47.32519" lon="-2.3027">
        <ele>-2</ele>
        <time>2022-03-06T09:39:00.000Z</time>
      </trkpt>
      <trkpt lat="47.32518" lon="-2.30264">
        <ele>-1.6000000238419</ele>
        <time>2022-03-06T09:39:01.000Z</time>
      </trkpt>
      <trkpt lat="47.32517" lon="-2.30259">
        <ele>-1.2000000476837</ele>
        <time>2022-03-06T09:39:02.000Z</time>
      </trkpt>
      <trkpt lat="47.32516" lon="-2.30253">
        <ele>-0.80000001192093</ele>
        <time>2022-03-06T09:39:03.000Z</time>
      </trkpt>
      <trkpt lat="47.32515" lon="-2.30247">
        <ele>-0.80000001192093</ele>
        <time>2022-03-06T09:39:04.000Z</time>
      </trkpt>
      <trkpt lat="47.32512" lon="-2.30217">
        <ele>-0.80000001192093</ele>
        <time>2022-03-06T09:39:09.000Z</time>
      </trkpt>
      <trkpt lat="47.32511" lon="-2.30211">
        <ele>-0.80000001192093</ele>
        <time>2022-03-06T09:39:10.000Z</time>
      </trkpt>
      <trkpt lat="47.32505" lon="-2.3017">
        <ele>-0.80000001192093</ele>
        <time>2022-03-06T09:39:17.000Z</time>
      </trkpt>
      <trkpt lat="47.32501" lon="-2.30147">
        <ele>-0.80000001192093</ele>
        <time>2022-03-06T09:39:22.000Z</time>
      </trkpt>
      <trkpt lat="47.32499" lon="-2.30127">
        <ele>-0.40000000596046</ele>
        <time>2022-03-06T09:39:26.000Z</time>
      </trkpt>
      <trkpt lat="47.32499" lon="-2.30122">
        <ele>18</ele>
        <time>2022-03-06T09:39:27.000Z</time>
      </trkpt>
      <trkpt lat="47.32498" lon="-2.30117">
        <ele>0.40000000596046</ele>
        <time>2022-03-06T09:39:28.000Z</time>
      </trkpt>
      <trkpt lat="47.32497" lon="-2.30111">
        <ele>0.80000001192093</ele>
        <time>2022-03-06T09:39:29.000Z</time>
      </trkpt>
      <trkpt lat="47.32496" lon="-2.30106">
        <ele>1.2000000476837</ele>
        <time>2022-03-06T09:39:30.000Z</time>
      </trkpt>
      <trkpt lat="47.32496" lon="-2.3008">
        <ele>1.2000000476837</ele>
        <time>2022-03-06T09:39:35.000Z</time>
      </trkpt>
      <trkpt lat="47.32491" lon="-2.30054">
        <ele>1.2000000476837</ele>
        <time>2022-03-06T09:39:40.000Z</time>
      </trkpt>
      <trkpt lat="47.32477" lon="-2.30014">
        <ele>1.2000000476837</ele>
        <time>2022-03-06T09:39:47.000Z</time>
      </trkpt>
      <trkpt lat="47.3247" lon="-2.29998">
        <ele>1.2000000476837</ele>
        <time>2022-03-06T09:39:50.000Z</time>
      </trkpt>
      <trkpt lat="47.32462" lon="-2.29985">
        <ele>1.2000000476837</ele>
        <time>2022-03-06T09:39:53.000Z</time>
      </trkpt>
      <trkpt lat="47.32447" lon="-2.29962">
        <ele>1.2000000476837</ele>
        <time>2022-03-06T09:39:59.000Z</time>
      </trkpt>
      <trkpt lat="47.32443" lon="-2.29954">
        <ele>1.2000000476837</ele>
        <time>2022-03-06T09:40:01.000Z</time>
      </trkpt>
      <trkpt lat="47.32443" lon="-2.29945">
        <ele>1.2000000476837</ele>
        <time>2022-03-06T09:40:03.000Z</time>
      </trkpt>
      <trkpt lat="47.32445" lon="-2.29918">
        <ele>1.2000000476837</ele>
        <time>2022-03-06T09:40:08.000Z</time>
      </trkpt>
      <trkpt lat="47.32441" lon="-2.29887">
        <ele>1.2000000476837</ele>
        <time>2022-03-06T09:40:13.000Z</time>
      </trkpt>
      <trkpt lat="47.32441" lon="-2.29864">
        <ele>1.2000000476837</ele>
        <time>2022-03-06T09:40:17.000Z</time>
      </trkpt>
      <trkpt lat="47.32451" lon="-2.2985">
        <ele>1.2000000476837</ele>
        <time>2022-03-06T09:40:21.000Z</time>
      </trkpt>
      <trkpt lat="47.3248" lon="-2.29828">
        <ele>1.2000000476837</ele>
        <time>2022-03-06T09:40:27.000Z</time>
      </trkpt>
      <trkpt lat="47.32514" lon="-2.29797">
        <ele>1.2000000476837</ele>
        <time>2022-03-06T09:40:35.000Z</time>
      </trkpt>
      <trkpt lat="47.32541" lon="-2.29772">
        <ele>1.2000000476837</ele>
        <time>2022-03-06T09:40:41.000Z</time>
      </trkpt>
      <trkpt lat="47.32563" lon="-2.29742">
        <ele>1.2000000476837</ele>
        <time>2022-03-06T09:40:47.000Z</time>
      </trkpt>
      <trkpt lat="47.32588" lon="-2.29701">
        <ele>1.2000000476837</ele>
        <time>2022-03-06T09:40:54.000Z</time>
      </trkpt>
      <trkpt lat="47.32614" lon="-2.29662">
        <ele>1.2000000476837</ele>
        <time>2022-03-06T09:41:00.000Z</time>
      </trkpt>
      <trkpt lat="47.32629" lon="-2.29631">
        <ele>0.80000001192093</ele>
        <time>2022-03-06T09:41:04.000Z</time>
      </trkpt>
      <trkpt lat="47.32634" lon="-2.29623">
        <ele>0.40000000596046</ele>
        <time>2022-03-06T09:41:05.000Z</time>
      </trkpt>
      <trkpt lat="47.32638" lon="-2.29615">
        <ele>14.2</ele>
        <time>2022-03-06T09:41:06.000Z</time>
      </trkpt>
      <trkpt lat="47.32641" lon="-2.29607">
        <ele>-0.40000000596046</ele>
        <time>2022-03-06T09:41:07.000Z</time>
      </trkpt>
      <trkpt lat="47.32645" lon="-2.29597">
        <ele>-0.80000001192093</ele>
        <time>2022-03-06T09:41:08.000Z</time>
      </trkpt>
      <trkpt lat="47.32655" lon="-2.2957">
        <ele>-1.3999999761581</ele>
        <time>2022-03-06T09:41:11.000Z</time>
      </trkpt>
      <trkpt lat="47.32658" lon="-2.2956">
        <ele>-1.7999999523163</ele>
        <time>2022-03-06T09:41:12.000Z</time>
      </trkpt>
      <trkpt lat="47.32661" lon="-2.2955">
        <ele>-2.2000000476837</ele>
        <time>2022-03-06T09:41:13.000Z</time>
      </trkpt>
      <trkpt lat="47.32663" lon="-2.2954">
        <ele>-3.2000000476837</ele>
        <time>2022-03-06T09:41:14.000Z</time>
      </trkpt>
      <trkpt lat="47.3267" lon="-2.295">
        <ele>-3.2000000476837</ele>
        <time>2022-03-06T09:41:18.000Z</time>
      </trkpt>
      <trkpt lat="47.32685" lon="-2.29444">
        <ele>-3.2000000476837</ele>
        <time>2022-03-06T09:41:24.000Z</time>
      </trkpt>
      <trkpt lat="47.32688" lon="-2.29435">
        <ele>-3.5999999046326</ele>
        <time>2022-03-06T09:41:25.000Z</time>
      </trkpt>
      <trkpt lat="47.32692" lon="-2.29428">
        <ele>-4</ele>
        <time>2022-03-06T09:41:26.000Z</time>
      </trkpt>
      <trkpt lat="47.32696" lon="-2.29421">
        <ele>-4.4000000953674</ele>
        <time>2022-03-06T09:41:27.000Z</time>
      </trkpt>
      <trkpt lat="47.327" lon="-2.29417">
        <ele>-4.8000001907349</ele>
        <time>2022-03-06T09:41:28.000Z</time>
      </trkpt>
      <trkpt lat="47.32706" lon="-2.29415">
        <ele>-5.4000000953674</ele>
        <time>2022-03-06T09:41:29.000Z</time>
      </trkpt>
      <trkpt lat="47.32722" lon="-2.29406">
        <ele>-5.4000000953674</ele>
        <time>2022-03-06T09:41:32.000Z</time>
      </trkpt>
      <trkpt lat="47.32753" lon="-2.29382">
        <ele>-5.4000000953674</ele>
        <time>2022-03-06T09:41:39.000Z</time>
      </trkpt>
      <trkpt lat="47.32766" lon="-2.2937">
        <ele>-5.4000000953674</ele>
        <time>2022-03-06T09:41:42.000Z</time>
      </trkpt>
      <trkpt lat="47.32777" lon="-2.29357">
        <ele>-5.4000000953674</ele>
        <time>2022-03-06T09:41:45.000Z</time>
      </trkpt>
      <trkpt lat="47.32793" lon="-2.29329">
        <ele>-5.4000000953674</ele>
        <time>2022-03-06T09:41:50.000Z</time>
      </trkpt>
      <trkpt lat="47.32796" lon="-2.29322">
        <ele>-5.4000000953674</ele>
        <time>2022-03-06T09:41:51.000Z</time>
      </trkpt>
      <trkpt lat="47.3281" lon="-2.29281">
        <ele>-5.4000000953674</ele>
        <time>2022-03-06T09:41:57.000Z</time>
      </trkpt>
      <trkpt lat="47.32811" lon="-2.29261">
        <ele>-5.8000001907349</ele>
        <time>2022-03-06T09:42:00.000Z</time>
      </trkpt>
      <trkpt lat="47.32812" lon="-2.29254">
        <ele>-6.1999998092651</ele>
        <time>2022-03-06T09:42:01.000Z</time>
      </trkpt>
      <trkpt lat="47.32812" lon="-2.29248">
        <ele>-6.5999999046326</ele>
        <time>2022-03-06T09:42:02.000Z</time>
      </trkpt>
      <trkpt lat="47.32811" lon="-2.29242">
        <ele>-7.4000000953674</ele>
        <time>2022-03-06T09:42:03.000Z</time>
      </trkpt>
      <trkpt lat="47.32806" lon="-2.29224">
        <ele>-7.4000000953674</ele>
        <time>2022-03-06T09:42:06.000Z</time>
      </trkpt>
      <trkpt lat="47.32804" lon="-2.29218">
        <ele>-7.4000000953674</ele>
        <time>2022-03-06T09:42:07.000Z</time>
      </trkpt>
      <trkpt lat="47.32785" lon="-2.2917">
        <ele>-7.4000000953674</ele>
        <time>2022-03-06T09:42:15.000Z</time>
      </trkpt>
      <trkpt lat="47.3278" lon="-2.29158">
        <ele>-7.8000001907349</ele>
        <time>2022-03-06T09:42:17.000Z</time>
      </trkpt>
      <trkpt lat="47.32777" lon="-2.29153">
        <ele>-8.1999998092651</ele>
        <time>2022-03-06T09:42:18.000Z</time>
      </trkpt>
      <trkpt lat="47.32773" lon="-2.29147">
        <ele>-8.6000003814697</ele>
        <time>2022-03-06T09:42:19.000Z</time>
      </trkpt>
      <trkpt lat="47.3277" lon="-2.29142">
        <ele>-9</ele>
        <time>2022-03-06T09:42:20.000Z</time>
      </trkpt>
      <trkpt lat="47.32766" lon="-2.29138">
        <ele>-9.3999996185303</ele>
        <time>2022-03-06T09:42:21.000Z</time>
      </trkpt>
      <trkpt lat="47.32763" lon="-2.29133">
        <ele>-9.3999996185303</ele>
        <time>2022-03-06T09:42:22.000Z</time>
      </trkpt>
      <trkpt lat="47.32757" lon="-2.29121">
        <ele>-9.3999996185303</ele>
        <time>2022-03-06T09:42:24.000Z</time>
      </trkpt>
      <trkpt lat="47.32755" lon="-2.29108">
        <ele>-9.3999996185303</ele>
        <time>2022-03-06T09:42:26.000Z</time>
      </trkpt>
      <trkpt lat="47.32755" lon="-2.29094">
        <ele>-9.3999996185303</ele>
        <time>2022-03-06T09:42:28.000Z</time>
      </trkpt>
      <trkpt lat="47.32756" lon="-2.29088">
        <ele>-9.3999996185303</ele>
        <time>2022-03-06T09:42:29.000Z</time>
      </trkpt>
      <trkpt lat="47.32756" lon="-2.29075">
        <ele>-9.3999996185303</ele>
        <time>2022-03-06T09:42:31.000Z</time>
      </trkpt>
      <trkpt lat="47.32759" lon="-2.29022">
        <ele>-9.3999996185303</ele>
        <time>2022-03-06T09:42:38.000Z</time>
      </trkpt>
      <trkpt lat="47.32763" lon="-2.2895">
        <ele>-9.3999996185303</ele>
        <time>2022-03-06T09:42:46.000Z</time>
      </trkpt>
      <trkpt lat="47.32771" lon="-2.28888">
        <ele>-9.3999996185303</ele>
        <time>2022-03-06T09:42:53.000Z</time>
      </trkpt>
      <trkpt lat="47.32776" lon="-2.28871">
        <ele>-9.3999996185303</ele>
        <time>2022-03-06T09:42:55.000Z</time>
      </trkpt>
      <trkpt lat="47.32786" lon="-2.2884">
        <ele>-9.3999996185303</ele>
        <time>2022-03-06T09:42:59.000Z</time>
      </trkpt>
      <trkpt lat="47.32794" lon="-2.28816">
        <ele>-9.3999996185303</ele>
        <time>2022-03-06T09:43:02.000Z</time>
      </trkpt>
      <trkpt lat="47.32797" lon="-2.28799">
        <ele>-9.3999996185303</ele>
        <time>2022-03-06T09:43:04.000Z</time>
      </trkpt>
      <trkpt lat="47.32798" lon="-2.28791">
        <ele>-9.3999996185303</ele>
        <time>2022-03-06T09:43:05.000Z</time>
      </trkpt>
      <trkpt lat="47.32797" lon="-2.28765">
        <ele>-9.3999996185303</ele>
        <time>2022-03-06T09:43:08.000Z</time>
      </trkpt>
      <trkpt lat="47.32795" lon="-2.28746">
        <ele>-9.3999996185303</ele>
        <time>2022-03-06T09:43:10.000Z</time>
      </trkpt>
      <trkpt lat="47.32786" lon="-2.28686">
        <ele>-9.3999996185303</ele>
        <time>2022-03-06T09:43:17.000Z</time>
      </trkpt>
      <trkpt lat="47.32773" lon="-2.28654">
        <ele>-9.3999996185303</ele>
        <time>2022-03-06T09:43:21.000Z</time>
      </trkpt>
      <trkpt lat="47.32769" lon="-2.28647">
        <ele>-9.3999996185303</ele>
        <time>2022-03-06T09:43:22.000Z</time>
      </trkpt>
      <trkpt lat="47.32741" lon="-2.28596">
        <ele>-9.3999996185303</ele>
        <time>2022-03-06T09:43:29.000Z</time>
      </trkpt>
      <trkpt lat="47.32734" lon="-2.28582">
        <ele>-9.3999996185303</ele>
        <time>2022-03-06T09:43:31.000Z</time>
      </trkpt>
      <trkpt lat="47.32728" lon="-2.28556">
        <ele>-9.3999996185303</ele>
        <time>2022-03-06T09:43:34.000Z</time>
      </trkpt>
      <trkpt lat="47.32726" lon="-2.28547">
        <ele>-9.3999996185303</ele>
        <time>2022-03-06T09:43:35.000Z</time>
      </trkpt>
      <trkpt lat="47.3272" lon="-2.28484">
        <ele>-9.3999996185303</ele>
        <time>2022-03-06T09:43:42.000Z</time>
      </trkpt>
      <trkpt lat="47.32716" lon="-2.28439">
        <ele>-10</ele>
        <time>2022-03-06T09:43:47.000Z</time>
      </trkpt>
      <trkpt lat="47.32715" lon="-2.2843">
        <ele>-10.39999961853</ele>
        <time>2022-03-06T09:43:48.000Z</time>
      </trkpt>
      <trkpt lat="47.32714" lon="-2.28421">
        <ele>-10.800000190735</ele>
        <time>2022-03-06T09:43:49.000Z</time>
      </trkpt>
      <trkpt lat="47.32713" lon="-2.28412">
        <ele>-11.199999809265</ele>
        <time>2022-03-06T09:43:50.000Z</time>
      </trkpt>
      <trkpt lat="47.32713" lon="-2.28403">
        <ele>-11.60000038147</ele>
        <time>2022-03-06T09:43:51.000Z</time>
      </trkpt>
      <trkpt lat="47.32706" lon="-2.28341">
        <ele>-11.60000038147</ele>
        <time>2022-03-06T09:43:58.000Z</time>
      </trkpt>
      <trkpt lat="47.32703" lon="-2.28317">
        <ele>-11.60000038147</ele>
        <time>2022-03-06T09:44:01.000Z</time>
      </trkpt>
      <trkpt lat="47.32699" lon="-2.28314">
        <ele>-11.60000038147</ele>
        <time>2022-03-06T09:44:02.000Z</time>
      </trkpt>
      <trkpt lat="47.32686" lon="-2.2832">
        <ele>-11.60000038147</ele>
        <time>2022-03-06T09:44:05.000Z</time>
      </trkpt>
      <trkpt lat="47.32681" lon="-2.28324">
        <ele>-11.60000038147</ele>
        <time>2022-03-06T09:44:06.000Z</time>
      </trkpt>
      <trkpt lat="47.32659" lon="-2.28342">
        <ele>-11.60000038147</ele>
        <time>2022-03-06T09:44:10.000Z</time>
      </trkpt>
      <trkpt lat="47.32646" lon="-2.28347">
        <ele>-11.60000038147</ele>
        <time>2022-03-06T09:44:12.000Z</time>
      </trkpt>
      <trkpt lat="47.3264" lon="-2.28348">
        <ele>-12</ele>
        <time>2022-03-06T09:44:13.000Z</time>
      </trkpt>
      <trkpt lat="47.32634" lon="-2.28346">
        <ele>-12.39999961853</ele>
        <time>2022-03-06T09:44:14.000Z</time>
      </trkpt>
      <trkpt lat="47.32627" lon="-2.28343">
        <ele>-12.800000190735</ele>
        <time>2022-03-06T09:44:15.000Z</time>
      </trkpt>
      <trkpt lat="47.32622" lon="-2.28339">
        <ele>-13.199999809265</ele>
        <time>2022-03-06T09:44:16.000Z</time>
      </trkpt>
      <trkpt lat="47.32617" lon="-2.28333">
        <ele>-13.60000038147</ele>
        <time>2022-03-06T09:44:17.000Z</time>
      </trkpt>
      <trkpt lat="47.32607" lon="-2.28301">
        <ele>-13.60000038147</ele>
        <time>2022-03-06T09:44:21.000Z</time>
      </trkpt>
      <trkpt lat="47.32606" lon="-2.28292">
        <ele>-13.60000038147</ele>
        <time>2022-03-06T09:44:22.000Z</time>
      </trkpt>
      <trkpt lat="47.32594" lon="-2.28229">
        <ele>-13.60000038147</ele>
        <time>2022-03-06T09:44:29.000Z</time>
      </trkpt>
      <trkpt lat="47.32582" lon="-2.28164">
        <ele>-13.60000038147</ele>
        <time>2022-03-06T09:44:36.000Z</time>
      </trkpt>
      <trkpt lat="47.32568" lon="-2.28093">
        <ele>-13.60000038147</ele>
        <time>2022-03-06T09:44:44.000Z</time>
      </trkpt>
      <trkpt lat="47.32552" lon="-2.28015">
        <ele>-13.60000038147</ele>
        <time>2022-03-06T09:44:53.000Z</time>
      </trkpt>
      <trkpt lat="47.32536" lon="-2.27939">
        <ele>-13.60000038147</ele>
        <time>2022-03-06T09:45:02.000Z</time>
      </trkpt>
      <trkpt lat="47.32521" lon="-2.27865">
        <ele>-13.60000038147</ele>
        <time>2022-03-06T09:45:11.000Z</time>
      </trkpt>
      <trkpt lat="47.3251" lon="-2.27845">
        <ele>-13.60000038147</ele>
        <time>2022-03-06T09:45:14.000Z</time>
      </trkpt>
      <trkpt lat="47.32486" lon="-2.27831">
        <ele>-13.60000038147</ele>
        <time>2022-03-06T09:45:18.000Z</time>
      </trkpt>
      <trkpt lat="47.32474" lon="-2.27831">
        <ele>-13.60000038147</ele>
        <time>2022-03-06T09:45:20.000Z</time>
      </trkpt>
      <trkpt lat="47.32454" lon="-2.27832">
        <ele>-13.60000038147</ele>
        <time>2022-03-06T09:45:23.000Z</time>
      </trkpt>
      <trkpt lat="47.32404" lon="-2.27834">
        <ele>-13.60000038147</ele>
        <time>2022-03-06T09:45:31.000Z</time>
      </trkpt>
      <trkpt lat="47.32366" lon="-2.27837">
        <ele>-13.60000038147</ele>
        <time>2022-03-06T09:45:37.000Z</time>
      </trkpt>
      <trkpt lat="47.32326" lon="-2.27838">
        <ele>-13.60000038147</ele>
        <time>2022-03-06T09:45:44.000Z</time>
      </trkpt>
      <trkpt lat="47.3232" lon="-2.27823">
        <ele>-13.60000038147</ele>
        <time>2022-03-06T09:45:47.000Z</time>
      </trkpt>
      <trkpt lat="47.32326" lon="-2.27807">
        <ele>-13.60000038147</ele>
        <time>2022-03-06T09:45:50.000Z</time>
      </trkpt>
      <trkpt lat="47.32334" lon="-2.27781">
        <ele>-13.60000038147</ele>
        <time>2022-03-06T09:45:54.000Z</time>
      </trkpt>
      <trkpt lat="47.32336" lon="-2.27774">
        <ele>-13.60000038147</ele>
        <time>2022-03-06T09:45:55.000Z</time>
      </trkpt>
      <trkpt lat="47.32345" lon="-2.27728">
        <ele>-13.60000038147</ele>
        <time>2022-03-06T09:46:01.000Z</time>
      </trkpt>
      <trkpt lat="47.32351" lon="-2.2768">
        <ele>-13.60000038147</ele>
        <time>2022-03-06T09:46:07.000Z</time>
      </trkpt>
      <trkpt lat="47.32353" lon="-2.27665">
        <ele>-13.60000038147</ele>
        <time>2022-03-06T09:46:09.000Z</time>
      </trkpt>
      <trkpt lat="47.32358" lon="-2.27634">
        <ele>-13.60000038147</ele>
        <time>2022-03-06T09:46:13.000Z</time>
      </trkpt>
      <trkpt lat="47.32358" lon="-2.27625">
        <ele>-13.60000038147</ele>
        <time>2022-03-06T09:46:14.000Z</time>
      </trkpt>
      <trkpt lat="47.3236" lon="-2.27609">
        <ele>-13.60000038147</ele>
        <time>2022-03-06T09:46:16.000Z</time>
      </trkpt>
      <trkpt lat="47.32363" lon="-2.27593">
        <ele>-13.60000038147</ele>
        <time>2022-03-06T09:46:18.000Z</time>
      </trkpt>
      <trkpt lat="47.32364" lon="-2.27585">
        <ele>-13.60000038147</ele>
        <time>2022-03-06T09:46:19.000Z</time>
      </trkpt>
      <trkpt lat="47.32364" lon="-2.27547">
        <ele>-13.60000038147</ele>
        <time>2022-03-06T09:46:23.000Z</time>
      </trkpt>
      <trkpt lat="47.32352" lon="-2.27516">
        <ele>-13.60000038147</ele>
        <time>2022-03-06T09:46:27.000Z</time>
      </trkpt>
      <trkpt lat="47.32336" lon="-2.2751">
        <ele>-13.60000038147</ele>
        <time>2022-03-06T09:46:30.000Z</time>
      </trkpt>
      <trkpt lat="47.3229" lon="-2.27502">
        <ele>-13.60000038147</ele>
        <time>2022-03-06T09:46:38.000Z</time>
      </trkpt>
      <trkpt lat="47.32256" lon="-2.27502">
        <ele>-13.60000038147</ele>
        <time>2022-03-06T09:46:44.000Z</time>
      </trkpt>
      <trkpt lat="47.32247" lon="-2.27501">
        <ele>-13.60000038147</ele>
        <time>2022-03-06T09:46:46.000Z</time>
      </trkpt>
      <trkpt lat="47.32241" lon="-2.27492">
        <ele>-13.60000038147</ele>
        <time>2022-03-06T09:46:48.000Z</time>
      </trkpt>
      <trkpt lat="47.32239" lon="-2.27478">
        <ele>-13.60000038147</ele>
        <time>2022-03-06T09:46:51.000Z</time>
      </trkpt>
      <trkpt lat="47.32242" lon="-2.27467">
        <ele>-13.60000038147</ele>
        <time>2022-03-06T09:46:55.000Z</time>
      </trkpt>
      <trkpt lat="47.32243" lon="-2.27464">
        <ele>-13.60000038147</ele>
        <time>2022-03-06T09:46:56.000Z</time>
      </trkpt>
      <trkpt lat="47.32248" lon="-2.2744">
        <ele>-13.60000038147</ele>
        <time>2022-03-06T09:47:05.000Z</time>
      </trkpt>
      <trkpt lat="47.32252" lon="-2.2742">
        <ele>-13.60000038147</ele>
        <time>2022-03-06T09:47:12.000Z</time>
      </trkpt>
      <trkpt lat="47.32253" lon="-2.274">
        <ele>-13.60000038147</ele>
        <time>2022-03-06T09:47:19.000Z</time>
      </trkpt>
      <trkpt lat="47.32252" lon="-2.27383">
        <ele>-13.60000038147</ele>
        <time>2022-03-06T09:47:25.000Z</time>
      </trkpt>
      <trkpt lat="47.32251" lon="-2.27361">
        <ele>-13.60000038147</ele>
        <time>2022-03-06T09:47:31.000Z</time>
      </trkpt>
      <trkpt lat="47.32251" lon="-2.27336">
        <ele>-13.60000038147</ele>
        <time>2022-03-06T09:47:38.000Z</time>
      </trkpt>
      <trkpt lat="47.32254" lon="-2.27319">
        <ele>-13.60000038147</ele>
        <time>2022-03-06T09:47:44.000Z</time>
      </trkpt>
      <trkpt lat="47.32255" lon="-2.27317">
        <ele>-13.60000038147</ele>
        <time>2022-03-06T09:47:45.000Z</time>
      </trkpt>
      <trkpt lat="47.32259" lon="-2.27312">
        <ele>-13.60000038147</ele>
        <time>2022-03-06T09:47:48.000Z</time>
      </trkpt>
      <trkpt lat="47.32261" lon="-2.27311">
        <ele>-13.60000038147</ele>
        <time>2022-03-06T09:47:49.000Z</time>
      </trkpt>
      <trkpt lat="47.32278" lon="-2.27301">
        <ele>-13.60000038147</ele>
        <time>2022-03-06T09:47:56.000Z</time>
      </trkpt>
      <trkpt lat="47.32298" lon="-2.27288">
        <ele>-13.60000038147</ele>
        <time>2022-03-06T09:48:04.000Z</time>
      </trkpt>
      <trkpt lat="47.32309" lon="-2.2728">
        <ele>-13.199999809265</ele>
        <time>2022-03-06T09:48:08.000Z</time>
      </trkpt>
      <trkpt lat="47.32312" lon="-2.27278">
        <ele>-12.800000190735</ele>
        <time>2022-03-06T09:48:09.000Z</time>
      </trkpt>
      <trkpt lat="47.32315" lon="-2.27276">
        <ele>-12.39999961853</ele>
        <time>2022-03-06T09:48:10.000Z</time>
      </trkpt>
      <trkpt lat="47.32318" lon="-2.27274">
        <ele>-12</ele>
        <time>2022-03-06T09:48:11.000Z</time>
      </trkpt>
      <trkpt lat="47.32321" lon="-2.27272">
        <ele>-11.60000038147</ele>
        <time>2022-03-06T09:48:12.000Z</time>
      </trkpt>
      <trkpt lat="47.32344" lon="-2.27252">
        <ele>-11.60000038147</ele>
        <time>2022-03-06T09:48:19.000Z</time>
      </trkpt>
      <trkpt lat="47.32359" lon="-2.27225">
        <ele>-11.60000038147</ele>
        <time>2022-03-06T09:48:25.000Z</time>
      </trkpt>
      <trkpt lat="47.32372" lon="-2.27191">
        <ele>-11.60000038147</ele>
        <time>2022-03-06T09:48:31.000Z</time>
      </trkpt>
      <trkpt lat="47.32381" lon="-2.27166">
        <ele>-11.60000038147</ele>
        <time>2022-03-06T09:48:35.000Z</time>
      </trkpt>
      <trkpt lat="47.32384" lon="-2.27151">
        <ele>-11.60000038147</ele>
        <time>2022-03-06T09:48:37.000Z</time>
      </trkpt>
      <trkpt lat="47.32385" lon="-2.27128">
        <ele>-11.60000038147</ele>
        <time>2022-03-06T09:48:40.000Z</time>
      </trkpt>
      <trkpt lat="47.32384" lon="-2.27113">
        <ele>-11.60000038147</ele>
        <time>2022-03-06T09:48:42.000Z</time>
      </trkpt>
      <trkpt lat="47.32382" lon="-2.27059">
        <ele>-11.60000038147</ele>
        <time>2022-03-06T09:48:49.000Z</time>
      </trkpt>
      <trkpt lat="47.32382" lon="-2.27036">
        <ele>-11.60000038147</ele>
        <time>2022-03-06T09:48:52.000Z</time>
      </trkpt>
      <trkpt lat="47.32387" lon="-2.27023">
        <ele>-11.60000038147</ele>
        <time>2022-03-06T09:48:54.000Z</time>
      </trkpt>
      <trkpt lat="47.324" lon="-2.27021">
        <ele>-11.60000038147</ele>
        <time>2022-03-06T09:48:57.000Z</time>
      </trkpt>
      <trkpt lat="47.32405" lon="-2.27022">
        <ele>-11.60000038147</ele>
        <time>2022-03-06T09:48:58.000Z</time>
      </trkpt>
      <trkpt lat="47.32428" lon="-2.27026">
        <ele>-11.60000038147</ele>
        <time>2022-03-06T09:49:02.000Z</time>
      </trkpt>
      <trkpt lat="47.32439" lon="-2.27025">
        <ele>-11.60000038147</ele>
        <time>2022-03-06T09:49:04.000Z</time>
      </trkpt>
      <trkpt lat="47.32449" lon="-2.27016">
        <ele>-11.60000038147</ele>
        <time>2022-03-06T09:49:06.000Z</time>
      </trkpt>
      <trkpt lat="47.32452" lon="-2.26999">
        <ele>-11.60000038147</ele>
        <time>2022-03-06T09:49:08.000Z</time>
      </trkpt>
      <trkpt lat="47.32447" lon="-2.26968">
        <ele>-11.60000038147</ele>
        <time>2022-03-06T09:49:12.000Z</time>
      </trkpt>
      <trkpt lat="47.32436" lon="-2.26916">
        <ele>-11.60000038147</ele>
        <time>2022-03-06T09:49:19.000Z</time>
      </trkpt>
      <trkpt lat="47.32428" lon="-2.26854">
        <ele>-11.60000038147</ele>
        <time>2022-03-06T09:49:27.000Z</time>
      </trkpt>
      <trkpt lat="47.32423" lon="-2.26801">
        <ele>-11.60000038147</ele>
        <time>2022-03-06T09:49:33.000Z</time>
      </trkpt>
      <trkpt lat="47.32422" lon="-2.26743">
        <ele>-11.60000038147</ele>
        <time>2022-03-06T09:49:40.000Z</time>
      </trkpt>
      <trkpt lat="47.3242" lon="-2.26686">
        <ele>-11.60000038147</ele>
        <time>2022-03-06T09:49:47.000Z</time>
      </trkpt>
      <trkpt lat="47.32417" lon="-2.26669">
        <ele>-11.60000038147</ele>
        <time>2022-03-06T09:49:49.000Z</time>
      </trkpt>
      <trkpt lat="47.32409" lon="-2.26643">
        <ele>-11.60000038147</ele>
        <time>2022-03-06T09:49:52.000Z</time>
      </trkpt>
      <trkpt lat="47.32392" lon="-2.26592">
        <ele>-11.60000038147</ele>
        <time>2022-03-06T09:49:58.000Z</time>
      </trkpt>
      <trkpt lat="47.32383" lon="-2.26545">
        <ele>-11.60000038147</ele>
        <time>2022-03-06T09:50:04.000Z</time>
      </trkpt>
      <trkpt lat="47.32382" lon="-2.2654">
        <ele>-11.60000038147</ele>
        <time>2022-03-06T09:50:05.000Z</time>
      </trkpt>
      <trkpt lat="47.32383" lon="-2.26535">
        <ele>-12</ele>
        <time>2022-03-06T09:50:06.000Z</time>
      </trkpt>
      <trkpt lat="47.32384" lon="-2.26533">
        <ele>-12.39999961853</ele>
        <time>2022-03-06T09:50:07.000Z</time>
      </trkpt>
      <trkpt lat="47.32385" lon="-2.2653">
        <ele>-12.800000190735</ele>
        <time>2022-03-06T09:50:08.000Z</time>
      </trkpt>
      <trkpt lat="47.32386" lon="-2.26529">
        <ele>-13.199999809265</ele>
        <time>2022-03-06T09:50:09.000Z</time>
      </trkpt>
      <trkpt lat="47.32386" lon="-2.26527">
        <ele>-13.60000038147</ele>
        <time>2022-03-06T09:50:10.000Z</time>
      </trkpt>
      <trkpt lat="47.32387" lon="-2.26526">
        <ele>-13.60000038147</ele>
        <time>2022-03-06T09:50:12.000Z</time>
      </trkpt>
      <trkpt lat="47.32377" lon="-2.26526">
        <ele>-13.60000038147</ele>
        <time>2022-03-06T10:01:31.000Z</time>
      </trkpt>
      <trkpt lat="47.32362" lon="-2.26529">
        <ele>-13.60000038147</ele>
        <time>2022-03-06T10:01:38.000Z</time>
      </trkpt>
      <trkpt lat="47.32352" lon="-2.26532">
        <ele>-13.60000038147</ele>
        <time>2022-03-06T10:01:43.000Z</time>
      </trkpt>
      <trkpt lat="47.32342" lon="-2.26539">
        <ele>-13.60000038147</ele>
        <time>2022-03-06T10:01:49.000Z</time>
      </trkpt>
      <trkpt lat="47.3233" lon="-2.26547">
        <ele>-13.60000038147</ele>
        <time>2022-03-06T10:01:55.000Z</time>
      </trkpt>
      <trkpt lat="47.32314" lon="-2.26565">
        <ele>-13.60000038147</ele>
        <time>2022-03-06T10:02:02.000Z</time>
      </trkpt>
      <trkpt lat="47.32296" lon="-2.2659">
        <ele>-13.60000038147</ele>
        <time>2022-03-06T10:02:09.000Z</time>
      </trkpt>
      <trkpt lat="47.32277" lon="-2.26604">
        <ele>-13.60000038147</ele>
        <time>2022-03-06T10:02:15.000Z</time>
      </trkpt>
      <trkpt lat="47.32254" lon="-2.26606">
        <ele>-13.60000038147</ele>
        <time>2022-03-06T10:02:21.000Z</time>
      </trkpt>
      <trkpt lat="47.32221" lon="-2.26607">
        <ele>-13.60000038147</ele>
        <time>2022-03-06T10:02:29.000Z</time>
      </trkpt>
      <trkpt lat="47.32188" lon="-2.26607">
        <ele>-13.199999809265</ele>
        <time>2022-03-06T10:02:36.000Z</time>
      </trkpt>
      <trkpt lat="47.32184" lon="-2.26608">
        <ele>-12.800000190735</ele>
        <time>2022-03-06T10:02:37.000Z</time>
      </trkpt>
      <trkpt lat="47.3218" lon="-2.26608">
        <ele>-12.39999961853</ele>
        <time>2022-03-06T10:02:38.000Z</time>
      </trkpt>
      <trkpt lat="47.32175" lon="-2.26608">
        <ele>-12</ele>
        <time>2022-03-06T10:02:39.000Z</time>
      </trkpt>
      <trkpt lat="47.32171" lon="-2.26608">
        <ele>-11.60000038147</ele>
        <time>2022-03-06T10:02:40.000Z</time>
      </trkpt>
      <trkpt lat="47.32166" lon="-2.26608">
        <ele>-11.60000038147</ele>
        <time>2022-03-06T10:02:41.000Z</time>
      </trkpt>
      <trkpt lat="47.32153" lon="-2.26605">
        <ele>-11.60000038147</ele>
        <time>2022-03-06T10:02:44.000Z</time>
      </trkpt>
      <trkpt lat="47.32117" lon="-2.26593">
        <ele>-11.60000038147</ele>
        <time>2022-03-06T10:02:52.000Z</time>
      </trkpt>
      <trkpt lat="47.32095" lon="-2.26585">
        <ele>-11.60000038147</ele>
        <time>2022-03-06T10:02:57.000Z</time>
      </trkpt>
      <trkpt lat="47.32085" lon="-2.26584">
        <ele>-11.60000038147</ele>
        <time>2022-03-06T10:02:59.000Z</time>
      </trkpt>
      <trkpt lat="47.32052" lon="-2.26592">
        <ele>-11.60000038147</ele>
        <time>2022-03-06T10:03:05.000Z</time>
      </trkpt>
      <trkpt lat="47.32036" lon="-2.26601">
        <ele>-11.60000038147</ele>
        <time>2022-03-06T10:03:08.000Z</time>
      </trkpt>
      <trkpt lat="47.32021" lon="-2.2661">
        <ele>-11.60000038147</ele>
        <time>2022-03-06T10:03:11.000Z</time>
      </trkpt>
      <trkpt lat="47.31982" lon="-2.26637">
        <ele>-11.60000038147</ele>
        <time>2022-03-06T10:03:19.000Z</time>
      </trkpt>
      <trkpt lat="47.31977" lon="-2.2664">
        <ele>-11.60000038147</ele>
        <time>2022-03-06T10:03:20.000Z</time>
      </trkpt>
      <trkpt lat="47.31968" lon="-2.26645">
        <ele>-11.199999809265</ele>
        <time>2022-03-06T10:03:22.000Z</time>
      </trkpt>
      <trkpt lat="47.31964" lon="-2.26648">
        <ele>-10.800000190735</ele>
        <time>2022-03-06T10:03:23.000Z</time>
      </trkpt>
      <trkpt lat="47.3196" lon="-2.26652">
        <ele>-10.39999961853</ele>
        <time>2022-03-06T10:03:24.000Z</time>
      </trkpt>
      <trkpt lat="47.31956" lon="-2.26656">
        <ele>-10</ele>
        <time>2022-03-06T10:03:25.000Z</time>
      </trkpt>
      <trkpt lat="47.31951" lon="-2.26659">
        <ele>-9.6000003814697</ele>
        <time>2022-03-06T10:03:26.000Z</time>
      </trkpt>
      <trkpt lat="47.31926" lon="-2.2668">
        <ele>-9.6000003814697</ele>
        <time>2022-03-06T10:03:32.000Z</time>
      </trkpt>
      <trkpt lat="47.31903" lon="-2.267">
        <ele>-9.1999998092651</ele>
        <time>2022-03-06T10:03:37.000Z</time>
      </trkpt>
      <trkpt lat="47.31898" lon="-2.26704">
        <ele>-8.8000001907349</ele>
        <time>2022-03-06T10:03:38.000Z</time>
      </trkpt>
      <trkpt lat="47.31893" lon="-2.26708">
        <ele>-7.8000001907349</ele>
        <time>2022-03-06T10:03:39.000Z</time>
      </trkpt>
      <trkpt lat="47.31888" lon="-2.26712">
        <ele>-7.4000000953674</ele>
        <time>2022-03-06T10:03:40.000Z</time>
      </trkpt>
      <trkpt lat="47.31852" lon="-2.26739">
        <ele>-7.4000000953674</ele>
        <time>2022-03-06T10:03:47.000Z</time>
      </trkpt>
      <trkpt lat="47.31829" lon="-2.26736">
        <ele>-7.4000000953674</ele>
        <time>2022-03-06T10:03:51.000Z</time>
      </trkpt>
      <trkpt lat="47.31816" lon="-2.26719">
        <ele>-7.4000000953674</ele>
        <time>2022-03-06T10:03:54.000Z</time>
      </trkpt>
      <trkpt lat="47.31802" lon="-2.26696">
        <ele>-7.4000000953674</ele>
        <time>2022-03-06T10:03:58.000Z</time>
      </trkpt>
      <trkpt lat="47.31785" lon="-2.26699">
        <ele>-7.4000000953674</ele>
        <time>2022-03-06T10:04:01.000Z</time>
      </trkpt>
      <trkpt lat="47.31772" lon="-2.26703">
        <ele>-7.4000000953674</ele>
        <time>2022-03-06T10:04:03.000Z</time>
      </trkpt>
      <trkpt lat="47.31766" lon="-2.26705">
        <ele>-8.1999998092651</ele>
        <time>2022-03-06T10:04:04.000Z</time>
      </trkpt>
      <trkpt lat="47.31759" lon="-2.26706">
        <ele>-8.8000001907349</ele>
        <time>2022-03-06T10:04:05.000Z</time>
      </trkpt>
      <trkpt lat="47.31753" lon="-2.26708">
        <ele>-9.1999998092651</ele>
        <time>2022-03-06T10:04:06.000Z</time>
      </trkpt>
      <trkpt lat="47.31746" lon="-2.2671">
        <ele>-9.6000003814697</ele>
        <time>2022-03-06T10:04:07.000Z</time>
      </trkpt>
      <trkpt lat="47.31715" lon="-2.2672">
        <ele>-10</ele>
        <time>2022-03-06T10:04:12.000Z</time>
      </trkpt>
      <trkpt lat="47.3171" lon="-2.26722">
        <ele>-10.39999961853</ele>
        <time>2022-03-06T10:04:13.000Z</time>
      </trkpt>
      <trkpt lat="47.31705" lon="-2.26723">
        <ele>-11</ele>
        <time>2022-03-06T10:04:14.000Z</time>
      </trkpt>
      <trkpt lat="47.31701" lon="-2.26724">
        <ele>-11.39999961853</ele>
        <time>2022-03-06T10:04:15.000Z</time>
      </trkpt>
      <trkpt lat="47.31696" lon="-2.26725">
        <ele>-11.800000190735</ele>
        <time>2022-03-06T10:04:16.000Z</time>
      </trkpt>
      <trkpt lat="47.31692" lon="-2.26725">
        <ele>-11.800000190735</ele>
        <time>2022-03-06T10:04:18.000Z</time>
      </trkpt>
      <trkpt lat="47.31678" lon="-2.26726">
        <ele>-11.800000190735</ele>
        <time>2022-03-06T10:04:22.000Z</time>
      </trkpt>
      <trkpt lat="47.31659" lon="-2.26731">
        <ele>-11.800000190735</ele>
        <time>2022-03-06T10:04:28.000Z</time>
      </trkpt>
      <trkpt lat="47.31641" lon="-2.26742">
        <ele>-11.800000190735</ele>
        <time>2022-03-06T10:04:33.000Z</time>
      </trkpt>
      <trkpt lat="47.31633" lon="-2.2675">
        <ele>-11.800000190735</ele>
        <time>2022-03-06T10:04:35.000Z</time>
      </trkpt>
      <trkpt lat="47.31618" lon="-2.26759">
        <ele>-11.800000190735</ele>
        <time>2022-03-06T10:04:38.000Z</time>
      </trkpt>
      <trkpt lat="47.31596" lon="-2.26758">
        <ele>-11.800000190735</ele>
        <time>2022-03-06T10:04:42.000Z</time>
      </trkpt>
      <trkpt lat="47.31586" lon="-2.26756">
        <ele>-12.199999809265</ele>
        <time>2022-03-06T10:04:44.000Z</time>
      </trkpt>
      <trkpt lat="47.31582" lon="-2.26756">
        <ele>-12.60000038147</ele>
        <time>2022-03-06T10:04:45.000Z</time>
      </trkpt>
      <trkpt lat="47.31577" lon="-2.26757">
        <ele>-13.199999809265</ele>
        <time>2022-03-06T10:04:46.000Z</time>
      </trkpt>
      <trkpt lat="47.31573" lon="-2.26759">
        <ele>-13.60000038147</ele>
        <time>2022-03-06T10:04:47.000Z</time>
      </trkpt>
      <trkpt lat="47.31569" lon="-2.26762">
        <ele>-14</ele>
        <time>2022-03-06T10:04:48.000Z</time>
      </trkpt>
      <trkpt lat="47.31559" lon="-2.26777">
        <ele>-14</ele>
        <time>2022-03-06T10:04:51.000Z</time>
      </trkpt>
      <trkpt lat="47.31552" lon="-2.26794">
        <ele>-14</ele>
        <time>2022-03-06T10:04:54.000Z</time>
      </trkpt>
      <trkpt lat="47.31549" lon="-2.26799">
        <ele>-14</ele>
        <time>2022-03-06T10:04:55.000Z</time>
      </trkpt>
      <trkpt lat="47.31547" lon="-2.26805">
        <ele>-14</ele>
        <time>2022-03-06T10:04:56.000Z</time>
      </trkpt>
      <trkpt lat="47.31535" lon="-2.26837">
        <ele>-14</ele>
        <time>2022-03-06T10:05:01.000Z</time>
      </trkpt>
      <trkpt lat="47.31533" lon="-2.26843">
        <ele>-14</ele>
        <time>2022-03-06T10:05:02.000Z</time>
      </trkpt>
      <trkpt lat="47.31516" lon="-2.26884">
        <ele>-14</ele>
        <time>2022-03-06T10:05:09.000Z</time>
      </trkpt>
      <trkpt lat="47.31505" lon="-2.26911">
        <ele>-14</ele>
        <time>2022-03-06T10:05:14.000Z</time>
      </trkpt>
      <trkpt lat="47.31493" lon="-2.26949">
        <ele>-14</ele>
        <time>2022-03-06T10:05:20.000Z</time>
      </trkpt>
      <trkpt lat="47.31483" lon="-2.2698">
        <ele>-14</ele>
        <time>2022-03-06T10:05:25.000Z</time>
      </trkpt>
      <trkpt lat="47.31475" lon="-2.26987">
        <ele>-14</ele>
        <time>2022-03-06T10:05:27.000Z</time>
      </trkpt>
      <trkpt lat="47.31466" lon="-2.26994">
        <ele>-13.60000038147</ele>
        <time>2022-03-06T10:05:29.000Z</time>
      </trkpt>
      <trkpt lat="47.31462" lon="-2.26998">
        <ele>-13.199999809265</ele>
        <time>2022-03-06T10:05:30.000Z</time>
      </trkpt>
      <trkpt lat="47.31457" lon="-2.27001">
        <ele>-12.800000190735</ele>
        <time>2022-03-06T10:05:31.000Z</time>
      </trkpt>
      <trkpt lat="47.31453" lon="-2.27004">
        <ele>-12.39999961853</ele>
        <time>2022-03-06T10:05:32.000Z</time>
      </trkpt>
      <trkpt lat="47.31448" lon="-2.27008">
        <ele>-11.800000190735</ele>
        <time>2022-03-06T10:05:33.000Z</time>
      </trkpt>
      <trkpt lat="47.3143" lon="-2.27021">
        <ele>-11.800000190735</ele>
        <time>2022-03-06T10:05:37.000Z</time>
      </trkpt>
      <trkpt lat="47.31395" lon="-2.27049">
        <ele>-11.800000190735</ele>
        <time>2022-03-06T10:05:45.000Z</time>
      </trkpt>
      <trkpt lat="47.31361" lon="-2.27066">
        <ele>-11.800000190735</ele>
        <time>2022-03-06T10:05:52.000Z</time>
      </trkpt>
      <trkpt lat="47.31356" lon="-2.27067">
        <ele>-11.39999961853</ele>
        <time>2022-03-06T10:05:53.000Z</time>
      </trkpt>
      <trkpt lat="47.31351" lon="-2.27069">
        <ele>-11</ele>
        <time>2022-03-06T10:05:54.000Z</time>
      </trkpt>
      <trkpt lat="47.31346" lon="-2.27071">
        <ele>-10.60000038147</ele>
        <time>2022-03-06T10:05:55.000Z</time>
      </trkpt>
      <trkpt lat="47.31341" lon="-2.27073">
        <ele>-10.199999809265</ele>
        <time>2022-03-06T10:05:56.000Z</time>
      </trkpt>
      <trkpt lat="47.31336" lon="-2.27074">
        <ele>-9.8000001907349</ele>
        <time>2022-03-06T10:05:57.000Z</time>
      </trkpt>
      <trkpt lat="47.31311" lon="-2.27083">
        <ele>-9.8000001907349</ele>
        <time>2022-03-06T10:06:02.000Z</time>
      </trkpt>
      <trkpt lat="47.3127" lon="-2.27106">
        <ele>-9.8000001907349</ele>
        <time>2022-03-06T10:06:10.000Z</time>
      </trkpt>
      <trkpt lat="47.31235" lon="-2.27132">
        <ele>-9.8000001907349</ele>
        <time>2022-03-06T10:06:17.000Z</time>
      </trkpt>
      <trkpt lat="47.31206" lon="-2.27158">
        <ele>-9.8000001907349</ele>
        <time>2022-03-06T10:06:23.000Z</time>
      </trkpt>
      <trkpt lat="47.31201" lon="-2.27163">
        <ele>-9.8000001907349</ele>
        <time>2022-03-06T10:06:24.000Z</time>
      </trkpt>
      <trkpt lat="47.31171" lon="-2.27195">
        <ele>-9.8000001907349</ele>
        <time>2022-03-06T10:06:31.000Z</time>
      </trkpt>
      <trkpt lat="47.31135" lon="-2.27226">
        <ele>-9.8000001907349</ele>
        <time>2022-03-06T10:06:39.000Z</time>
      </trkpt>
      <trkpt lat="47.31123" lon="-2.27232">
        <ele>-9.8000001907349</ele>
        <time>2022-03-06T10:06:42.000Z</time>
      </trkpt>
      <trkpt lat="47.31112" lon="-2.27237">
        <ele>-9.8000001907349</ele>
        <time>2022-03-06T10:06:45.000Z</time>
      </trkpt>
      <trkpt lat="47.31085" lon="-2.27247">
        <ele>-9.8000001907349</ele>
        <time>2022-03-06T10:06:52.000Z</time>
      </trkpt>
      <trkpt lat="47.31081" lon="-2.27249">
        <ele>-9.8000001907349</ele>
        <time>2022-03-06T10:06:53.000Z</time>
      </trkpt>
      <trkpt lat="47.3105" lon="-2.27259">
        <ele>-9.8000001907349</ele>
        <time>2022-03-06T10:07:01.000Z</time>
      </trkpt>
      <trkpt lat="47.31023" lon="-2.27256">
        <ele>-9.8000001907349</ele>
        <time>2022-03-06T10:07:08.000Z</time>
      </trkpt>
      <trkpt lat="47.31011" lon="-2.27252">
        <ele>-9.8000001907349</ele>
        <time>2022-03-06T10:07:11.000Z</time>
      </trkpt>
      <trkpt lat="47.31009" lon="-2.27248">
        <ele>-9.8000001907349</ele>
        <time>2022-03-06T10:07:12.000Z</time>
      </trkpt>
      <trkpt lat="47.31006" lon="-2.2723">
        <ele>-9.8000001907349</ele>
        <time>2022-03-06T10:07:15.000Z</time>
      </trkpt>
      <trkpt lat="47.31006" lon="-2.27224">
        <ele>-9.8000001907349</ele>
        <time>2022-03-06T10:07:16.000Z</time>
      </trkpt>
      <trkpt lat="47.31003" lon="-2.27192">
        <ele>-9</ele>
        <time>2022-03-06T10:07:21.000Z</time>
      </trkpt>
      <trkpt lat="47.31002" lon="-2.27186">
        <ele>-8.6000003814697</ele>
        <time>2022-03-06T10:07:22.000Z</time>
      </trkpt>
      <trkpt lat="47.31002" lon="-2.2718">
        <ele>-8.1999998092651</ele>
        <time>2022-03-06T10:07:23.000Z</time>
      </trkpt>
      <trkpt lat="47.31001" lon="-2.27174">
        <ele>-7.8000001907349</ele>
        <time>2022-03-06T10:07:24.000Z</time>
      </trkpt>
      <trkpt lat="47.30998" lon="-2.27115">
        <ele>-7.8000001907349</ele>
        <time>2022-03-06T10:07:33.000Z</time>
      </trkpt>
      <trkpt lat="47.30997" lon="-2.27092">
        <ele>-7.8000001907349</ele>
        <time>2022-03-06T10:07:36.000Z</time>
      </trkpt>
      <trkpt lat="47.30997" lon="-2.27075">
        <ele>-7.8000001907349</ele>
        <time>2022-03-06T10:07:38.000Z</time>
      </trkpt>
      <trkpt lat="47.30996" lon="-2.27034">
        <ele>-8.1999998092651</ele>
        <time>2022-03-06T10:07:42.000Z</time>
      </trkpt>
      <trkpt lat="47.30995" lon="-2.27024">
        <ele>-8.6000003814697</ele>
        <time>2022-03-06T10:07:43.000Z</time>
      </trkpt>
      <trkpt lat="47.30994" lon="-2.27013">
        <ele>-9</ele>
        <time>2022-03-06T10:07:44.000Z</time>
      </trkpt>
      <trkpt lat="47.30992" lon="-2.27002">
        <ele>-9.6000003814697</ele>
        <time>2022-03-06T10:07:45.000Z</time>
      </trkpt>
      <trkpt lat="47.30989" lon="-2.26991">
        <ele>-10.39999961853</ele>
        <time>2022-03-06T10:07:46.000Z</time>
      </trkpt>
      <trkpt lat="47.30986" lon="-2.26981">
        <ele>-10.800000190735</ele>
        <time>2022-03-06T10:07:47.000Z</time>
      </trkpt>
      <trkpt lat="47.3098" lon="-2.26973">
        <ele>-11.39999961853</ele>
        <time>2022-03-06T10:07:48.000Z</time>
      </trkpt>
      <trkpt lat="47.30974" lon="-2.26966">
        <ele>-11.800000190735</ele>
        <time>2022-03-06T10:07:49.000Z</time>
      </trkpt>
      <trkpt lat="47.30967" lon="-2.26961">
        <ele>-12.199999809265</ele>
        <time>2022-03-06T10:07:50.000Z</time>
      </trkpt>
      <trkpt lat="47.30961" lon="-2.26957">
        <ele>-12.199999809265</ele>
        <time>2022-03-06T10:07:51.000Z</time>
      </trkpt>
      <trkpt lat="47.30955" lon="-2.26953">
        <ele>-12.199999809265</ele>
        <time>2022-03-06T10:07:52.000Z</time>
      </trkpt>
      <trkpt lat="47.30922" lon="-2.26934">
        <ele>-12.199999809265</ele>
        <time>2022-03-06T10:07:58.000Z</time>
      </trkpt>
      <trkpt lat="47.30889" lon="-2.26918">
        <ele>-12.199999809265</ele>
        <time>2022-03-06T10:08:04.000Z</time>
      </trkpt>
      <trkpt lat="47.30866" lon="-2.26923">
        <ele>-12.199999809265</ele>
        <time>2022-03-06T10:08:08.000Z</time>
      </trkpt>
      <trkpt lat="47.3086" lon="-2.26925">
        <ele>-12.199999809265</ele>
        <time>2022-03-06T10:08:09.000Z</time>
      </trkpt>
      <trkpt lat="47.30828" lon="-2.26942">
        <ele>-12.199999809265</ele>
        <time>2022-03-06T10:08:15.000Z</time>
      </trkpt>
      <trkpt lat="47.30818" lon="-2.26949">
        <ele>-12.199999809265</ele>
        <time>2022-03-06T10:08:17.000Z</time>
      </trkpt>
      <trkpt lat="47.30803" lon="-2.26952">
        <ele>-12.199999809265</ele>
        <time>2022-03-06T10:08:20.000Z</time>
      </trkpt>
      <trkpt lat="47.30787" lon="-2.26952">
        <ele>-12.199999809265</ele>
        <time>2022-03-06T10:08:23.000Z</time>
      </trkpt>
      <trkpt lat="47.30781" lon="-2.26952">
        <ele>-12.199999809265</ele>
        <time>2022-03-06T10:08:24.000Z</time>
      </trkpt>
      <trkpt lat="47.30751" lon="-2.26946">
        <ele>-12.199999809265</ele>
        <time>2022-03-06T10:08:30.000Z</time>
      </trkpt>
      <trkpt lat="47.30737" lon="-2.2694">
        <ele>-11.800000190735</ele>
        <time>2022-03-06T10:08:33.000Z</time>
      </trkpt>
      <trkpt lat="47.30732" lon="-2.26938">
        <ele>-11.39999961853</ele>
        <time>2022-03-06T10:08:34.000Z</time>
      </trkpt>
      <trkpt lat="47.30727" lon="-2.26934">
        <ele>-10.60000038147</ele>
        <time>2022-03-06T10:08:35.000Z</time>
      </trkpt>
      <trkpt lat="47.30723" lon="-2.2693">
        <ele>-10</ele>
        <time>2022-03-06T10:08:36.000Z</time>
      </trkpt>
      <trkpt lat="47.307" lon="-2.26905">
        <ele>-9.6000003814697</ele>
        <time>2022-03-06T10:08:41.000Z</time>
      </trkpt>
      <trkpt lat="47.30695" lon="-2.26899">
        <ele>-9.1999998092651</ele>
        <time>2022-03-06T10:08:42.000Z</time>
      </trkpt>
      <trkpt lat="47.30691" lon="-2.26893">
        <ele>-8.8000001907349</ele>
        <time>2022-03-06T10:08:43.000Z</time>
      </trkpt>
      <trkpt lat="47.30687" lon="-2.26886">
        <ele>-8.3999996185303</ele>
        <time>2022-03-06T10:08:44.000Z</time>
      </trkpt>
      <trkpt lat="47.30683" lon="-2.26879">
        <ele>-8</ele>
        <time>2022-03-06T10:08:45.000Z</time>
      </trkpt>
      <trkpt lat="47.30671" lon="-2.26853">
        <ele>-8</ele>
        <time>2022-03-06T10:08:49.000Z</time>
      </trkpt>
      <trkpt lat="47.30646" lon="-2.26799">
        <ele>-7.5999999046326</ele>
        <time>2022-03-06T10:08:57.000Z</time>
      </trkpt>
      <trkpt lat="47.30643" lon="-2.26793">
        <ele>-7.1999998092651</ele>
        <time>2022-03-06T10:08:58.000Z</time>
      </trkpt>
      <trkpt lat="47.3064" lon="-2.26786">
        <ele>-6.8000001907349</ele>
        <time>2022-03-06T10:08:59.000Z</time>
      </trkpt>
      <trkpt lat="47.30636" lon="-2.2678">
        <ele>-5.8000001907349</ele>
        <time>2022-03-06T10:09:00.000Z</time>
      </trkpt>
      <trkpt lat="47.30631" lon="-2.26766">
        <ele>-5.8000001907349</ele>
        <time>2022-03-06T10:09:02.000Z</time>
      </trkpt>
      <trkpt lat="47.30627" lon="-2.26753">
        <ele>-5.8000001907349</ele>
        <time>2022-03-06T10:09:04.000Z</time>
      </trkpt>
      <trkpt lat="47.30619" lon="-2.26722">
        <ele>-5.8000001907349</ele>
        <time>2022-03-06T10:09:08.000Z</time>
      </trkpt>
      <trkpt lat="47.30617" lon="-2.26714">
        <ele>-5.8000001907349</ele>
        <time>2022-03-06T10:09:09.000Z</time>
      </trkpt>
      <trkpt lat="47.30609" lon="-2.26665">
        <ele>-5.8000001907349</ele>
        <time>2022-03-06T10:09:15.000Z</time>
      </trkpt>
      <trkpt lat="47.30601" lon="-2.26608">
        <ele>-5.8000001907349</ele>
        <time>2022-03-06T10:09:22.000Z</time>
      </trkpt>
      <trkpt lat="47.30597" lon="-2.26592">
        <ele>-5.4000000953674</ele>
        <time>2022-03-06T10:09:24.000Z</time>
      </trkpt>
      <trkpt lat="47.30595" lon="-2.26584">
        <ele>-4.5999999046326</ele>
        <time>2022-03-06T10:09:25.000Z</time>
      </trkpt>
      <trkpt lat="47.30591" lon="-2.26576">
        <ele>-4.1999998092651</ele>
        <time>2022-03-06T10:09:26.000Z</time>
      </trkpt>
      <trkpt lat="47.30588" lon="-2.26569">
        <ele>-3.7999999523163</ele>
        <time>2022-03-06T10:09:27.000Z</time>
      </trkpt>
      <trkpt lat="47.30568" lon="-2.26546">
        <ele>-3.7999999523163</ele>
        <time>2022-03-06T10:09:31.000Z</time>
      </trkpt>
      <trkpt lat="47.30539" lon="-2.26526">
        <ele>-3.7999999523163</ele>
        <time>2022-03-06T10:09:36.000Z</time>
      </trkpt>
      <trkpt lat="47.30503" lon="-2.26503">
        <ele>-3.7999999523163</ele>
        <time>2022-03-06T10:09:42.000Z</time>
      </trkpt>
      <trkpt lat="47.30495" lon="-2.26494">
        <ele>-4.4000000953674</ele>
        <time>2022-03-06T10:09:44.000Z</time>
      </trkpt>
      <trkpt lat="47.30494" lon="-2.26487">
        <ele>-4.8000001907349</ele>
        <time>2022-03-06T10:09:45.000Z</time>
      </trkpt>
      <trkpt lat="47.30493" lon="-2.26481">
        <ele>-5.1999998092651</ele>
        <time>2022-03-06T10:09:46.000Z</time>
      </trkpt>
      <trkpt lat="47.30494" lon="-2.26476">
        <ele>-5.5999999046326</ele>
        <time>2022-03-06T10:09:47.000Z</time>
      </trkpt>
      <trkpt lat="47.30495" lon="-2.2647">
        <ele>-6</ele>
        <time>2022-03-06T10:09:48.000Z</time>
      </trkpt>
      <trkpt lat="47.30497" lon="-2.26465">
        <ele>-6</ele>
        <time>2022-03-06T10:09:49.000Z</time>
      </trkpt>
      <trkpt lat="47.30499" lon="-2.26459">
        <ele>-6</ele>
        <time>2022-03-06T10:09:50.000Z</time>
      </trkpt>
      <trkpt lat="47.30507" lon="-2.26443">
        <ele>-6</ele>
        <time>2022-03-06T10:09:53.000Z</time>
      </trkpt>
      <trkpt lat="47.30524" lon="-2.26406">
        <ele>-6</ele>
        <time>2022-03-06T10:09:59.000Z</time>
      </trkpt>
      <trkpt lat="47.30532" lon="-2.26389">
        <ele>-6</ele>
        <time>2022-03-06T10:10:02.000Z</time>
      </trkpt>
      <trkpt lat="47.30534" lon="-2.26382">
        <ele>-6</ele>
        <time>2022-03-06T10:10:03.000Z</time>
      </trkpt>
      <trkpt lat="47.30546" lon="-2.26346">
        <ele>-6</ele>
        <time>2022-03-06T10:10:08.000Z</time>
      </trkpt>
      <trkpt lat="47.30548" lon="-2.26338">
        <ele>-6</ele>
        <time>2022-03-06T10:10:09.000Z</time>
      </trkpt>
      <trkpt lat="47.30561" lon="-2.26286">
        <ele>-6</ele>
        <time>2022-03-06T10:10:16.000Z</time>
      </trkpt>
      <trkpt lat="47.30579" lon="-2.26219">
        <ele>-6</ele>
        <time>2022-03-06T10:10:25.000Z</time>
      </trkpt>
      <trkpt lat="47.30592" lon="-2.26177">
        <ele>-6</ele>
        <time>2022-03-06T10:10:31.000Z</time>
      </trkpt>
      <trkpt lat="47.30595" lon="-2.2617">
        <ele>-6</ele>
        <time>2022-03-06T10:10:32.000Z</time>
      </trkpt>
      <trkpt lat="47.30603" lon="-2.26156">
        <ele>-6</ele>
        <time>2022-03-06T10:10:34.000Z</time>
      </trkpt>
      <trkpt lat="47.30611" lon="-2.26144">
        <ele>-6</ele>
        <time>2022-03-06T10:10:36.000Z</time>
      </trkpt>
      <trkpt lat="47.30636" lon="-2.26109">
        <ele>-6</ele>
        <time>2022-03-06T10:10:43.000Z</time>
      </trkpt>
      <trkpt lat="47.3064" lon="-2.26105">
        <ele>-6</ele>
        <time>2022-03-06T10:10:44.000Z</time>
      </trkpt>
      <trkpt lat="47.30658" lon="-2.26094">
        <ele>-6</ele>
        <time>2022-03-06T10:10:48.000Z</time>
      </trkpt>
      <trkpt lat="47.30691" lon="-2.26076">
        <ele>-5.5999999046326</ele>
        <time>2022-03-06T10:10:55.000Z</time>
      </trkpt>
      <trkpt lat="47.30696" lon="-2.26073">
        <ele>-5.1999998092651</ele>
        <time>2022-03-06T10:10:56.000Z</time>
      </trkpt>
      <trkpt lat="47.30701" lon="-2.2607">
        <ele>-4.8000001907349</ele>
        <time>2022-03-06T10:10:57.000Z</time>
      </trkpt>
      <trkpt lat="47.30705" lon="-2.26068">
        <ele>-4.4000000953674</ele>
        <time>2022-03-06T10:10:58.000Z</time>
      </trkpt>
      <trkpt lat="47.3071" lon="-2.26066">
        <ele>-4</ele>
        <time>2022-03-06T10:10:59.000Z</time>
      </trkpt>
      <trkpt lat="47.30734" lon="-2.26053">
        <ele>-4</ele>
        <time>2022-03-06T10:11:04.000Z</time>
      </trkpt>
      <trkpt lat="47.30768" lon="-2.26034">
        <ele>-4</ele>
        <time>2022-03-06T10:11:11.000Z</time>
      </trkpt>
      <trkpt lat="47.30801" lon="-2.26011">
        <ele>-4</ele>
        <time>2022-03-06T10:11:18.000Z</time>
      </trkpt>
      <trkpt lat="47.30833" lon="-2.25979">
        <ele>-4</ele>
        <time>2022-03-06T10:11:25.000Z</time>
      </trkpt>
      <trkpt lat="47.30863" lon="-2.25945">
        <ele>-4</ele>
        <time>2022-03-06T10:11:32.000Z</time>
      </trkpt>
      <trkpt lat="47.30891" lon="-2.25911">
        <ele>-4</ele>
        <time>2022-03-06T10:11:39.000Z</time>
      </trkpt>
      <trkpt lat="47.30898" lon="-2.25902">
        <ele>-3.5999999046326</ele>
        <time>2022-03-06T10:11:41.000Z</time>
      </trkpt>
      <trkpt lat="47.30902" lon="-2.25897">
        <ele>-3.2000000476837</ele>
        <time>2022-03-06T10:11:42.000Z</time>
      </trkpt>
      <trkpt lat="47.30907" lon="-2.25892">
        <ele>-2.7999999523163</ele>
        <time>2022-03-06T10:11:43.000Z</time>
      </trkpt>
      <trkpt lat="47.3091" lon="-2.25887">
        <ele>-2.4000000953674</ele>
        <time>2022-03-06T10:11:44.000Z</time>
      </trkpt>
      <trkpt lat="47.30913" lon="-2.25881">
        <ele>-2</ele>
        <time>2022-03-06T10:11:45.000Z</time>
      </trkpt>
      <trkpt lat="47.30913" lon="-2.25873">
        <ele>-2</ele>
        <time>2022-03-06T10:11:46.000Z</time>
      </trkpt>
      <trkpt lat="47.30908" lon="-2.25854">
        <ele>-2</ele>
        <time>2022-03-06T10:11:49.000Z</time>
      </trkpt>
      <trkpt lat="47.309" lon="-2.25836">
        <ele>-2</ele>
        <time>2022-03-06T10:11:52.000Z</time>
      </trkpt>
      <trkpt lat="47.30895" lon="-2.25819">
        <ele>-2</ele>
        <time>2022-03-06T10:11:55.000Z</time>
      </trkpt>
      <trkpt lat="47.30881" lon="-2.25775">
        <ele>-2</ele>
        <time>2022-03-06T10:12:02.000Z</time>
      </trkpt>
      <trkpt lat="47.30876" lon="-2.25735">
        <ele>-2</ele>
        <time>2022-03-06T10:12:07.000Z</time>
      </trkpt>
      <trkpt lat="47.30875" lon="-2.25677">
        <ele>-2</ele>
        <time>2022-03-06T10:12:14.000Z</time>
      </trkpt>
      <trkpt lat="47.30873" lon="-2.25625">
        <ele>-2.4000000953674</ele>
        <time>2022-03-06T10:12:20.000Z</time>
      </trkpt>
      <trkpt lat="47.30872" lon="-2.25615">
        <ele>-2.7999999523163</ele>
        <time>2022-03-06T10:12:21.000Z</time>
      </trkpt>
      <trkpt lat="47.30871" lon="-2.25606">
        <ele>-3.2000000476837</ele>
        <time>2022-03-06T10:12:22.000Z</time>
      </trkpt>
      <trkpt lat="47.3087" lon="-2.25596">
        <ele>-3.5999999046326</ele>
        <time>2022-03-06T10:12:23.000Z</time>
      </trkpt>
      <trkpt lat="47.3087" lon="-2.25588">
        <ele>-4</ele>
        <time>2022-03-06T10:12:24.000Z</time>
      </trkpt>
      <trkpt lat="47.30864" lon="-2.25542">
        <ele>-4</ele>
        <time>2022-03-06T10:12:29.000Z</time>
      </trkpt>
      <trkpt lat="47.30857" lon="-2.25478">
        <ele>-4</ele>
        <time>2022-03-06T10:12:36.000Z</time>
      </trkpt>
      <trkpt lat="47.30852" lon="-2.25415">
        <ele>-4.8000001907349</ele>
        <time>2022-03-06T10:12:43.000Z</time>
      </trkpt>
      <trkpt lat="47.30852" lon="-2.25406">
        <ele>-5.1999998092651</ele>
        <time>2022-03-06T10:12:44.000Z</time>
      </trkpt>
      <trkpt lat="47.30853" lon="-2.25398">
        <ele>-5.5999999046326</ele>
        <time>2022-03-06T10:12:45.000Z</time>
      </trkpt>
      <trkpt lat="47.30853" lon="-2.25389">
        <ele>-6</ele>
        <time>2022-03-06T10:12:46.000Z</time>
      </trkpt>
      <trkpt lat="47.30853" lon="-2.25381">
        <ele>-6</ele>
        <time>2022-03-06T10:12:47.000Z</time>
      </trkpt>
      <trkpt lat="47.30852" lon="-2.25373">
        <ele>-6</ele>
        <time>2022-03-06T10:12:48.000Z</time>
      </trkpt>
      <trkpt lat="47.30843" lon="-2.25324">
        <ele>-6</ele>
        <time>2022-03-06T10:12:54.000Z</time>
      </trkpt>
      <trkpt lat="47.30843" lon="-2.25315">
        <ele>-6</ele>
        <time>2022-03-06T10:12:55.000Z</time>
      </trkpt>
      <trkpt lat="47.30843" lon="-2.25282">
        <ele>-6</ele>
        <time>2022-03-06T10:12:59.000Z</time>
      </trkpt>
      <trkpt lat="47.30845" lon="-2.25274">
        <ele>-6</ele>
        <time>2022-03-06T10:13:00.000Z</time>
      </trkpt>
      <trkpt lat="47.30852" lon="-2.25262">
        <ele>-6</ele>
        <time>2022-03-06T10:13:02.000Z</time>
      </trkpt>
      <trkpt lat="47.3086" lon="-2.25253">
        <ele>-6</ele>
        <time>2022-03-06T10:13:04.000Z</time>
      </trkpt>
      <trkpt lat="47.3087" lon="-2.25245">
        <ele>-6</ele>
        <time>2022-03-06T10:13:06.000Z</time>
      </trkpt>
      <trkpt lat="47.30902" lon="-2.25222">
        <ele>-6</ele>
        <time>2022-03-06T10:13:12.000Z</time>
      </trkpt>
      <trkpt lat="47.30908" lon="-2.25218">
        <ele>-6.5999999046326</ele>
        <time>2022-03-06T10:13:13.000Z</time>
      </trkpt>
      <trkpt lat="47.30912" lon="-2.25215">
        <ele>-7</ele>
        <time>2022-03-06T10:13:14.000Z</time>
      </trkpt>
      <trkpt lat="47.30915" lon="-2.25212">
        <ele>-7.4000000953674</ele>
        <time>2022-03-06T10:13:15.000Z</time>
      </trkpt>
      <trkpt lat="47.30916" lon="-2.25207">
        <ele>-7.8000001907349</ele>
        <time>2022-03-06T10:13:16.000Z</time>
      </trkpt>
      <trkpt lat="47.30916" lon="-2.25203">
        <ele>-8.1999998092651</ele>
        <time>2022-03-06T10:13:17.000Z</time>
      </trkpt>
      <trkpt lat="47.30911" lon="-2.25193">
        <ele>-8.1999998092651</ele>
        <time>2022-03-06T10:13:19.000Z</time>
      </trkpt>
      <trkpt lat="47.30908" lon="-2.25188">
        <ele>-8.1999998092651</ele>
        <time>2022-03-06T10:13:20.000Z</time>
      </trkpt>
      <trkpt lat="47.30901" lon="-2.25176">
        <ele>-8.1999998092651</ele>
        <time>2022-03-06T10:13:22.000Z</time>
      </trkpt>
      <trkpt lat="47.30898" lon="-2.25168">
        <ele>-8.1999998092651</ele>
        <time>2022-03-06T10:13:23.000Z</time>
      </trkpt>
      <trkpt lat="47.3089" lon="-2.25125">
        <ele>-8.1999998092651</ele>
        <time>2022-03-06T10:13:28.000Z</time>
      </trkpt>
      <trkpt lat="47.30886" lon="-2.25085">
        <ele>-9.1999998092651</ele>
        <time>2022-03-06T10:13:32.000Z</time>
      </trkpt>
      <trkpt lat="47.30885" lon="-2.25075">
        <ele>-9.6000003814697</ele>
        <time>2022-03-06T10:13:33.000Z</time>
      </trkpt>
      <trkpt lat="47.30883" lon="-2.25065">
        <ele>-10</ele>
        <time>2022-03-06T10:13:34.000Z</time>
      </trkpt>
      <trkpt lat="47.30882" lon="-2.25055">
        <ele>-10.39999961853</ele>
        <time>2022-03-06T10:13:35.000Z</time>
      </trkpt>
      <trkpt lat="47.30881" lon="-2.25044">
        <ele>-10.39999961853</ele>
        <time>2022-03-06T10:13:36.000Z</time>
      </trkpt>
      <trkpt lat="47.30866" lon="-2.24964">
        <ele>-10.39999961853</ele>
        <time>2022-03-06T10:13:44.000Z</time>
      </trkpt>
      <trkpt lat="47.30862" lon="-2.24957">
        <ele>-10.39999961853</ele>
        <time>2022-03-06T10:13:45.000Z</time>
      </trkpt>
      <trkpt lat="47.30857" lon="-2.2495">
        <ele>-10.800000190735</ele>
        <time>2022-03-06T10:13:46.000Z</time>
      </trkpt>
      <trkpt lat="47.30852" lon="-2.24943">
        <ele>-11.199999809265</ele>
        <time>2022-03-06T10:13:47.000Z</time>
      </trkpt>
      <trkpt lat="47.30846" lon="-2.24937">
        <ele>-11.800000190735</ele>
        <time>2022-03-06T10:13:48.000Z</time>
      </trkpt>
      <trkpt lat="47.3084" lon="-2.24933">
        <ele>-12.199999809265</ele>
        <time>2022-03-06T10:13:49.000Z</time>
      </trkpt>
      <trkpt lat="47.30834" lon="-2.24931">
        <ele>-12.60000038147</ele>
        <time>2022-03-06T10:13:50.000Z</time>
      </trkpt>
      <trkpt lat="47.30827" lon="-2.24928">
        <ele>-12.60000038147</ele>
        <time>2022-03-06T10:13:51.000Z</time>
      </trkpt>
      <trkpt lat="47.30774" lon="-2.24905">
        <ele>-12.60000038147</ele>
        <time>2022-03-06T10:13:59.000Z</time>
      </trkpt>
      <trkpt lat="47.30768" lon="-2.24902">
        <ele>-12.60000038147</ele>
        <time>2022-03-06T10:14:00.000Z</time>
      </trkpt>
      <trkpt lat="47.30732" lon="-2.24879">
        <ele>-12.60000038147</ele>
        <time>2022-03-06T10:14:06.000Z</time>
      </trkpt>
      <trkpt lat="47.3071" lon="-2.24847">
        <ele>-12.60000038147</ele>
        <time>2022-03-06T10:14:11.000Z</time>
      </trkpt>
      <trkpt lat="47.30696" lon="-2.24818">
        <ele>-12.60000038147</ele>
        <time>2022-03-06T10:14:15.000Z</time>
      </trkpt>
      <trkpt lat="47.30691" lon="-2.24811">
        <ele>-12.60000038147</ele>
        <time>2022-03-06T10:14:16.000Z</time>
      </trkpt>
      <trkpt lat="47.30658" lon="-2.24766">
        <ele>-12.60000038147</ele>
        <time>2022-03-06T10:14:23.000Z</time>
      </trkpt>
      <trkpt lat="47.30641" lon="-2.24725">
        <ele>-12.60000038147</ele>
        <time>2022-03-06T10:14:28.000Z</time>
      </trkpt>
      <trkpt lat="47.30624" lon="-2.24666">
        <ele>-12.60000038147</ele>
        <time>2022-03-06T10:14:35.000Z</time>
      </trkpt>
      <trkpt lat="47.3061" lon="-2.24618">
        <ele>-12.60000038147</ele>
        <time>2022-03-06T10:14:42.000Z</time>
      </trkpt>
      <trkpt lat="47.30611" lon="-2.24587">
        <ele>-12.60000038147</ele>
        <time>2022-03-06T10:14:46.000Z</time>
      </trkpt>
      <trkpt lat="47.30612" lon="-2.2458">
        <ele>-12.60000038147</ele>
        <time>2022-03-06T10:14:47.000Z</time>
      </trkpt>
      <trkpt lat="47.30617" lon="-2.24545">
        <ele>-12.199999809265</ele>
        <time>2022-03-06T10:14:52.000Z</time>
      </trkpt>
      <trkpt lat="47.30618" lon="-2.24538">
        <ele>-11.800000190735</ele>
        <time>2022-03-06T10:14:53.000Z</time>
      </trkpt>
      <trkpt lat="47.30619" lon="-2.24532">
        <ele>-11.39999961853</ele>
        <time>2022-03-06T10:14:54.000Z</time>
      </trkpt>
      <trkpt lat="47.3062" lon="-2.24525">
        <ele>-11</ele>
        <time>2022-03-06T10:14:55.000Z</time>
      </trkpt>
      <trkpt lat="47.30621" lon="-2.24519">
        <ele>-10.60000038147</ele>
        <time>2022-03-06T10:14:56.000Z</time>
      </trkpt>
      <trkpt lat="47.30623" lon="-2.245">
        <ele>-10.60000038147</ele>
        <time>2022-03-06T10:14:59.000Z</time>
      </trkpt>
      <trkpt lat="47.30624" lon="-2.24487">
        <ele>-10</ele>
        <time>2022-03-06T10:15:01.000Z</time>
      </trkpt>
      <trkpt lat="47.30624" lon="-2.24481">
        <ele>-9.6000003814697</ele>
        <time>2022-03-06T10:15:02.000Z</time>
      </trkpt>
      <trkpt lat="47.30626" lon="-2.24475">
        <ele>-9.1999998092651</ele>
        <time>2022-03-06T10:15:03.000Z</time>
      </trkpt>
      <trkpt lat="47.30627" lon="-2.24468">
        <ele>-8.8000001907349</ele>
        <time>2022-03-06T10:15:04.000Z</time>
      </trkpt>
      <trkpt lat="47.30628" lon="-2.24462">
        <ele>-8.3999996185303</ele>
        <time>2022-03-06T10:15:05.000Z</time>
      </trkpt>
      <trkpt lat="47.3063" lon="-2.24443">
        <ele>-8</ele>
        <time>2022-03-06T10:15:08.000Z</time>
      </trkpt>
      <trkpt lat="47.3063" lon="-2.24438">
        <ele>-7.4000000953674</ele>
        <time>2022-03-06T10:15:09.000Z</time>
      </trkpt>
      <trkpt lat="47.30631" lon="-2.24433">
        <ele>-7</ele>
        <time>2022-03-06T10:15:10.000Z</time>
      </trkpt>
      <trkpt lat="47.30631" lon="-2.24428">
        <ele>-6.1999998092651</ele>
        <time>2022-03-06T10:15:11.000Z</time>
      </trkpt>
      <trkpt lat="47.30625" lon="-2.24421">
        <ele>-5.8000001907349</ele>
        <time>2022-03-06T10:15:14.000Z</time>
      </trkpt>
      <trkpt lat="47.30622" lon="-2.2442">
        <ele>-5.4000000953674</ele>
        <time>2022-03-06T10:15:15.000Z</time>
      </trkpt>
      <trkpt lat="47.30619" lon="-2.2442">
        <ele>-5</ele>
        <time>2022-03-06T10:15:16.000Z</time>
      </trkpt>
      <trkpt lat="47.30615" lon="-2.2442">
        <ele>-4.5999999046326</ele>
        <time>2022-03-06T10:15:17.000Z</time>
      </trkpt>
      <trkpt lat="47.30612" lon="-2.24419">
        <ele>-4.1999998092651</ele>
        <time>2022-03-06T10:15:18.000Z</time>
      </trkpt>
      <trkpt lat="47.30609" lon="-2.24418">
        <ele>-4.1999998092651</ele>
        <time>2022-03-06T10:15:19.000Z</time>
      </trkpt>
      <trkpt lat="47.30592" lon="-2.24403">
        <ele>-4.1999998092651</ele>
        <time>2022-03-06T10:15:24.000Z</time>
      </trkpt>
      <trkpt lat="47.30589" lon="-2.24399">
        <ele>-3.5999999046326</ele>
        <time>2022-03-06T10:15:25.000Z</time>
      </trkpt>
      <trkpt lat="47.30585" lon="-2.24394">
        <ele>-3.2000000476837</ele>
        <time>2022-03-06T10:15:26.000Z</time>
      </trkpt>
      <trkpt lat="47.30581" lon="-2.2439">
        <ele>-2.7999999523163</ele>
        <time>2022-03-06T10:15:27.000Z</time>
      </trkpt>
      <trkpt lat="47.30577" lon="-2.24386">
        <ele>-2.4000000953674</ele>
        <time>2022-03-06T10:15:28.000Z</time>
      </trkpt>
      <trkpt lat="47.30574" lon="-2.24381">
        <ele>-2</ele>
        <time>2022-03-06T10:15:29.000Z</time>
      </trkpt>
      <trkpt lat="47.3057" lon="-2.24377">
        <ele>-2</ele>
        <time>2022-03-06T10:15:30.000Z</time>
      </trkpt>
      <trkpt lat="47.30553" lon="-2.24358">
        <ele>-2</ele>
        <time>2022-03-06T10:15:35.000Z</time>
      </trkpt>
      <trkpt lat="47.30546" lon="-2.2435">
        <ele>-2</ele>
        <time>2022-03-06T10:15:37.000Z</time>
      </trkpt>
      <trkpt lat="47.30535" lon="-2.2434">
        <ele>-2</ele>
        <time>2022-03-06T10:15:40.000Z</time>
      </trkpt>
      <trkpt lat="47.30524" lon="-2.24328">
        <ele>-2</ele>
        <time>2022-03-06T10:15:43.000Z</time>
      </trkpt>
      <trkpt lat="47.30509" lon="-2.2431">
        <ele>-1.6000000238419</ele>
        <time>2022-03-06T10:15:47.000Z</time>
      </trkpt>
      <trkpt lat="47.30506" lon="-2.24306">
        <ele>-1.2000000476837</ele>
        <time>2022-03-06T10:15:48.000Z</time>
      </trkpt>
      <trkpt lat="47.30502" lon="-2.24302">
        <ele>-0.80000001192093</ele>
        <time>2022-03-06T10:15:49.000Z</time>
      </trkpt>
      <trkpt lat="47.30498" lon="-2.24299">
        <ele>-0.40000000596046</ele>
        <time>2022-03-06T10:15:50.000Z</time>
      </trkpt>
      <trkpt lat="47.30494" lon="-2.24296">
        <ele>15</ele>
        <time>2022-03-06T10:15:51.000Z</time>
      </trkpt>
      <trkpt lat="47.30489" lon="-2.24294">
        <ele>14.8</ele>
        <time>2022-03-06T10:15:52.000Z</time>
      </trkpt>
      <trkpt lat="47.30479" lon="-2.2429">
        <ele>14.5</ele>
        <time>2022-03-06T10:15:54.000Z</time>
      </trkpt>
      <trkpt lat="47.30469" lon="-2.24286">
        <ele>14.4</ele>
        <time>2022-03-06T10:15:56.000Z</time>
      </trkpt>
      <trkpt lat="47.30438" lon="-2.24279">
        <ele>14.7</ele>
        <time>2022-03-06T10:16:02.000Z</time>
      </trkpt>
      <trkpt lat="47.30419" lon="-2.24274">
        <ele>14.4</ele>
        <time>2022-03-06T10:16:06.000Z</time>
      </trkpt>
      <trkpt lat="47.30411" lon="-2.24269">
        <ele>14.2</ele>
        <time>2022-03-06T10:16:08.000Z</time>
      </trkpt>
      <trkpt lat="47.30393" lon="-2.24252">
        <ele>14.2</ele>
        <time>2022-03-06T10:16:13.000Z</time>
      </trkpt>
      <trkpt lat="47.30381" lon="-2.24239">
        <ele>14.5</ele>
        <time>2022-03-06T10:16:16.000Z</time>
      </trkpt>
      <trkpt lat="47.3037" lon="-2.24225">
        <ele>14.2</ele>
        <time>2022-03-06T10:16:19.000Z</time>
      </trkpt>
      <trkpt lat="47.30348" lon="-2.24197">
        <ele>13.9</ele>
        <time>2022-03-06T10:16:25.000Z</time>
      </trkpt>
      <trkpt lat="47.30352" lon="-2.24178">
        <ele>14.5</ele>
        <time>2022-03-06T10:16:28.000Z</time>
      </trkpt>
      <trkpt lat="47.30358" lon="-2.24167">
        <ele>14.9</ele>
        <time>2022-03-06T10:16:30.000Z</time>
      </trkpt>
      <trkpt lat="47.30365" lon="-2.24152">
        <ele>15.4</ele>
        <time>2022-03-06T10:16:33.000Z</time>
      </trkpt>
      <trkpt lat="47.30384" lon="-2.24125">
        <ele>16.2</ele>
        <time>2022-03-06T10:16:40.000Z</time>
      </trkpt>
      <trkpt lat="47.30408" lon="-2.24097">
        <ele>15.8</ele>
        <time>2022-03-06T10:16:48.000Z</time>
      </trkpt>
      <trkpt lat="47.30411" lon="-2.24093">
        <ele>15.7</ele>
        <time>2022-03-06T10:16:49.000Z</time>
      </trkpt>
      <trkpt lat="47.30423" lon="-2.2408">
        <ele>14.7</ele>
        <time>2022-03-06T10:16:52.000Z</time>
      </trkpt>
      <trkpt lat="47.30427" lon="-2.24075">
        <ele>14.4</ele>
        <time>2022-03-06T10:16:53.000Z</time>
      </trkpt>
      <trkpt lat="47.30439" lon="-2.24061">
        <ele>-0.40000000596046</ele>
        <time>2022-03-06T10:16:56.000Z</time>
      </trkpt>
      <trkpt lat="47.30444" lon="-2.24057">
        <ele>-0.80000001192093</ele>
        <time>2022-03-06T10:16:57.000Z</time>
      </trkpt>
      <trkpt lat="47.30448" lon="-2.24053">
        <ele>-1.2000000476837</ele>
        <time>2022-03-06T10:16:58.000Z</time>
      </trkpt>
      <trkpt lat="47.30452" lon="-2.24048">
        <ele>-1.7999999523163</ele>
        <time>2022-03-06T10:16:59.000Z</time>
      </trkpt>
      <trkpt lat="47.30457" lon="-2.24044">
        <ele>-2.2000000476837</ele>
        <time>2022-03-06T10:17:00.000Z</time>
      </trkpt>
      <trkpt lat="47.30461" lon="-2.24041">
        <ele>-2.2000000476837</ele>
        <time>2022-03-06T10:17:01.000Z</time>
      </trkpt>
      <trkpt lat="47.30476" lon="-2.24033">
        <ele>-2.5999999046326</ele>
        <time>2022-03-06T10:17:04.000Z</time>
      </trkpt>
      <trkpt lat="47.3048" lon="-2.2403">
        <ele>-3</ele>
        <time>2022-03-06T10:17:05.000Z</time>
      </trkpt>
      <trkpt lat="47.30485" lon="-2.24024">
        <ele>-3.4000000953674</ele>
        <time>2022-03-06T10:17:06.000Z</time>
      </trkpt>
      <trkpt lat="47.30491" lon="-2.24019">
        <ele>-3.7999999523163</ele>
        <time>2022-03-06T10:17:07.000Z</time>
      </trkpt>
      <trkpt lat="47.30496" lon="-2.24013">
        <ele>-4.1999998092651</ele>
        <time>2022-03-06T10:17:08.000Z</time>
      </trkpt>
      <trkpt lat="47.30501" lon="-2.24005">
        <ele>-4.5999999046326</ele>
        <time>2022-03-06T10:17:09.000Z</time>
      </trkpt>
      <trkpt lat="47.30506" lon="-2.23998">
        <ele>-5</ele>
        <time>2022-03-06T10:17:10.000Z</time>
      </trkpt>
      <trkpt lat="47.30511" lon="-2.2399">
        <ele>-5.4000000953674</ele>
        <time>2022-03-06T10:17:11.000Z</time>
      </trkpt>
      <trkpt lat="47.30517" lon="-2.23982">
        <ele>-5.8000001907349</ele>
        <time>2022-03-06T10:17:12.000Z</time>
      </trkpt>
      <trkpt lat="47.30523" lon="-2.23975">
        <ele>-6.4000000953674</ele>
        <time>2022-03-06T10:17:13.000Z</time>
      </trkpt>
      <trkpt lat="47.30529" lon="-2.23967">
        <ele>-6.8000001907349</ele>
        <time>2022-03-06T10:17:14.000Z</time>
      </trkpt>
      <trkpt lat="47.30534" lon="-2.23959">
        <ele>-7.8000001907349</ele>
        <time>2022-03-06T10:17:15.000Z</time>
      </trkpt>
      <trkpt lat="47.3054" lon="-2.23952">
        <ele>-8.3999996185303</ele>
        <time>2022-03-06T10:17:16.000Z</time>
      </trkpt>
      <trkpt lat="47.30545" lon="-2.23946">
        <ele>-8.8000001907349</ele>
        <time>2022-03-06T10:17:17.000Z</time>
      </trkpt>
      <trkpt lat="47.30548" lon="-2.2394">
        <ele>-9.3999996185303</ele>
        <time>2022-03-06T10:17:18.000Z</time>
      </trkpt>
      <trkpt lat="47.3055" lon="-2.23934">
        <ele>-9.8000001907349</ele>
        <time>2022-03-06T10:17:19.000Z</time>
      </trkpt>
      <trkpt lat="47.3055" lon="-2.23929">
        <ele>-10.39999961853</ele>
        <time>2022-03-06T10:17:20.000Z</time>
      </trkpt>
      <trkpt lat="47.30549" lon="-2.23922">
        <ele>-11</ele>
        <time>2022-03-06T10:17:21.000Z</time>
      </trkpt>
      <trkpt lat="47.30545" lon="-2.23918">
        <ele>-11.39999961853</ele>
        <time>2022-03-06T10:17:22.000Z</time>
      </trkpt>
      <trkpt lat="47.30541" lon="-2.23913">
        <ele>-11.800000190735</ele>
        <time>2022-03-06T10:17:23.000Z</time>
      </trkpt>
      <trkpt lat="47.30538" lon="-2.23908">
        <ele>-12.199999809265</ele>
        <time>2022-03-06T10:17:24.000Z</time>
      </trkpt>
      <trkpt lat="47.30534" lon="-2.23903">
        <ele>-12.60000038147</ele>
        <time>2022-03-06T10:17:25.000Z</time>
      </trkpt>
      <trkpt lat="47.3053" lon="-2.23897">
        <ele>-13</ele>
        <time>2022-03-06T10:17:26.000Z</time>
      </trkpt>
      <trkpt lat="47.30513" lon="-2.23877">
        <ele>-13</ele>
        <time>2022-03-06T10:17:30.000Z</time>
      </trkpt>
      <trkpt lat="47.30488" lon="-2.23845">
        <ele>-13</ele>
        <time>2022-03-06T10:17:36.000Z</time>
      </trkpt>
      <trkpt lat="47.30482" lon="-2.23843">
        <ele>-13</ele>
        <time>2022-03-06T10:17:37.000Z</time>
      </trkpt>
      <trkpt lat="47.30466" lon="-2.23843">
        <ele>-13</ele>
        <time>2022-03-06T10:17:40.000Z</time>
      </trkpt>
      <trkpt lat="47.3046" lon="-2.23843">
        <ele>-13</ele>
        <time>2022-03-06T10:17:41.000Z</time>
      </trkpt>
      <trkpt lat="47.30427" lon="-2.23848">
        <ele>-13</ele>
        <time>2022-03-06T10:17:47.000Z</time>
      </trkpt>
      <trkpt lat="47.30377" lon="-2.23856">
        <ele>-13</ele>
        <time>2022-03-06T10:17:56.000Z</time>
      </trkpt>
      <trkpt lat="47.3034" lon="-2.23865">
        <ele>-13</ele>
        <time>2022-03-06T10:18:03.000Z</time>
      </trkpt>
      <trkpt lat="47.30306" lon="-2.23881">
        <ele>-13</ele>
        <time>2022-03-06T10:18:10.000Z</time>
      </trkpt>
      <trkpt lat="47.30281" lon="-2.23883">
        <ele>-13</ele>
        <time>2022-03-06T10:18:16.000Z</time>
      </trkpt>
      <trkpt lat="47.30274" lon="-2.23886">
        <ele>-13</ele>
        <time>2022-03-06T10:18:20.000Z</time>
      </trkpt>
      <trkpt lat="47.30269" lon="-2.23894">
        <ele>-13</ele>
        <time>2022-03-06T10:18:26.000Z</time>
      </trkpt>
      <trkpt lat="47.30265" lon="-2.23913">
        <ele>-13</ele>
        <time>2022-03-06T10:18:31.000Z</time>
      </trkpt>
      <trkpt lat="47.30264" lon="-2.23926">
        <ele>-13</ele>
        <time>2022-03-06T10:18:33.000Z</time>
      </trkpt>
      <trkpt lat="47.30265" lon="-2.23939">
        <ele>-13</ele>
        <time>2022-03-06T10:18:35.000Z</time>
      </trkpt>
      <trkpt lat="47.30266" lon="-2.23945">
        <ele>-13</ele>
        <time>2022-03-06T10:18:36.000Z</time>
      </trkpt>
      <trkpt lat="47.30273" lon="-2.2397">
        <ele>-13</ele>
        <time>2022-03-06T10:18:40.000Z</time>
      </trkpt>
      <trkpt lat="47.30274" lon="-2.23976">
        <ele>-12.60000038147</ele>
        <time>2022-03-06T10:18:41.000Z</time>
      </trkpt>
      <trkpt lat="47.30275" lon="-2.23982">
        <ele>-12.199999809265</ele>
        <time>2022-03-06T10:18:42.000Z</time>
      </trkpt>
      <trkpt lat="47.30277" lon="-2.23988">
        <ele>-11.800000190735</ele>
        <time>2022-03-06T10:18:43.000Z</time>
      </trkpt>
      <trkpt lat="47.30278" lon="-2.23994">
        <ele>-11.39999961853</ele>
        <time>2022-03-06T10:18:44.000Z</time>
      </trkpt>
      <trkpt lat="47.30279" lon="-2.24">
        <ele>-11</ele>
        <time>2022-03-06T10:18:45.000Z</time>
      </trkpt>
      <trkpt lat="47.3028" lon="-2.24011">
        <ele>-11</ele>
        <time>2022-03-06T10:18:47.000Z</time>
      </trkpt>
      <trkpt lat="47.30282" lon="-2.24027">
        <ele>-10.60000038147</ele>
        <time>2022-03-06T10:18:50.000Z</time>
      </trkpt>
      <trkpt lat="47.30282" lon="-2.24032">
        <ele>-10.199999809265</ele>
        <time>2022-03-06T10:18:51.000Z</time>
      </trkpt>
      <trkpt lat="47.30283" lon="-2.24037">
        <ele>-9.6000003814697</ele>
        <time>2022-03-06T10:18:52.000Z</time>
      </trkpt>
      <trkpt lat="47.30283" lon="-2.24042">
        <ele>-8.8000001907349</ele>
        <time>2022-03-06T10:18:53.000Z</time>
      </trkpt>
      <trkpt lat="47.30277" lon="-2.2406">
        <ele>-8.3999996185303</ele>
        <time>2022-03-06T10:18:57.000Z</time>
      </trkpt>
      <trkpt lat="47.30274" lon="-2.24061">
        <ele>-8</ele>
        <time>2022-03-06T10:18:58.000Z</time>
      </trkpt>
      <trkpt lat="47.3027" lon="-2.24061">
        <ele>-7.5999999046326</ele>
        <time>2022-03-06T10:18:59.000Z</time>
      </trkpt>
      <trkpt lat="47.30266" lon="-2.24061">
        <ele>-7</ele>
        <time>2022-03-06T10:19:00.000Z</time>
      </trkpt>
      <trkpt lat="47.30262" lon="-2.24061">
        <ele>-6.5999999046326</ele>
        <time>2022-03-06T10:19:01.000Z</time>
      </trkpt>
      <trkpt lat="47.30246" lon="-2.24061">
        <ele>-6.5999999046326</ele>
        <time>2022-03-06T10:19:05.000Z</time>
      </trkpt>
      <trkpt lat="47.30212" lon="-2.24058">
        <ele>-6.5999999046326</ele>
        <time>2022-03-06T10:19:12.000Z</time>
      </trkpt>
      <trkpt lat="47.30187" lon="-2.24059">
        <ele>-6.1999998092651</ele>
        <time>2022-03-06T10:19:18.000Z</time>
      </trkpt>
      <trkpt lat="47.30182" lon="-2.2406">
        <ele>-5.8000001907349</ele>
        <time>2022-03-06T10:19:19.000Z</time>
      </trkpt>
      <trkpt lat="47.30178" lon="-2.24061">
        <ele>-5.4000000953674</ele>
        <time>2022-03-06T10:19:20.000Z</time>
      </trkpt>
      <trkpt lat="47.30174" lon="-2.24063">
        <ele>-5</ele>
        <time>2022-03-06T10:19:21.000Z</time>
      </trkpt>
      <trkpt lat="47.30169" lon="-2.24064">
        <ele>-4.5999999046326</ele>
        <time>2022-03-06T10:19:22.000Z</time>
      </trkpt>
      <trkpt lat="47.30153" lon="-2.24071">
        <ele>-4.5999999046326</ele>
        <time>2022-03-06T10:19:26.000Z</time>
      </trkpt>
      <trkpt lat="47.30124" lon="-2.24088">
        <ele>-4.5999999046326</ele>
        <time>2022-03-06T10:19:34.000Z</time>
      </trkpt>
      <trkpt lat="47.30108" lon="-2.24099">
        <ele>-4.5999999046326</ele>
        <time>2022-03-06T10:19:38.000Z</time>
      </trkpt>
      <trkpt lat="47.301" lon="-2.24103">
        <ele>-4.5999999046326</ele>
        <time>2022-03-06T10:19:40.000Z</time>
      </trkpt>
      <trkpt lat="47.30072" lon="-2.24116">
        <ele>-4.5999999046326</ele>
        <time>2022-03-06T10:19:47.000Z</time>
      </trkpt>
      <trkpt lat="47.30051" lon="-2.24126">
        <ele>-4.5999999046326</ele>
        <time>2022-03-06T10:19:53.000Z</time>
      </trkpt>
      <trkpt lat="47.30036" lon="-2.24137">
        <ele>-4.5999999046326</ele>
        <time>2022-03-06T10:19:58.000Z</time>
      </trkpt>
      <trkpt lat="47.3003" lon="-2.24142">
        <ele>-5</ele>
        <time>2022-03-06T10:20:00.000Z</time>
      </trkpt>
      <trkpt lat="47.30028" lon="-2.24143">
        <ele>-5.4000000953674</ele>
        <time>2022-03-06T10:20:01.000Z</time>
      </trkpt>
      <trkpt lat="47.30026" lon="-2.24144">
        <ele>-5.8000001907349</ele>
        <time>2022-03-06T10:20:02.000Z</time>
      </trkpt>
      <trkpt lat="47.30025" lon="-2.24145">
        <ele>-6.1999998092651</ele>
        <time>2022-03-06T10:20:03.000Z</time>
      </trkpt>
      <trkpt lat="47.30023" lon="-2.24146">
        <ele>-6.5999999046326</ele>
        <time>2022-03-06T10:20:04.000Z</time>
      </trkpt>
      <trkpt lat="47.30022" lon="-2.2415">
        <ele>-6.5999999046326</ele>
        <time>2022-03-06T10:20:06.000Z</time>
      </trkpt>
      <trkpt lat="47.30023" lon="-2.24154">
        <ele>-6.5999999046326</ele>
        <time>2022-03-06T10:20:08.000Z</time>
      </trkpt>
      <trkpt lat="47.30021" lon="-2.24166">
        <ele>-6.5999999046326</ele>
        <time>2022-03-06T10:20:11.000Z</time>
      </trkpt>
      <trkpt lat="47.3002" lon="-2.24176">
        <ele>-6.1999998092651</ele>
        <time>2022-03-06T10:20:13.000Z</time>
      </trkpt>
      <trkpt lat="47.30019" lon="-2.24181">
        <ele>-5.8000001907349</ele>
        <time>2022-03-06T10:20:14.000Z</time>
      </trkpt>
      <trkpt lat="47.30018" lon="-2.24185">
        <ele>-5.1999998092651</ele>
        <time>2022-03-06T10:20:15.000Z</time>
      </trkpt>
      <trkpt lat="47.3002" lon="-2.2419">
        <ele>-4.8000001907349</ele>
        <time>2022-03-06T10:20:16.000Z</time>
      </trkpt>
      <trkpt lat="47.30022" lon="-2.24197">
        <ele>-4.4000000953674</ele>
        <time>2022-03-06T10:20:17.000Z</time>
      </trkpt>
      <trkpt lat="47.30023" lon="-2.24206">
        <ele>-4</ele>
        <time>2022-03-06T10:20:18.000Z</time>
      </trkpt>
      <trkpt lat="47.30024" lon="-2.24216">
        <ele>-3.5999999046326</ele>
        <time>2022-03-06T10:20:19.000Z</time>
      </trkpt>
      <trkpt lat="47.30024" lon="-2.24223">
        <ele>-3.2000000476837</ele>
        <time>2022-03-06T10:20:20.000Z</time>
      </trkpt>
      <trkpt lat="47.30023" lon="-2.2423">
        <ele>-2.7999999523163</ele>
        <time>2022-03-06T10:20:21.000Z</time>
      </trkpt>
      <trkpt lat="47.30022" lon="-2.24235">
        <ele>-2.4000000953674</ele>
        <time>2022-03-06T10:20:22.000Z</time>
      </trkpt>
      <trkpt lat="47.30023" lon="-2.24239">
        <ele>-2.4000000953674</ele>
        <time>2022-03-06T10:20:23.000Z</time>
      </trkpt>
      <trkpt lat="47.30027" lon="-2.2426">
        <ele>-2.4000000953674</ele>
        <time>2022-03-06T10:20:28.000Z</time>
      </trkpt>
      <trkpt lat="47.30027" lon="-2.24263">
        <ele>-1.7999999523163</ele>
        <time>2022-03-06T10:20:29.000Z</time>
      </trkpt>
      <trkpt lat="47.30027" lon="-2.24266">
        <ele>-1.3999999761581</ele>
        <time>2022-03-06T10:20:30.000Z</time>
      </trkpt>
      <trkpt lat="47.30027" lon="-2.24269">
        <ele>-1</ele>
        <time>2022-03-06T10:20:31.000Z</time>
      </trkpt>
      <trkpt lat="47.30026" lon="-2.24272">
        <ele>15.8</ele>
        <time>2022-03-06T10:20:32.000Z</time>
      </trkpt>
      <trkpt lat="47.30024" lon="-2.24275">
        <ele>15.9</ele>
        <time>2022-03-06T10:20:33.000Z</time>
      </trkpt>
      <trkpt lat="47.30017" lon="-2.24285">
        <ele>16.1</ele>
        <time>2022-03-06T10:20:37.000Z</time>
      </trkpt>
      <trkpt lat="47.30015" lon="-2.24292">
        <ele>16.2</ele>
        <time>2022-03-06T10:20:39.000Z</time>
      </trkpt>
      <trkpt lat="47.3001" lon="-2.24313">
        <ele>16.6</ele>
        <time>2022-03-06T10:20:44.000Z</time>
      </trkpt>
      <trkpt lat="47.30006" lon="-2.24326">
        <ele>0.40000000596046</ele>
        <time>2022-03-06T10:20:47.000Z</time>
      </trkpt>
      <trkpt lat="47.30004" lon="-2.2433">
        <ele>0.80000001192093</ele>
        <time>2022-03-06T10:20:48.000Z</time>
      </trkpt>
      <trkpt lat="47.30004" lon="-2.24335">
        <ele>1.2000000476837</ele>
        <time>2022-03-06T10:20:49.000Z</time>
      </trkpt>
      <trkpt lat="47.30002" lon="-2.2434">
        <ele>1.6000000238419</ele>
        <time>2022-03-06T10:20:50.000Z</time>
      </trkpt>
      <trkpt lat="47.30001" lon="-2.24344">
        <ele>2</ele>
        <time>2022-03-06T10:20:51.000Z</time>
      </trkpt>
      <trkpt lat="47.29993" lon="-2.24361">
        <ele>2</ele>
        <time>2022-03-06T10:20:55.000Z</time>
      </trkpt>
      <trkpt lat="47.29989" lon="-2.24359">
        <ele>2</ele>
        <time>2022-03-06T10:20:56.000Z</time>
      </trkpt>
      <trkpt lat="47.29977" lon="-2.24345">
        <ele>2</ele>
        <time>2022-03-06T10:21:00.000Z</time>
      </trkpt>
      <trkpt lat="47.29951" lon="-2.2432">
        <ele>2</ele>
        <time>2022-03-06T10:21:08.000Z</time>
      </trkpt>
      <trkpt lat="47.29937" lon="-2.24303">
        <ele>2</ele>
        <time>2022-03-06T10:21:13.000Z</time>
      </trkpt>
      <trkpt lat="47.29919" lon="-2.24287">
        <ele>2</ele>
        <time>2022-03-06T10:21:17.000Z</time>
      </trkpt>
      <trkpt lat="47.2991" lon="-2.24281">
        <ele>2</ele>
        <time>2022-03-06T10:21:19.000Z</time>
      </trkpt>
      <trkpt lat="47.29892" lon="-2.24266">
        <ele>2</ele>
        <time>2022-03-06T10:21:23.000Z</time>
      </trkpt>
      <trkpt lat="47.29884" lon="-2.24259">
        <ele>2</ele>
        <time>2022-03-06T10:21:25.000Z</time>
      </trkpt>
      <trkpt lat="47.29879" lon="-2.24256">
        <ele>2</ele>
        <time>2022-03-06T10:21:26.000Z</time>
      </trkpt>
      <trkpt lat="47.2987" lon="-2.24251">
        <ele>2</ele>
        <time>2022-03-06T10:21:28.000Z</time>
      </trkpt>
      <trkpt lat="47.29856" lon="-2.24245">
        <ele>2</ele>
        <time>2022-03-06T10:21:31.000Z</time>
      </trkpt>
      <trkpt lat="47.29822" lon="-2.24229">
        <ele>2</ele>
        <time>2022-03-06T10:21:38.000Z</time>
      </trkpt>
      <trkpt lat="47.29817" lon="-2.24226">
        <ele>2</ele>
        <time>2022-03-06T10:21:39.000Z</time>
      </trkpt>
      <trkpt lat="47.29806" lon="-2.24219">
        <ele>2</ele>
        <time>2022-03-06T10:21:41.000Z</time>
      </trkpt>
      <trkpt lat="47.29795" lon="-2.24219">
        <ele>1.6000000238419</ele>
        <time>2022-03-06T10:21:43.000Z</time>
      </trkpt>
      <trkpt lat="47.2979" lon="-2.24221">
        <ele>1.2000000476837</ele>
        <time>2022-03-06T10:21:44.000Z</time>
      </trkpt>
      <trkpt lat="47.29784" lon="-2.24224">
        <ele>0.80000001192093</ele>
        <time>2022-03-06T10:21:45.000Z</time>
      </trkpt>
      <trkpt lat="47.29778" lon="-2.24228">
        <ele>-0.20000000298023</ele>
        <time>2022-03-06T10:21:46.000Z</time>
      </trkpt>
      <trkpt lat="47.29753" lon="-2.24242">
        <ele>-0.60000002384186</ele>
        <time>2022-03-06T10:21:50.000Z</time>
      </trkpt>
      <trkpt lat="47.29747" lon="-2.24246">
        <ele>-1</ele>
        <time>2022-03-06T10:21:51.000Z</time>
      </trkpt>
      <trkpt lat="47.2974" lon="-2.2425">
        <ele>-1.3999999761581</ele>
        <time>2022-03-06T10:21:52.000Z</time>
      </trkpt>
      <trkpt lat="47.29733" lon="-2.24253">
        <ele>-1.7999999523163</ele>
        <time>2022-03-06T10:21:53.000Z</time>
      </trkpt>
      <trkpt lat="47.29726" lon="-2.24257">
        <ele>-2.4000000953674</ele>
        <time>2022-03-06T10:21:54.000Z</time>
      </trkpt>
      <trkpt lat="47.29705" lon="-2.24268">
        <ele>-2.7999999523163</ele>
        <time>2022-03-06T10:21:57.000Z</time>
      </trkpt>
      <trkpt lat="47.29697" lon="-2.24272">
        <ele>-3.2000000476837</ele>
        <time>2022-03-06T10:21:58.000Z</time>
      </trkpt>
      <trkpt lat="47.2969" lon="-2.24275">
        <ele>-3.5999999046326</ele>
        <time>2022-03-06T10:21:59.000Z</time>
      </trkpt>
      <trkpt lat="47.29683" lon="-2.24279">
        <ele>-4.1999998092651</ele>
        <time>2022-03-06T10:22:00.000Z</time>
      </trkpt>
      <trkpt lat="47.29676" lon="-2.24283">
        <ele>-4.5999999046326</ele>
        <time>2022-03-06T10:22:01.000Z</time>
      </trkpt>
      <trkpt lat="47.29646" lon="-2.243">
        <ele>-5</ele>
        <time>2022-03-06T10:22:05.000Z</time>
      </trkpt>
      <trkpt lat="47.29638" lon="-2.24304">
        <ele>-5.5999999046326</ele>
        <time>2022-03-06T10:22:06.000Z</time>
      </trkpt>
      <trkpt lat="47.29631" lon="-2.24307">
        <ele>-6</ele>
        <time>2022-03-06T10:22:07.000Z</time>
      </trkpt>
      <trkpt lat="47.29624" lon="-2.24311">
        <ele>-6.4000000953674</ele>
        <time>2022-03-06T10:22:08.000Z</time>
      </trkpt>
      <trkpt lat="47.29617" lon="-2.24313">
        <ele>-6.8000001907349</ele>
        <time>2022-03-06T10:22:09.000Z</time>
      </trkpt>
      <trkpt lat="47.29602" lon="-2.24317">
        <ele>-6.8000001907349</ele>
        <time>2022-03-06T10:22:11.000Z</time>
      </trkpt>
      <trkpt lat="47.29596" lon="-2.24318">
        <ele>-6.8000001907349</ele>
        <time>2022-03-06T10:22:12.000Z</time>
      </trkpt>
      <trkpt lat="47.29577" lon="-2.24319">
        <ele>-7.1999998092651</ele>
        <time>2022-03-06T10:22:15.000Z</time>
      </trkpt>
      <trkpt lat="47.29571" lon="-2.24319">
        <ele>-7.5999999046326</ele>
        <time>2022-03-06T10:22:16.000Z</time>
      </trkpt>
      <trkpt lat="47.29566" lon="-2.24314">
        <ele>-8</ele>
        <time>2022-03-06T10:22:17.000Z</time>
      </trkpt>
      <trkpt lat="47.2956" lon="-2.24308">
        <ele>-8.6000003814697</ele>
        <time>2022-03-06T10:22:18.000Z</time>
      </trkpt>
      <trkpt lat="47.29554" lon="-2.24302">
        <ele>-9</ele>
        <time>2022-03-06T10:22:19.000Z</time>
      </trkpt>
      <trkpt lat="47.29535" lon="-2.2429">
        <ele>-9</ele>
        <time>2022-03-06T10:22:22.000Z</time>
      </trkpt>
      <trkpt lat="47.29516" lon="-2.24292">
        <ele>-9</ele>
        <time>2022-03-06T10:22:25.000Z</time>
      </trkpt>
      <trkpt lat="47.29492" lon="-2.24302">
        <ele>-9</ele>
        <time>2022-03-06T10:22:30.000Z</time>
      </trkpt>
      <trkpt lat="47.29457" lon="-2.24311">
        <ele>-9</ele>
        <time>2022-03-06T10:22:37.000Z</time>
      </trkpt>
      <trkpt lat="47.29452" lon="-2.24313">
        <ele>-8.3999996185303</ele>
        <time>2022-03-06T10:22:38.000Z</time>
      </trkpt>
      <trkpt lat="47.29447" lon="-2.24314">
        <ele>-8</ele>
        <time>2022-03-06T10:22:39.000Z</time>
      </trkpt>
      <trkpt lat="47.29443" lon="-2.24317">
        <ele>-7.5999999046326</ele>
        <time>2022-03-06T10:22:40.000Z</time>
      </trkpt>
      <trkpt lat="47.29438" lon="-2.24318">
        <ele>-7.1999998092651</ele>
        <time>2022-03-06T10:22:41.000Z</time>
      </trkpt>
      <trkpt lat="47.29433" lon="-2.24321">
        <ele>-6.8000001907349</ele>
        <time>2022-03-06T10:22:42.000Z</time>
      </trkpt>
      <trkpt lat="47.29428" lon="-2.24324">
        <ele>-6.8000001907349</ele>
        <time>2022-03-06T10:22:43.000Z</time>
      </trkpt>
      <trkpt lat="47.29403" lon="-2.24347">
        <ele>-6.8000001907349</ele>
        <time>2022-03-06T10:22:49.000Z</time>
      </trkpt>
      <trkpt lat="47.2937" lon="-2.2438">
        <ele>-6.8000001907349</ele>
        <time>2022-03-06T10:22:57.000Z</time>
      </trkpt>
      <trkpt lat="47.29342" lon="-2.24409">
        <ele>-6.8000001907349</ele>
        <time>2022-03-06T10:23:04.000Z</time>
      </trkpt>
      <trkpt lat="47.29316" lon="-2.24438">
        <ele>-6.4000000953674</ele>
        <time>2022-03-06T10:23:11.000Z</time>
      </trkpt>
      <trkpt lat="47.29312" lon="-2.24442">
        <ele>-6</ele>
        <time>2022-03-06T10:23:12.000Z</time>
      </trkpt>
      <trkpt lat="47.29308" lon="-2.24445">
        <ele>-5.5999999046326</ele>
        <time>2022-03-06T10:23:13.000Z</time>
      </trkpt>
      <trkpt lat="47.29304" lon="-2.24448">
        <ele>-5.1999998092651</ele>
        <time>2022-03-06T10:23:14.000Z</time>
      </trkpt>
      <trkpt lat="47.293" lon="-2.24451">
        <ele>-4.8000001907349</ele>
        <time>2022-03-06T10:23:15.000Z</time>
      </trkpt>
      <trkpt lat="47.29297" lon="-2.24455">
        <ele>-4.8000001907349</ele>
        <time>2022-03-06T10:23:16.000Z</time>
      </trkpt>
      <trkpt lat="47.29292" lon="-2.24464">
        <ele>-4.8000001907349</ele>
        <time>2022-03-06T10:23:18.000Z</time>
      </trkpt>
      <trkpt lat="47.29291" lon="-2.24482">
        <ele>-4.8000001907349</ele>
        <time>2022-03-06T10:23:21.000Z</time>
      </trkpt>
      <trkpt lat="47.29292" lon="-2.24489">
        <ele>-4.8000001907349</ele>
        <time>2022-03-06T10:23:22.000Z</time>
      </trkpt>
      <trkpt lat="47.29293" lon="-2.24544">
        <ele>-4.8000001907349</ele>
        <time>2022-03-06T10:23:29.000Z</time>
      </trkpt>
      <trkpt lat="47.29297" lon="-2.24589">
        <ele>-4.8000001907349</ele>
        <time>2022-03-06T10:23:35.000Z</time>
      </trkpt>
      <trkpt lat="47.29297" lon="-2.24614">
        <ele>-4.8000001907349</ele>
        <time>2022-03-06T10:23:40.000Z</time>
      </trkpt>
      <trkpt lat="47.29295" lon="-2.24642">
        <ele>-4.8000001907349</ele>
        <time>2022-03-06T10:23:46.000Z</time>
      </trkpt>
      <trkpt lat="47.29296" lon="-2.24675">
        <ele>-4.8000001907349</ele>
        <time>2022-03-06T10:23:53.000Z</time>
      </trkpt>
      <trkpt lat="47.29303" lon="-2.24704">
        <ele>-4.4000000953674</ele>
        <time>2022-03-06T10:23:59.000Z</time>
      </trkpt>
      <trkpt lat="47.29304" lon="-2.24709">
        <ele>-3.7999999523163</ele>
        <time>2022-03-06T10:24:00.000Z</time>
      </trkpt>
      <trkpt lat="47.29305" lon="-2.24714">
        <ele>-3.4000000953674</ele>
        <time>2022-03-06T10:24:01.000Z</time>
      </trkpt>
      <trkpt lat="47.29306" lon="-2.2472">
        <ele>-3</ele>
        <time>2022-03-06T10:24:02.000Z</time>
      </trkpt>
      <trkpt lat="47.29307" lon="-2.24725">
        <ele>-2.5999999046326</ele>
        <time>2022-03-06T10:24:03.000Z</time>
      </trkpt>
      <trkpt lat="47.29309" lon="-2.24735">
        <ele>-2.5999999046326</ele>
        <time>2022-03-06T10:24:05.000Z</time>
      </trkpt>
      <trkpt lat="47.29315" lon="-2.24757">
        <ele>-2.5999999046326</ele>
        <time>2022-03-06T10:24:10.000Z</time>
      </trkpt>
      <trkpt lat="47.29322" lon="-2.24779">
        <ele>-2.5999999046326</ele>
        <time>2022-03-06T10:24:15.000Z</time>
      </trkpt>
      <trkpt lat="47.2933" lon="-2.24812">
        <ele>-2.5999999046326</ele>
        <time>2022-03-06T10:24:21.000Z</time>
      </trkpt>
      <trkpt lat="47.29335" lon="-2.24851">
        <ele>-2.5999999046326</ele>
        <time>2022-03-06T10:24:28.000Z</time>
      </trkpt>
      <trkpt lat="47.29335" lon="-2.24879">
        <ele>-2.5999999046326</ele>
        <time>2022-03-06T10:24:33.000Z</time>
      </trkpt>
      <trkpt lat="47.2933" lon="-2.24913">
        <ele>-2.5999999046326</ele>
        <time>2022-03-06T10:24:39.000Z</time>
      </trkpt>
      <trkpt lat="47.2932" lon="-2.24917">
        <ele>-2.5999999046326</ele>
        <time>2022-03-06T10:24:42.000Z</time>
      </trkpt>
      <trkpt lat="47.29307" lon="-2.24916">
        <ele>-2.2000000476837</ele>
        <time>2022-03-06T10:24:45.000Z</time>
      </trkpt>
      <trkpt lat="47.29303" lon="-2.24916">
        <ele>-1.7999999523163</ele>
        <time>2022-03-06T10:24:46.000Z</time>
      </trkpt>
      <trkpt lat="47.29299" lon="-2.24916">
        <ele>-1.3999999761581</ele>
        <time>2022-03-06T10:24:47.000Z</time>
      </trkpt>
      <trkpt lat="47.29295" lon="-2.24917">
        <ele>-1</ele>
        <time>2022-03-06T10:24:48.000Z</time>
      </trkpt>
      <trkpt lat="47.2929" lon="-2.24917">
        <ele>-0.60000002384186</ele>
        <time>2022-03-06T10:24:49.000Z</time>
      </trkpt>
      <trkpt lat="47.29265" lon="-2.24919">
        <ele>-0.60000002384186</ele>
        <time>2022-03-06T10:24:55.000Z</time>
      </trkpt>
      <trkpt lat="47.29261" lon="-2.24921">
        <ele>-0.60000002384186</ele>
        <time>2022-03-06T10:24:56.000Z</time>
      </trkpt>
      <trkpt lat="47.29256" lon="-2.24929">
        <ele>-0.60000002384186</ele>
        <time>2022-03-06T10:24:58.000Z</time>
      </trkpt>
      <trkpt lat="47.29256" lon="-2.24948">
        <ele>-0.60000002384186</ele>
        <time>2022-03-06T10:25:01.000Z</time>
      </trkpt>
      <trkpt lat="47.29257" lon="-2.24955">
        <ele>-0.60000002384186</ele>
        <time>2022-03-06T10:25:02.000Z</time>
      </trkpt>
      <trkpt lat="47.29259" lon="-2.2497">
        <ele>-0.60000002384186</ele>
        <time>2022-03-06T10:25:04.000Z</time>
      </trkpt>
      <trkpt lat="47.29265" lon="-2.24999">
        <ele>-0.60000002384186</ele>
        <time>2022-03-06T10:25:08.000Z</time>
      </trkpt>
      <trkpt lat="47.2928" lon="-2.25043">
        <ele>-0.60000002384186</ele>
        <time>2022-03-06T10:25:14.000Z</time>
      </trkpt>
      <trkpt lat="47.29293" lon="-2.25099">
        <ele>-0.60000002384186</ele>
        <time>2022-03-06T10:25:21.000Z</time>
      </trkpt>
      <trkpt lat="47.29302" lon="-2.25155">
        <ele>-1</ele>
        <time>2022-03-06T10:25:27.000Z</time>
      </trkpt>
      <trkpt lat="47.29304" lon="-2.25164">
        <ele>-1.3999999761581</ele>
        <time>2022-03-06T10:25:28.000Z</time>
      </trkpt>
      <trkpt lat="47.29305" lon="-2.25174">
        <ele>-2.4000000953674</ele>
        <time>2022-03-06T10:25:29.000Z</time>
      </trkpt>
      <trkpt lat="47.29306" lon="-2.25183">
        <ele>-2.7999999523163</ele>
        <time>2022-03-06T10:25:30.000Z</time>
      </trkpt>
      <trkpt lat="47.29308" lon="-2.25191">
        <ele>-2.7999999523163</ele>
        <time>2022-03-06T10:25:31.000Z</time>
      </trkpt>
      <trkpt lat="47.29311" lon="-2.25197">
        <ele>-2.7999999523163</ele>
        <time>2022-03-06T10:25:32.000Z</time>
      </trkpt>
      <trkpt lat="47.29319" lon="-2.25198">
        <ele>-2.7999999523163</ele>
        <time>2022-03-06T10:25:34.000Z</time>
      </trkpt>
      <trkpt lat="47.29323" lon="-2.25197">
        <ele>-2.7999999523163</ele>
        <time>2022-03-06T10:25:35.000Z</time>
      </trkpt>
      <trkpt lat="47.29338" lon="-2.25196">
        <ele>-2.7999999523163</ele>
        <time>2022-03-06T10:25:38.000Z</time>
      </trkpt>
      <trkpt lat="47.29348" lon="-2.25198">
        <ele>-2.7999999523163</ele>
        <time>2022-03-06T10:25:40.000Z</time>
      </trkpt>
      <trkpt lat="47.29384" lon="-2.25206">
        <ele>-2.7999999523163</ele>
        <time>2022-03-06T10:25:47.000Z</time>
      </trkpt>
      <trkpt lat="47.29411" lon="-2.25212">
        <ele>-2.7999999523163</ele>
        <time>2022-03-06T10:25:52.000Z</time>
      </trkpt>
      <trkpt lat="47.29416" lon="-2.25211">
        <ele>-2.7999999523163</ele>
        <time>2022-03-06T10:25:53.000Z</time>
      </trkpt>
      <trkpt lat="47.29431" lon="-2.25207">
        <ele>-2.7999999523163</ele>
        <time>2022-03-06T10:25:56.000Z</time>
      </trkpt>
      <trkpt lat="47.29441" lon="-2.25204">
        <ele>-2.7999999523163</ele>
        <time>2022-03-06T10:25:58.000Z</time>
      </trkpt>
      <trkpt lat="47.29474" lon="-2.25198">
        <ele>-2.7999999523163</ele>
        <time>2022-03-06T10:26:05.000Z</time>
      </trkpt>
      <trkpt lat="47.29506" lon="-2.25189">
        <ele>-2.7999999523163</ele>
        <time>2022-03-06T10:26:12.000Z</time>
      </trkpt>
      <trkpt lat="47.2951" lon="-2.25188">
        <ele>-2.4000000953674</ele>
        <time>2022-03-06T10:26:13.000Z</time>
      </trkpt>
      <trkpt lat="47.29514" lon="-2.25186">
        <ele>-2</ele>
        <time>2022-03-06T10:26:14.000Z</time>
      </trkpt>
      <trkpt lat="47.29518" lon="-2.25185">
        <ele>-1.6000000238419</ele>
        <time>2022-03-06T10:26:15.000Z</time>
      </trkpt>
      <trkpt lat="47.29522" lon="-2.25183">
        <ele>-1</ele>
        <time>2022-03-06T10:26:16.000Z</time>
      </trkpt>
      <trkpt lat="47.29526" lon="-2.25182">
        <ele>-0.60000002384186</ele>
        <time>2022-03-06T10:26:17.000Z</time>
      </trkpt>
      <trkpt lat="47.29534" lon="-2.2518">
        <ele>-0.60000002384186</ele>
        <time>2022-03-06T10:26:19.000Z</time>
      </trkpt>
      <trkpt lat="47.29545" lon="-2.25183">
        <ele>-0.60000002384186</ele>
        <time>2022-03-06T10:26:23.000Z</time>
      </trkpt>
      <trkpt lat="47.29547" lon="-2.25186">
        <ele>-0.60000002384186</ele>
        <time>2022-03-06T10:26:24.000Z</time>
      </trkpt>
      <trkpt lat="47.2955" lon="-2.25196">
        <ele>-0.60000002384186</ele>
        <time>2022-03-06T10:26:27.000Z</time>
      </trkpt>
      <trkpt lat="47.29548" lon="-2.25213">
        <ele>-0.60000002384186</ele>
        <time>2022-03-06T10:26:30.000Z</time>
      </trkpt>
      <trkpt lat="47.29547" lon="-2.25219">
        <ele>-0.60000002384186</ele>
        <time>2022-03-06T10:26:31.000Z</time>
      </trkpt>
      <trkpt lat="47.2954" lon="-2.25262">
        <ele>-0.60000002384186</ele>
        <time>2022-03-06T10:26:38.000Z</time>
      </trkpt>
      <trkpt lat="47.29539" lon="-2.25275">
        <ele>-0.60000002384186</ele>
        <time>2022-03-06T10:26:40.000Z</time>
      </trkpt>
      <trkpt lat="47.29545" lon="-2.25296">
        <ele>-0.60000002384186</ele>
        <time>2022-03-06T10:26:43.000Z</time>
      </trkpt>
      <trkpt lat="47.29554" lon="-2.25321">
        <ele>-0.20000000298023</ele>
        <time>2022-03-06T10:26:47.000Z</time>
      </trkpt>
      <trkpt lat="47.29556" lon="-2.25327">
        <ele>0.20000000298023</ele>
        <time>2022-03-06T10:26:48.000Z</time>
      </trkpt>
      <trkpt lat="47.29559" lon="-2.25333">
        <ele>0.60000002384186</ele>
        <time>2022-03-06T10:26:49.000Z</time>
      </trkpt>
      <trkpt lat="47.29562" lon="-2.25339">
        <ele>1</ele>
        <time>2022-03-06T10:26:50.000Z</time>
      </trkpt>
      <trkpt lat="47.29564" lon="-2.25345">
        <ele>1.6000000238419</ele>
        <time>2022-03-06T10:26:51.000Z</time>
      </trkpt>
      <trkpt lat="47.29578" lon="-2.25382">
        <ele>1.6000000238419</ele>
        <time>2022-03-06T10:26:57.000Z</time>
      </trkpt>
      <trkpt lat="47.29583" lon="-2.25408">
        <ele>1.6000000238419</ele>
        <time>2022-03-06T10:27:01.000Z</time>
      </trkpt>
      <trkpt lat="47.29585" lon="-2.25422">
        <ele>2</ele>
        <time>2022-03-06T10:27:03.000Z</time>
      </trkpt>
      <trkpt lat="47.29585" lon="-2.2543">
        <ele>2.4000000953674</ele>
        <time>2022-03-06T10:27:04.000Z</time>
      </trkpt>
      <trkpt lat="47.29586" lon="-2.25437">
        <ele>2.7999999523163</ele>
        <time>2022-03-06T10:27:05.000Z</time>
      </trkpt>
      <trkpt lat="47.29586" lon="-2.25444">
        <ele>3.2000000476837</ele>
        <time>2022-03-06T10:27:06.000Z</time>
      </trkpt>
      <trkpt lat="47.29587" lon="-2.25451">
        <ele>3.5999999046326</ele>
        <time>2022-03-06T10:27:07.000Z</time>
      </trkpt>
      <trkpt lat="47.29588" lon="-2.25488">
        <ele>3.5999999046326</ele>
        <time>2022-03-06T10:27:12.000Z</time>
      </trkpt>
      <trkpt lat="47.29587" lon="-2.25496">
        <ele>3.5999999046326</ele>
        <time>2022-03-06T10:27:13.000Z</time>
      </trkpt>
      <trkpt lat="47.29582" lon="-2.25518">
        <ele>3.5999999046326</ele>
        <time>2022-03-06T10:27:16.000Z</time>
      </trkpt>
      <trkpt lat="47.29568" lon="-2.25541">
        <ele>3.5999999046326</ele>
        <time>2022-03-06T10:27:20.000Z</time>
      </trkpt>
      <trkpt lat="47.29563" lon="-2.25545">
        <ele>4</ele>
        <time>2022-03-06T10:27:21.000Z</time>
      </trkpt>
      <trkpt lat="47.29559" lon="-2.25548">
        <ele>4.4000000953674</ele>
        <time>2022-03-06T10:27:22.000Z</time>
      </trkpt>
      <trkpt lat="47.29554" lon="-2.25552">
        <ele>4.8000001907349</ele>
        <time>2022-03-06T10:27:23.000Z</time>
      </trkpt>
      <trkpt lat="47.29549" lon="-2.25555">
        <ele>5.1999998092651</ele>
        <time>2022-03-06T10:27:24.000Z</time>
      </trkpt>
      <trkpt lat="47.29544" lon="-2.25558">
        <ele>5.5999999046326</ele>
        <time>2022-03-06T10:27:25.000Z</time>
      </trkpt>
      <trkpt lat="47.29539" lon="-2.25561">
        <ele>5.5999999046326</ele>
        <time>2022-03-06T10:27:26.000Z</time>
      </trkpt>
      <trkpt lat="47.29497" lon="-2.25589">
        <ele>5.5999999046326</ele>
        <time>2022-03-06T10:27:35.000Z</time>
      </trkpt>
      <trkpt lat="47.29488" lon="-2.25594">
        <ele>5.5999999046326</ele>
        <time>2022-03-06T10:27:37.000Z</time>
      </trkpt>
      <trkpt lat="47.29483" lon="-2.25597">
        <ele>6</ele>
        <time>2022-03-06T10:27:38.000Z</time>
      </trkpt>
      <trkpt lat="47.29478" lon="-2.25599">
        <ele>6.4000000953674</ele>
        <time>2022-03-06T10:27:39.000Z</time>
      </trkpt>
      <trkpt lat="47.29473" lon="-2.25601">
        <ele>6.8000001907349</ele>
        <time>2022-03-06T10:27:40.000Z</time>
      </trkpt>
      <trkpt lat="47.29469" lon="-2.25603">
        <ele>7.1999998092651</ele>
        <time>2022-03-06T10:27:41.000Z</time>
      </trkpt>
      <trkpt lat="47.29464" lon="-2.25605">
        <ele>7.5999999046326</ele>
        <time>2022-03-06T10:27:42.000Z</time>
      </trkpt>
      <trkpt lat="47.29439" lon="-2.25615">
        <ele>7.5999999046326</ele>
        <time>2022-03-06T10:27:48.000Z</time>
      </trkpt>
      <trkpt lat="47.29415" lon="-2.25625">
        <ele>7.5999999046326</ele>
        <time>2022-03-06T10:27:55.000Z</time>
      </trkpt>
      <trkpt lat="47.294" lon="-2.25631">
        <ele>7.5999999046326</ele>
        <time>2022-03-06T10:28:02.000Z</time>
      </trkpt>
      <trkpt lat="47.29392" lon="-2.2564">
        <ele>7.5999999046326</ele>
        <time>2022-03-06T10:28:09.000Z</time>
      </trkpt>
      <trkpt lat="47.29392" lon="-2.25642">
        <ele>7.5999999046326</ele>
        <time>2022-03-06T10:28:10.000Z</time>
      </trkpt>
      <trkpt lat="47.29394" lon="-2.25646">
        <ele>7.5999999046326</ele>
        <time>2022-03-06T10:28:14.000Z</time>
      </trkpt>
      <trkpt lat="47.29396" lon="-2.25646">
        <ele>7.5999999046326</ele>
        <time>2022-03-06T10:28:15.000Z</time>
      </trkpt>
      <trkpt lat="47.29399" lon="-2.25648">
        <ele>7.5999999046326</ele>
        <time>2022-03-06T10:28:18.000Z</time>
      </trkpt>
      <trkpt lat="47.29401" lon="-2.2565">
        <ele>7.5999999046326</ele>
        <time>2022-03-06T10:28:21.000Z</time>
      </trkpt>
      <trkpt lat="47.29411" lon="-2.2566">
        <ele>7.5999999046326</ele>
        <time>2022-03-06T10:28:29.000Z</time>
      </trkpt>
      <trkpt lat="47.29421" lon="-2.25678">
        <ele>7.5999999046326</ele>
        <time>2022-03-06T10:28:34.000Z</time>
      </trkpt>
      <trkpt lat="47.29436" lon="-2.25712">
        <ele>7.5999999046326</ele>
        <time>2022-03-06T10:28:38.000Z</time>
      </trkpt>
      <trkpt lat="47.2944" lon="-2.25721">
        <ele>7</ele>
        <time>2022-03-06T10:28:39.000Z</time>
      </trkpt>
      <trkpt lat="47.29443" lon="-2.2573">
        <ele>6.5999999046326</ele>
        <time>2022-03-06T10:28:40.000Z</time>
      </trkpt>
      <trkpt lat="47.29445" lon="-2.25739">
        <ele>6.1999998092651</ele>
        <time>2022-03-06T10:28:41.000Z</time>
      </trkpt>
      <trkpt lat="47.29447" lon="-2.25746">
        <ele>5.8000001907349</ele>
        <time>2022-03-06T10:28:42.000Z</time>
      </trkpt>
      <trkpt lat="47.29449" lon="-2.25753">
        <ele>5.1999998092651</ele>
        <time>2022-03-06T10:28:43.000Z</time>
      </trkpt>
      <trkpt lat="47.2945" lon="-2.25759">
        <ele>4.5999999046326</ele>
        <time>2022-03-06T10:28:44.000Z</time>
      </trkpt>
      <trkpt lat="47.29451" lon="-2.25764">
        <ele>4</ele>
        <time>2022-03-06T10:28:45.000Z</time>
      </trkpt>
      <trkpt lat="47.29452" lon="-2.25768">
        <ele>3.4000000953674</ele>
        <time>2022-03-06T10:28:46.000Z</time>
      </trkpt>
      <trkpt lat="47.29452" lon="-2.25771">
        <ele>2.4000000953674</ele>
        <time>2022-03-06T10:28:47.000Z</time>
      </trkpt>
      <trkpt lat="47.29451" lon="-2.25773">
        <ele>2</ele>
        <time>2022-03-06T10:28:48.000Z</time>
      </trkpt>
      <trkpt lat="47.29449" lon="-2.25775">
        <ele>1.6000000238419</ele>
        <time>2022-03-06T10:28:49.000Z</time>
      </trkpt>
      <trkpt lat="47.29447" lon="-2.25777">
        <ele>1.2000000476837</ele>
        <time>2022-03-06T10:28:50.000Z</time>
      </trkpt>
      <trkpt lat="47.29445" lon="-2.25778">
        <ele>0.80000001192093</ele>
        <time>2022-03-06T10:28:51.000Z</time>
      </trkpt>
      <trkpt lat="47.2944" lon="-2.2578">
        <ele>0.80000001192093</ele>
        <time>2022-03-06T10:28:53.000Z</time>
      </trkpt>
      <trkpt lat="47.29437" lon="-2.25783">
        <ele>0.80000001192093</ele>
        <time>2022-03-06T10:28:54.000Z</time>
      </trkpt>
      <trkpt lat="47.29432" lon="-2.25792">
        <ele>0.80000001192093</ele>
        <time>2022-03-06T10:28:57.000Z</time>
      </trkpt>
      <trkpt lat="47.29433" lon="-2.25795">
        <ele>0.80000001192093</ele>
        <time>2022-03-06T10:28:58.000Z</time>
      </trkpt>
      <trkpt lat="47.29434" lon="-2.25819">
        <ele>0.80000001192093</ele>
        <time>2022-03-06T10:29:03.000Z</time>
      </trkpt>
      <trkpt lat="47.29429" lon="-2.25839">
        <ele>0.80000001192093</ele>
        <time>2022-03-06T10:29:08.000Z</time>
      </trkpt>
      <trkpt lat="47.2943" lon="-2.25842">
        <ele>0.80000001192093</ele>
        <time>2022-03-06T10:29:09.000Z</time>
      </trkpt>
      <trkpt lat="47.29434" lon="-2.25848">
        <ele>0.80000001192093</ele>
        <time>2022-03-06T10:29:11.000Z</time>
      </trkpt>
      <trkpt lat="47.29439" lon="-2.25863">
        <ele>0.80000001192093</ele>
        <time>2022-03-06T10:29:17.000Z</time>
      </trkpt>
      <trkpt lat="47.2944" lon="-2.25866">
        <ele>0.80000001192093</ele>
        <time>2022-03-06T10:29:18.000Z</time>
      </trkpt>
      <trkpt lat="47.2944" lon="-2.25883">
        <ele>0.80000001192093</ele>
        <time>2022-03-06T10:29:25.000Z</time>
      </trkpt>
      <trkpt lat="47.29441" lon="-2.2589">
        <ele>0.80000001192093</ele>
        <time>2022-03-06T10:29:27.000Z</time>
      </trkpt>
      <trkpt lat="47.29444" lon="-2.25911">
        <ele>0.80000001192093</ele>
        <time>2022-03-06T10:29:32.000Z</time>
      </trkpt>
      <trkpt lat="47.29445" lon="-2.25926">
        <ele>0.80000001192093</ele>
        <time>2022-03-06T10:29:36.000Z</time>
      </trkpt>
      <trkpt lat="47.29443" lon="-2.25928">
        <ele>0.80000001192093</ele>
        <time>2022-03-06T10:29:37.000Z</time>
      </trkpt>
      <trkpt lat="47.29427" lon="-2.25942">
        <ele>0.80000001192093</ele>
        <time>2022-03-06T10:29:43.000Z</time>
      </trkpt>
      <trkpt lat="47.29409" lon="-2.2595">
        <ele>0.80000001192093</ele>
        <time>2022-03-06T10:29:48.000Z</time>
      </trkpt>
      <trkpt lat="47.294" lon="-2.25948">
        <ele>1.2000000476837</ele>
        <time>2022-03-06T10:29:51.000Z</time>
      </trkpt>
      <trkpt lat="47.29398" lon="-2.25951">
        <ele>1.6000000238419</ele>
        <time>2022-03-06T10:29:52.000Z</time>
      </trkpt>
      <trkpt lat="47.29395" lon="-2.25954">
        <ele>2</ele>
        <time>2022-03-06T10:29:53.000Z</time>
      </trkpt>
      <trkpt lat="47.29394" lon="-2.25958">
        <ele>2.4000000953674</ele>
        <time>2022-03-06T10:29:54.000Z</time>
      </trkpt>
      <trkpt lat="47.29394" lon="-2.25962">
        <ele>2.7999999523163</ele>
        <time>2022-03-06T10:29:55.000Z</time>
      </trkpt>
      <trkpt lat="47.29394" lon="-2.25968">
        <ele>2.7999999523163</ele>
        <time>2022-03-06T10:29:56.000Z</time>
      </trkpt>
      <trkpt lat="47.29395" lon="-2.25974">
        <ele>2.7999999523163</ele>
        <time>2022-03-06T10:29:57.000Z</time>
      </trkpt>
      <trkpt lat="47.29394" lon="-2.26001">
        <ele>2.7999999523163</ele>
        <time>2022-03-06T10:30:01.000Z</time>
      </trkpt>
      <trkpt lat="47.29392" lon="-2.26015">
        <ele>2.4000000953674</ele>
        <time>2022-03-06T10:30:03.000Z</time>
      </trkpt>
      <trkpt lat="47.29392" lon="-2.26021">
        <ele>2</ele>
        <time>2022-03-06T10:30:04.000Z</time>
      </trkpt>
      <trkpt lat="47.29392" lon="-2.26026">
        <ele>1.6000000238419</ele>
        <time>2022-03-06T10:30:05.000Z</time>
      </trkpt>
      <trkpt lat="47.29393" lon="-2.26031">
        <ele>1.2000000476837</ele>
        <time>2022-03-06T10:30:06.000Z</time>
      </trkpt>
      <trkpt lat="47.29395" lon="-2.26035">
        <ele>0.80000001192093</ele>
        <time>2022-03-06T10:30:07.000Z</time>
      </trkpt>
      <trkpt lat="47.29404" lon="-2.2605">
        <ele>0.80000001192093</ele>
        <time>2022-03-06T10:30:11.000Z</time>
      </trkpt>
      <trkpt lat="47.29412" lon="-2.26067">
        <ele>0.80000001192093</ele>
        <time>2022-03-06T10:30:16.000Z</time>
      </trkpt>
      <trkpt lat="47.29419" lon="-2.26097">
        <ele>0.80000001192093</ele>
        <time>2022-03-06T10:30:21.000Z</time>
      </trkpt>
      <trkpt lat="47.29417" lon="-2.26121">
        <ele>0.80000001192093</ele>
        <time>2022-03-06T10:30:25.000Z</time>
      </trkpt>
      <trkpt lat="47.29414" lon="-2.26151">
        <ele>1.2000000476837</ele>
        <time>2022-03-06T10:30:31.000Z</time>
      </trkpt>
      <trkpt lat="47.29413" lon="-2.26157">
        <ele>1.6000000238419</ele>
        <time>2022-03-06T10:30:32.000Z</time>
      </trkpt>
      <trkpt lat="47.29413" lon="-2.26161">
        <ele>2</ele>
        <time>2022-03-06T10:30:33.000Z</time>
      </trkpt>
      <trkpt lat="47.29412" lon="-2.26164">
        <ele>2.4000000953674</ele>
        <time>2022-03-06T10:30:34.000Z</time>
      </trkpt>
      <trkpt lat="47.29411" lon="-2.26167">
        <ele>3</ele>
        <time>2022-03-06T10:30:35.000Z</time>
      </trkpt>
      <trkpt lat="47.2941" lon="-2.26169">
        <ele>3</ele>
        <time>2022-03-06T10:30:36.000Z</time>
      </trkpt>
      <trkpt lat="47.29395" lon="-2.26165">
        <ele>3.4000000953674</ele>
        <time>2022-03-06T10:30:40.000Z</time>
      </trkpt>
      <trkpt lat="47.29392" lon="-2.26165">
        <ele>3.7999999523163</ele>
        <time>2022-03-06T10:30:41.000Z</time>
      </trkpt>
      <trkpt lat="47.29389" lon="-2.26164">
        <ele>4.1999998092651</ele>
        <time>2022-03-06T10:30:42.000Z</time>
      </trkpt>
      <trkpt lat="47.29385" lon="-2.26163">
        <ele>4.5999999046326</ele>
        <time>2022-03-06T10:30:43.000Z</time>
      </trkpt>
      <trkpt lat="47.29381" lon="-2.26163">
        <ele>5</ele>
        <time>2022-03-06T10:30:44.000Z</time>
      </trkpt>
      <trkpt lat="47.29374" lon="-2.26165">
        <ele>5</ele>
        <time>2022-03-06T10:30:46.000Z</time>
      </trkpt>
      <trkpt lat="47.29355" lon="-2.26167">
        <ele>5</ele>
        <time>2022-03-06T10:30:52.000Z</time>
      </trkpt>
      <trkpt lat="47.29352" lon="-2.26167">
        <ele>5.4000000953674</ele>
        <time>2022-03-06T10:30:53.000Z</time>
      </trkpt>
      <trkpt lat="47.29349" lon="-2.26167">
        <ele>5.8000001907349</ele>
        <time>2022-03-06T10:30:54.000Z</time>
      </trkpt>
      <trkpt lat="47.29346" lon="-2.26166">
        <ele>6.1999998092651</ele>
        <time>2022-03-06T10:30:55.000Z</time>
      </trkpt>
      <trkpt lat="47.29343" lon="-2.26166">
        <ele>6.5999999046326</ele>
        <time>2022-03-06T10:30:56.000Z</time>
      </trkpt>
      <trkpt lat="47.29341" lon="-2.26168">
        <ele>7</ele>
        <time>2022-03-06T10:30:57.000Z</time>
      </trkpt>
      <trkpt lat="47.29338" lon="-2.26169">
        <ele>7</ele>
        <time>2022-03-06T10:30:58.000Z</time>
      </trkpt>
      <trkpt lat="47.29323" lon="-2.26174">
        <ele>7</ele>
        <time>2022-03-06T10:31:04.000Z</time>
      </trkpt>
      <trkpt lat="47.29322" lon="-2.26175">
        <ele>7</ele>
        <time>2022-03-06T10:31:05.000Z</time>
      </trkpt>
      <trkpt lat="47.2932" lon="-2.26175">
        <ele>7.4000000953674</ele>
        <time>2022-03-06T10:31:06.000Z</time>
      </trkpt>
      <trkpt lat="47.29319" lon="-2.26177">
        <ele>7.8000001907349</ele>
        <time>2022-03-06T10:31:07.000Z</time>
      </trkpt>
      <trkpt lat="47.29318" lon="-2.26178">
        <ele>8.1999998092651</ele>
        <time>2022-03-06T10:31:08.000Z</time>
      </trkpt>
      <trkpt lat="47.29317" lon="-2.26181">
        <ele>8.6000003814697</ele>
        <time>2022-03-06T10:31:09.000Z</time>
      </trkpt>
      <trkpt lat="47.29316" lon="-2.26183">
        <ele>9</ele>
        <time>2022-03-06T10:31:10.000Z</time>
      </trkpt>
      <trkpt lat="47.29313" lon="-2.26184">
        <ele>9</ele>
        <time>2022-03-06T10:31:12.000Z</time>
      </trkpt>
      <trkpt lat="47.29306" lon="-2.26183">
        <ele>9</ele>
        <time>2022-03-06T10:31:14.000Z</time>
      </trkpt>
      <trkpt lat="47.29292" lon="-2.26184">
        <ele>9</ele>
        <time>2022-03-06T10:31:18.000Z</time>
      </trkpt>
      <trkpt lat="47.29284" lon="-2.26182">
        <ele>9</ele>
        <time>2022-03-06T10:31:20.000Z</time>
      </trkpt>
      <trkpt lat="47.29268" lon="-2.26179">
        <ele>9</ele>
        <time>2022-03-06T10:31:25.000Z</time>
      </trkpt>
      <trkpt lat="47.29264" lon="-2.26174">
        <ele>9</ele>
        <time>2022-03-06T10:31:26.000Z</time>
      </trkpt>
      <trkpt lat="47.29259" lon="-2.26158">
        <ele>9</ele>
        <time>2022-03-06T10:31:29.000Z</time>
      </trkpt>
      <trkpt lat="47.29255" lon="-2.26143">
        <ele>9</ele>
        <time>2022-03-06T10:31:32.000Z</time>
      </trkpt>
      <trkpt lat="47.29243" lon="-2.2611">
        <ele>9</ele>
        <time>2022-03-06T10:31:39.000Z</time>
      </trkpt>
      <trkpt lat="47.29243" lon="-2.26088">
        <ele>9</ele>
        <time>2022-03-06T10:31:44.000Z</time>
      </trkpt>
      <trkpt lat="47.29261" lon="-2.26073">
        <ele>9</ele>
        <time>2022-03-06T10:31:49.000Z</time>
      </trkpt>
      <trkpt lat="47.29282" lon="-2.26062">
        <ele>9</ele>
        <time>2022-03-06T10:31:54.000Z</time>
      </trkpt>
      <trkpt lat="47.29285" lon="-2.26056">
        <ele>9</ele>
        <time>2022-03-06T10:31:56.000Z</time>
      </trkpt>
      <trkpt lat="47.29285" lon="-2.2605">
        <ele>9</ele>
        <time>2022-03-06T10:31:58.000Z</time>
      </trkpt>
      <trkpt lat="47.29277" lon="-2.26032">
        <ele>9</ele>
        <time>2022-03-06T10:32:02.000Z</time>
      </trkpt>
      <trkpt lat="47.29274" lon="-2.26027">
        <ele>9</ele>
        <time>2022-03-06T10:32:03.000Z</time>
      </trkpt>
      <trkpt lat="47.29273" lon="-2.25997">
        <ele>9</ele>
        <time>2022-03-06T10:32:09.000Z</time>
      </trkpt>
      <trkpt lat="47.29279" lon="-2.25989">
        <ele>8.6000003814697</ele>
        <time>2022-03-06T10:32:11.000Z</time>
      </trkpt>
      <trkpt lat="47.29281" lon="-2.25981">
        <ele>8.1999998092651</ele>
        <time>2022-03-06T10:32:12.000Z</time>
      </trkpt>
      <trkpt lat="47.29284" lon="-2.25976">
        <ele>7.8000001907349</ele>
        <time>2022-03-06T10:32:13.000Z</time>
      </trkpt>
      <trkpt lat="47.29288" lon="-2.25973">
        <ele>7.4000000953674</ele>
        <time>2022-03-06T10:32:14.000Z</time>
      </trkpt>
      <trkpt lat="47.29291" lon="-2.25972">
        <ele>7</ele>
        <time>2022-03-06T10:32:15.000Z</time>
      </trkpt>
      <trkpt lat="47.2931" lon="-2.25968">
        <ele>7</ele>
        <time>2022-03-06T10:32:19.000Z</time>
      </trkpt>
      <trkpt lat="47.29327" lon="-2.25948">
        <ele>7</ele>
        <time>2022-03-06T10:32:24.000Z</time>
      </trkpt>
      <trkpt lat="47.2933" lon="-2.2594">
        <ele>7</ele>
        <time>2022-03-06T10:32:26.000Z</time>
      </trkpt>
      <trkpt lat="47.29326" lon="-2.25928">
        <ele>7</ele>
        <time>2022-03-06T10:32:28.000Z</time>
      </trkpt>
      <trkpt lat="47.29319" lon="-2.25917">
        <ele>7</ele>
        <time>2022-03-06T10:32:31.000Z</time>
      </trkpt>
      <trkpt lat="47.29317" lon="-2.25916">
        <ele>7</ele>
        <time>2022-03-06T10:32:32.000Z</time>
      </trkpt>
      <trkpt lat="47.29314" lon="-2.25915">
        <ele>7</ele>
        <time>2022-03-06T10:32:34.000Z</time>
      </trkpt>
      <trkpt lat="47.29312" lon="-2.25916">
        <ele>7</ele>
        <time>2022-03-06T10:32:35.000Z</time>
      </trkpt>
      <trkpt lat="47.29298" lon="-2.25927">
        <ele>7</ele>
        <time>2022-03-06T10:32:42.000Z</time>
      </trkpt>
      <trkpt lat="47.29285" lon="-2.25944">
        <ele>7</ele>
        <time>2022-03-06T10:32:47.000Z</time>
      </trkpt>
      <trkpt lat="47.29266" lon="-2.25971">
        <ele>7</ele>
        <time>2022-03-06T10:32:55.000Z</time>
      </trkpt>
      <trkpt lat="47.29244" lon="-2.25981">
        <ele>7</ele>
        <time>2022-03-06T10:32:59.000Z</time>
      </trkpt>
      <trkpt lat="47.29213" lon="-2.2599">
        <ele>7</ele>
        <time>2022-03-06T10:33:04.000Z</time>
      </trkpt>
      <trkpt lat="47.29201" lon="-2.25992">
        <ele>7</ele>
        <time>2022-03-06T10:33:06.000Z</time>
      </trkpt>
      <trkpt lat="47.29173" lon="-2.25984">
        <ele>7</ele>
        <time>2022-03-06T10:33:09.000Z</time>
      </trkpt>
      <trkpt lat="47.29134" lon="-2.25974">
        <ele>7</ele>
        <time>2022-03-06T10:33:15.000Z</time>
      </trkpt>
      <trkpt lat="47.29107" lon="-2.25975">
        <ele>7</ele>
        <time>2022-03-06T10:33:20.000Z</time>
      </trkpt>
      <trkpt lat="47.29098" lon="-2.25987">
        <ele>7</ele>
        <time>2022-03-06T10:33:23.000Z</time>
      </trkpt>
      <trkpt lat="47.29089" lon="-2.25998">
        <ele>7</ele>
        <time>2022-03-06T10:33:27.000Z</time>
      </trkpt>
      <trkpt lat="47.29091" lon="-2.26013">
        <ele>7</ele>
        <time>2022-03-06T10:33:31.000Z</time>
      </trkpt>
      <trkpt lat="47.29096" lon="-2.26027">
        <ele>7</ele>
        <time>2022-03-06T10:33:34.000Z</time>
      </trkpt>
      <trkpt lat="47.291" lon="-2.26037">
        <ele>7</ele>
        <time>2022-03-06T10:33:36.000Z</time>
      </trkpt>
      <trkpt lat="47.29107" lon="-2.26066">
        <ele>7</ele>
        <time>2022-03-06T10:33:41.000Z</time>
      </trkpt>
      <trkpt lat="47.2911" lon="-2.26085">
        <ele>7</ele>
        <time>2022-03-06T10:33:44.000Z</time>
      </trkpt>
      <trkpt lat="47.29112" lon="-2.26094">
        <ele>7</ele>
        <time>2022-03-06T10:33:46.000Z</time>
      </trkpt>
      <trkpt lat="47.29114" lon="-2.26103">
        <ele>7</ele>
        <time>2022-03-06T10:33:48.000Z</time>
      </trkpt>
      <trkpt lat="47.29117" lon="-2.26109">
        <ele>7</ele>
        <time>2022-03-06T10:33:51.000Z</time>
      </trkpt>
      <trkpt lat="47.29118" lon="-2.26111">
        <ele>7.4000000953674</ele>
        <time>2022-03-06T10:33:53.000Z</time>
      </trkpt>
      <trkpt lat="47.29119" lon="-2.26113">
        <ele>7.8000001907349</ele>
        <time>2022-03-06T10:33:54.000Z</time>
      </trkpt>
      <trkpt lat="47.29119" lon="-2.26114">
        <ele>8.1999998092651</ele>
        <time>2022-03-06T10:33:55.000Z</time>
      </trkpt>
      <trkpt lat="47.29119" lon="-2.26116">
        <ele>8.6000003814697</ele>
        <time>2022-03-06T10:33:56.000Z</time>
      </trkpt>
      <trkpt lat="47.29119" lon="-2.26117">
        <ele>9</ele>
        <time>2022-03-06T10:33:57.000Z</time>
      </trkpt>
      <trkpt lat="47.29118" lon="-2.26122">
        <ele>9</ele>
        <time>2022-03-06T10:34:01.000Z</time>
      </trkpt>
      <trkpt lat="47.29116" lon="-2.26123">
        <ele>9</ele>
        <time>2022-03-06T10:34:08.000Z</time>
      </trkpt>
      <trkpt lat="47.29108" lon="-2.26119">
        <ele>9</ele>
        <time>2022-03-06T10:34:12.000Z</time>
      </trkpt>
      <trkpt lat="47.29099" lon="-2.26128">
        <ele>9</ele>
        <time>2022-03-06T10:34:15.000Z</time>
      </trkpt>
      <trkpt lat="47.29097" lon="-2.26146">
        <ele>9</ele>
        <time>2022-03-06T10:34:18.000Z</time>
      </trkpt>
      <trkpt lat="47.29097" lon="-2.26153">
        <ele>9</ele>
        <time>2022-03-06T10:34:19.000Z</time>
      </trkpt>
      <trkpt lat="47.2909" lon="-2.26205">
        <ele>9</ele>
        <time>2022-03-06T10:34:26.000Z</time>
      </trkpt>
      <trkpt lat="47.29082" lon="-2.26252">
        <ele>9</ele>
        <time>2022-03-06T10:34:32.000Z</time>
      </trkpt>
      <trkpt lat="47.29068" lon="-2.26314">
        <ele>9</ele>
        <time>2022-03-06T10:34:40.000Z</time>
      </trkpt>
      <trkpt lat="47.29059" lon="-2.26333">
        <ele>9.3999996185303</ele>
        <time>2022-03-06T10:34:43.000Z</time>
      </trkpt>
      <trkpt lat="47.29054" lon="-2.26339">
        <ele>9.8000001907349</ele>
        <time>2022-03-06T10:34:44.000Z</time>
      </trkpt>
      <trkpt lat="47.2905" lon="-2.26344">
        <ele>10.199999809265</ele>
        <time>2022-03-06T10:34:45.000Z</time>
      </trkpt>
      <trkpt lat="47.29046" lon="-2.26348">
        <ele>10.60000038147</ele>
        <time>2022-03-06T10:34:46.000Z</time>
      </trkpt>
      <trkpt lat="47.29041" lon="-2.26353">
        <ele>11</ele>
        <time>2022-03-06T10:34:47.000Z</time>
      </trkpt>
      <trkpt lat="47.29022" lon="-2.26369">
        <ele>11</ele>
        <time>2022-03-06T10:34:51.000Z</time>
      </trkpt>
      <trkpt lat="47.29013" lon="-2.26388">
        <ele>11</ele>
        <time>2022-03-06T10:34:54.000Z</time>
      </trkpt>
      <trkpt lat="47.29013" lon="-2.26412">
        <ele>11</ele>
        <time>2022-03-06T10:34:57.000Z</time>
      </trkpt>
      <trkpt lat="47.29016" lon="-2.26433">
        <ele>11</ele>
        <time>2022-03-06T10:34:59.000Z</time>
      </trkpt>
      <trkpt lat="47.29018" lon="-2.26456">
        <ele>11</ele>
        <time>2022-03-06T10:35:01.000Z</time>
      </trkpt>
      <trkpt lat="47.29019" lon="-2.26467">
        <ele>10.60000038147</ele>
        <time>2022-03-06T10:35:02.000Z</time>
      </trkpt>
      <trkpt lat="47.2902" lon="-2.26478">
        <ele>10.199999809265</ele>
        <time>2022-03-06T10:35:03.000Z</time>
      </trkpt>
      <trkpt lat="47.29021" lon="-2.2649">
        <ele>9.8000001907349</ele>
        <time>2022-03-06T10:35:04.000Z</time>
      </trkpt>
      <trkpt lat="47.29023" lon="-2.26501">
        <ele>9.3999996185303</ele>
        <time>2022-03-06T10:35:05.000Z</time>
      </trkpt>
      <trkpt lat="47.29025" lon="-2.26512">
        <ele>9</ele>
        <time>2022-03-06T10:35:06.000Z</time>
      </trkpt>
      <trkpt lat="47.29028" lon="-2.26523">
        <ele>9</ele>
        <time>2022-03-06T10:35:07.000Z</time>
      </trkpt>
      <trkpt lat="47.29032" lon="-2.26533">
        <ele>9</ele>
        <time>2022-03-06T10:35:08.000Z</time>
      </trkpt>
      <trkpt lat="47.29042" lon="-2.26568">
        <ele>9</ele>
        <time>2022-03-06T10:35:12.000Z</time>
      </trkpt>
      <trkpt lat="47.29045" lon="-2.26591">
        <ele>9</ele>
        <time>2022-03-06T10:35:15.000Z</time>
      </trkpt>
      <trkpt lat="47.29046" lon="-2.26599">
        <ele>9</ele>
        <time>2022-03-06T10:35:16.000Z</time>
      </trkpt>
      <trkpt lat="47.29049" lon="-2.26659">
        <ele>8.3999996185303</ele>
        <time>2022-03-06T10:35:23.000Z</time>
      </trkpt>
      <trkpt lat="47.2905" lon="-2.26669">
        <ele>8</ele>
        <time>2022-03-06T10:35:24.000Z</time>
      </trkpt>
      <trkpt lat="47.29051" lon="-2.26678">
        <ele>7.5999999046326</ele>
        <time>2022-03-06T10:35:25.000Z</time>
      </trkpt>
      <trkpt lat="47.29052" lon="-2.26689">
        <ele>7.1999998092651</ele>
        <time>2022-03-06T10:35:26.000Z</time>
      </trkpt>
      <trkpt lat="47.29054" lon="-2.267">
        <ele>6.8000001907349</ele>
        <time>2022-03-06T10:35:27.000Z</time>
      </trkpt>
      <trkpt lat="47.29057" lon="-2.26724">
        <ele>6.1999998092651</ele>
        <time>2022-03-06T10:35:29.000Z</time>
      </trkpt>
      <trkpt lat="47.29059" lon="-2.26736">
        <ele>5.8000001907349</ele>
        <time>2022-03-06T10:35:30.000Z</time>
      </trkpt>
      <trkpt lat="47.29061" lon="-2.26748">
        <ele>5.4000000953674</ele>
        <time>2022-03-06T10:35:31.000Z</time>
      </trkpt>
      <trkpt lat="47.29062" lon="-2.2676">
        <ele>5</ele>
        <time>2022-03-06T10:35:32.000Z</time>
      </trkpt>
      <trkpt lat="47.29064" lon="-2.26772">
        <ele>4.5999999046326</ele>
        <time>2022-03-06T10:35:33.000Z</time>
      </trkpt>
      <trkpt lat="47.29065" lon="-2.26785">
        <ele>4.1999998092651</ele>
        <time>2022-03-06T10:35:34.000Z</time>
      </trkpt>
      <trkpt lat="47.29066" lon="-2.26798">
        <ele>3.7999999523163</ele>
        <time>2022-03-06T10:35:35.000Z</time>
      </trkpt>
      <trkpt lat="47.29067" lon="-2.26811">
        <ele>3.4000000953674</ele>
        <time>2022-03-06T10:35:36.000Z</time>
      </trkpt>
      <trkpt lat="47.29066" lon="-2.26825">
        <ele>3</ele>
        <time>2022-03-06T10:35:37.000Z</time>
      </trkpt>
      <trkpt lat="47.29065" lon="-2.26838">
        <ele>2.5999999046326</ele>
        <time>2022-03-06T10:35:38.000Z</time>
      </trkpt>
      <trkpt lat="47.29064" lon="-2.2685">
        <ele>2.5999999046326</ele>
        <time>2022-03-06T10:35:39.000Z</time>
      </trkpt>
      <trkpt lat="47.29061" lon="-2.26919">
        <ele>1.6000000238419</ele>
        <time>2022-03-06T10:35:45.000Z</time>
      </trkpt>
      <trkpt lat="47.2906" lon="-2.2693">
        <ele>1.2000000476837</ele>
        <time>2022-03-06T10:35:46.000Z</time>
      </trkpt>
      <trkpt lat="47.2906" lon="-2.26941">
        <ele>0.80000001192093</ele>
        <time>2022-03-06T10:35:47.000Z</time>
      </trkpt>
      <trkpt lat="47.2906" lon="-2.26952">
        <ele>0.40000000596046</ele>
        <time>2022-03-06T10:35:48.000Z</time>
      </trkpt>
      <trkpt lat="47.29058" lon="-2.26992">
        <ele>0.40000000596046</ele>
        <time>2022-03-06T10:35:52.000Z</time>
      </trkpt>
      <trkpt lat="47.29056" lon="-2.27017">
        <ele>0.40000000596046</ele>
        <time>2022-03-06T10:35:55.000Z</time>
      </trkpt>
      <trkpt lat="47.29062" lon="-2.27033">
        <ele>0.40000000596046</ele>
        <time>2022-03-06T10:35:57.000Z</time>
      </trkpt>
      <trkpt lat="47.29064" lon="-2.27058">
        <ele>0.40000000596046</ele>
        <time>2022-03-06T10:36:01.000Z</time>
      </trkpt>
      <trkpt lat="47.29063" lon="-2.27064">
        <ele>0.40000000596046</ele>
        <time>2022-03-06T10:36:02.000Z</time>
      </trkpt>
      <trkpt lat="47.29054" lon="-2.27083">
        <ele>0.40000000596046</ele>
        <time>2022-03-06T10:36:06.000Z</time>
      </trkpt>
      <trkpt lat="47.29041" lon="-2.27099">
        <ele>0.40000000596046</ele>
        <time>2022-03-06T10:36:11.000Z</time>
      </trkpt>
      <trkpt lat="47.29031" lon="-2.27115">
        <ele>0.40000000596046</ele>
        <time>2022-03-06T10:36:15.000Z</time>
      </trkpt>
      <trkpt lat="47.29031" lon="-2.27119">
        <ele>0.40000000596046</ele>
        <time>2022-03-06T10:36:16.000Z</time>
      </trkpt>
      <trkpt lat="47.29039" lon="-2.27132">
        <ele>0.40000000596046</ele>
        <time>2022-03-06T10:36:20.000Z</time>
      </trkpt>
      <trkpt lat="47.29049" lon="-2.27143">
        <ele>0.40000000596046</ele>
        <time>2022-03-06T10:36:23.000Z</time>
      </trkpt>
      <trkpt lat="47.29054" lon="-2.27151">
        <ele>0.40000000596046</ele>
        <time>2022-03-06T10:36:25.000Z</time>
      </trkpt>
      <trkpt lat="47.29057" lon="-2.27156">
        <ele>0.80000001192093</ele>
        <time>2022-03-06T10:36:26.000Z</time>
      </trkpt>
      <trkpt lat="47.2906" lon="-2.27161">
        <ele>1.2000000476837</ele>
        <time>2022-03-06T10:36:27.000Z</time>
      </trkpt>
      <trkpt lat="47.29062" lon="-2.27167">
        <ele>1.6000000238419</ele>
        <time>2022-03-06T10:36:28.000Z</time>
      </trkpt>
      <trkpt lat="47.29064" lon="-2.27172">
        <ele>2</ele>
        <time>2022-03-06T10:36:29.000Z</time>
      </trkpt>
      <trkpt lat="47.29066" lon="-2.27179">
        <ele>2.4000000953674</ele>
        <time>2022-03-06T10:36:30.000Z</time>
      </trkpt>
      <trkpt lat="47.29079" lon="-2.27193">
        <ele>2.4000000953674</ele>
        <time>2022-03-06T10:36:33.000Z</time>
      </trkpt>
      <trkpt lat="47.29083" lon="-2.27196">
        <ele>2</ele>
        <time>2022-03-06T10:36:34.000Z</time>
      </trkpt>
      <trkpt lat="47.29088" lon="-2.27198">
        <ele>1.3999999761581</ele>
        <time>2022-03-06T10:36:35.000Z</time>
      </trkpt>
      <trkpt lat="47.29092" lon="-2.27197">
        <ele>1</ele>
        <time>2022-03-06T10:36:36.000Z</time>
      </trkpt>
      <trkpt lat="47.29095" lon="-2.27197">
        <ele>0.60000002384186</ele>
        <time>2022-03-06T10:36:37.000Z</time>
      </trkpt>
      <trkpt lat="47.29098" lon="-2.27198">
        <ele>0.20000000298023</ele>
        <time>2022-03-06T10:36:38.000Z</time>
      </trkpt>
      <trkpt lat="47.29104" lon="-2.27197">
        <ele>0.20000000298023</ele>
        <time>2022-03-06T10:36:40.000Z</time>
      </trkpt>
      <trkpt lat="47.29109" lon="-2.27197">
        <ele>0.20000000298023</ele>
        <time>2022-03-06T10:36:44.000Z</time>
      </trkpt>
      <trkpt lat="47.29111" lon="-2.27198">
        <ele>0.20000000298023</ele>
        <time>2022-03-06T10:36:46.000Z</time>
      </trkpt>
      <trkpt lat="47.29111" lon="-2.27213">
        <ele>0.20000000298023</ele>
        <time>2022-03-06T10:36:54.000Z</time>
      </trkpt>
      <trkpt lat="47.29112" lon="-2.27215">
        <ele>0.20000000298023</ele>
        <time>2022-03-06T10:36:55.000Z</time>
      </trkpt>
      <trkpt lat="47.29109" lon="-2.2723">
        <ele>0.20000000298023</ele>
        <time>2022-03-06T10:36:59.000Z</time>
      </trkpt>
      <trkpt lat="47.29108" lon="-2.2724">
        <ele>0.20000000298023</ele>
        <time>2022-03-06T10:37:01.000Z</time>
      </trkpt>
      <trkpt lat="47.29106" lon="-2.27255">
        <ele>0.20000000298023</ele>
        <time>2022-03-06T10:37:04.000Z</time>
      </trkpt>
      <trkpt lat="47.29104" lon="-2.2728">
        <ele>0.20000000298023</ele>
        <time>2022-03-06T10:37:09.000Z</time>
      </trkpt>
      <trkpt lat="47.29102" lon="-2.27303">
        <ele>0.20000000298023</ele>
        <time>2022-03-06T10:37:13.000Z</time>
      </trkpt>
      <trkpt lat="47.29093" lon="-2.27337">
        <ele>0.20000000298023</ele>
        <time>2022-03-06T10:37:19.000Z</time>
      </trkpt>
      <trkpt lat="47.29094" lon="-2.27341">
        <ele>0.20000000298023</ele>
        <time>2022-03-06T10:37:20.000Z</time>
      </trkpt>
      <trkpt lat="47.29098" lon="-2.27351">
        <ele>0.20000000298023</ele>
        <time>2022-03-06T10:37:23.000Z</time>
      </trkpt>
      <trkpt lat="47.29103" lon="-2.27375">
        <ele>0.20000000298023</ele>
        <time>2022-03-06T10:37:27.000Z</time>
      </trkpt>
      <trkpt lat="47.29109" lon="-2.27414">
        <ele>0.20000000298023</ele>
        <time>2022-03-06T10:37:32.000Z</time>
      </trkpt>
      <trkpt lat="47.29108" lon="-2.27439">
        <ele>0.20000000298023</ele>
        <time>2022-03-06T10:37:35.000Z</time>
      </trkpt>
      <trkpt lat="47.29108" lon="-2.27463">
        <ele>0.20000000298023</ele>
        <time>2022-03-06T10:37:38.000Z</time>
      </trkpt>
      <trkpt lat="47.29106" lon="-2.27501">
        <ele>0.20000000298023</ele>
        <time>2022-03-06T10:37:44.000Z</time>
      </trkpt>
      <trkpt lat="47.29104" lon="-2.27518">
        <ele>0.20000000298023</ele>
        <time>2022-03-06T10:37:49.000Z</time>
      </trkpt>
      <trkpt lat="47.29102" lon="-2.27528">
        <ele>0.20000000298023</ele>
        <time>2022-03-06T10:37:54.000Z</time>
      </trkpt>
      <trkpt lat="47.29099" lon="-2.27529">
        <ele>0.20000000298023</ele>
        <time>2022-03-06T10:37:55.000Z</time>
      </trkpt>
      <trkpt lat="47.29091" lon="-2.27529">
        <ele>0.20000000298023</ele>
        <time>2022-03-06T10:37:58.000Z</time>
      </trkpt>
      <trkpt lat="47.29084" lon="-2.2753">
        <ele>0.20000000298023</ele>
        <time>2022-03-06T10:38:00.000Z</time>
      </trkpt>
      <trkpt lat="47.29063" lon="-2.27529">
        <ele>0.20000000298023</ele>
        <time>2022-03-06T10:38:06.000Z</time>
      </trkpt>
      <trkpt lat="47.29037" lon="-2.27528">
        <ele>0.20000000298023</ele>
        <time>2022-03-06T10:38:11.000Z</time>
      </trkpt>
      <trkpt lat="47.29031" lon="-2.27528">
        <ele>0.20000000298023</ele>
        <time>2022-03-06T10:38:12.000Z</time>
      </trkpt>
      <trkpt lat="47.28986" lon="-2.27527">
        <ele>0.20000000298023</ele>
        <time>2022-03-06T10:38:21.000Z</time>
      </trkpt>
      <trkpt lat="47.28955" lon="-2.27528">
        <ele>0.20000000298023</ele>
        <time>2022-03-06T10:38:27.000Z</time>
      </trkpt>
      <trkpt lat="47.28919" lon="-2.2753">
        <ele>0.20000000298023</ele>
        <time>2022-03-06T10:38:34.000Z</time>
      </trkpt>
      <trkpt lat="47.28888" lon="-2.27533">
        <ele>0.20000000298023</ele>
        <time>2022-03-06T10:38:40.000Z</time>
      </trkpt>
      <trkpt lat="47.28851" lon="-2.27539">
        <ele>0.20000000298023</ele>
        <time>2022-03-06T10:38:47.000Z</time>
      </trkpt>
      <trkpt lat="47.28818" lon="-2.27543">
        <ele>0.20000000298023</ele>
        <time>2022-03-06T10:38:53.000Z</time>
      </trkpt>
      <trkpt lat="47.28794" lon="-2.27562">
        <ele>0.20000000298023</ele>
        <time>2022-03-06T10:38:58.000Z</time>
      </trkpt>
      <trkpt lat="47.2879" lon="-2.27566">
        <ele>0.20000000298023</ele>
        <time>2022-03-06T10:38:59.000Z</time>
      </trkpt>
      <trkpt lat="47.28774" lon="-2.27585">
        <ele>0.60000002384186</ele>
        <time>2022-03-06T10:39:03.000Z</time>
      </trkpt>
      <trkpt lat="47.2877" lon="-2.27589">
        <ele>1</ele>
        <time>2022-03-06T10:39:04.000Z</time>
      </trkpt>
      <trkpt lat="47.28766" lon="-2.27593">
        <ele>1.3999999761581</ele>
        <time>2022-03-06T10:39:05.000Z</time>
      </trkpt>
      <trkpt lat="47.28763" lon="-2.27598">
        <ele>1.7999999523163</ele>
        <time>2022-03-06T10:39:06.000Z</time>
      </trkpt>
      <trkpt lat="47.2876" lon="-2.27602">
        <ele>2.2000000476837</ele>
        <time>2022-03-06T10:39:07.000Z</time>
      </trkpt>
      <trkpt lat="47.28749" lon="-2.27614">
        <ele>2.2000000476837</ele>
        <time>2022-03-06T10:39:10.000Z</time>
      </trkpt>
      <trkpt lat="47.28745" lon="-2.27619">
        <ele>2.2000000476837</ele>
        <time>2022-03-06T10:39:11.000Z</time>
      </trkpt>
      <trkpt lat="47.28728" lon="-2.27644">
        <ele>2.2000000476837</ele>
        <time>2022-03-06T10:39:16.000Z</time>
      </trkpt>
      <trkpt lat="47.28708" lon="-2.27676">
        <ele>2.2000000476837</ele>
        <time>2022-03-06T10:39:22.000Z</time>
      </trkpt>
      <trkpt lat="47.28684" lon="-2.27712">
        <ele>2.2000000476837</ele>
        <time>2022-03-06T10:39:29.000Z</time>
      </trkpt>
      <trkpt lat="47.28665" lon="-2.27749">
        <ele>2.2000000476837</ele>
        <time>2022-03-06T10:39:35.000Z</time>
      </trkpt>
      <trkpt lat="47.28657" lon="-2.27774">
        <ele>2.2000000476837</ele>
        <time>2022-03-06T10:39:39.000Z</time>
      </trkpt>
      <trkpt lat="47.28654" lon="-2.27788">
        <ele>2.2000000476837</ele>
        <time>2022-03-06T10:39:41.000Z</time>
      </trkpt>
      <trkpt lat="47.28643" lon="-2.27845">
        <ele>2.2000000476837</ele>
        <time>2022-03-06T10:39:48.000Z</time>
      </trkpt>
      <trkpt lat="47.2864" lon="-2.2786">
        <ele>2.5999999046326</ele>
        <time>2022-03-06T10:39:50.000Z</time>
      </trkpt>
      <trkpt lat="47.28639" lon="-2.27867">
        <ele>3</ele>
        <time>2022-03-06T10:39:51.000Z</time>
      </trkpt>
      <trkpt lat="47.28637" lon="-2.27875">
        <ele>3.4000000953674</ele>
        <time>2022-03-06T10:39:52.000Z</time>
      </trkpt>
      <trkpt lat="47.28636" lon="-2.27882">
        <ele>4.1999998092651</ele>
        <time>2022-03-06T10:39:53.000Z</time>
      </trkpt>
      <trkpt lat="47.28632" lon="-2.27896">
        <ele>4.1999998092651</ele>
        <time>2022-03-06T10:39:55.000Z</time>
      </trkpt>
      <trkpt lat="47.28627" lon="-2.27939">
        <ele>4.1999998092651</ele>
        <time>2022-03-06T10:40:01.000Z</time>
      </trkpt>
      <trkpt lat="47.28616" lon="-2.27963">
        <ele>4.1999998092651</ele>
        <time>2022-03-06T10:40:05.000Z</time>
      </trkpt>
      <trkpt lat="47.28611" lon="-2.27977">
        <ele>4.1999998092651</ele>
        <time>2022-03-06T10:40:07.000Z</time>
      </trkpt>
      <trkpt lat="47.2861" lon="-2.27984">
        <ele>4.1999998092651</ele>
        <time>2022-03-06T10:40:08.000Z</time>
      </trkpt>
      <trkpt lat="47.28607" lon="-2.27997">
        <ele>4.1999998092651</ele>
        <time>2022-03-06T10:40:10.000Z</time>
      </trkpt>
      <trkpt lat="47.28595" lon="-2.28027">
        <ele>4.1999998092651</ele>
        <time>2022-03-06T10:40:16.000Z</time>
      </trkpt>
      <trkpt lat="47.28578" lon="-2.28044">
        <ele>4.1999998092651</ele>
        <time>2022-03-06T10:40:22.000Z</time>
      </trkpt>
      <trkpt lat="47.28562" lon="-2.28052">
        <ele>4.1999998092651</ele>
        <time>2022-03-06T10:40:28.000Z</time>
      </trkpt>
      <trkpt lat="47.2856" lon="-2.28052">
        <ele>4.5999999046326</ele>
        <time>2022-03-06T10:40:29.000Z</time>
      </trkpt>
      <trkpt lat="47.28558" lon="-2.28051">
        <ele>5</ele>
        <time>2022-03-06T10:40:30.000Z</time>
      </trkpt>
      <trkpt lat="47.28556" lon="-2.28051">
        <ele>5.4000000953674</ele>
        <time>2022-03-06T10:40:31.000Z</time>
      </trkpt>
      <trkpt lat="47.28554" lon="-2.2805">
        <ele>5.8000001907349</ele>
        <time>2022-03-06T10:40:32.000Z</time>
      </trkpt>
      <trkpt lat="47.28552" lon="-2.2805">
        <ele>6.1999998092651</ele>
        <time>2022-03-06T10:40:33.000Z</time>
      </trkpt>
      <trkpt lat="47.28544" lon="-2.28051">
        <ele>6.1999998092651</ele>
        <time>2022-03-06T10:40:38.000Z</time>
      </trkpt>
      <trkpt lat="47.28542" lon="-2.2805">
        <ele>6.5999999046326</ele>
        <time>2022-03-06T10:40:39.000Z</time>
      </trkpt>
      <trkpt lat="47.2854" lon="-2.2805">
        <ele>7</ele>
        <time>2022-03-06T10:40:40.000Z</time>
      </trkpt>
      <trkpt lat="47.28538" lon="-2.28049">
        <ele>7.4000000953674</ele>
        <time>2022-03-06T10:40:41.000Z</time>
      </trkpt>
      <trkpt lat="47.28537" lon="-2.28049">
        <ele>8.1999998092651</ele>
        <time>2022-03-06T10:40:42.000Z</time>
      </trkpt>
      <trkpt lat="47.28534" lon="-2.28049">
        <ele>8.1999998092651</ele>
        <time>2022-03-06T10:40:43.000Z</time>
      </trkpt>
      <trkpt lat="47.28532" lon="-2.2805">
        <ele>8.1999998092651</ele>
        <time>2022-03-06T10:40:44.000Z</time>
      </trkpt>
      <trkpt lat="47.28527" lon="-2.28049">
        <ele>8.8000001907349</ele>
        <time>2022-03-06T10:40:46.000Z</time>
      </trkpt>
      <trkpt lat="47.28525" lon="-2.28049">
        <ele>9.1999998092651</ele>
        <time>2022-03-06T10:40:47.000Z</time>
      </trkpt>
      <trkpt lat="47.28523" lon="-2.28049">
        <ele>9.6000003814697</ele>
        <time>2022-03-06T10:40:48.000Z</time>
      </trkpt>
      <trkpt lat="47.2852" lon="-2.28047">
        <ele>10</ele>
        <time>2022-03-06T10:40:49.000Z</time>
      </trkpt>
      <trkpt lat="47.28518" lon="-2.28046">
        <ele>10.39999961853</ele>
        <time>2022-03-06T10:40:50.000Z</time>
      </trkpt>
      <trkpt lat="47.28511" lon="-2.2804">
        <ele>10.39999961853</ele>
        <time>2022-03-06T10:40:55.000Z</time>
      </trkpt>
      <trkpt lat="47.28508" lon="-2.28038">
        <ele>10.800000190735</ele>
        <time>2022-03-06T10:40:56.000Z</time>
      </trkpt>
      <trkpt lat="47.28505" lon="-2.28037">
        <ele>11.199999809265</ele>
        <time>2022-03-06T10:40:57.000Z</time>
      </trkpt>
      <trkpt lat="47.28503" lon="-2.28037">
        <ele>11.800000190735</ele>
        <time>2022-03-06T10:40:58.000Z</time>
      </trkpt>
      <trkpt lat="47.28501" lon="-2.28038">
        <ele>12.199999809265</ele>
        <time>2022-03-06T10:40:59.000Z</time>
      </trkpt>
      <trkpt lat="47.28498" lon="-2.28038">
        <ele>12.60000038147</ele>
        <time>2022-03-06T10:41:00.000Z</time>
      </trkpt>
      <trkpt lat="47.28488" lon="-2.28047">
        <ele>12.60000038147</ele>
        <time>2022-03-06T10:41:05.000Z</time>
      </trkpt>
      <trkpt lat="47.28489" lon="-2.28063">
        <ele>12.60000038147</ele>
        <time>2022-03-06T10:41:09.000Z</time>
      </trkpt>
      <trkpt lat="47.28494" lon="-2.28081">
        <ele>12.60000038147</ele>
        <time>2022-03-06T10:41:13.000Z</time>
      </trkpt>
      <trkpt lat="47.28482" lon="-2.28092">
        <ele>12.60000038147</ele>
        <time>2022-03-06T10:41:17.000Z</time>
      </trkpt>
      <trkpt lat="47.28474" lon="-2.28097">
        <ele>12.199999809265</ele>
        <time>2022-03-06T10:41:19.000Z</time>
      </trkpt>
      <trkpt lat="47.2847" lon="-2.28099">
        <ele>11.60000038147</ele>
        <time>2022-03-06T10:41:20.000Z</time>
      </trkpt>
      <trkpt lat="47.28466" lon="-2.28099">
        <ele>11.199999809265</ele>
        <time>2022-03-06T10:41:21.000Z</time>
      </trkpt>
      <trkpt lat="47.28464" lon="-2.28096">
        <ele>10.800000190735</ele>
        <time>2022-03-06T10:41:22.000Z</time>
      </trkpt>
      <trkpt lat="47.28462" lon="-2.28094">
        <ele>10.199999809265</ele>
        <time>2022-03-06T10:41:23.000Z</time>
      </trkpt>
      <trkpt lat="47.28451" lon="-2.28089">
        <ele>10.199999809265</ele>
        <time>2022-03-06T10:41:28.000Z</time>
      </trkpt>
      <trkpt lat="47.28439" lon="-2.28089">
        <ele>10.199999809265</ele>
        <time>2022-03-06T10:41:32.000Z</time>
      </trkpt>
      <trkpt lat="47.28437" lon="-2.28088">
        <ele>10.199999809265</ele>
        <time>2022-03-06T10:41:33.000Z</time>
      </trkpt>
      <trkpt lat="47.28431" lon="-2.28084">
        <ele>10.199999809265</ele>
        <time>2022-03-06T10:41:35.000Z</time>
      </trkpt>
      <trkpt lat="47.28426" lon="-2.28087">
        <ele>10.199999809265</ele>
        <time>2022-03-06T10:41:38.000Z</time>
      </trkpt>
      <trkpt lat="47.28416" lon="-2.28086">
        <ele>10.199999809265</ele>
        <time>2022-03-06T10:41:42.000Z</time>
      </trkpt>
      <trkpt lat="47.2841" lon="-2.28083">
        <ele>10.199999809265</ele>
        <time>2022-03-06T10:41:44.000Z</time>
      </trkpt>
      <trkpt lat="47.28406" lon="-2.28083">
        <ele>10.199999809265</ele>
        <time>2022-03-06T10:41:45.000Z</time>
      </trkpt>
      <trkpt lat="47.28403" lon="-2.28082">
        <ele>10.199999809265</ele>
        <time>2022-03-06T10:41:46.000Z</time>
      </trkpt>
      <trkpt lat="47.28388" lon="-2.28079">
        <ele>10.199999809265</ele>
        <time>2022-03-06T10:41:50.000Z</time>
      </trkpt>
      <trkpt lat="47.28386" lon="-2.2808">
        <ele>10.199999809265</ele>
        <time>2022-03-06T10:41:51.000Z</time>
      </trkpt>
      <trkpt lat="47.2838" lon="-2.28081">
        <ele>10.199999809265</ele>
        <time>2022-03-06T10:41:54.000Z</time>
      </trkpt>
      <trkpt lat="47.28378" lon="-2.28077">
        <ele>10.199999809265</ele>
        <time>2022-03-06T10:41:56.000Z</time>
      </trkpt>
      <trkpt lat="47.28375" lon="-2.28071">
        <ele>10.199999809265</ele>
        <time>2022-03-06T10:41:58.000Z</time>
      </trkpt>
      <trkpt lat="47.28371" lon="-2.28061">
        <ele>10.199999809265</ele>
        <time>2022-03-06T10:42:03.000Z</time>
      </trkpt>
      <trkpt lat="47.28367" lon="-2.28075">
        <ele>10.199999809265</ele>
        <time>2022-03-06T10:42:06.000Z</time>
      </trkpt>
      <trkpt lat="47.28366" lon="-2.28081">
        <ele>10.199999809265</ele>
        <time>2022-03-06T10:42:07.000Z</time>
      </trkpt>
      <trkpt lat="47.28361" lon="-2.28097">
        <ele>10.199999809265</ele>
        <time>2022-03-06T10:42:12.000Z</time>
      </trkpt>
      <trkpt lat="47.28331" lon="-2.28108">
        <ele>10.199999809265</ele>
        <time>2022-03-06T10:42:22.000Z</time>
      </trkpt>
      <trkpt lat="47.28328" lon="-2.28124">
        <ele>10.199999809265</ele>
        <time>2022-03-06T10:42:26.000Z</time>
      </trkpt>
      <trkpt lat="47.28327" lon="-2.28151">
        <ele>10.199999809265</ele>
        <time>2022-03-06T10:42:31.000Z</time>
      </trkpt>
      <trkpt lat="47.28327" lon="-2.28179">
        <ele>10.60000038147</ele>
        <time>2022-03-06T10:42:36.000Z</time>
      </trkpt>
      <trkpt lat="47.28327" lon="-2.28184">
        <ele>11.199999809265</ele>
        <time>2022-03-06T10:42:37.000Z</time>
      </trkpt>
      <trkpt lat="47.28327" lon="-2.28189">
        <ele>11.60000038147</ele>
        <time>2022-03-06T10:42:38.000Z</time>
      </trkpt>
      <trkpt lat="47.28327" lon="-2.28194">
        <ele>12</ele>
        <time>2022-03-06T10:42:39.000Z</time>
      </trkpt>
      <trkpt lat="47.28326" lon="-2.282">
        <ele>12.39999961853</ele>
        <time>2022-03-06T10:42:40.000Z</time>
      </trkpt>
      <trkpt lat="47.28327" lon="-2.2822">
        <ele>12.800000190735</ele>
        <time>2022-03-06T10:42:44.000Z</time>
      </trkpt>
      <trkpt lat="47.28326" lon="-2.28225">
        <ele>13.199999809265</ele>
        <time>2022-03-06T10:42:45.000Z</time>
      </trkpt>
      <trkpt lat="47.28326" lon="-2.2823">
        <ele>14</ele>
        <time>2022-03-06T10:42:46.000Z</time>
      </trkpt>
      <trkpt lat="47.28326" lon="-2.28236">
        <ele>14.39999961853</ele>
        <time>2022-03-06T10:42:47.000Z</time>
      </trkpt>
      <trkpt lat="47.28326" lon="-2.28266">
        <ele>14.39999961853</ele>
        <time>2022-03-06T10:42:53.000Z</time>
      </trkpt>
      <trkpt lat="47.28326" lon="-2.2828">
        <ele>14.800000190735</ele>
        <time>2022-03-06T10:42:56.000Z</time>
      </trkpt>
      <trkpt lat="47.28326" lon="-2.28285">
        <ele>15.39999961853</ele>
        <time>2022-03-06T10:42:57.000Z</time>
      </trkpt>
      <trkpt lat="47.28326" lon="-2.2829">
        <ele>15.800000190735</ele>
        <time>2022-03-06T10:42:58.000Z</time>
      </trkpt>
      <trkpt lat="47.28325" lon="-2.28295">
        <ele>16.200000762939</ele>
        <time>2022-03-06T10:42:59.000Z</time>
      </trkpt>
      <trkpt lat="47.28325" lon="-2.28299">
        <ele>16.60000038147</ele>
        <time>2022-03-06T10:43:00.000Z</time>
      </trkpt>
      <trkpt lat="47.28326" lon="-2.28329">
        <ele>16.60000038147</ele>
        <time>2022-03-06T10:43:06.000Z</time>
      </trkpt>
      <trkpt lat="47.28324" lon="-2.28362">
        <ele>16.60000038147</ele>
        <time>2022-03-06T10:43:12.000Z</time>
      </trkpt>
      <trkpt lat="47.28324" lon="-2.28368">
        <ele>16.60000038147</ele>
        <time>2022-03-06T10:43:13.000Z</time>
      </trkpt>
      <trkpt lat="47.28314" lon="-2.28416">
        <ele>16.60000038147</ele>
        <time>2022-03-06T10:43:20.000Z</time>
      </trkpt>
      <trkpt lat="47.283" lon="-2.28473">
        <ele>16.60000038147</ele>
        <time>2022-03-06T10:43:28.000Z</time>
      </trkpt>
      <trkpt lat="47.28291" lon="-2.28532">
        <ele>16.60000038147</ele>
        <time>2022-03-06T10:43:36.000Z</time>
      </trkpt>
      <trkpt lat="47.28287" lon="-2.2856">
        <ele>16.60000038147</ele>
        <time>2022-03-06T10:43:41.000Z</time>
      </trkpt>
      <trkpt lat="47.28279" lon="-2.28589">
        <ele>16.60000038147</ele>
        <time>2022-03-06T10:43:47.000Z</time>
      </trkpt>
      <trkpt lat="47.28271" lon="-2.28631">
        <ele>16.60000038147</ele>
        <time>2022-03-06T10:43:55.000Z</time>
      </trkpt>
      <trkpt lat="47.28262" lon="-2.28671">
        <ele>16.60000038147</ele>
        <time>2022-03-06T10:44:02.000Z</time>
      </trkpt>
      <trkpt lat="47.2826" lon="-2.28684">
        <ele>16.60000038147</ele>
        <time>2022-03-06T10:44:04.000Z</time>
      </trkpt>
      <trkpt lat="47.28254" lon="-2.28715">
        <ele>16.60000038147</ele>
        <time>2022-03-06T10:44:09.000Z</time>
      </trkpt>
      <trkpt lat="47.28246" lon="-2.28752">
        <ele>16.60000038147</ele>
        <time>2022-03-06T10:44:16.000Z</time>
      </trkpt>
      <trkpt lat="47.28244" lon="-2.28769">
        <ele>16.60000038147</ele>
        <time>2022-03-06T10:44:19.000Z</time>
      </trkpt>
      <trkpt lat="47.28242" lon="-2.28781">
        <ele>16.60000038147</ele>
        <time>2022-03-06T10:44:21.000Z</time>
      </trkpt>
      <trkpt lat="47.28235" lon="-2.28828">
        <ele>16.60000038147</ele>
        <time>2022-03-06T10:44:28.000Z</time>
      </trkpt>
      <trkpt lat="47.28219" lon="-2.2887">
        <ele>16.60000038147</ele>
        <time>2022-03-06T10:44:36.000Z</time>
      </trkpt>
      <trkpt lat="47.28202" lon="-2.2887">
        <ele>16.60000038147</ele>
        <time>2022-03-06T10:44:40.000Z</time>
      </trkpt>
      <trkpt lat="47.28187" lon="-2.28857">
        <ele>16.60000038147</ele>
        <time>2022-03-06T10:44:44.000Z</time>
      </trkpt>
      <trkpt lat="47.28184" lon="-2.28853">
        <ele>16.60000038147</ele>
        <time>2022-03-06T10:44:45.000Z</time>
      </trkpt>
      <trkpt lat="47.28158" lon="-2.28829">
        <ele>16.60000038147</ele>
        <time>2022-03-06T10:44:52.000Z</time>
      </trkpt>
      <trkpt lat="47.28155" lon="-2.28826">
        <ele>16.60000038147</ele>
        <time>2022-03-06T10:44:53.000Z</time>
      </trkpt>
      <trkpt lat="47.28133" lon="-2.28808">
        <ele>16.200000762939</ele>
        <time>2022-03-06T10:44:58.000Z</time>
      </trkpt>
      <trkpt lat="47.28128" lon="-2.28804">
        <ele>15.800000190735</ele>
        <time>2022-03-06T10:44:59.000Z</time>
      </trkpt>
      <trkpt lat="47.28123" lon="-2.288">
        <ele>15.199999809265</ele>
        <time>2022-03-06T10:45:00.000Z</time>
      </trkpt>
      <trkpt lat="47.28117" lon="-2.28796">
        <ele>14.800000190735</ele>
        <time>2022-03-06T10:45:01.000Z</time>
      </trkpt>
      <trkpt lat="47.28112" lon="-2.28793">
        <ele>14.39999961853</ele>
        <time>2022-03-06T10:45:02.000Z</time>
      </trkpt>
      <trkpt lat="47.28096" lon="-2.28783">
        <ele>14.39999961853</ele>
        <time>2022-03-06T10:45:05.000Z</time>
      </trkpt>
      <trkpt lat="47.28073" lon="-2.28772">
        <ele>14</ele>
        <time>2022-03-06T10:45:09.000Z</time>
      </trkpt>
      <trkpt lat="47.28068" lon="-2.28769">
        <ele>13.60000038147</ele>
        <time>2022-03-06T10:45:10.000Z</time>
      </trkpt>
      <trkpt lat="47.28062" lon="-2.28767">
        <ele>13.199999809265</ele>
        <time>2022-03-06T10:45:11.000Z</time>
      </trkpt>
      <trkpt lat="47.28057" lon="-2.28765">
        <ele>12.800000190735</ele>
        <time>2022-03-06T10:45:12.000Z</time>
      </trkpt>
      <trkpt lat="47.28052" lon="-2.28763">
        <ele>12.39999961853</ele>
        <time>2022-03-06T10:45:13.000Z</time>
      </trkpt>
      <trkpt lat="47.28027" lon="-2.28756">
        <ele>12.39999961853</ele>
        <time>2022-03-06T10:45:18.000Z</time>
      </trkpt>
      <trkpt lat="47.27975" lon="-2.28747">
        <ele>12.39999961853</ele>
        <time>2022-03-06T10:45:28.000Z</time>
      </trkpt>
      <trkpt lat="47.27949" lon="-2.2875">
        <ele>12.39999961853</ele>
        <time>2022-03-06T10:45:33.000Z</time>
      </trkpt>
      <trkpt lat="47.2794" lon="-2.28753">
        <ele>12.39999961853</ele>
        <time>2022-03-06T10:45:35.000Z</time>
      </trkpt>
      <trkpt lat="47.27912" lon="-2.28764">
        <ele>12.39999961853</ele>
        <time>2022-03-06T10:45:41.000Z</time>
      </trkpt>
      <trkpt lat="47.27894" lon="-2.28768">
        <ele>12</ele>
        <time>2022-03-06T10:45:45.000Z</time>
      </trkpt>
      <trkpt lat="47.2789" lon="-2.28769">
        <ele>11.60000038147</ele>
        <time>2022-03-06T10:45:46.000Z</time>
      </trkpt>
      <trkpt lat="47.27887" lon="-2.2877">
        <ele>11.199999809265</ele>
        <time>2022-03-06T10:45:47.000Z</time>
      </trkpt>
      <trkpt lat="47.27884" lon="-2.28772">
        <ele>10.800000190735</ele>
        <time>2022-03-06T10:45:48.000Z</time>
      </trkpt>
      <trkpt lat="47.27882" lon="-2.28775">
        <ele>10.39999961853</ele>
        <time>2022-03-06T10:45:49.000Z</time>
      </trkpt>
      <trkpt lat="47.27879" lon="-2.2878">
        <ele>10.39999961853</ele>
        <time>2022-03-06T10:45:51.000Z</time>
      </trkpt>
      <trkpt lat="47.27871" lon="-2.28804">
        <ele>10.39999961853</ele>
        <time>2022-03-06T10:45:56.000Z</time>
      </trkpt>
      <trkpt lat="47.27862" lon="-2.28814">
        <ele>10.39999961853</ele>
        <time>2022-03-06T10:45:59.000Z</time>
      </trkpt>
      <trkpt lat="47.27858" lon="-2.28811">
        <ele>10.39999961853</ele>
        <time>2022-03-06T10:46:00.000Z</time>
      </trkpt>
      <trkpt lat="47.27839" lon="-2.28797">
        <ele>10.39999961853</ele>
        <time>2022-03-06T10:46:04.000Z</time>
      </trkpt>
      <trkpt lat="47.27817" lon="-2.28793">
        <ele>10.39999961853</ele>
        <time>2022-03-06T10:46:08.000Z</time>
      </trkpt>
      <trkpt lat="47.27795" lon="-2.28796">
        <ele>10.39999961853</ele>
        <time>2022-03-06T10:46:12.000Z</time>
      </trkpt>
      <trkpt lat="47.2778" lon="-2.28797">
        <ele>10.39999961853</ele>
        <time>2022-03-06T10:46:15.000Z</time>
      </trkpt>
      <trkpt lat="47.27774" lon="-2.28798">
        <ele>10.39999961853</ele>
        <time>2022-03-06T10:46:16.000Z</time>
      </trkpt>
      <trkpt lat="47.27768" lon="-2.288">
        <ele>10.39999961853</ele>
        <time>2022-03-06T10:46:17.000Z</time>
      </trkpt>
      <trkpt lat="47.27728" lon="-2.28812">
        <ele>10.39999961853</ele>
        <time>2022-03-06T10:46:24.000Z</time>
      </trkpt>
      <trkpt lat="47.27687" lon="-2.28826">
        <ele>10.39999961853</ele>
        <time>2022-03-06T10:46:31.000Z</time>
      </trkpt>
      <trkpt lat="47.27682" lon="-2.28828">
        <ele>10.39999961853</ele>
        <time>2022-03-06T10:46:32.000Z</time>
      </trkpt>
      <trkpt lat="47.27658" lon="-2.28837">
        <ele>10.39999961853</ele>
        <time>2022-03-06T10:46:36.000Z</time>
      </trkpt>
      <trkpt lat="47.27632" lon="-2.28849">
        <ele>10.39999961853</ele>
        <time>2022-03-06T10:46:41.000Z</time>
      </trkpt>
      <trkpt lat="47.27608" lon="-2.28858">
        <ele>10.800000190735</ele>
        <time>2022-03-06T10:46:45.000Z</time>
      </trkpt>
      <trkpt lat="47.27602" lon="-2.2886">
        <ele>11.199999809265</ele>
        <time>2022-03-06T10:46:46.000Z</time>
      </trkpt>
      <trkpt lat="47.27596" lon="-2.28863">
        <ele>11.60000038147</ele>
        <time>2022-03-06T10:46:47.000Z</time>
      </trkpt>
      <trkpt lat="47.27591" lon="-2.28865">
        <ele>12</ele>
        <time>2022-03-06T10:46:48.000Z</time>
      </trkpt>
      <trkpt lat="47.27585" lon="-2.28868">
        <ele>12.39999961853</ele>
        <time>2022-03-06T10:46:49.000Z</time>
      </trkpt>
      <trkpt lat="47.27568" lon="-2.28876">
        <ele>12.39999961853</ele>
        <time>2022-03-06T10:46:52.000Z</time>
      </trkpt>
      <trkpt lat="47.27563" lon="-2.2888">
        <ele>12.39999961853</ele>
        <time>2022-03-06T10:46:53.000Z</time>
      </trkpt>
      <trkpt lat="47.27532" lon="-2.28896">
        <ele>12.39999961853</ele>
        <time>2022-03-06T10:46:59.000Z</time>
      </trkpt>
      <trkpt lat="47.27501" lon="-2.28921">
        <ele>12.39999961853</ele>
        <time>2022-03-06T10:47:06.000Z</time>
      </trkpt>
      <trkpt lat="47.27492" lon="-2.28929">
        <ele>12.39999961853</ele>
        <time>2022-03-06T10:47:08.000Z</time>
      </trkpt>
      <trkpt lat="47.27475" lon="-2.28944">
        <ele>12.39999961853</ele>
        <time>2022-03-06T10:47:12.000Z</time>
      </trkpt>
      <trkpt lat="47.27472" lon="-2.2895">
        <ele>12.39999961853</ele>
        <time>2022-03-06T10:47:13.000Z</time>
      </trkpt>
      <trkpt lat="47.27466" lon="-2.28964">
        <ele>12.39999961853</ele>
        <time>2022-03-06T10:47:15.000Z</time>
      </trkpt>
      <trkpt lat="47.27448" lon="-2.29011">
        <ele>12.39999961853</ele>
        <time>2022-03-06T10:47:21.000Z</time>
      </trkpt>
      <trkpt lat="47.27444" lon="-2.29017">
        <ele>12.39999961853</ele>
        <time>2022-03-06T10:47:22.000Z</time>
      </trkpt>
      <trkpt lat="47.27431" lon="-2.29029">
        <ele>12.39999961853</ele>
        <time>2022-03-06T10:47:24.000Z</time>
      </trkpt>
      <trkpt lat="47.27409" lon="-2.29035">
        <ele>12.39999961853</ele>
        <time>2022-03-06T10:47:28.000Z</time>
      </trkpt>
      <trkpt lat="47.27403" lon="-2.29037">
        <ele>12.39999961853</ele>
        <time>2022-03-06T10:47:29.000Z</time>
      </trkpt>
      <trkpt lat="47.27386" lon="-2.29038">
        <ele>12.39999961853</ele>
        <time>2022-03-06T10:47:32.000Z</time>
      </trkpt>
      <trkpt lat="47.2738" lon="-2.29037">
        <ele>12.39999961853</ele>
        <time>2022-03-06T10:47:33.000Z</time>
      </trkpt>
      <trkpt lat="47.2735" lon="-2.29032">
        <ele>12.39999961853</ele>
        <time>2022-03-06T10:47:38.000Z</time>
      </trkpt>
      <trkpt lat="47.27346" lon="-2.29028">
        <ele>12.39999961853</ele>
        <time>2022-03-06T10:47:39.000Z</time>
      </trkpt>
      <trkpt lat="47.27337" lon="-2.29011">
        <ele>12.39999961853</ele>
        <time>2022-03-06T10:47:42.000Z</time>
      </trkpt>
      <trkpt lat="47.27337" lon="-2.28987">
        <ele>12.39999961853</ele>
        <time>2022-03-06T10:47:45.000Z</time>
      </trkpt>
      <trkpt lat="47.27338" lon="-2.28978">
        <ele>12.39999961853</ele>
        <time>2022-03-06T10:47:46.000Z</time>
      </trkpt>
      <trkpt lat="47.27339" lon="-2.28962">
        <ele>12.39999961853</ele>
        <time>2022-03-06T10:47:48.000Z</time>
      </trkpt>
      <trkpt lat="47.27335" lon="-2.28949">
        <ele>12.39999961853</ele>
        <time>2022-03-06T10:47:50.000Z</time>
      </trkpt>
      <trkpt lat="47.27323" lon="-2.28944">
        <ele>12.39999961853</ele>
        <time>2022-03-06T10:47:53.000Z</time>
      </trkpt>
      <trkpt lat="47.27314" lon="-2.28951">
        <ele>12.39999961853</ele>
        <time>2022-03-06T10:47:56.000Z</time>
      </trkpt>
      <trkpt lat="47.27314" lon="-2.2896">
        <ele>12.39999961853</ele>
        <time>2022-03-06T10:47:59.000Z</time>
      </trkpt>
      <trkpt lat="47.2731" lon="-2.28968">
        <ele>12.39999961853</ele>
        <time>2022-03-06T10:48:01.000Z</time>
      </trkpt>
      <trkpt lat="47.27307" lon="-2.28968">
        <ele>12.39999961853</ele>
        <time>2022-03-06T10:48:02.000Z</time>
      </trkpt>
      <trkpt lat="47.27302" lon="-2.28973">
        <ele>12.39999961853</ele>
        <time>2022-03-06T10:48:04.000Z</time>
      </trkpt>
      <trkpt lat="47.27296" lon="-2.2898">
        <ele>12.39999961853</ele>
        <time>2022-03-06T10:48:06.000Z</time>
      </trkpt>
      <trkpt lat="47.27285" lon="-2.28992">
        <ele>12.39999961853</ele>
        <time>2022-03-06T10:48:11.000Z</time>
      </trkpt>
      <trkpt lat="47.27276" lon="-2.29014">
        <ele>12.39999961853</ele>
        <time>2022-03-06T10:48:16.000Z</time>
      </trkpt>
      <trkpt lat="47.27261" lon="-2.29037">
        <ele>12.39999961853</ele>
        <time>2022-03-06T10:48:20.000Z</time>
      </trkpt>
      <trkpt lat="47.27256" lon="-2.29041">
        <ele>12.39999961853</ele>
        <time>2022-03-06T10:48:21.000Z</time>
      </trkpt>
      <trkpt lat="47.27242" lon="-2.29053">
        <ele>12.39999961853</ele>
        <time>2022-03-06T10:48:24.000Z</time>
      </trkpt>
      <trkpt lat="47.27232" lon="-2.29064">
        <ele>12.39999961853</ele>
        <time>2022-03-06T10:48:26.000Z</time>
      </trkpt>
      <trkpt lat="47.27228" lon="-2.2907">
        <ele>12.800000190735</ele>
        <time>2022-03-06T10:48:27.000Z</time>
      </trkpt>
      <trkpt lat="47.27223" lon="-2.29076">
        <ele>13.199999809265</ele>
        <time>2022-03-06T10:48:28.000Z</time>
      </trkpt>
      <trkpt lat="47.27219" lon="-2.29081">
        <ele>13.60000038147</ele>
        <time>2022-03-06T10:48:29.000Z</time>
      </trkpt>
      <trkpt lat="47.27215" lon="-2.29084">
        <ele>14</ele>
        <time>2022-03-06T10:48:30.000Z</time>
      </trkpt>
      <trkpt lat="47.27211" lon="-2.29088">
        <ele>14.39999961853</ele>
        <time>2022-03-06T10:48:31.000Z</time>
      </trkpt>
      <trkpt lat="47.27194" lon="-2.29108">
        <ele>14.39999961853</ele>
        <time>2022-03-06T10:48:35.000Z</time>
      </trkpt>
      <trkpt lat="47.2719" lon="-2.29115">
        <ele>14.39999961853</ele>
        <time>2022-03-06T10:48:36.000Z</time>
      </trkpt>
      <trkpt lat="47.27183" lon="-2.29127">
        <ele>14.39999961853</ele>
        <time>2022-03-06T10:48:38.000Z</time>
      </trkpt>
      <trkpt lat="47.27167" lon="-2.29147">
        <ele>14.39999961853</ele>
        <time>2022-03-06T10:48:42.000Z</time>
      </trkpt>
      <trkpt lat="47.27156" lon="-2.29161">
        <ele>14.39999961853</ele>
        <time>2022-03-06T10:48:45.000Z</time>
      </trkpt>
      <trkpt lat="47.27155" lon="-2.29175">
        <ele>14.39999961853</ele>
        <time>2022-03-06T10:48:47.000Z</time>
      </trkpt>
      <trkpt lat="47.27161" lon="-2.29201">
        <ele>14.39999961853</ele>
        <time>2022-03-06T10:48:51.000Z</time>
      </trkpt>
      <trkpt lat="47.27163" lon="-2.29211">
        <ele>14.39999961853</ele>
        <time>2022-03-06T10:48:54.000Z</time>
      </trkpt>
      <trkpt lat="47.27164" lon="-2.29212">
        <ele>14.39999961853</ele>
        <time>2022-03-06T10:48:55.000Z</time>
      </trkpt>
      <trkpt lat="47.27172" lon="-2.29227">
        <ele>14.39999961853</ele>
        <time>2022-03-06T10:49:03.000Z</time>
      </trkpt>
      <trkpt lat="47.27173" lon="-2.29236">
        <ele>14.39999961853</ele>
        <time>2022-03-06T10:49:08.000Z</time>
      </trkpt>
      <trkpt lat="47.27173" lon="-2.2924">
        <ele>14.39999961853</ele>
        <time>2022-03-06T10:49:09.000Z</time>
      </trkpt>
      <trkpt lat="47.2717" lon="-2.29258">
        <ele>14.39999961853</ele>
        <time>2022-03-06T10:49:14.000Z</time>
      </trkpt>
      <trkpt lat="47.27164" lon="-2.29271">
        <ele>14.39999961853</ele>
        <time>2022-03-06T10:49:18.000Z</time>
      </trkpt>
      <trkpt lat="47.27162" lon="-2.29279">
        <ele>14.39999961853</ele>
        <time>2022-03-06T10:49:20.000Z</time>
      </trkpt>
      <trkpt lat="47.27152" lon="-2.2931">
        <ele>14.800000190735</ele>
        <time>2022-03-06T10:49:28.000Z</time>
      </trkpt>
      <trkpt lat="47.27154" lon="-2.29314">
        <ele>15.199999809265</ele>
        <time>2022-03-06T10:49:29.000Z</time>
      </trkpt>
      <trkpt lat="47.27156" lon="-2.29317">
        <ele>15.60000038147</ele>
        <time>2022-03-06T10:49:30.000Z</time>
      </trkpt>
      <trkpt lat="47.27159" lon="-2.29321">
        <ele>16</ele>
        <time>2022-03-06T10:49:31.000Z</time>
      </trkpt>
      <trkpt lat="47.27161" lon="-2.29325">
        <ele>16.39999961853</ele>
        <time>2022-03-06T10:49:32.000Z</time>
      </trkpt>
      <trkpt lat="47.27175" lon="-2.29346">
        <ele>16.39999961853</ele>
        <time>2022-03-06T10:49:38.000Z</time>
      </trkpt>
      <trkpt lat="47.27188" lon="-2.29366">
        <ele>16.39999961853</ele>
        <time>2022-03-06T10:49:42.000Z</time>
      </trkpt>
      <trkpt lat="47.27203" lon="-2.29404">
        <ele>16.39999961853</ele>
        <time>2022-03-06T10:49:49.000Z</time>
      </trkpt>
      <trkpt lat="47.27213" lon="-2.29442">
        <ele>16.39999961853</ele>
        <time>2022-03-06T10:49:56.000Z</time>
      </trkpt>
      <trkpt lat="47.27218" lon="-2.29453">
        <ele>16.39999961853</ele>
        <time>2022-03-06T10:49:58.000Z</time>
      </trkpt>
      <trkpt lat="47.27223" lon="-2.29468">
        <ele>16.39999961853</ele>
        <time>2022-03-06T10:50:01.000Z</time>
      </trkpt>
      <trkpt lat="47.27231" lon="-2.29497">
        <ele>16.39999961853</ele>
        <time>2022-03-06T10:50:07.000Z</time>
      </trkpt>
      <trkpt lat="47.27242" lon="-2.29523">
        <ele>16.39999961853</ele>
        <time>2022-03-06T10:50:13.000Z</time>
      </trkpt>
      <trkpt lat="47.27247" lon="-2.29543">
        <ele>16.39999961853</ele>
        <time>2022-03-06T10:50:18.000Z</time>
      </trkpt>
      <trkpt lat="47.27245" lon="-2.29568">
        <ele>16.39999961853</ele>
        <time>2022-03-06T10:50:23.000Z</time>
      </trkpt>
      <trkpt lat="47.27236" lon="-2.29582">
        <ele>16.39999961853</ele>
        <time>2022-03-06T10:50:27.000Z</time>
      </trkpt>
      <trkpt lat="47.2722" lon="-2.29593">
        <ele>16.39999961853</ele>
        <time>2022-03-06T10:50:31.000Z</time>
      </trkpt>
      <trkpt lat="47.27216" lon="-2.29596">
        <ele>16.39999961853</ele>
        <time>2022-03-06T10:50:32.000Z</time>
      </trkpt>
      <trkpt lat="47.27199" lon="-2.29613">
        <ele>16.39999961853</ele>
        <time>2022-03-06T10:50:37.000Z</time>
      </trkpt>
      <trkpt lat="47.27176" lon="-2.29628">
        <ele>16.39999961853</ele>
        <time>2022-03-06T10:50:42.000Z</time>
      </trkpt>
      <trkpt lat="47.27152" lon="-2.29641">
        <ele>16.39999961853</ele>
        <time>2022-03-06T10:50:48.000Z</time>
      </trkpt>
      <trkpt lat="47.27137" lon="-2.29641">
        <ele>16.39999961853</ele>
        <time>2022-03-06T10:50:53.000Z</time>
      </trkpt>
      <trkpt lat="47.27123" lon="-2.29649">
        <ele>16.39999961853</ele>
        <time>2022-03-06T10:51:00.000Z</time>
      </trkpt>
      <trkpt lat="47.27122" lon="-2.29651">
        <ele>16.39999961853</ele>
        <time>2022-03-06T10:51:04.000Z</time>
      </trkpt>
      <trkpt lat="47.2712" lon="-2.29655">
        <ele>18.60000038147</ele>
        <time>2022-03-06T10:51:23.000Z</time>
      </trkpt>
      <trkpt lat="47.2712" lon="-2.29658">
        <ele>18.60000038147</ele>
        <time>2022-03-06T10:51:24.000Z</time>
      </trkpt>
      <trkpt lat="47.27119" lon="-2.29672">
        <ele>18.60000038147</ele>
        <time>2022-03-06T10:51:27.000Z</time>
      </trkpt>
      <trkpt lat="47.2712" lon="-2.2971">
        <ele>18.60000038147</ele>
        <time>2022-03-06T10:51:32.000Z</time>
      </trkpt>
      <trkpt lat="47.27119" lon="-2.29727">
        <ele>18.60000038147</ele>
        <time>2022-03-06T10:51:34.000Z</time>
      </trkpt>
      <trkpt lat="47.27117" lon="-2.29761">
        <ele>18.60000038147</ele>
        <time>2022-03-06T10:51:38.000Z</time>
      </trkpt>
      <trkpt lat="47.27116" lon="-2.29814">
        <ele>18.60000038147</ele>
        <time>2022-03-06T10:51:44.000Z</time>
      </trkpt>
      <trkpt lat="47.27113" lon="-2.29838">
        <ele>18.60000038147</ele>
        <time>2022-03-06T10:51:47.000Z</time>
      </trkpt>
      <trkpt lat="47.27108" lon="-2.29861">
        <ele>18.60000038147</ele>
        <time>2022-03-06T10:51:50.000Z</time>
      </trkpt>
      <trkpt lat="47.27094" lon="-2.29899">
        <ele>18.60000038147</ele>
        <time>2022-03-06T10:51:55.000Z</time>
      </trkpt>
      <trkpt lat="47.27088" lon="-2.29904">
        <ele>18.60000038147</ele>
        <time>2022-03-06T10:51:56.000Z</time>
      </trkpt>
      <trkpt lat="47.27067" lon="-2.29928">
        <ele>18.60000038147</ele>
        <time>2022-03-06T10:52:00.000Z</time>
      </trkpt>
      <trkpt lat="47.27059" lon="-2.29941">
        <ele>18.60000038147</ele>
        <time>2022-03-06T10:52:02.000Z</time>
      </trkpt>
      <trkpt lat="47.27056" lon="-2.29948">
        <ele>18.60000038147</ele>
        <time>2022-03-06T10:52:03.000Z</time>
      </trkpt>
      <trkpt lat="47.27039" lon="-2.29981">
        <ele>18.60000038147</ele>
        <time>2022-03-06T10:52:08.000Z</time>
      </trkpt>
      <trkpt lat="47.27021" lon="-2.30026">
        <ele>18.60000038147</ele>
        <time>2022-03-06T10:52:14.000Z</time>
      </trkpt>
      <trkpt lat="47.27004" lon="-2.30062">
        <ele>18.60000038147</ele>
        <time>2022-03-06T10:52:19.000Z</time>
      </trkpt>
      <trkpt lat="47.26999" lon="-2.30066">
        <ele>18.60000038147</ele>
        <time>2022-03-06T10:52:20.000Z</time>
      </trkpt>
      <trkpt lat="47.26982" lon="-2.30078">
        <ele>18.60000038147</ele>
        <time>2022-03-06T10:52:23.000Z</time>
      </trkpt>
      <trkpt lat="47.26971" lon="-2.30086">
        <ele>18.60000038147</ele>
        <time>2022-03-06T10:52:25.000Z</time>
      </trkpt>
      <trkpt lat="47.26929" lon="-2.30111">
        <ele>18.60000038147</ele>
        <time>2022-03-06T10:52:33.000Z</time>
      </trkpt>
      <trkpt lat="47.26908" lon="-2.30129">
        <ele>18.60000038147</ele>
        <time>2022-03-06T10:52:37.000Z</time>
      </trkpt>
      <trkpt lat="47.26899" lon="-2.30137">
        <ele>18.60000038147</ele>
        <time>2022-03-06T10:52:39.000Z</time>
      </trkpt>
      <trkpt lat="47.26874" lon="-2.30163">
        <ele>18.60000038147</ele>
        <time>2022-03-06T10:52:45.000Z</time>
      </trkpt>
      <trkpt lat="47.26871" lon="-2.30167">
        <ele>18.60000038147</ele>
        <time>2022-03-06T10:52:46.000Z</time>
      </trkpt>
      <trkpt lat="47.26869" lon="-2.30178">
        <ele>18.60000038147</ele>
        <time>2022-03-06T10:52:48.000Z</time>
      </trkpt>
      <trkpt lat="47.26874" lon="-2.30196">
        <ele>18.60000038147</ele>
        <time>2022-03-06T10:52:51.000Z</time>
      </trkpt>
      <trkpt lat="47.26886" lon="-2.30235">
        <ele>18.60000038147</ele>
        <time>2022-03-06T10:52:56.000Z</time>
      </trkpt>
      <trkpt lat="47.26896" lon="-2.30296">
        <ele>18.60000038147</ele>
        <time>2022-03-06T10:53:03.000Z</time>
      </trkpt>
      <trkpt lat="47.26903" lon="-2.30368">
        <ele>18.60000038147</ele>
        <time>2022-03-06T10:53:11.000Z</time>
      </trkpt>
      <trkpt lat="47.26914" lon="-2.30429">
        <ele>18.60000038147</ele>
        <time>2022-03-06T10:53:18.000Z</time>
      </trkpt>
      <trkpt lat="47.26916" lon="-2.30475">
        <ele>18.60000038147</ele>
        <time>2022-03-06T10:53:23.000Z</time>
      </trkpt>
      <trkpt lat="47.26915" lon="-2.30484">
        <ele>18.200000762939</ele>
        <time>2022-03-06T10:53:24.000Z</time>
      </trkpt>
      <trkpt lat="47.26915" lon="-2.30493">
        <ele>17.799999237061</ele>
        <time>2022-03-06T10:53:25.000Z</time>
      </trkpt>
      <trkpt lat="47.26914" lon="-2.30503">
        <ele>17.39999961853</ele>
        <time>2022-03-06T10:53:26.000Z</time>
      </trkpt>
      <trkpt lat="47.26914" lon="-2.30512">
        <ele>16.799999237061</ele>
        <time>2022-03-06T10:53:27.000Z</time>
      </trkpt>
      <trkpt lat="47.26914" lon="-2.30522">
        <ele>16.39999961853</ele>
        <time>2022-03-06T10:53:28.000Z</time>
      </trkpt>
      <trkpt lat="47.26915" lon="-2.30542">
        <ele>16.39999961853</ele>
        <time>2022-03-06T10:53:30.000Z</time>
      </trkpt>
      <trkpt lat="47.26918" lon="-2.30552">
        <ele>16.39999961853</ele>
        <time>2022-03-06T10:53:31.000Z</time>
      </trkpt>
      <trkpt lat="47.26925" lon="-2.30579">
        <ele>16.39999961853</ele>
        <time>2022-03-06T10:53:34.000Z</time>
      </trkpt>
      <trkpt lat="47.26927" lon="-2.30598">
        <ele>16.39999961853</ele>
        <time>2022-03-06T10:53:36.000Z</time>
      </trkpt>
      <trkpt lat="47.26924" lon="-2.30617">
        <ele>16.39999961853</ele>
        <time>2022-03-06T10:53:38.000Z</time>
      </trkpt>
      <trkpt lat="47.26912" lon="-2.30647">
        <ele>16.39999961853</ele>
        <time>2022-03-06T10:53:42.000Z</time>
      </trkpt>
      <trkpt lat="47.26902" lon="-2.30657">
        <ele>16.39999961853</ele>
        <time>2022-03-06T10:53:44.000Z</time>
      </trkpt>
      <trkpt lat="47.26887" lon="-2.30675">
        <ele>16.39999961853</ele>
        <time>2022-03-06T10:53:47.000Z</time>
      </trkpt>
      <trkpt lat="47.26861" lon="-2.30716">
        <ele>16.39999961853</ele>
        <time>2022-03-06T10:53:53.000Z</time>
      </trkpt>
      <trkpt lat="47.26846" lon="-2.30755">
        <ele>16.39999961853</ele>
        <time>2022-03-06T10:53:58.000Z</time>
      </trkpt>
      <trkpt lat="47.26842" lon="-2.30763">
        <ele>16.39999961853</ele>
        <time>2022-03-06T10:53:59.000Z</time>
      </trkpt>
      <trkpt lat="47.26834" lon="-2.30799">
        <ele>16.39999961853</ele>
        <time>2022-03-06T10:54:03.000Z</time>
      </trkpt>
      <trkpt lat="47.26832" lon="-2.30846">
        <ele>16.39999961853</ele>
        <time>2022-03-06T10:54:08.000Z</time>
      </trkpt>
      <trkpt lat="47.26838" lon="-2.30911">
        <ele>16.39999961853</ele>
        <time>2022-03-06T10:54:15.000Z</time>
      </trkpt>
      <trkpt lat="47.2685" lon="-2.3098">
        <ele>16.39999961853</ele>
        <time>2022-03-06T10:54:23.000Z</time>
      </trkpt>
      <trkpt lat="47.26853" lon="-2.31039">
        <ele>16.39999961853</ele>
        <time>2022-03-06T10:54:30.000Z</time>
      </trkpt>
      <trkpt lat="47.26856" lon="-2.31088">
        <ele>16.39999961853</ele>
        <time>2022-03-06T10:54:37.000Z</time>
      </trkpt>
      <trkpt lat="47.26856" lon="-2.31107">
        <ele>16.39999961853</ele>
        <time>2022-03-06T10:54:40.000Z</time>
      </trkpt>
      <trkpt lat="47.26855" lon="-2.31114">
        <ele>16.39999961853</ele>
        <time>2022-03-06T10:54:41.000Z</time>
      </trkpt>
      <trkpt lat="47.26853" lon="-2.31152">
        <ele>16.39999961853</ele>
        <time>2022-03-06T10:54:46.000Z</time>
      </trkpt>
      <trkpt lat="47.26853" lon="-2.31159">
        <ele>16.39999961853</ele>
        <time>2022-03-06T10:54:47.000Z</time>
      </trkpt>
      <trkpt lat="47.2685" lon="-2.31227">
        <ele>16.39999961853</ele>
        <time>2022-03-06T10:54:55.000Z</time>
      </trkpt>
      <trkpt lat="47.26848" lon="-2.31243">
        <ele>16.39999961853</ele>
        <time>2022-03-06T10:54:57.000Z</time>
      </trkpt>
      <trkpt lat="47.26846" lon="-2.31278">
        <ele>16.39999961853</ele>
        <time>2022-03-06T10:55:01.000Z</time>
      </trkpt>
      <trkpt lat="47.26835" lon="-2.31325">
        <ele>16.39999961853</ele>
        <time>2022-03-06T10:55:07.000Z</time>
      </trkpt>
      <trkpt lat="47.26827" lon="-2.31336">
        <ele>16.39999961853</ele>
        <time>2022-03-06T10:55:09.000Z</time>
      </trkpt>
      <trkpt lat="47.26822" lon="-2.31339">
        <ele>16.39999961853</ele>
        <time>2022-03-06T10:55:10.000Z</time>
      </trkpt>
      <trkpt lat="47.26807" lon="-2.31351">
        <ele>16.39999961853</ele>
        <time>2022-03-06T10:55:13.000Z</time>
      </trkpt>
      <trkpt lat="47.26798" lon="-2.31359">
        <ele>16.39999961853</ele>
        <time>2022-03-06T10:55:15.000Z</time>
      </trkpt>
      <trkpt lat="47.26792" lon="-2.31363">
        <ele>16.39999961853</ele>
        <time>2022-03-06T10:55:16.000Z</time>
      </trkpt>
      <trkpt lat="47.2677" lon="-2.31375">
        <ele>16.39999961853</ele>
        <time>2022-03-06T10:55:20.000Z</time>
      </trkpt>
      <trkpt lat="47.26725" lon="-2.31402">
        <ele>16.39999961853</ele>
        <time>2022-03-06T10:55:28.000Z</time>
      </trkpt>
      <trkpt lat="47.26714" lon="-2.31411">
        <ele>16</ele>
        <time>2022-03-06T10:55:30.000Z</time>
      </trkpt>
      <trkpt lat="47.26707" lon="-2.31414">
        <ele>15.60000038147</ele>
        <time>2022-03-06T10:55:31.000Z</time>
      </trkpt>
      <trkpt lat="47.26701" lon="-2.31417">
        <ele>14.800000190735</ele>
        <time>2022-03-06T10:55:32.000Z</time>
      </trkpt>
      <trkpt lat="47.26695" lon="-2.3142">
        <ele>14.39999961853</ele>
        <time>2022-03-06T10:55:33.000Z</time>
      </trkpt>
      <trkpt lat="47.26659" lon="-2.31439">
        <ele>14</ele>
        <time>2022-03-06T10:55:39.000Z</time>
      </trkpt>
      <trkpt lat="47.26655" lon="-2.31443">
        <ele>13.39999961853</ele>
        <time>2022-03-06T10:55:40.000Z</time>
      </trkpt>
      <trkpt lat="47.2665" lon="-2.31449">
        <ele>13</ele>
        <time>2022-03-06T10:55:41.000Z</time>
      </trkpt>
      <trkpt lat="47.26645" lon="-2.31454">
        <ele>12.60000038147</ele>
        <time>2022-03-06T10:55:42.000Z</time>
      </trkpt>
      <trkpt lat="47.26639" lon="-2.31459">
        <ele>12.199999809265</ele>
        <time>2022-03-06T10:55:43.000Z</time>
      </trkpt>
      <trkpt lat="47.26633" lon="-2.31464">
        <ele>12.199999809265</ele>
        <time>2022-03-06T10:55:44.000Z</time>
      </trkpt>
      <trkpt lat="47.26617" lon="-2.3148">
        <ele>12.199999809265</ele>
        <time>2022-03-06T10:55:47.000Z</time>
      </trkpt>
      <trkpt lat="47.26614" lon="-2.31486">
        <ele>11.800000190735</ele>
        <time>2022-03-06T10:55:48.000Z</time>
      </trkpt>
      <trkpt lat="47.26613" lon="-2.31493">
        <ele>11.39999961853</ele>
        <time>2022-03-06T10:55:49.000Z</time>
      </trkpt>
      <trkpt lat="47.26614" lon="-2.31499">
        <ele>11</ele>
        <time>2022-03-06T10:55:50.000Z</time>
      </trkpt>
      <trkpt lat="47.26616" lon="-2.31506">
        <ele>10.60000038147</ele>
        <time>2022-03-06T10:55:51.000Z</time>
      </trkpt>
      <trkpt lat="47.26618" lon="-2.31513">
        <ele>10.199999809265</ele>
        <time>2022-03-06T10:55:52.000Z</time>
      </trkpt>
      <trkpt lat="47.26621" lon="-2.3152">
        <ele>10.199999809265</ele>
        <time>2022-03-06T10:55:53.000Z</time>
      </trkpt>
      <trkpt lat="47.26632" lon="-2.31548">
        <ele>10.199999809265</ele>
        <time>2022-03-06T10:55:57.000Z</time>
      </trkpt>
      <trkpt lat="47.26631" lon="-2.31555">
        <ele>10.199999809265</ele>
        <time>2022-03-06T10:55:58.000Z</time>
      </trkpt>
      <trkpt lat="47.26625" lon="-2.31567">
        <ele>9.6000003814697</ele>
        <time>2022-03-06T10:56:00.000Z</time>
      </trkpt>
      <trkpt lat="47.2662" lon="-2.3157">
        <ele>9.1999998092651</ele>
        <time>2022-03-06T10:56:01.000Z</time>
      </trkpt>
      <trkpt lat="47.26614" lon="-2.31574">
        <ele>8.8000001907349</ele>
        <time>2022-03-06T10:56:02.000Z</time>
      </trkpt>
      <trkpt lat="47.26608" lon="-2.31577">
        <ele>8.3999996185303</ele>
        <time>2022-03-06T10:56:03.000Z</time>
      </trkpt>
      <trkpt lat="47.26602" lon="-2.31581">
        <ele>8</ele>
        <time>2022-03-06T10:56:04.000Z</time>
      </trkpt>
      <trkpt lat="47.26595" lon="-2.31585">
        <ele>7.5999999046326</ele>
        <time>2022-03-06T10:56:05.000Z</time>
      </trkpt>
      <trkpt lat="47.26588" lon="-2.3159">
        <ele>7.1999998092651</ele>
        <time>2022-03-06T10:56:06.000Z</time>
      </trkpt>
      <trkpt lat="47.26581" lon="-2.31595">
        <ele>6.8000001907349</ele>
        <time>2022-03-06T10:56:07.000Z</time>
      </trkpt>
      <trkpt lat="47.26574" lon="-2.316">
        <ele>6.4000000953674</ele>
        <time>2022-03-06T10:56:08.000Z</time>
      </trkpt>
      <trkpt lat="47.26567" lon="-2.31604">
        <ele>5.8000001907349</ele>
        <time>2022-03-06T10:56:09.000Z</time>
      </trkpt>
      <trkpt lat="47.2656" lon="-2.31609">
        <ele>5.4000000953674</ele>
        <time>2022-03-06T10:56:10.000Z</time>
      </trkpt>
      <trkpt lat="47.26553" lon="-2.31614">
        <ele>4.8000001907349</ele>
        <time>2022-03-06T10:56:11.000Z</time>
      </trkpt>
      <trkpt lat="47.26546" lon="-2.31619">
        <ele>4.1999998092651</ele>
        <time>2022-03-06T10:56:12.000Z</time>
      </trkpt>
      <trkpt lat="47.26539" lon="-2.31624">
        <ele>3.7999999523163</ele>
        <time>2022-03-06T10:56:13.000Z</time>
      </trkpt>
      <trkpt lat="47.26531" lon="-2.31629">
        <ele>3.2000000476837</ele>
        <time>2022-03-06T10:56:14.000Z</time>
      </trkpt>
      <trkpt lat="47.26523" lon="-2.31633">
        <ele>2.5999999046326</ele>
        <time>2022-03-06T10:56:15.000Z</time>
      </trkpt>
      <trkpt lat="47.26515" lon="-2.31637">
        <ele>2.2000000476837</ele>
        <time>2022-03-06T10:56:16.000Z</time>
      </trkpt>
      <trkpt lat="47.26507" lon="-2.3164">
        <ele>1.6000000238419</ele>
        <time>2022-03-06T10:56:17.000Z</time>
      </trkpt>
      <trkpt lat="47.26498" lon="-2.31643">
        <ele>1.2000000476837</ele>
        <time>2022-03-06T10:56:18.000Z</time>
      </trkpt>
      <trkpt lat="47.2649" lon="-2.31645">
        <ele>0.80000001192093</ele>
        <time>2022-03-06T10:56:19.000Z</time>
      </trkpt>
      <trkpt lat="47.26481" lon="-2.31647">
        <ele>0.40000000596046</ele>
        <time>2022-03-06T10:56:20.000Z</time>
      </trkpt>
      <trkpt lat="47.26472" lon="-2.31649">
        <ele>-0.60000002384186</ele>
        <time>2022-03-06T10:56:21.000Z</time>
      </trkpt>
      <trkpt lat="47.26463" lon="-2.31651">
        <ele>-1</ele>
        <time>2022-03-06T10:56:22.000Z</time>
      </trkpt>
      <trkpt lat="47.26455" lon="-2.31653">
        <ele>-1.6000000238419</ele>
        <time>2022-03-06T10:56:23.000Z</time>
      </trkpt>
      <trkpt lat="47.26446" lon="-2.31654">
        <ele>-2</ele>
        <time>2022-03-06T10:56:24.000Z</time>
      </trkpt>
      <trkpt lat="47.26438" lon="-2.31656">
        <ele>-2.4000000953674</ele>
        <time>2022-03-06T10:56:25.000Z</time>
      </trkpt>
      <trkpt lat="47.2643" lon="-2.31657">
        <ele>-3</ele>
        <time>2022-03-06T10:56:26.000Z</time>
      </trkpt>
      <trkpt lat="47.26423" lon="-2.31658">
        <ele>-3</ele>
        <time>2022-03-06T10:56:27.000Z</time>
      </trkpt>
      <trkpt lat="47.26416" lon="-2.31659">
        <ele>-3.4000000953674</ele>
        <time>2022-03-06T10:56:28.000Z</time>
      </trkpt>
      <trkpt lat="47.26409" lon="-2.3166">
        <ele>-3.7999999523163</ele>
        <time>2022-03-06T10:56:29.000Z</time>
      </trkpt>
      <trkpt lat="47.26402" lon="-2.31663">
        <ele>-4.1999998092651</ele>
        <time>2022-03-06T10:56:30.000Z</time>
      </trkpt>
      <trkpt lat="47.26396" lon="-2.31666">
        <ele>-4.5999999046326</ele>
        <time>2022-03-06T10:56:31.000Z</time>
      </trkpt>
      <trkpt lat="47.2639" lon="-2.31669">
        <ele>-5</ele>
        <time>2022-03-06T10:56:32.000Z</time>
      </trkpt>
      <trkpt lat="47.2635" lon="-2.31693">
        <ele>-5.5999999046326</ele>
        <time>2022-03-06T10:56:38.000Z</time>
      </trkpt>
      <trkpt lat="47.26344" lon="-2.31696">
        <ele>-6</ele>
        <time>2022-03-06T10:56:39.000Z</time>
      </trkpt>
      <trkpt lat="47.26337" lon="-2.31699">
        <ele>-6.4000000953674</ele>
        <time>2022-03-06T10:56:40.000Z</time>
      </trkpt>
      <trkpt lat="47.2633" lon="-2.31702">
        <ele>-6.8000001907349</ele>
        <time>2022-03-06T10:56:41.000Z</time>
      </trkpt>
      <trkpt lat="47.26323" lon="-2.31706">
        <ele>-7.4000000953674</ele>
        <time>2022-03-06T10:56:42.000Z</time>
      </trkpt>
      <trkpt lat="47.26317" lon="-2.31709">
        <ele>-7.4000000953674</ele>
        <time>2022-03-06T10:56:43.000Z</time>
      </trkpt>
      <trkpt lat="47.26306" lon="-2.31716">
        <ele>-7.8000001907349</ele>
        <time>2022-03-06T10:56:45.000Z</time>
      </trkpt>
      <trkpt lat="47.26302" lon="-2.3172">
        <ele>-8.6000003814697</ele>
        <time>2022-03-06T10:56:46.000Z</time>
      </trkpt>
      <trkpt lat="47.26299" lon="-2.31727">
        <ele>-9</ele>
        <time>2022-03-06T10:56:47.000Z</time>
      </trkpt>
      <trkpt lat="47.26298" lon="-2.31734">
        <ele>-9.3999996185303</ele>
        <time>2022-03-06T10:56:48.000Z</time>
      </trkpt>
      <trkpt lat="47.26297" lon="-2.31747">
        <ele>-9.3999996185303</ele>
        <time>2022-03-06T10:56:50.000Z</time>
      </trkpt>
      <trkpt lat="47.26299" lon="-2.31759">
        <ele>-9.3999996185303</ele>
        <time>2022-03-06T10:56:52.000Z</time>
      </trkpt>
      <trkpt lat="47.26303" lon="-2.31781">
        <ele>-9.3999996185303</ele>
        <time>2022-03-06T10:56:55.000Z</time>
      </trkpt>
      <trkpt lat="47.26303" lon="-2.31788">
        <ele>-9.3999996185303</ele>
        <time>2022-03-06T10:56:56.000Z</time>
      </trkpt>
      <trkpt lat="47.26303" lon="-2.31804">
        <ele>-9.3999996185303</ele>
        <time>2022-03-06T10:56:58.000Z</time>
      </trkpt>
      <trkpt lat="47.26302" lon="-2.3182">
        <ele>-9.3999996185303</ele>
        <time>2022-03-06T10:57:00.000Z</time>
      </trkpt>
      <trkpt lat="47.263" lon="-2.31836">
        <ele>-9.3999996185303</ele>
        <time>2022-03-06T10:57:02.000Z</time>
      </trkpt>
      <trkpt lat="47.26299" lon="-2.31859">
        <ele>-9.3999996185303</ele>
        <time>2022-03-06T10:57:05.000Z</time>
      </trkpt>
      <trkpt lat="47.26297" lon="-2.31885">
        <ele>-9.3999996185303</ele>
        <time>2022-03-06T10:57:09.000Z</time>
      </trkpt>
      <trkpt lat="47.26295" lon="-2.31888">
        <ele>-9.3999996185303</ele>
        <time>2022-03-06T10:57:10.000Z</time>
      </trkpt>
      <trkpt lat="47.2629" lon="-2.31895">
        <ele>-10.199999809265</ele>
        <time>2022-03-06T10:57:12.000Z</time>
      </trkpt>
      <trkpt lat="47.26287" lon="-2.31899">
        <ele>-10.60000038147</ele>
        <time>2022-03-06T10:57:13.000Z</time>
      </trkpt>
      <trkpt lat="47.26283" lon="-2.31904">
        <ele>-11</ele>
        <time>2022-03-06T10:57:14.000Z</time>
      </trkpt>
      <trkpt lat="47.2628" lon="-2.3191">
        <ele>-11.39999961853</ele>
        <time>2022-03-06T10:57:15.000Z</time>
      </trkpt>
      <trkpt lat="47.26259" lon="-2.31942">
        <ele>-11.39999961853</ele>
        <time>2022-03-06T10:57:21.000Z</time>
      </trkpt>
      <trkpt lat="47.26253" lon="-2.31953">
        <ele>-11.39999961853</ele>
        <time>2022-03-06T10:57:23.000Z</time>
      </trkpt>
      <trkpt lat="47.26246" lon="-2.31963">
        <ele>-11.39999961853</ele>
        <time>2022-03-06T10:57:25.000Z</time>
      </trkpt>
      <trkpt lat="47.26243" lon="-2.31967">
        <ele>-11.39999961853</ele>
        <time>2022-03-06T10:57:26.000Z</time>
      </trkpt>
      <trkpt lat="47.26231" lon="-2.31974">
        <ele>-11.39999961853</ele>
        <time>2022-03-06T10:57:29.000Z</time>
      </trkpt>
      <trkpt lat="47.26229" lon="-2.31977">
        <ele>-11.39999961853</ele>
        <time>2022-03-06T10:57:30.000Z</time>
      </trkpt>
      <trkpt lat="47.26216" lon="-2.3199">
        <ele>-11.39999961853</ele>
        <time>2022-03-06T10:57:34.000Z</time>
      </trkpt>
      <trkpt lat="47.26206" lon="-2.31999">
        <ele>-11.39999961853</ele>
        <time>2022-03-06T10:57:38.000Z</time>
      </trkpt>
      <trkpt lat="47.26204" lon="-2.32011">
        <ele>-11.39999961853</ele>
        <time>2022-03-06T10:57:42.000Z</time>
      </trkpt>
      <trkpt lat="47.26203" lon="-2.32013">
        <ele>-11.39999961853</ele>
        <time>2022-03-06T10:57:43.000Z</time>
      </trkpt>
      <trkpt lat="47.26195" lon="-2.32017">
        <ele>-11.39999961853</ele>
        <time>2022-03-06T10:57:47.000Z</time>
      </trkpt>
      <trkpt lat="47.26181" lon="-2.32021">
        <ele>-11.39999961853</ele>
        <time>2022-03-06T10:57:51.000Z</time>
      </trkpt>
      <trkpt lat="47.26177" lon="-2.32023">
        <ele>-11.39999961853</ele>
        <time>2022-03-06T10:57:52.000Z</time>
      </trkpt>
      <trkpt lat="47.26164" lon="-2.32035">
        <ele>-11.39999961853</ele>
        <time>2022-03-06T10:57:55.000Z</time>
      </trkpt>
      <trkpt lat="47.26153" lon="-2.32062">
        <ele>-11.39999961853</ele>
        <time>2022-03-06T10:57:59.000Z</time>
      </trkpt>
      <trkpt lat="47.26151" lon="-2.32069">
        <ele>-11.39999961853</ele>
        <time>2022-03-06T10:58:00.000Z</time>
      </trkpt>
      <trkpt lat="47.26146" lon="-2.32083">
        <ele>-11.39999961853</ele>
        <time>2022-03-06T10:58:02.000Z</time>
      </trkpt>
      <trkpt lat="47.26139" lon="-2.32104">
        <ele>-11.39999961853</ele>
        <time>2022-03-06T10:58:05.000Z</time>
      </trkpt>
      <trkpt lat="47.26124" lon="-2.32155">
        <ele>-11.39999961853</ele>
        <time>2022-03-06T10:58:12.000Z</time>
      </trkpt>
      <trkpt lat="47.26103" lon="-2.32203">
        <ele>-11.39999961853</ele>
        <time>2022-03-06T10:58:19.000Z</time>
      </trkpt>
      <trkpt lat="47.261" lon="-2.3221">
        <ele>-11.39999961853</ele>
        <time>2022-03-06T10:58:20.000Z</time>
      </trkpt>
      <trkpt lat="47.26084" lon="-2.32234">
        <ele>-11.39999961853</ele>
        <time>2022-03-06T10:58:24.000Z</time>
      </trkpt>
      <trkpt lat="47.26079" lon="-2.3224">
        <ele>-11.39999961853</ele>
        <time>2022-03-06T10:58:25.000Z</time>
      </trkpt>
      <trkpt lat="47.26054" lon="-2.32266">
        <ele>-11.39999961853</ele>
        <time>2022-03-06T10:58:30.000Z</time>
      </trkpt>
      <trkpt lat="47.26016" lon="-2.32311">
        <ele>-11.39999961853</ele>
        <time>2022-03-06T10:58:38.000Z</time>
      </trkpt>
      <trkpt lat="47.25983" lon="-2.32353">
        <ele>-11.39999961853</ele>
        <time>2022-03-06T10:58:45.000Z</time>
      </trkpt>
      <trkpt lat="47.25938" lon="-2.3241">
        <ele>-11.39999961853</ele>
        <time>2022-03-06T10:58:55.000Z</time>
      </trkpt>
      <trkpt lat="47.25903" lon="-2.32453">
        <ele>-11.39999961853</ele>
        <time>2022-03-06T10:59:03.000Z</time>
      </trkpt>
      <trkpt lat="47.25892" lon="-2.32467">
        <ele>-11.39999961853</ele>
        <time>2022-03-06T10:59:06.000Z</time>
      </trkpt>
      <trkpt lat="47.25883" lon="-2.32473">
        <ele>-11.39999961853</ele>
        <time>2022-03-06T10:59:08.000Z</time>
      </trkpt>
      <trkpt lat="47.25873" lon="-2.32475">
        <ele>-11.39999961853</ele>
        <time>2022-03-06T10:59:10.000Z</time>
      </trkpt>
      <trkpt lat="47.25857" lon="-2.32477">
        <ele>-11.39999961853</ele>
        <time>2022-03-06T10:59:13.000Z</time>
      </trkpt>
      <trkpt lat="47.25851" lon="-2.32477">
        <ele>-11.39999961853</ele>
        <time>2022-03-06T10:59:14.000Z</time>
      </trkpt>
      <trkpt lat="47.25834" lon="-2.32472">
        <ele>-11.39999961853</ele>
        <time>2022-03-06T10:59:17.000Z</time>
      </trkpt>
      <trkpt lat="47.25823" lon="-2.32467">
        <ele>-11.39999961853</ele>
        <time>2022-03-06T10:59:19.000Z</time>
      </trkpt>
      <trkpt lat="47.25801" lon="-2.32457">
        <ele>-11.39999961853</ele>
        <time>2022-03-06T10:59:24.000Z</time>
      </trkpt>
      <trkpt lat="47.2579" lon="-2.3246">
        <ele>-11.39999961853</ele>
        <time>2022-03-06T10:59:28.000Z</time>
      </trkpt>
      <trkpt lat="47.25783" lon="-2.32458">
        <ele>-11.39999961853</ele>
        <time>2022-03-06T10:59:30.000Z</time>
      </trkpt>
      <trkpt lat="47.25777" lon="-2.3245">
        <ele>-11.39999961853</ele>
        <time>2022-03-06T10:59:32.000Z</time>
      </trkpt>
      <trkpt lat="47.25768" lon="-2.32434">
        <ele>-11.39999961853</ele>
        <time>2022-03-06T10:59:35.000Z</time>
      </trkpt>
      <trkpt lat="47.25759" lon="-2.32428">
        <ele>-11.39999961853</ele>
        <time>2022-03-06T10:59:37.000Z</time>
      </trkpt>
      <trkpt lat="47.25748" lon="-2.32426">
        <ele>-11.39999961853</ele>
        <time>2022-03-06T10:59:39.000Z</time>
      </trkpt>
      <trkpt lat="47.2573" lon="-2.32425">
        <ele>-11.39999961853</ele>
        <time>2022-03-06T10:59:42.000Z</time>
      </trkpt>
      <trkpt lat="47.25688" lon="-2.32422">
        <ele>-11.39999961853</ele>
        <time>2022-03-06T10:59:49.000Z</time>
      </trkpt>
      <trkpt lat="47.25667" lon="-2.3242">
        <ele>-11.39999961853</ele>
        <time>2022-03-06T10:59:53.000Z</time>
      </trkpt>
      <trkpt lat="47.25663" lon="-2.32423">
        <ele>-11.39999961853</ele>
        <time>2022-03-06T10:59:54.000Z</time>
      </trkpt>
      <trkpt lat="47.25657" lon="-2.32439">
        <ele>-11</ele>
        <time>2022-03-06T10:59:57.000Z</time>
      </trkpt>
      <trkpt lat="47.25659" lon="-2.32447">
        <ele>-10.60000038147</ele>
        <time>2022-03-06T10:59:58.000Z</time>
      </trkpt>
      <trkpt lat="47.25661" lon="-2.32454">
        <ele>-10.199999809265</ele>
        <time>2022-03-06T10:59:59.000Z</time>
      </trkpt>
      <trkpt lat="47.25663" lon="-2.32461">
        <ele>-9.8000001907349</ele>
        <time>2022-03-06T11:00:00.000Z</time>
      </trkpt>
      <trkpt lat="47.25665" lon="-2.32468">
        <ele>-9.3999996185303</ele>
        <time>2022-03-06T11:00:01.000Z</time>
      </trkpt>
      <trkpt lat="47.25683" lon="-2.32515">
        <ele>-9.3999996185303</ele>
        <time>2022-03-06T11:00:08.000Z</time>
      </trkpt>
      <trkpt lat="47.25685" lon="-2.32522">
        <ele>-9</ele>
        <time>2022-03-06T11:00:09.000Z</time>
      </trkpt>
      <trkpt lat="47.25687" lon="-2.32529">
        <ele>-8.6000003814697</ele>
        <time>2022-03-06T11:00:10.000Z</time>
      </trkpt>
      <trkpt lat="47.25689" lon="-2.32536">
        <ele>-8.1999998092651</ele>
        <time>2022-03-06T11:00:11.000Z</time>
      </trkpt>
      <trkpt lat="47.25692" lon="-2.32543">
        <ele>-7.8000001907349</ele>
        <time>2022-03-06T11:00:12.000Z</time>
      </trkpt>
      <trkpt lat="47.25694" lon="-2.32549">
        <ele>-7.4000000953674</ele>
        <time>2022-03-06T11:00:13.000Z</time>
      </trkpt>
      <trkpt lat="47.257" lon="-2.32568">
        <ele>-7.4000000953674</ele>
        <time>2022-03-06T11:00:16.000Z</time>
      </trkpt>
      <trkpt lat="47.2571" lon="-2.32608">
        <ele>-7.4000000953674</ele>
        <time>2022-03-06T11:00:22.000Z</time>
      </trkpt>
      <trkpt lat="47.25709" lon="-2.32615">
        <ele>-7.4000000953674</ele>
        <time>2022-03-06T11:00:23.000Z</time>
      </trkpt>
      <trkpt lat="47.25706" lon="-2.3262">
        <ele>-7</ele>
        <time>2022-03-06T11:00:24.000Z</time>
      </trkpt>
      <trkpt lat="47.25703" lon="-2.32625">
        <ele>-6.5999999046326</ele>
        <time>2022-03-06T11:00:25.000Z</time>
      </trkpt>
      <trkpt lat="47.25699" lon="-2.32628">
        <ele>-6.1999998092651</ele>
        <time>2022-03-06T11:00:26.000Z</time>
      </trkpt>
      <trkpt lat="47.25694" lon="-2.3263">
        <ele>-5.8000001907349</ele>
        <time>2022-03-06T11:00:27.000Z</time>
      </trkpt>
      <trkpt lat="47.2569" lon="-2.32632">
        <ele>-5.4000000953674</ele>
        <time>2022-03-06T11:00:28.000Z</time>
      </trkpt>
      <trkpt lat="47.25667" lon="-2.32641">
        <ele>-5.4000000953674</ele>
        <time>2022-03-06T11:00:33.000Z</time>
      </trkpt>
      <trkpt lat="47.25653" lon="-2.32646">
        <ele>-5.4000000953674</ele>
        <time>2022-03-06T11:00:36.000Z</time>
      </trkpt>
      <trkpt lat="47.25644" lon="-2.32652">
        <ele>-5</ele>
        <time>2022-03-06T11:00:38.000Z</time>
      </trkpt>
      <trkpt lat="47.25639" lon="-2.32655">
        <ele>-4.5999999046326</ele>
        <time>2022-03-06T11:00:39.000Z</time>
      </trkpt>
      <trkpt lat="47.25634" lon="-2.32656">
        <ele>-4.1999998092651</ele>
        <time>2022-03-06T11:00:40.000Z</time>
      </trkpt>
      <trkpt lat="47.25629" lon="-2.32658">
        <ele>-3.7999999523163</ele>
        <time>2022-03-06T11:00:41.000Z</time>
      </trkpt>
      <trkpt lat="47.25624" lon="-2.3266">
        <ele>-3.4000000953674</ele>
        <time>2022-03-06T11:00:42.000Z</time>
      </trkpt>
      <trkpt lat="47.25611" lon="-2.32667">
        <ele>-3.4000000953674</ele>
        <time>2022-03-06T11:00:45.000Z</time>
      </trkpt>
      <trkpt lat="47.25603" lon="-2.32684">
        <ele>-3.4000000953674</ele>
        <time>2022-03-06T11:00:48.000Z</time>
      </trkpt>
      <trkpt lat="47.25603" lon="-2.32721">
        <ele>-3.4000000953674</ele>
        <time>2022-03-06T11:00:53.000Z</time>
      </trkpt>
      <trkpt lat="47.25603" lon="-2.32728">
        <ele>-3.4000000953674</ele>
        <time>2022-03-06T11:00:54.000Z</time>
      </trkpt>
      <trkpt lat="47.25601" lon="-2.32781">
        <ele>-3.4000000953674</ele>
        <time>2022-03-06T11:01:01.000Z</time>
      </trkpt>
      <trkpt lat="47.256" lon="-2.32796">
        <ele>-3.4000000953674</ele>
        <time>2022-03-06T11:01:03.000Z</time>
      </trkpt>
      <trkpt lat="47.25595" lon="-2.32818">
        <ele>-3.4000000953674</ele>
        <time>2022-03-06T11:01:06.000Z</time>
      </trkpt>
      <trkpt lat="47.25593" lon="-2.32831">
        <ele>-3.4000000953674</ele>
        <time>2022-03-06T11:01:08.000Z</time>
      </trkpt>
      <trkpt lat="47.25595" lon="-2.32844">
        <ele>-3.4000000953674</ele>
        <time>2022-03-06T11:01:10.000Z</time>
      </trkpt>
      <trkpt lat="47.25601" lon="-2.32895">
        <ele>-3.4000000953674</ele>
        <time>2022-03-06T11:01:17.000Z</time>
      </trkpt>
      <trkpt lat="47.25608" lon="-2.32947">
        <ele>-3.4000000953674</ele>
        <time>2022-03-06T11:01:24.000Z</time>
      </trkpt>
      <trkpt lat="47.25617" lon="-2.32995">
        <ele>-3.4000000953674</ele>
        <time>2022-03-06T11:01:31.000Z</time>
      </trkpt>
      <trkpt lat="47.25622" lon="-2.33024">
        <ele>-3.4000000953674</ele>
        <time>2022-03-06T11:01:35.000Z</time>
      </trkpt>
      <trkpt lat="47.25619" lon="-2.33032">
        <ele>-3.4000000953674</ele>
        <time>2022-03-06T11:01:37.000Z</time>
      </trkpt>
      <trkpt lat="47.25611" lon="-2.33033">
        <ele>-3.4000000953674</ele>
        <time>2022-03-06T11:01:39.000Z</time>
      </trkpt>
      <trkpt lat="47.25601" lon="-2.33034">
        <ele>-3.4000000953674</ele>
        <time>2022-03-06T11:01:41.000Z</time>
      </trkpt>
      <trkpt lat="47.25566" lon="-2.33039">
        <ele>-3.4000000953674</ele>
        <time>2022-03-06T11:01:47.000Z</time>
      </trkpt>
      <trkpt lat="47.25541" lon="-2.33045">
        <ele>-3.7999999523163</ele>
        <time>2022-03-06T11:01:51.000Z</time>
      </trkpt>
      <trkpt lat="47.25535" lon="-2.33047">
        <ele>-4.1999998092651</ele>
        <time>2022-03-06T11:01:52.000Z</time>
      </trkpt>
      <trkpt lat="47.25528" lon="-2.33049">
        <ele>-4.5999999046326</ele>
        <time>2022-03-06T11:01:53.000Z</time>
      </trkpt>
      <trkpt lat="47.25522" lon="-2.33052">
        <ele>-5.1999998092651</ele>
        <time>2022-03-06T11:01:54.000Z</time>
      </trkpt>
      <trkpt lat="47.25516" lon="-2.33056">
        <ele>-5.5999999046326</ele>
        <time>2022-03-06T11:01:55.000Z</time>
      </trkpt>
      <trkpt lat="47.25501" lon="-2.33073">
        <ele>-5.5999999046326</ele>
        <time>2022-03-06T11:01:58.000Z</time>
      </trkpt>
      <trkpt lat="47.25495" lon="-2.33085">
        <ele>-5.5999999046326</ele>
        <time>2022-03-06T11:02:00.000Z</time>
      </trkpt>
      <trkpt lat="47.25491" lon="-2.3309">
        <ele>-5.5999999046326</ele>
        <time>2022-03-06T11:02:01.000Z</time>
      </trkpt>
      <trkpt lat="47.25478" lon="-2.33094">
        <ele>-5.5999999046326</ele>
        <time>2022-03-06T11:02:04.000Z</time>
      </trkpt>
      <trkpt lat="47.25469" lon="-2.33099">
        <ele>-5.5999999046326</ele>
        <time>2022-03-06T11:02:06.000Z</time>
      </trkpt>
      <trkpt lat="47.25448" lon="-2.33107">
        <ele>-5.5999999046326</ele>
        <time>2022-03-06T11:02:10.000Z</time>
      </trkpt>
      <trkpt lat="47.25414" lon="-2.33123">
        <ele>-5.5999999046326</ele>
        <time>2022-03-06T11:02:17.000Z</time>
      </trkpt>
      <trkpt lat="47.25388" lon="-2.33136">
        <ele>-5.5999999046326</ele>
        <time>2022-03-06T11:02:23.000Z</time>
      </trkpt>
      <trkpt lat="47.25379" lon="-2.3313">
        <ele>-5.5999999046326</ele>
        <time>2022-03-06T11:02:26.000Z</time>
      </trkpt>
      <trkpt lat="47.25374" lon="-2.33116">
        <ele>-5.5999999046326</ele>
        <time>2022-03-06T11:02:29.000Z</time>
      </trkpt>
      <trkpt lat="47.2537" lon="-2.33106">
        <ele>-5.5999999046326</ele>
        <time>2022-03-06T11:02:31.000Z</time>
      </trkpt>
      <trkpt lat="47.2536" lon="-2.33079">
        <ele>-5.5999999046326</ele>
        <time>2022-03-06T11:02:37.000Z</time>
      </trkpt>
      <trkpt lat="47.25358" lon="-2.33075">
        <ele>-5.5999999046326</ele>
        <time>2022-03-06T11:02:39.000Z</time>
      </trkpt>
      <trkpt lat="47.25357" lon="-2.33075">
        <ele>-5.5999999046326</ele>
        <time>2022-03-06T11:02:40.000Z</time>
      </trkpt>
      <trkpt lat="47.25356" lon="-2.33074">
        <ele>-5.5999999046326</ele>
        <time>2022-03-06T11:02:41.000Z</time>
      </trkpt>
      <trkpt lat="47.25356" lon="-2.33066">
        <ele>-5.5999999046326</ele>
        <time>2022-03-06T11:26:18.000Z</time>
      </trkpt>
      <trkpt lat="47.25354" lon="-2.33062">
        <ele>-5.5999999046326</ele>
        <time>2022-03-06T11:26:20.000Z</time>
      </trkpt>
      <trkpt lat="47.25354" lon="-2.33058">
        <ele>-5.5999999046326</ele>
        <time>2022-03-06T11:26:22.000Z</time>
      </trkpt>
      <trkpt lat="47.25353" lon="-2.33054">
        <ele>-5.5999999046326</ele>
        <time>2022-03-06T11:26:25.000Z</time>
      </trkpt>
      <trkpt lat="47.25348" lon="-2.33045">
        <ele>-5.5999999046326</ele>
        <time>2022-03-06T11:26:33.000Z</time>
      </trkpt>
      <trkpt lat="47.25344" lon="-2.3304">
        <ele>-5.5999999046326</ele>
        <time>2022-03-06T11:26:37.000Z</time>
      </trkpt>
      <trkpt lat="47.25341" lon="-2.33035">
        <ele>-5.5999999046326</ele>
        <time>2022-03-06T11:26:41.000Z</time>
      </trkpt>
      <trkpt lat="47.25341" lon="-2.33033">
        <ele>-5.5999999046326</ele>
        <time>2022-03-06T11:26:42.000Z</time>
      </trkpt>
      <trkpt lat="47.25344" lon="-2.33031">
        <ele>-5.5999999046326</ele>
        <time>2022-03-06T11:26:46.000Z</time>
      </trkpt>
      <trkpt lat="47.25348" lon="-2.33036">
        <ele>-5.5999999046326</ele>
        <time>2022-03-06T11:26:50.000Z</time>
      </trkpt>
      <trkpt lat="47.25348" lon="-2.33039">
        <ele>-5.5999999046326</ele>
        <time>2022-03-06T11:26:51.000Z</time>
      </trkpt>
      <trkpt lat="47.25352" lon="-2.33053">
        <ele>-5.5999999046326</ele>
        <time>2022-03-06T11:26:58.000Z</time>
      </trkpt>
      <trkpt lat="47.25353" lon="-2.33058">
        <ele>-5.5999999046326</ele>
        <time>2022-03-06T11:27:01.000Z</time>
      </trkpt>
      <trkpt lat="47.2535" lon="-2.33059">
        <ele>-5.5999999046326</ele>
        <time>2022-03-06T11:27:03.000Z</time>
      </trkpt>
      <trkpt lat="47.25349" lon="-2.33056">
        <ele>-5.5999999046326</ele>
        <time>2022-03-06T11:27:05.000Z</time>
      </trkpt>
      <trkpt lat="47.25349" lon="-2.33055">
        <ele>-5.5999999046326</ele>
        <time>2022-03-06T11:27:07.000Z</time>
      </trkpt>
      <trkpt lat="47.25348" lon="-2.33052">
        <ele>-5.5999999046326</ele>
        <time>2022-03-06T11:28:44.000Z</time>
      </trkpt>
      <trkpt lat="47.25346" lon="-2.33045">
        <ele>-5.5999999046326</ele>
        <time>2022-03-06T11:28:47.000Z</time>
      </trkpt>
      <trkpt lat="47.25337" lon="-2.33024">
        <ele>-5.5999999046326</ele>
        <time>2022-03-06T11:28:51.000Z</time>
      </trkpt>
      <trkpt lat="47.25335" lon="-2.33018">
        <ele>-5.5999999046326</ele>
        <time>2022-03-06T11:28:52.000Z</time>
      </trkpt>
      <trkpt lat="47.25323" lon="-2.32986">
        <ele>-5.5999999046326</ele>
        <time>2022-03-06T11:28:57.000Z</time>
      </trkpt>
      <trkpt lat="47.25305" lon="-2.3294">
        <ele>-5.1999998092651</ele>
        <time>2022-03-06T11:29:05.000Z</time>
      </trkpt>
      <trkpt lat="47.25304" lon="-2.32934">
        <ele>-4.8000001907349</ele>
        <time>2022-03-06T11:29:06.000Z</time>
      </trkpt>
      <trkpt lat="47.25303" lon="-2.32928">
        <ele>-4.1999998092651</ele>
        <time>2022-03-06T11:29:07.000Z</time>
      </trkpt>
      <trkpt lat="47.25305" lon="-2.32922">
        <ele>-3.7999999523163</ele>
        <time>2022-03-06T11:29:08.000Z</time>
      </trkpt>
      <trkpt lat="47.25307" lon="-2.32916">
        <ele>-3.4000000953674</ele>
        <time>2022-03-06T11:29:09.000Z</time>
      </trkpt>
      <trkpt lat="47.25323" lon="-2.32901">
        <ele>-3.4000000953674</ele>
        <time>2022-03-06T11:29:13.000Z</time>
      </trkpt>
      <trkpt lat="47.25327" lon="-2.32898">
        <ele>-3.4000000953674</ele>
        <time>2022-03-06T11:29:14.000Z</time>
      </trkpt>
      <trkpt lat="47.25362" lon="-2.32862">
        <ele>-3.4000000953674</ele>
        <time>2022-03-06T11:29:23.000Z</time>
      </trkpt>
      <trkpt lat="47.25389" lon="-2.32834">
        <ele>-3.4000000953674</ele>
        <time>2022-03-06T11:29:30.000Z</time>
      </trkpt>
      <trkpt lat="47.25402" lon="-2.32817">
        <ele>-3.4000000953674</ele>
        <time>2022-03-06T11:29:34.000Z</time>
      </trkpt>
      <trkpt lat="47.25408" lon="-2.32808">
        <ele>-3.4000000953674</ele>
        <time>2022-03-06T11:29:36.000Z</time>
      </trkpt>
      <trkpt lat="47.25426" lon="-2.32778">
        <ele>-3.4000000953674</ele>
        <time>2022-03-06T11:29:43.000Z</time>
      </trkpt>
      <trkpt lat="47.25432" lon="-2.32763">
        <ele>-3.4000000953674</ele>
        <time>2022-03-06T11:29:46.000Z</time>
      </trkpt>
      <trkpt lat="47.25435" lon="-2.32759">
        <ele>-3.4000000953674</ele>
        <time>2022-03-06T11:29:47.000Z</time>
      </trkpt>
      <trkpt lat="47.25443" lon="-2.3275">
        <ele>-3</ele>
        <time>2022-03-06T11:29:49.000Z</time>
      </trkpt>
      <trkpt lat="47.25447" lon="-2.32745">
        <ele>-2.5999999046326</ele>
        <time>2022-03-06T11:29:50.000Z</time>
      </trkpt>
      <trkpt lat="47.2545" lon="-2.3274">
        <ele>-2.2000000476837</ele>
        <time>2022-03-06T11:29:51.000Z</time>
      </trkpt>
      <trkpt lat="47.25453" lon="-2.32736">
        <ele>-1.7999999523163</ele>
        <time>2022-03-06T11:29:52.000Z</time>
      </trkpt>
      <trkpt lat="47.25456" lon="-2.32731">
        <ele>-1.3999999761581</ele>
        <time>2022-03-06T11:29:53.000Z</time>
      </trkpt>
      <trkpt lat="47.25467" lon="-2.32718">
        <ele>-1.3999999761581</ele>
        <time>2022-03-06T11:29:56.000Z</time>
      </trkpt>
      <trkpt lat="47.25477" lon="-2.32704">
        <ele>-1.3999999761581</ele>
        <time>2022-03-06T11:29:59.000Z</time>
      </trkpt>
      <trkpt lat="47.2548" lon="-2.32699">
        <ele>-1.3999999761581</ele>
        <time>2022-03-06T11:30:00.000Z</time>
      </trkpt>
      <trkpt lat="47.25487" lon="-2.3268">
        <ele>-1.3999999761581</ele>
        <time>2022-03-06T11:30:03.000Z</time>
      </trkpt>
      <trkpt lat="47.25486" lon="-2.32652">
        <ele>-1.3999999761581</ele>
        <time>2022-03-06T11:30:07.000Z</time>
      </trkpt>
      <trkpt lat="47.25485" lon="-2.32645">
        <ele>-1.3999999761581</ele>
        <time>2022-03-06T11:30:08.000Z</time>
      </trkpt>
      <trkpt lat="47.25483" lon="-2.32638">
        <ele>-1.3999999761581</ele>
        <time>2022-03-06T11:30:09.000Z</time>
      </trkpt>
      <trkpt lat="47.25478" lon="-2.32617">
        <ele>-1.3999999761581</ele>
        <time>2022-03-06T11:30:12.000Z</time>
      </trkpt>
      <trkpt lat="47.25474" lon="-2.32589">
        <ele>-1.3999999761581</ele>
        <time>2022-03-06T11:30:16.000Z</time>
      </trkpt>
      <trkpt lat="47.25474" lon="-2.32576">
        <ele>-1.3999999761581</ele>
        <time>2022-03-06T11:30:18.000Z</time>
      </trkpt>
      <trkpt lat="47.25482" lon="-2.32556">
        <ele>-1.3999999761581</ele>
        <time>2022-03-06T11:30:22.000Z</time>
      </trkpt>
      <trkpt lat="47.25486" lon="-2.32552">
        <ele>-1.3999999761581</ele>
        <time>2022-03-06T11:30:23.000Z</time>
      </trkpt>
      <trkpt lat="47.25508" lon="-2.3253">
        <ele>-1.3999999761581</ele>
        <time>2022-03-06T11:30:28.000Z</time>
      </trkpt>
      <trkpt lat="47.25512" lon="-2.32525">
        <ele>-1.3999999761581</ele>
        <time>2022-03-06T11:30:29.000Z</time>
      </trkpt>
      <trkpt lat="47.25516" lon="-2.32521">
        <ele>-1.3999999761581</ele>
        <time>2022-03-06T11:30:30.000Z</time>
      </trkpt>
      <trkpt lat="47.25536" lon="-2.32505">
        <ele>-1.3999999761581</ele>
        <time>2022-03-06T11:30:34.000Z</time>
      </trkpt>
      <trkpt lat="47.25567" lon="-2.32476">
        <ele>-1.7999999523163</ele>
        <time>2022-03-06T11:30:40.000Z</time>
      </trkpt>
      <trkpt lat="47.25572" lon="-2.32471">
        <ele>-2.4000000953674</ele>
        <time>2022-03-06T11:30:41.000Z</time>
      </trkpt>
      <trkpt lat="47.25578" lon="-2.32465">
        <ele>-2.7999999523163</ele>
        <time>2022-03-06T11:30:42.000Z</time>
      </trkpt>
      <trkpt lat="47.25583" lon="-2.32459">
        <ele>-3.2000000476837</ele>
        <time>2022-03-06T11:30:43.000Z</time>
      </trkpt>
      <trkpt lat="47.25588" lon="-2.32453">
        <ele>-3.7999999523163</ele>
        <time>2022-03-06T11:30:44.000Z</time>
      </trkpt>
      <trkpt lat="47.25604" lon="-2.32436">
        <ele>-3.7999999523163</ele>
        <time>2022-03-06T11:30:47.000Z</time>
      </trkpt>
      <trkpt lat="47.25609" lon="-2.32431">
        <ele>-4.1999998092651</ele>
        <time>2022-03-06T11:30:48.000Z</time>
      </trkpt>
      <trkpt lat="47.25614" lon="-2.32426">
        <ele>-4.5999999046326</ele>
        <time>2022-03-06T11:30:49.000Z</time>
      </trkpt>
      <trkpt lat="47.25619" lon="-2.32421">
        <ele>-5</ele>
        <time>2022-03-06T11:30:50.000Z</time>
      </trkpt>
      <trkpt lat="47.25624" lon="-2.32416">
        <ele>-5.4000000953674</ele>
        <time>2022-03-06T11:30:51.000Z</time>
      </trkpt>
      <trkpt lat="47.25629" lon="-2.32411">
        <ele>-5.8000001907349</ele>
        <time>2022-03-06T11:30:52.000Z</time>
      </trkpt>
      <trkpt lat="47.2564" lon="-2.32403">
        <ele>-5.8000001907349</ele>
        <time>2022-03-06T11:30:54.000Z</time>
      </trkpt>
      <trkpt lat="47.25645" lon="-2.324">
        <ele>-5.8000001907349</ele>
        <time>2022-03-06T11:30:55.000Z</time>
      </trkpt>
      <trkpt lat="47.25655" lon="-2.324">
        <ele>-5.8000001907349</ele>
        <time>2022-03-06T11:30:57.000Z</time>
      </trkpt>
      <trkpt lat="47.25669" lon="-2.3241">
        <ele>-5.8000001907349</ele>
        <time>2022-03-06T11:31:00.000Z</time>
      </trkpt>
      <trkpt lat="47.25674" lon="-2.32414">
        <ele>-6.1999998092651</ele>
        <time>2022-03-06T11:31:01.000Z</time>
      </trkpt>
      <trkpt lat="47.25679" lon="-2.32417">
        <ele>-6.5999999046326</ele>
        <time>2022-03-06T11:31:02.000Z</time>
      </trkpt>
      <trkpt lat="47.25685" lon="-2.32419">
        <ele>-7</ele>
        <time>2022-03-06T11:31:03.000Z</time>
      </trkpt>
      <trkpt lat="47.25691" lon="-2.3242">
        <ele>-7.4000000953674</ele>
        <time>2022-03-06T11:31:04.000Z</time>
      </trkpt>
      <trkpt lat="47.25697" lon="-2.32421">
        <ele>-7.8000001907349</ele>
        <time>2022-03-06T11:31:05.000Z</time>
      </trkpt>
      <trkpt lat="47.25729" lon="-2.32424">
        <ele>-7.8000001907349</ele>
        <time>2022-03-06T11:31:10.000Z</time>
      </trkpt>
      <trkpt lat="47.25753" lon="-2.32422">
        <ele>-7.8000001907349</ele>
        <time>2022-03-06T11:31:14.000Z</time>
      </trkpt>
      <trkpt lat="47.25763" lon="-2.32419">
        <ele>-7.8000001907349</ele>
        <time>2022-03-06T11:31:16.000Z</time>
      </trkpt>
      <trkpt lat="47.25767" lon="-2.32417">
        <ele>-7.8000001907349</ele>
        <time>2022-03-06T11:31:17.000Z</time>
      </trkpt>
      <trkpt lat="47.25781" lon="-2.32416">
        <ele>-7.8000001907349</ele>
        <time>2022-03-06T11:31:20.000Z</time>
      </trkpt>
      <trkpt lat="47.25791" lon="-2.32433">
        <ele>-7.8000001907349</ele>
        <time>2022-03-06T11:31:23.000Z</time>
      </trkpt>
      <trkpt lat="47.25799" lon="-2.32447">
        <ele>-7.8000001907349</ele>
        <time>2022-03-06T11:31:25.000Z</time>
      </trkpt>
      <trkpt lat="47.2581" lon="-2.32456">
        <ele>-7.8000001907349</ele>
        <time>2022-03-06T11:31:27.000Z</time>
      </trkpt>
      <trkpt lat="47.25839" lon="-2.32471">
        <ele>-7.8000001907349</ele>
        <time>2022-03-06T11:31:32.000Z</time>
      </trkpt>
      <trkpt lat="47.25844" lon="-2.32473">
        <ele>-7.8000001907349</ele>
        <time>2022-03-06T11:31:33.000Z</time>
      </trkpt>
      <trkpt lat="47.25861" lon="-2.32474">
        <ele>-7.8000001907349</ele>
        <time>2022-03-06T11:31:36.000Z</time>
      </trkpt>
      <trkpt lat="47.25887" lon="-2.32468">
        <ele>-7.8000001907349</ele>
        <time>2022-03-06T11:31:41.000Z</time>
      </trkpt>
      <trkpt lat="47.25892" lon="-2.32464">
        <ele>-7.8000001907349</ele>
        <time>2022-03-06T11:31:42.000Z</time>
      </trkpt>
      <trkpt lat="47.25919" lon="-2.32432">
        <ele>-7.8000001907349</ele>
        <time>2022-03-06T11:31:48.000Z</time>
      </trkpt>
      <trkpt lat="47.25953" lon="-2.32384">
        <ele>-7.8000001907349</ele>
        <time>2022-03-06T11:31:56.000Z</time>
      </trkpt>
      <trkpt lat="47.2597" lon="-2.32362">
        <ele>-7.8000001907349</ele>
        <time>2022-03-06T11:32:00.000Z</time>
      </trkpt>
      <trkpt lat="47.25983" lon="-2.32346">
        <ele>-7.8000001907349</ele>
        <time>2022-03-06T11:32:03.000Z</time>
      </trkpt>
      <trkpt lat="47.26011" lon="-2.32311">
        <ele>-7.8000001907349</ele>
        <time>2022-03-06T11:32:10.000Z</time>
      </trkpt>
      <trkpt lat="47.2604" lon="-2.32278">
        <ele>-7.8000001907349</ele>
        <time>2022-03-06T11:32:17.000Z</time>
      </trkpt>
      <trkpt lat="47.26069" lon="-2.32243">
        <ele>-7.8000001907349</ele>
        <time>2022-03-06T11:32:24.000Z</time>
      </trkpt>
      <trkpt lat="47.26084" lon="-2.32224">
        <ele>-8.1999998092651</ele>
        <time>2022-03-06T11:32:28.000Z</time>
      </trkpt>
      <trkpt lat="47.26088" lon="-2.32218">
        <ele>-8.6000003814697</ele>
        <time>2022-03-06T11:32:29.000Z</time>
      </trkpt>
      <trkpt lat="47.26092" lon="-2.32212">
        <ele>-9</ele>
        <time>2022-03-06T11:32:30.000Z</time>
      </trkpt>
      <trkpt lat="47.26095" lon="-2.32206">
        <ele>-9.3999996185303</ele>
        <time>2022-03-06T11:32:31.000Z</time>
      </trkpt>
      <trkpt lat="47.26098" lon="-2.322">
        <ele>-10</ele>
        <time>2022-03-06T11:32:32.000Z</time>
      </trkpt>
      <trkpt lat="47.26101" lon="-2.32194">
        <ele>-10</ele>
        <time>2022-03-06T11:32:33.000Z</time>
      </trkpt>
      <trkpt lat="47.26112" lon="-2.32167">
        <ele>-10</ele>
        <time>2022-03-06T11:32:37.000Z</time>
      </trkpt>
      <trkpt lat="47.2613" lon="-2.32118">
        <ele>-10</ele>
        <time>2022-03-06T11:32:44.000Z</time>
      </trkpt>
      <trkpt lat="47.26145" lon="-2.32075">
        <ele>-10</ele>
        <time>2022-03-06T11:32:50.000Z</time>
      </trkpt>
      <trkpt lat="47.26163" lon="-2.32023">
        <ele>-10</ele>
        <time>2022-03-06T11:32:58.000Z</time>
      </trkpt>
      <trkpt lat="47.26173" lon="-2.32015">
        <ele>-10</ele>
        <time>2022-03-06T11:33:01.000Z</time>
      </trkpt>
      <trkpt lat="47.26179" lon="-2.32017">
        <ele>-10</ele>
        <time>2022-03-06T11:33:03.000Z</time>
      </trkpt>
      <trkpt lat="47.26184" lon="-2.3202">
        <ele>-10</ele>
        <time>2022-03-06T11:33:05.000Z</time>
      </trkpt>
      <trkpt lat="47.2619" lon="-2.32021">
        <ele>-10</ele>
        <time>2022-03-06T11:33:08.000Z</time>
      </trkpt>
      <trkpt lat="47.26193" lon="-2.32018">
        <ele>-10</ele>
        <time>2022-03-06T11:33:10.000Z</time>
      </trkpt>
      <trkpt lat="47.26194" lon="-2.32012">
        <ele>-10</ele>
        <time>2022-03-06T11:33:13.000Z</time>
      </trkpt>
      <trkpt lat="47.26196" lon="-2.32007">
        <ele>-10</ele>
        <time>2022-03-06T11:33:15.000Z</time>
      </trkpt>
      <trkpt lat="47.26198" lon="-2.32005">
        <ele>-10</ele>
        <time>2022-03-06T11:33:16.000Z</time>
      </trkpt>
      <trkpt lat="47.26208" lon="-2.31993">
        <ele>-10</ele>
        <time>2022-03-06T11:33:21.000Z</time>
      </trkpt>
      <trkpt lat="47.2621" lon="-2.3199">
        <ele>-10</ele>
        <time>2022-03-06T11:33:22.000Z</time>
      </trkpt>
      <trkpt lat="47.26226" lon="-2.31972">
        <ele>-10</ele>
        <time>2022-03-06T11:33:27.000Z</time>
      </trkpt>
      <trkpt lat="47.26241" lon="-2.31953">
        <ele>-10</ele>
        <time>2022-03-06T11:33:33.000Z</time>
      </trkpt>
      <trkpt lat="47.26253" lon="-2.31932">
        <ele>-10</ele>
        <time>2022-03-06T11:33:38.000Z</time>
      </trkpt>
      <trkpt lat="47.2627" lon="-2.31909">
        <ele>-10</ele>
        <time>2022-03-06T11:33:44.000Z</time>
      </trkpt>
      <trkpt lat="47.26291" lon="-2.31887">
        <ele>-10</ele>
        <time>2022-03-06T11:33:50.000Z</time>
      </trkpt>
      <trkpt lat="47.26293" lon="-2.31882">
        <ele>-10</ele>
        <time>2022-03-06T11:33:51.000Z</time>
      </trkpt>
      <trkpt lat="47.26296" lon="-2.31865">
        <ele>-10</ele>
        <time>2022-03-06T11:33:54.000Z</time>
      </trkpt>
      <trkpt lat="47.26302" lon="-2.31832">
        <ele>-10</ele>
        <time>2022-03-06T11:33:59.000Z</time>
      </trkpt>
      <trkpt lat="47.26304" lon="-2.31802">
        <ele>-10</ele>
        <time>2022-03-06T11:34:04.000Z</time>
      </trkpt>
      <trkpt lat="47.26303" lon="-2.31758">
        <ele>-10</ele>
        <time>2022-03-06T11:34:11.000Z</time>
      </trkpt>
      <trkpt lat="47.26301" lon="-2.31727">
        <ele>-10</ele>
        <time>2022-03-06T11:34:16.000Z</time>
      </trkpt>
      <trkpt lat="47.26308" lon="-2.31714">
        <ele>-10</ele>
        <time>2022-03-06T11:34:19.000Z</time>
      </trkpt>
      <trkpt lat="47.26315" lon="-2.3171">
        <ele>-10</ele>
        <time>2022-03-06T11:34:21.000Z</time>
      </trkpt>
      <trkpt lat="47.26328" lon="-2.31702">
        <ele>-9.3999996185303</ele>
        <time>2022-03-06T11:34:25.000Z</time>
      </trkpt>
      <trkpt lat="47.26331" lon="-2.31697">
        <ele>-9</ele>
        <time>2022-03-06T11:34:26.000Z</time>
      </trkpt>
      <trkpt lat="47.26333" lon="-2.31691">
        <ele>-8.6000003814697</ele>
        <time>2022-03-06T11:34:27.000Z</time>
      </trkpt>
      <trkpt lat="47.26336" lon="-2.31689">
        <ele>-8.1999998092651</ele>
        <time>2022-03-06T11:34:28.000Z</time>
      </trkpt>
      <trkpt lat="47.26339" lon="-2.31687">
        <ele>-7.5999999046326</ele>
        <time>2022-03-06T11:34:29.000Z</time>
      </trkpt>
      <trkpt lat="47.26359" lon="-2.31675">
        <ele>-7.1999998092651</ele>
        <time>2022-03-06T11:34:35.000Z</time>
      </trkpt>
      <trkpt lat="47.26362" lon="-2.31673">
        <ele>-6.8000001907349</ele>
        <time>2022-03-06T11:34:36.000Z</time>
      </trkpt>
      <trkpt lat="47.26366" lon="-2.31672">
        <ele>-6.4000000953674</ele>
        <time>2022-03-06T11:34:37.000Z</time>
      </trkpt>
      <trkpt lat="47.26369" lon="-2.31671">
        <ele>-6</ele>
        <time>2022-03-06T11:34:38.000Z</time>
      </trkpt>
      <trkpt lat="47.26373" lon="-2.3167">
        <ele>-5.5999999046326</ele>
        <time>2022-03-06T11:34:39.000Z</time>
      </trkpt>
      <trkpt lat="47.26376" lon="-2.31668">
        <ele>-5.5999999046326</ele>
        <time>2022-03-06T11:34:40.000Z</time>
      </trkpt>
      <trkpt lat="47.26395" lon="-2.31659">
        <ele>-5.5999999046326</ele>
        <time>2022-03-06T11:34:46.000Z</time>
      </trkpt>
      <trkpt lat="47.26406" lon="-2.31647">
        <ele>-5.5999999046326</ele>
        <time>2022-03-06T11:34:51.000Z</time>
      </trkpt>
      <trkpt lat="47.26407" lon="-2.31622">
        <ele>-5.5999999046326</ele>
        <time>2022-03-06T11:34:56.000Z</time>
      </trkpt>
      <trkpt lat="47.26407" lon="-2.31611">
        <ele>-5.1999998092651</ele>
        <time>2022-03-06T11:34:58.000Z</time>
      </trkpt>
      <trkpt lat="47.26407" lon="-2.31605">
        <ele>-4.8000001907349</ele>
        <time>2022-03-06T11:34:59.000Z</time>
      </trkpt>
      <trkpt lat="47.26408" lon="-2.316">
        <ele>-4.4000000953674</ele>
        <time>2022-03-06T11:35:00.000Z</time>
      </trkpt>
      <trkpt lat="47.26408" lon="-2.31595">
        <ele>-4</ele>
        <time>2022-03-06T11:35:01.000Z</time>
      </trkpt>
      <trkpt lat="47.26408" lon="-2.31589">
        <ele>-3.5999999046326</ele>
        <time>2022-03-06T11:35:02.000Z</time>
      </trkpt>
      <trkpt lat="47.26407" lon="-2.31564">
        <ele>-3.5999999046326</ele>
        <time>2022-03-06T11:35:07.000Z</time>
      </trkpt>
      <trkpt lat="47.26408" lon="-2.31555">
        <ele>-3.5999999046326</ele>
        <time>2022-03-06T11:35:10.000Z</time>
      </trkpt>
      <trkpt lat="47.2641" lon="-2.31554">
        <ele>-3.5999999046326</ele>
        <time>2022-03-06T11:35:11.000Z</time>
      </trkpt>
      <trkpt lat="47.26415" lon="-2.31555">
        <ele>-3.5999999046326</ele>
        <time>2022-03-06T11:35:15.000Z</time>
      </trkpt>
    </trkseg>
  </trk>
</gpx>